<?xml version="1.0" encoding="UTF-8" standalone="no" ?>
<gpx xmlns="http://www.topografix.com/GPX/1/1" xmlns:xsi="http://www.w3.org/2001/XMLSchema-instance" xsi:schemaLocation="http://www.topografix.com/GPX/1/1 http://www.topografix.com/GPX/1/1/gpx.xsd" version="1.1" creator="VisuGPX - https://www.visugpx.com">
  <metadata>
    <name>20140112-Crête du Vernois</name>
    <desc><![CDATA[Bon tour pour une reprise, temps doux et sentiers pas trop mouillés]]></desc>
  </metadata>
  <trk>
    <name><![CDATA[Path Segment 1]]></name>
    <trkseg>
      <trkpt lat="47.51794" lon="6.77467">
        <ele>425</ele>
        <time>2014-01-11T12:13:56.628Z</time>
      </trkpt>
      <trkpt lat="47.51795" lon="6.77469">
        <ele>425</ele>
        <time>2014-01-11T12:14:01.602Z</time>
      </trkpt>
      <trkpt lat="47.51795" lon="6.77469">
        <ele>429</ele>
        <time>2014-01-11T12:14:06.668Z</time>
      </trkpt>
      <trkpt lat="47.51799" lon="6.7747">
        <ele>428</ele>
        <time>2014-01-11T12:14:11.755Z</time>
      </trkpt>
      <trkpt lat="47.518" lon="6.7747">
        <ele>427</ele>
        <time>2014-01-11T12:14:16.652Z</time>
      </trkpt>
      <trkpt lat="47.51799" lon="6.7747">
        <ele>427</ele>
        <time>2014-01-11T12:14:21.626Z</time>
      </trkpt>
      <trkpt lat="47.51802" lon="6.77471">
        <ele>427</ele>
        <time>2014-01-11T12:14:26.690Z</time>
      </trkpt>
      <trkpt lat="47.51802" lon="6.77476">
        <ele>429</ele>
        <time>2014-01-11T12:14:31.623Z</time>
      </trkpt>
      <trkpt lat="47.51797" lon="6.77468">
        <ele>430</ele>
        <time>2014-01-11T12:14:36.704Z</time>
      </trkpt>
      <trkpt lat="47.51799" lon="6.77474">
        <ele>431</ele>
        <time>2014-01-11T12:14:41.634Z</time>
      </trkpt>
      <trkpt lat="47.51801" lon="6.7748">
        <ele>436</ele>
        <time>2014-01-11T12:14:46.701Z</time>
      </trkpt>
      <trkpt lat="47.51802" lon="6.77485">
        <ele>436</ele>
        <time>2014-01-11T12:14:51.622Z</time>
      </trkpt>
      <trkpt lat="47.51805" lon="6.77484">
        <ele>436</ele>
        <time>2014-01-11T12:14:56.707Z</time>
      </trkpt>
      <trkpt lat="47.51805" lon="6.77487">
        <ele>436</ele>
        <time>2014-01-11T12:15:01.623Z</time>
      </trkpt>
      <trkpt lat="47.51806" lon="6.77488">
        <ele>437</ele>
        <time>2014-01-11T12:15:06.700Z</time>
      </trkpt>
      <trkpt lat="47.51804" lon="6.77488">
        <ele>437</ele>
        <time>2014-01-11T12:15:11.622Z</time>
      </trkpt>
      <trkpt lat="47.51803" lon="6.77492">
        <ele>438</ele>
        <time>2014-01-11T12:15:16.701Z</time>
      </trkpt>
      <trkpt lat="47.51803" lon="6.77493">
        <ele>438</ele>
        <time>2014-01-11T12:15:21.634Z</time>
      </trkpt>
      <trkpt lat="47.51801" lon="6.7749">
        <ele>438</ele>
        <time>2014-01-11T12:15:26.689Z</time>
      </trkpt>
      <trkpt lat="47.518" lon="6.77491">
        <ele>436</ele>
        <time>2014-01-11T12:15:31.616Z</time>
      </trkpt>
      <trkpt lat="47.51802" lon="6.77493">
        <ele>436</ele>
        <time>2014-01-11T12:15:36.702Z</time>
      </trkpt>
      <trkpt lat="47.51804" lon="6.77494">
        <ele>438</ele>
        <time>2014-01-11T12:15:41.635Z</time>
      </trkpt>
      <trkpt lat="47.51805" lon="6.77496">
        <ele>439</ele>
        <time>2014-01-11T12:15:46.687Z</time>
      </trkpt>
      <trkpt lat="47.51805" lon="6.77496">
        <ele>438</ele>
        <time>2014-01-11T12:15:51.631Z</time>
      </trkpt>
      <trkpt lat="47.51805" lon="6.77494">
        <ele>438</ele>
        <time>2014-01-11T12:15:56.704Z</time>
      </trkpt>
      <trkpt lat="47.51808" lon="6.77487">
        <ele>439</ele>
        <time>2014-01-11T12:16:06.863Z</time>
      </trkpt>
      <trkpt lat="47.51807" lon="6.77485">
        <ele>439</ele>
        <time>2014-01-11T12:16:11.701Z</time>
      </trkpt>
      <trkpt lat="47.51806" lon="6.77489">
        <ele>438</ele>
        <time>2014-01-11T12:16:16.636Z</time>
      </trkpt>
      <trkpt lat="47.51807" lon="6.77494">
        <ele>437</ele>
        <time>2014-01-11T12:16:21.700Z</time>
      </trkpt>
      <trkpt lat="47.51807" lon="6.77496">
        <ele>438</ele>
        <time>2014-01-11T12:16:26.627Z</time>
      </trkpt>
      <trkpt lat="47.51807" lon="6.77491">
        <ele>436</ele>
        <time>2014-01-11T12:16:31.645Z</time>
      </trkpt>
      <trkpt lat="47.51807" lon="6.77491">
        <ele>435</ele>
        <time>2014-01-11T12:16:36.703Z</time>
      </trkpt>
      <trkpt lat="47.51807" lon="6.77489">
        <ele>436</ele>
        <time>2014-01-11T12:16:41.632Z</time>
      </trkpt>
      <trkpt lat="47.51803" lon="6.77486">
        <ele>435</ele>
        <time>2014-01-11T12:16:46.703Z</time>
      </trkpt>
      <trkpt lat="47.51804" lon="6.77486">
        <ele>436</ele>
        <time>2014-01-11T12:16:51.636Z</time>
      </trkpt>
      <trkpt lat="47.51807" lon="6.77485">
        <ele>436</ele>
        <time>2014-01-11T12:16:56.680Z</time>
      </trkpt>
      <trkpt lat="47.51808" lon="6.77487">
        <ele>437</ele>
        <time>2014-01-11T12:17:01.644Z</time>
      </trkpt>
      <trkpt lat="47.51809" lon="6.77489">
        <ele>438</ele>
        <time>2014-01-11T12:17:06.703Z</time>
      </trkpt>
      <trkpt lat="47.51809" lon="6.77488">
        <ele>438</ele>
        <time>2014-01-11T12:17:11.634Z</time>
      </trkpt>
      <trkpt lat="47.51807" lon="6.77488">
        <ele>438</ele>
        <time>2014-01-11T12:17:16.708Z</time>
      </trkpt>
      <trkpt lat="47.51806" lon="6.77493">
        <ele>437</ele>
        <time>2014-01-11T12:17:21.634Z</time>
      </trkpt>
      <trkpt lat="47.51799" lon="6.77491">
        <ele>439</ele>
        <time>2014-01-11T12:17:26.629Z</time>
      </trkpt>
      <trkpt lat="47.51787" lon="6.77485">
        <ele>439</ele>
        <time>2014-01-11T12:17:31.702Z</time>
      </trkpt>
      <trkpt lat="47.51777" lon="6.7748">
        <ele>440</ele>
        <time>2014-01-11T12:17:36.635Z</time>
      </trkpt>
      <trkpt lat="47.51772" lon="6.77478">
        <ele>441</ele>
        <time>2014-01-11T12:17:41.706Z</time>
      </trkpt>
      <trkpt lat="47.51755" lon="6.77478">
        <ele>441</ele>
        <time>2014-01-11T12:17:46.636Z</time>
      </trkpt>
      <trkpt lat="47.51739" lon="6.77475">
        <ele>442</ele>
        <time>2014-01-11T12:17:51.635Z</time>
      </trkpt>
      <trkpt lat="47.51729" lon="6.77495">
        <ele>443</ele>
        <time>2014-01-11T12:17:56.701Z</time>
      </trkpt>
      <trkpt lat="47.51719" lon="6.77527">
        <ele>443</ele>
        <time>2014-01-11T12:18:01.624Z</time>
      </trkpt>
      <trkpt lat="47.51708" lon="6.77549">
        <ele>443</ele>
        <time>2014-01-11T12:18:06.710Z</time>
      </trkpt>
      <trkpt lat="47.5169" lon="6.77533">
        <ele>444</ele>
        <time>2014-01-11T12:18:11.627Z</time>
      </trkpt>
      <trkpt lat="47.51669" lon="6.77506">
        <ele>443</ele>
        <time>2014-01-11T12:18:16.665Z</time>
      </trkpt>
      <trkpt lat="47.51644" lon="6.77474">
        <ele>442</ele>
        <time>2014-01-11T12:18:21.630Z</time>
      </trkpt>
      <trkpt lat="47.51619" lon="6.77444">
        <ele>439</ele>
        <time>2014-01-11T12:18:26.712Z</time>
      </trkpt>
      <trkpt lat="47.5159" lon="6.77411">
        <ele>436</ele>
        <time>2014-01-11T12:18:31.636Z</time>
      </trkpt>
      <trkpt lat="47.5156" lon="6.77374">
        <ele>433</ele>
        <time>2014-01-11T12:18:36.699Z</time>
      </trkpt>
      <trkpt lat="47.51526" lon="6.77333">
        <ele>431</ele>
        <time>2014-01-11T12:18:41.630Z</time>
      </trkpt>
      <trkpt lat="47.51496" lon="6.77287">
        <ele>428</ele>
        <time>2014-01-11T12:18:46.705Z</time>
      </trkpt>
      <trkpt lat="47.5149" lon="6.7723">
        <ele>427</ele>
        <time>2014-01-11T12:18:51.702Z</time>
      </trkpt>
      <trkpt lat="47.51374" lon="6.77248">
        <ele>425</ele>
        <time>2014-01-11T12:19:11.673Z</time>
      </trkpt>
      <trkpt lat="47.51357" lon="6.77262">
        <ele>426</ele>
        <time>2014-01-11T12:19:16.623Z</time>
      </trkpt>
      <trkpt lat="47.51342" lon="6.77274">
        <ele>427</ele>
        <time>2014-01-11T12:19:21.689Z</time>
      </trkpt>
      <trkpt lat="47.51327" lon="6.77282">
        <ele>428</ele>
        <time>2014-01-11T12:19:26.635Z</time>
      </trkpt>
      <trkpt lat="47.51312" lon="6.77278">
        <ele>428</ele>
        <time>2014-01-11T12:19:31.704Z</time>
      </trkpt>
      <trkpt lat="47.51296" lon="6.77271">
        <ele>429</ele>
        <time>2014-01-11T12:19:36.633Z</time>
      </trkpt>
      <trkpt lat="47.51278" lon="6.77261">
        <ele>429</ele>
        <time>2014-01-11T12:19:41.711Z</time>
      </trkpt>
      <trkpt lat="47.5126" lon="6.77245">
        <ele>429</ele>
        <time>2014-01-11T12:19:46.631Z</time>
      </trkpt>
      <trkpt lat="47.51244" lon="6.77217">
        <ele>430</ele>
        <time>2014-01-11T12:19:51.713Z</time>
      </trkpt>
      <trkpt lat="47.51229" lon="6.77184">
        <ele>431</ele>
        <time>2014-01-11T12:19:56.691Z</time>
      </trkpt>
      <trkpt lat="47.51213" lon="6.7715">
        <ele>433</ele>
        <time>2014-01-11T12:20:01.637Z</time>
      </trkpt>
      <trkpt lat="47.51193" lon="6.7711">
        <ele>433</ele>
        <time>2014-01-11T12:20:06.706Z</time>
      </trkpt>
      <trkpt lat="47.51169" lon="6.77069">
        <ele>433</ele>
        <time>2014-01-11T12:20:11.637Z</time>
      </trkpt>
      <trkpt lat="47.51138" lon="6.7704">
        <ele>430</ele>
        <time>2014-01-11T12:20:16.703Z</time>
      </trkpt>
      <trkpt lat="47.51111" lon="6.77015">
        <ele>428</ele>
        <time>2014-01-11T12:20:21.642Z</time>
      </trkpt>
      <trkpt lat="47.51084" lon="6.76992">
        <ele>427</ele>
        <time>2014-01-11T12:20:26.704Z</time>
      </trkpt>
      <trkpt lat="47.51057" lon="6.76969">
        <ele>426</ele>
        <time>2014-01-11T12:20:31.626Z</time>
      </trkpt>
      <trkpt lat="47.51031" lon="6.76947">
        <ele>425</ele>
        <time>2014-01-11T12:20:36.703Z</time>
      </trkpt>
      <trkpt lat="47.51008" lon="6.7693">
        <ele>426</ele>
        <time>2014-01-11T12:20:41.635Z</time>
      </trkpt>
      <trkpt lat="47.50991" lon="6.76907">
        <ele>428</ele>
        <time>2014-01-11T12:20:46.694Z</time>
      </trkpt>
      <trkpt lat="47.50974" lon="6.76894">
        <ele>429</ele>
        <time>2014-01-11T12:20:51.635Z</time>
      </trkpt>
      <trkpt lat="47.50957" lon="6.76885">
        <ele>432</ele>
        <time>2014-01-11T12:20:56.674Z</time>
      </trkpt>
      <trkpt lat="47.5094" lon="6.76868">
        <ele>433</ele>
        <time>2014-01-11T12:21:01.681Z</time>
      </trkpt>
      <trkpt lat="47.50927" lon="6.76846">
        <ele>433</ele>
        <time>2014-01-11T12:21:06.625Z</time>
      </trkpt>
      <trkpt lat="47.50916" lon="6.76822">
        <ele>434</ele>
        <time>2014-01-11T12:21:11.703Z</time>
      </trkpt>
      <trkpt lat="47.50906" lon="6.76797">
        <ele>435</ele>
        <time>2014-01-11T12:21:16.635Z</time>
      </trkpt>
      <trkpt lat="47.50896" lon="6.76772">
        <ele>436</ele>
        <time>2014-01-11T12:21:21.703Z</time>
      </trkpt>
      <trkpt lat="47.50889" lon="6.76749">
        <ele>437</ele>
        <time>2014-01-11T12:21:26.626Z</time>
      </trkpt>
      <trkpt lat="47.50883" lon="6.76726">
        <ele>437</ele>
        <time>2014-01-11T12:21:31.669Z</time>
      </trkpt>
      <trkpt lat="47.50873" lon="6.76703">
        <ele>437</ele>
        <time>2014-01-11T12:21:36.638Z</time>
      </trkpt>
      <trkpt lat="47.50865" lon="6.76682">
        <ele>437</ele>
        <time>2014-01-11T12:21:41.704Z</time>
      </trkpt>
      <trkpt lat="47.50856" lon="6.76661">
        <ele>437</ele>
        <time>2014-01-11T12:21:46.632Z</time>
      </trkpt>
      <trkpt lat="47.50847" lon="6.76643">
        <ele>438</ele>
        <time>2014-01-11T12:21:51.680Z</time>
      </trkpt>
      <trkpt lat="47.50839" lon="6.76626">
        <ele>439</ele>
        <time>2014-01-11T12:21:56.633Z</time>
      </trkpt>
      <trkpt lat="47.50833" lon="6.76608">
        <ele>441</ele>
        <time>2014-01-11T12:22:01.627Z</time>
      </trkpt>
      <trkpt lat="47.50824" lon="6.76597">
        <ele>440</ele>
        <time>2014-01-11T12:22:06.680Z</time>
      </trkpt>
      <trkpt lat="47.50814" lon="6.76592">
        <ele>440</ele>
        <time>2014-01-11T12:22:11.642Z</time>
      </trkpt>
      <trkpt lat="47.50805" lon="6.76587">
        <ele>442</ele>
        <time>2014-01-11T12:22:16.635Z</time>
      </trkpt>
      <trkpt lat="47.50796" lon="6.76591">
        <ele>442</ele>
        <time>2014-01-11T12:22:21.709Z</time>
      </trkpt>
      <trkpt lat="47.50781" lon="6.76593">
        <ele>441</ele>
        <time>2014-01-11T12:22:26.628Z</time>
      </trkpt>
      <trkpt lat="47.50767" lon="6.76595">
        <ele>442</ele>
        <time>2014-01-11T12:22:31.706Z</time>
      </trkpt>
      <trkpt lat="47.50753" lon="6.76595">
        <ele>442</ele>
        <time>2014-01-11T12:22:36.632Z</time>
      </trkpt>
      <trkpt lat="47.50739" lon="6.76592">
        <ele>443</ele>
        <time>2014-01-11T12:22:41.705Z</time>
      </trkpt>
      <trkpt lat="47.50724" lon="6.7659">
        <ele>443</ele>
        <time>2014-01-11T12:22:46.636Z</time>
      </trkpt>
      <trkpt lat="47.5071" lon="6.76588">
        <ele>444</ele>
        <time>2014-01-11T12:22:51.703Z</time>
      </trkpt>
      <trkpt lat="47.50642" lon="6.76601">
        <ele>446</ele>
        <time>2014-01-11T12:23:16.627Z</time>
      </trkpt>
      <trkpt lat="47.5063" lon="6.76608">
        <ele>446</ele>
        <time>2014-01-11T12:23:21.704Z</time>
      </trkpt>
      <trkpt lat="47.50618" lon="6.76615">
        <ele>446</ele>
        <time>2014-01-11T12:23:26.625Z</time>
      </trkpt>
      <trkpt lat="47.50604" lon="6.7662">
        <ele>447</ele>
        <time>2014-01-11T12:23:31.711Z</time>
      </trkpt>
      <trkpt lat="47.50592" lon="6.76625">
        <ele>448</ele>
        <time>2014-01-11T12:23:36.698Z</time>
      </trkpt>
      <trkpt lat="47.50579" lon="6.76628">
        <ele>449</ele>
        <time>2014-01-11T12:23:41.621Z</time>
      </trkpt>
      <trkpt lat="47.50567" lon="6.76631">
        <ele>450</ele>
        <time>2014-01-11T12:23:46.703Z</time>
      </trkpt>
      <trkpt lat="47.50555" lon="6.76635">
        <ele>451</ele>
        <time>2014-01-11T12:23:51.624Z</time>
      </trkpt>
      <trkpt lat="47.50541" lon="6.76638">
        <ele>453</ele>
        <time>2014-01-11T12:23:56.711Z</time>
      </trkpt>
      <trkpt lat="47.50511" lon="6.76647">
        <ele>454</ele>
        <time>2014-01-11T12:24:06.703Z</time>
      </trkpt>
      <trkpt lat="47.50496" lon="6.76652">
        <ele>454</ele>
        <time>2014-01-11T12:24:11.631Z</time>
      </trkpt>
      <trkpt lat="47.50479" lon="6.76658">
        <ele>455</ele>
        <time>2014-01-11T12:24:16.811Z</time>
      </trkpt>
      <trkpt lat="47.50461" lon="6.76665">
        <ele>456</ele>
        <time>2014-01-11T12:24:21.637Z</time>
      </trkpt>
      <trkpt lat="47.50445" lon="6.76671">
        <ele>457</ele>
        <time>2014-01-11T12:24:26.704Z</time>
      </trkpt>
      <trkpt lat="47.50429" lon="6.76679">
        <ele>457</ele>
        <time>2014-01-11T12:24:31.635Z</time>
      </trkpt>
      <trkpt lat="47.50411" lon="6.76684">
        <ele>458</ele>
        <time>2014-01-11T12:24:36.626Z</time>
      </trkpt>
      <trkpt lat="47.50395" lon="6.7669">
        <ele>459</ele>
        <time>2014-01-11T12:24:41.667Z</time>
      </trkpt>
      <trkpt lat="47.50379" lon="6.76698">
        <ele>459</ele>
        <time>2014-01-11T12:24:46.631Z</time>
      </trkpt>
      <trkpt lat="47.50364" lon="6.76706">
        <ele>459</ele>
        <time>2014-01-11T12:24:51.706Z</time>
      </trkpt>
      <trkpt lat="47.50285" lon="6.76732">
        <ele>460</ele>
        <time>2014-01-11T12:25:16.604Z</time>
      </trkpt>
      <trkpt lat="47.5027" lon="6.76736">
        <ele>461</ele>
        <time>2014-01-11T12:25:21.701Z</time>
      </trkpt>
      <trkpt lat="47.50256" lon="6.76742">
        <ele>460</ele>
        <time>2014-01-11T12:25:26.628Z</time>
      </trkpt>
      <trkpt lat="47.50246" lon="6.76738">
        <ele>460</ele>
        <time>2014-01-11T12:25:31.702Z</time>
      </trkpt>
      <trkpt lat="47.50238" lon="6.76726">
        <ele>460</ele>
        <time>2014-01-11T12:25:36.626Z</time>
      </trkpt>
      <trkpt lat="47.50232" lon="6.76708">
        <ele>460</ele>
        <time>2014-01-11T12:25:41.699Z</time>
      </trkpt>
      <trkpt lat="47.50224" lon="6.76689">
        <ele>460</ele>
        <time>2014-01-11T12:25:46.716Z</time>
      </trkpt>
      <trkpt lat="47.50217" lon="6.76668">
        <ele>459</ele>
        <time>2014-01-11T12:25:51.704Z</time>
      </trkpt>
      <trkpt lat="47.50199" lon="6.76605">
        <ele>460</ele>
        <time>2014-01-11T12:26:06.634Z</time>
      </trkpt>
      <trkpt lat="47.50198" lon="6.76591">
        <ele>460</ele>
        <time>2014-01-11T12:26:11.691Z</time>
      </trkpt>
      <trkpt lat="47.50198" lon="6.76578">
        <ele>461</ele>
        <time>2014-01-11T12:26:16.626Z</time>
      </trkpt>
      <trkpt lat="47.5021" lon="6.76574">
        <ele>460</ele>
        <time>2014-01-11T12:26:21.704Z</time>
      </trkpt>
      <trkpt lat="47.50226" lon="6.76562">
        <ele>460</ele>
        <time>2014-01-11T12:26:26.627Z</time>
      </trkpt>
      <trkpt lat="47.50233" lon="6.76534">
        <ele>459</ele>
        <time>2014-01-11T12:26:31.705Z</time>
      </trkpt>
      <trkpt lat="47.50229" lon="6.76501">
        <ele>459</ele>
        <time>2014-01-11T12:26:36.630Z</time>
      </trkpt>
      <trkpt lat="47.50213" lon="6.76459">
        <ele>459</ele>
        <time>2014-01-11T12:26:41.684Z</time>
      </trkpt>
      <trkpt lat="47.502" lon="6.76422">
        <ele>459</ele>
        <time>2014-01-11T12:26:46.628Z</time>
      </trkpt>
      <trkpt lat="47.50196" lon="6.76391">
        <ele>458</ele>
        <time>2014-01-11T12:26:51.675Z</time>
      </trkpt>
      <trkpt lat="47.50193" lon="6.76357">
        <ele>458</ele>
        <time>2014-01-11T12:26:56.626Z</time>
      </trkpt>
      <trkpt lat="47.50179" lon="6.76287">
        <ele>460</ele>
        <time>2014-01-11T12:27:06.626Z</time>
      </trkpt>
      <trkpt lat="47.50163" lon="6.76244">
        <ele>458</ele>
        <time>2014-01-11T12:27:11.705Z</time>
      </trkpt>
      <trkpt lat="47.50149" lon="6.76199">
        <ele>458</ele>
        <time>2014-01-11T12:27:16.625Z</time>
      </trkpt>
      <trkpt lat="47.50141" lon="6.76157">
        <ele>457</ele>
        <time>2014-01-11T12:27:21.683Z</time>
      </trkpt>
      <trkpt lat="47.50135" lon="6.76114">
        <ele>458</ele>
        <time>2014-01-11T12:27:26.627Z</time>
      </trkpt>
      <trkpt lat="47.5013" lon="6.76064">
        <ele>459</ele>
        <time>2014-01-11T12:27:31.662Z</time>
      </trkpt>
      <trkpt lat="47.50119" lon="6.76011">
        <ele>456</ele>
        <time>2014-01-11T12:27:36.633Z</time>
      </trkpt>
      <trkpt lat="47.50097" lon="6.75972">
        <ele>454</ele>
        <time>2014-01-11T12:27:41.711Z</time>
      </trkpt>
      <trkpt lat="47.50073" lon="6.75929">
        <ele>454</ele>
        <time>2014-01-11T12:27:46.626Z</time>
      </trkpt>
      <trkpt lat="47.50052" lon="6.75894">
        <ele>455</ele>
        <time>2014-01-11T12:27:51.667Z</time>
      </trkpt>
      <trkpt lat="47.50031" lon="6.75855">
        <ele>452</ele>
        <time>2014-01-11T12:27:56.627Z</time>
      </trkpt>
      <trkpt lat="47.50008" lon="6.75817">
        <ele>450</ele>
        <time>2014-01-11T12:28:01.704Z</time>
      </trkpt>
      <trkpt lat="47.49974" lon="6.75771">
        <ele>448</ele>
        <time>2014-01-11T12:28:06.629Z</time>
      </trkpt>
      <trkpt lat="47.49944" lon="6.75735">
        <ele>444</ele>
        <time>2014-01-11T12:28:11.705Z</time>
      </trkpt>
      <trkpt lat="47.49926" lon="6.75712">
        <ele>443</ele>
        <time>2014-01-11T12:28:16.631Z</time>
      </trkpt>
      <trkpt lat="47.49889" lon="6.75707">
        <ele>441</ele>
        <time>2014-01-11T12:28:21.642Z</time>
      </trkpt>
      <trkpt lat="47.49853" lon="6.75709">
        <ele>440</ele>
        <time>2014-01-11T12:28:26.632Z</time>
      </trkpt>
      <trkpt lat="47.49821" lon="6.75715">
        <ele>438</ele>
        <time>2014-01-11T12:28:31.704Z</time>
      </trkpt>
      <trkpt lat="47.49788" lon="6.75726">
        <ele>435</ele>
        <time>2014-01-11T12:28:36.627Z</time>
      </trkpt>
      <trkpt lat="47.49753" lon="6.75737">
        <ele>432</ele>
        <time>2014-01-11T12:28:41.705Z</time>
      </trkpt>
      <trkpt lat="47.49722" lon="6.75747">
        <ele>429</ele>
        <time>2014-01-11T12:28:46.625Z</time>
      </trkpt>
      <trkpt lat="47.4969" lon="6.7576">
        <ele>426</ele>
        <time>2014-01-11T12:28:51.703Z</time>
      </trkpt>
      <trkpt lat="47.4966" lon="6.75762">
        <ele>425</ele>
        <time>2014-01-11T12:28:56.625Z</time>
      </trkpt>
      <trkpt lat="47.49632" lon="6.75757">
        <ele>424</ele>
        <time>2014-01-11T12:29:01.708Z</time>
      </trkpt>
      <trkpt lat="47.49598" lon="6.75756">
        <ele>422</ele>
        <time>2014-01-11T12:29:06.636Z</time>
      </trkpt>
      <trkpt lat="47.49572" lon="6.75751">
        <ele>418</ele>
        <time>2014-01-11T12:29:11.703Z</time>
      </trkpt>
      <trkpt lat="47.49558" lon="6.75742">
        <ele>414</ele>
        <time>2014-01-11T12:29:16.632Z</time>
      </trkpt>
      <trkpt lat="47.49559" lon="6.75741">
        <ele>414</ele>
        <time>2014-01-11T12:29:21.705Z</time>
      </trkpt>
      <trkpt lat="47.49578" lon="6.75723">
        <ele>404</ele>
        <time>2014-01-11T12:29:26.630Z</time>
      </trkpt>
      <trkpt lat="47.4959" lon="6.75685">
        <ele>401</ele>
        <time>2014-01-11T12:29:31.690Z</time>
      </trkpt>
      <trkpt lat="47.49568" lon="6.75664">
        <ele>395</ele>
        <time>2014-01-11T12:29:36.702Z</time>
      </trkpt>
      <trkpt lat="47.49545" lon="6.75695">
        <ele>392</ele>
        <time>2014-01-11T12:29:41.626Z</time>
      </trkpt>
      <trkpt lat="47.49518" lon="6.75717">
        <ele>391</ele>
        <time>2014-01-11T12:29:46.707Z</time>
      </trkpt>
      <trkpt lat="47.49488" lon="6.75729">
        <ele>390</ele>
        <time>2014-01-11T12:29:51.627Z</time>
      </trkpt>
      <trkpt lat="47.49471" lon="6.75704">
        <ele>385</ele>
        <time>2014-01-11T12:29:56.709Z</time>
      </trkpt>
      <trkpt lat="47.4945" lon="6.75694">
        <ele>381</ele>
        <time>2014-01-11T12:30:01.634Z</time>
      </trkpt>
      <trkpt lat="47.49435" lon="6.75678">
        <ele>380</ele>
        <time>2014-01-11T12:30:06.705Z</time>
      </trkpt>
      <trkpt lat="47.49419" lon="6.75672">
        <ele>380</ele>
        <time>2014-01-11T12:30:11.630Z</time>
      </trkpt>
      <trkpt lat="47.49392" lon="6.75691">
        <ele>380</ele>
        <time>2014-01-11T12:30:16.706Z</time>
      </trkpt>
      <trkpt lat="47.49368" lon="6.75708">
        <ele>381</ele>
        <time>2014-01-11T12:30:21.632Z</time>
      </trkpt>
      <trkpt lat="47.49355" lon="6.75718">
        <ele>381</ele>
        <time>2014-01-11T12:30:26.676Z</time>
      </trkpt>
      <trkpt lat="47.49331" lon="6.75732">
        <ele>381</ele>
        <time>2014-01-11T12:30:31.632Z</time>
      </trkpt>
      <trkpt lat="47.49305" lon="6.75753">
        <ele>382</ele>
        <time>2014-01-11T12:30:36.694Z</time>
      </trkpt>
      <trkpt lat="47.49282" lon="6.75782">
        <ele>382</ele>
        <time>2014-01-11T12:30:41.625Z</time>
      </trkpt>
      <trkpt lat="47.4926" lon="6.75815">
        <ele>382</ele>
        <time>2014-01-11T12:30:46.705Z</time>
      </trkpt>
      <trkpt lat="47.49242" lon="6.75849">
        <ele>383</ele>
        <time>2014-01-11T12:30:51.632Z</time>
      </trkpt>
      <trkpt lat="47.49225" lon="6.7588">
        <ele>385</ele>
        <time>2014-01-11T12:30:56.710Z</time>
      </trkpt>
      <trkpt lat="47.49209" lon="6.75913">
        <ele>385</ele>
        <time>2014-01-11T12:31:01.625Z</time>
      </trkpt>
      <trkpt lat="47.49194" lon="6.75945">
        <ele>385</ele>
        <time>2014-01-11T12:31:06.702Z</time>
      </trkpt>
      <trkpt lat="47.49176" lon="6.75979">
        <ele>385</ele>
        <time>2014-01-11T12:31:11.621Z</time>
      </trkpt>
      <trkpt lat="47.49161" lon="6.76016">
        <ele>385</ele>
        <time>2014-01-11T12:31:16.704Z</time>
      </trkpt>
      <trkpt lat="47.49148" lon="6.76053">
        <ele>384</ele>
        <time>2014-01-11T12:31:21.630Z</time>
      </trkpt>
      <trkpt lat="47.49137" lon="6.76094">
        <ele>385</ele>
        <time>2014-01-11T12:31:26.703Z</time>
      </trkpt>
      <trkpt lat="47.49129" lon="6.76133">
        <ele>384</ele>
        <time>2014-01-11T12:31:31.635Z</time>
      </trkpt>
      <trkpt lat="47.49125" lon="6.76178">
        <ele>381</ele>
        <time>2014-01-11T12:31:36.698Z</time>
      </trkpt>
      <trkpt lat="47.49122" lon="6.76214">
        <ele>383</ele>
        <time>2014-01-11T12:31:41.625Z</time>
      </trkpt>
      <trkpt lat="47.4912" lon="6.76288">
        <ele>385</ele>
        <time>2014-01-11T12:31:51.635Z</time>
      </trkpt>
      <trkpt lat="47.49121" lon="6.76329">
        <ele>387</ele>
        <time>2014-01-11T12:31:56.690Z</time>
      </trkpt>
      <trkpt lat="47.49126" lon="6.76518">
        <ele>379</ele>
        <time>2014-01-11T12:32:16.706Z</time>
      </trkpt>
      <trkpt lat="47.49159" lon="6.76513">
        <ele>376</ele>
        <time>2014-01-11T12:32:21.637Z</time>
      </trkpt>
      <trkpt lat="47.49177" lon="6.765">
        <ele>376</ele>
        <time>2014-01-11T12:32:26.712Z</time>
      </trkpt>
      <trkpt lat="47.49181" lon="6.76494">
        <ele>375</ele>
        <time>2014-01-11T12:32:31.634Z</time>
      </trkpt>
      <trkpt lat="47.49181" lon="6.76494">
        <ele>375</ele>
        <time>2014-01-11T12:32:36.666Z</time>
      </trkpt>
      <trkpt lat="47.49183" lon="6.76493">
        <ele>375</ele>
        <time>2014-01-11T12:32:41.622Z</time>
      </trkpt>
      <trkpt lat="47.49182" lon="6.76489">
        <ele>374</ele>
        <time>2014-01-11T12:32:46.703Z</time>
      </trkpt>
      <trkpt lat="47.49182" lon="6.76489">
        <ele>374</ele>
        <time>2014-01-11T12:32:51.625Z</time>
      </trkpt>
      <trkpt lat="47.49182" lon="6.76489">
        <ele>374</ele>
        <time>2014-01-11T12:32:56.702Z</time>
      </trkpt>
      <trkpt lat="47.49182" lon="6.76489">
        <ele>374</ele>
        <time>2014-01-11T12:33:06.657Z</time>
      </trkpt>
      <trkpt lat="47.49182" lon="6.76489">
        <ele>374</ele>
        <time>2014-01-11T12:33:11.629Z</time>
      </trkpt>
      <trkpt lat="47.49182" lon="6.76489">
        <ele>374</ele>
        <time>2014-01-11T12:33:16.698Z</time>
      </trkpt>
      <trkpt lat="47.49182" lon="6.76489">
        <ele>374</ele>
        <time>2014-01-11T12:33:21.638Z</time>
      </trkpt>
      <trkpt lat="47.49182" lon="6.76489">
        <ele>374</ele>
        <time>2014-01-11T12:33:26.711Z</time>
      </trkpt>
      <trkpt lat="47.49182" lon="6.76489">
        <ele>374</ele>
        <time>2014-01-11T12:33:31.627Z</time>
      </trkpt>
      <trkpt lat="47.49182" lon="6.76489">
        <ele>374</ele>
        <time>2014-01-11T12:33:36.711Z</time>
      </trkpt>
      <trkpt lat="47.49182" lon="6.76489">
        <ele>374</ele>
        <time>2014-01-11T12:33:41.629Z</time>
      </trkpt>
      <trkpt lat="47.49182" lon="6.76489">
        <ele>374</ele>
        <time>2014-01-11T12:33:46.685Z</time>
      </trkpt>
      <trkpt lat="47.49182" lon="6.76489">
        <ele>374</ele>
        <time>2014-01-11T12:33:51.626Z</time>
      </trkpt>
      <trkpt lat="47.49182" lon="6.76489">
        <ele>374</ele>
        <time>2014-01-11T12:33:56.704Z</time>
      </trkpt>
      <trkpt lat="47.49182" lon="6.76489">
        <ele>374</ele>
        <time>2014-01-11T12:34:02.413Z</time>
      </trkpt>
      <trkpt lat="47.49183" lon="6.76488">
        <ele>374</ele>
        <time>2014-01-11T12:34:06.706Z</time>
      </trkpt>
      <trkpt lat="47.49183" lon="6.76487">
        <ele>374</ele>
        <time>2014-01-11T12:34:11.626Z</time>
      </trkpt>
      <trkpt lat="47.49183" lon="6.76487">
        <ele>374</ele>
        <time>2014-01-11T12:34:16.705Z</time>
      </trkpt>
      <trkpt lat="47.49183" lon="6.76487">
        <ele>374</ele>
        <time>2014-01-11T12:34:21.627Z</time>
      </trkpt>
      <trkpt lat="47.49183" lon="6.76487">
        <ele>374</ele>
        <time>2014-01-11T12:34:26.680Z</time>
      </trkpt>
      <trkpt lat="47.49183" lon="6.76487">
        <ele>374</ele>
        <time>2014-01-11T12:34:31.627Z</time>
      </trkpt>
      <trkpt lat="47.49183" lon="6.76487">
        <ele>374</ele>
        <time>2014-01-11T12:34:36.701Z</time>
      </trkpt>
      <trkpt lat="47.49183" lon="6.76487">
        <ele>374</ele>
        <time>2014-01-11T12:34:41.626Z</time>
      </trkpt>
      <trkpt lat="47.49183" lon="6.76487">
        <ele>374</ele>
        <time>2014-01-11T12:34:46.701Z</time>
      </trkpt>
      <trkpt lat="47.49183" lon="6.76487">
        <ele>374</ele>
        <time>2014-01-11T12:34:51.629Z</time>
      </trkpt>
      <trkpt lat="47.49183" lon="6.76487">
        <ele>374</ele>
        <time>2014-01-11T12:34:56.705Z</time>
      </trkpt>
      <trkpt lat="47.49183" lon="6.76487">
        <ele>374</ele>
        <time>2014-01-11T12:35:01.634Z</time>
      </trkpt>
      <trkpt lat="47.49183" lon="6.76487">
        <ele>374</ele>
        <time>2014-01-11T12:35:06.667Z</time>
      </trkpt>
      <trkpt lat="47.49183" lon="6.76487">
        <ele>374</ele>
        <time>2014-01-11T12:35:11.629Z</time>
      </trkpt>
      <trkpt lat="47.49183" lon="6.76487">
        <ele>374</ele>
        <time>2014-01-11T12:35:16.685Z</time>
      </trkpt>
      <trkpt lat="47.49183" lon="6.76487">
        <ele>374</ele>
        <time>2014-01-11T12:35:21.628Z</time>
      </trkpt>
      <trkpt lat="47.49183" lon="6.76487">
        <ele>374</ele>
        <time>2014-01-11T12:35:26.705Z</time>
      </trkpt>
      <trkpt lat="47.49183" lon="6.76487">
        <ele>374</ele>
        <time>2014-01-11T12:35:31.634Z</time>
      </trkpt>
      <trkpt lat="47.49183" lon="6.76487">
        <ele>374</ele>
        <time>2014-01-11T12:35:36.707Z</time>
      </trkpt>
      <trkpt lat="47.49183" lon="6.76487">
        <ele>374</ele>
        <time>2014-01-11T12:35:41.711Z</time>
      </trkpt>
      <trkpt lat="47.49183" lon="6.76487">
        <ele>374</ele>
        <time>2014-01-11T12:35:46.704Z</time>
      </trkpt>
      <trkpt lat="47.49183" lon="6.76487">
        <ele>373</ele>
        <time>2014-01-11T12:35:51.628Z</time>
      </trkpt>
      <trkpt lat="47.49183" lon="6.76487">
        <ele>373</ele>
        <time>2014-01-11T12:35:56.705Z</time>
      </trkpt>
      <trkpt lat="47.49183" lon="6.76487">
        <ele>373</ele>
        <time>2014-01-11T12:36:11.637Z</time>
      </trkpt>
      <trkpt lat="47.49183" lon="6.76487">
        <ele>373</ele>
        <time>2014-01-11T12:36:16.706Z</time>
      </trkpt>
      <trkpt lat="47.49183" lon="6.76487">
        <ele>373</ele>
        <time>2014-01-11T12:36:21.640Z</time>
      </trkpt>
      <trkpt lat="47.49183" lon="6.76487">
        <ele>373</ele>
        <time>2014-01-11T12:36:26.705Z</time>
      </trkpt>
      <trkpt lat="47.49183" lon="6.76487">
        <ele>373</ele>
        <time>2014-01-11T12:36:31.641Z</time>
      </trkpt>
      <trkpt lat="47.49183" lon="6.76487">
        <ele>373</ele>
        <time>2014-01-11T12:36:36.702Z</time>
      </trkpt>
      <trkpt lat="47.49183" lon="6.76487">
        <ele>373</ele>
        <time>2014-01-11T12:36:41.627Z</time>
      </trkpt>
      <trkpt lat="47.49183" lon="6.76487">
        <ele>373</ele>
        <time>2014-01-11T12:36:46.704Z</time>
      </trkpt>
      <trkpt lat="47.49179" lon="6.76494">
        <ele>375</ele>
        <time>2014-01-11T12:36:51.631Z</time>
      </trkpt>
      <trkpt lat="47.49171" lon="6.76503">
        <ele>375</ele>
        <time>2014-01-11T12:36:56.707Z</time>
      </trkpt>
      <trkpt lat="47.49151" lon="6.76516">
        <ele>375</ele>
        <time>2014-01-11T12:37:02.095Z</time>
      </trkpt>
      <trkpt lat="47.49129" lon="6.7652">
        <ele>375</ele>
        <time>2014-01-11T12:37:06.709Z</time>
      </trkpt>
      <trkpt lat="47.49123" lon="6.76499">
        <ele>374</ele>
        <time>2014-01-11T12:37:11.626Z</time>
      </trkpt>
      <trkpt lat="47.49125" lon="6.76474">
        <ele>375</ele>
        <time>2014-01-11T12:37:16.700Z</time>
      </trkpt>
      <trkpt lat="47.49128" lon="6.76445">
        <ele>376</ele>
        <time>2014-01-11T12:37:21.631Z</time>
      </trkpt>
      <trkpt lat="47.49123" lon="6.76429">
        <ele>376</ele>
        <time>2014-01-11T12:37:26.705Z</time>
      </trkpt>
      <trkpt lat="47.49111" lon="6.76426">
        <ele>376</ele>
        <time>2014-01-11T12:37:31.634Z</time>
      </trkpt>
      <trkpt lat="47.49111" lon="6.7641">
        <ele>377</ele>
        <time>2014-01-11T12:37:36.671Z</time>
      </trkpt>
      <trkpt lat="47.49111" lon="6.76386">
        <ele>379</ele>
        <time>2014-01-11T12:37:41.635Z</time>
      </trkpt>
      <trkpt lat="47.49109" lon="6.7637">
        <ele>381</ele>
        <time>2014-01-11T12:37:46.705Z</time>
      </trkpt>
      <trkpt lat="47.49107" lon="6.76346">
        <ele>381</ele>
        <time>2014-01-11T12:37:51.623Z</time>
      </trkpt>
      <trkpt lat="47.49107" lon="6.76315">
        <ele>382</ele>
        <time>2014-01-11T12:37:56.700Z</time>
      </trkpt>
      <trkpt lat="47.49106" lon="6.76203">
        <ele>386</ele>
        <time>2014-01-11T12:38:16.697Z</time>
      </trkpt>
      <trkpt lat="47.49105" lon="6.76181">
        <ele>386</ele>
        <time>2014-01-11T12:38:21.635Z</time>
      </trkpt>
      <trkpt lat="47.49104" lon="6.76157">
        <ele>387</ele>
        <time>2014-01-11T12:38:26.705Z</time>
      </trkpt>
      <trkpt lat="47.49105" lon="6.76132">
        <ele>388</ele>
        <time>2014-01-11T12:38:31.634Z</time>
      </trkpt>
      <trkpt lat="47.49106" lon="6.76112">
        <ele>390</ele>
        <time>2014-01-11T12:38:36.700Z</time>
      </trkpt>
      <trkpt lat="47.49104" lon="6.76095">
        <ele>390</ele>
        <time>2014-01-11T12:38:41.629Z</time>
      </trkpt>
      <trkpt lat="47.49106" lon="6.76072">
        <ele>390</ele>
        <time>2014-01-11T12:38:46.704Z</time>
      </trkpt>
      <trkpt lat="47.4911" lon="6.76051">
        <ele>390</ele>
        <time>2014-01-11T12:38:51.631Z</time>
      </trkpt>
      <trkpt lat="47.49116" lon="6.7603">
        <ele>390</ele>
        <time>2014-01-11T12:38:56.664Z</time>
      </trkpt>
      <trkpt lat="47.49122" lon="6.76011">
        <ele>392</ele>
        <time>2014-01-11T12:39:01.624Z</time>
      </trkpt>
      <trkpt lat="47.49128" lon="6.7599">
        <ele>392</ele>
        <time>2014-01-11T12:39:06.701Z</time>
      </trkpt>
      <trkpt lat="47.49134" lon="6.75968">
        <ele>392</ele>
        <time>2014-01-11T12:39:11.633Z</time>
      </trkpt>
      <trkpt lat="47.49137" lon="6.75952">
        <ele>392</ele>
        <time>2014-01-11T12:39:16.702Z</time>
      </trkpt>
      <trkpt lat="47.49144" lon="6.7593">
        <ele>392</ele>
        <time>2014-01-11T12:39:21.632Z</time>
      </trkpt>
      <trkpt lat="47.49152" lon="6.75905">
        <ele>394</ele>
        <time>2014-01-11T12:39:26.674Z</time>
      </trkpt>
      <trkpt lat="47.49158" lon="6.75878">
        <ele>394</ele>
        <time>2014-01-11T12:39:31.598Z</time>
      </trkpt>
      <trkpt lat="47.49167" lon="6.75853">
        <ele>393</ele>
        <time>2014-01-11T12:39:36.637Z</time>
      </trkpt>
      <trkpt lat="47.4919" lon="6.7579">
        <ele>394</ele>
        <time>2014-01-11T12:39:46.703Z</time>
      </trkpt>
      <trkpt lat="47.49202" lon="6.75758">
        <ele>394</ele>
        <time>2014-01-11T12:39:51.631Z</time>
      </trkpt>
      <trkpt lat="47.4921" lon="6.75733">
        <ele>393</ele>
        <time>2014-01-11T12:39:56.703Z</time>
      </trkpt>
      <trkpt lat="47.49216" lon="6.75706">
        <ele>391</ele>
        <time>2014-01-11T12:40:01.621Z</time>
      </trkpt>
      <trkpt lat="47.49222" lon="6.75679">
        <ele>391</ele>
        <time>2014-01-11T12:40:06.705Z</time>
      </trkpt>
      <trkpt lat="47.49227" lon="6.75655">
        <ele>391</ele>
        <time>2014-01-11T12:40:11.703Z</time>
      </trkpt>
      <trkpt lat="47.49233" lon="6.75634">
        <ele>390</ele>
        <time>2014-01-11T12:40:16.632Z</time>
      </trkpt>
      <trkpt lat="47.49241" lon="6.75609">
        <ele>390</ele>
        <time>2014-01-11T12:40:21.764Z</time>
      </trkpt>
      <trkpt lat="47.49249" lon="6.75583">
        <ele>390</ele>
        <time>2014-01-11T12:40:26.624Z</time>
      </trkpt>
      <trkpt lat="47.49256" lon="6.75559">
        <ele>390</ele>
        <time>2014-01-11T12:40:31.688Z</time>
      </trkpt>
      <trkpt lat="47.4926" lon="6.7554">
        <ele>390</ele>
        <time>2014-01-11T12:40:36.636Z</time>
      </trkpt>
      <trkpt lat="47.49265" lon="6.75522">
        <ele>393</ele>
        <time>2014-01-11T12:40:41.707Z</time>
      </trkpt>
      <trkpt lat="47.49269" lon="6.75497">
        <ele>394</ele>
        <time>2014-01-11T12:40:46.622Z</time>
      </trkpt>
      <trkpt lat="47.49272" lon="6.75475">
        <ele>394</ele>
        <time>2014-01-11T12:40:51.655Z</time>
      </trkpt>
      <trkpt lat="47.49278" lon="6.7545">
        <ele>394</ele>
        <time>2014-01-11T12:40:56.636Z</time>
      </trkpt>
      <trkpt lat="47.49283" lon="6.75433">
        <ele>395</ele>
        <time>2014-01-11T12:41:01.702Z</time>
      </trkpt>
      <trkpt lat="47.49284" lon="6.75413">
        <ele>395</ele>
        <time>2014-01-11T12:41:06.624Z</time>
      </trkpt>
      <trkpt lat="47.49286" lon="6.75392">
        <ele>395</ele>
        <time>2014-01-11T12:41:11.676Z</time>
      </trkpt>
      <trkpt lat="47.49289" lon="6.75377">
        <ele>395</ele>
        <time>2014-01-11T12:41:16.624Z</time>
      </trkpt>
      <trkpt lat="47.49294" lon="6.75358">
        <ele>396</ele>
        <time>2014-01-11T12:41:21.702Z</time>
      </trkpt>
      <trkpt lat="47.49296" lon="6.75341">
        <ele>395</ele>
        <time>2014-01-11T12:41:26.627Z</time>
      </trkpt>
      <trkpt lat="47.49299" lon="6.7532">
        <ele>396</ele>
        <time>2014-01-11T12:41:31.706Z</time>
      </trkpt>
      <trkpt lat="47.493" lon="6.75303">
        <ele>396</ele>
        <time>2014-01-11T12:41:36.625Z</time>
      </trkpt>
      <trkpt lat="47.493" lon="6.75287">
        <ele>396</ele>
        <time>2014-01-11T12:41:41.664Z</time>
      </trkpt>
      <trkpt lat="47.49301" lon="6.75272">
        <ele>398</ele>
        <time>2014-01-11T12:41:46.622Z</time>
      </trkpt>
      <trkpt lat="47.49301" lon="6.75259">
        <ele>398</ele>
        <time>2014-01-11T12:41:51.664Z</time>
      </trkpt>
      <trkpt lat="47.49301" lon="6.75245">
        <ele>400</ele>
        <time>2014-01-11T12:41:56.597Z</time>
      </trkpt>
      <trkpt lat="47.49302" lon="6.75219">
        <ele>401</ele>
        <time>2014-01-11T12:42:08.531Z</time>
      </trkpt>
      <trkpt lat="47.49302" lon="6.75208">
        <ele>401</ele>
        <time>2014-01-11T12:42:11.707Z</time>
      </trkpt>
      <trkpt lat="47.49302" lon="6.75191">
        <ele>401</ele>
        <time>2014-01-11T12:42:16.636Z</time>
      </trkpt>
      <trkpt lat="47.49301" lon="6.7516">
        <ele>401</ele>
        <time>2014-01-11T12:42:26.624Z</time>
      </trkpt>
      <trkpt lat="47.493" lon="6.75142">
        <ele>401</ele>
        <time>2014-01-11T12:42:31.701Z</time>
      </trkpt>
      <trkpt lat="47.49301" lon="6.75125">
        <ele>401</ele>
        <time>2014-01-11T12:42:36.624Z</time>
      </trkpt>
      <trkpt lat="47.49304" lon="6.75106">
        <ele>400</ele>
        <time>2014-01-11T12:42:41.697Z</time>
      </trkpt>
      <trkpt lat="47.49313" lon="6.75088">
        <ele>400</ele>
        <time>2014-01-11T12:42:46.628Z</time>
      </trkpt>
      <trkpt lat="47.49326" lon="6.75073">
        <ele>400</ele>
        <time>2014-01-11T12:42:51.713Z</time>
      </trkpt>
      <trkpt lat="47.49334" lon="6.75055">
        <ele>400</ele>
        <time>2014-01-11T12:42:56.640Z</time>
      </trkpt>
      <trkpt lat="47.49341" lon="6.75006">
        <ele>402</ele>
        <time>2014-01-11T12:43:16.625Z</time>
      </trkpt>
      <trkpt lat="47.49339" lon="6.74998">
        <ele>402</ele>
        <time>2014-01-11T12:43:21.704Z</time>
      </trkpt>
      <trkpt lat="47.49341" lon="6.74987">
        <ele>403</ele>
        <time>2014-01-11T12:43:26.625Z</time>
      </trkpt>
      <trkpt lat="47.49343" lon="6.74978">
        <ele>404</ele>
        <time>2014-01-11T12:43:31.719Z</time>
      </trkpt>
      <trkpt lat="47.49343" lon="6.74968">
        <ele>404</ele>
        <time>2014-01-11T12:43:36.597Z</time>
      </trkpt>
      <trkpt lat="47.49344" lon="6.74962">
        <ele>405</ele>
        <time>2014-01-11T12:43:41.648Z</time>
      </trkpt>
      <trkpt lat="47.49345" lon="6.74956">
        <ele>406</ele>
        <time>2014-01-11T12:43:46.625Z</time>
      </trkpt>
      <trkpt lat="47.49345" lon="6.74948">
        <ele>407</ele>
        <time>2014-01-11T12:43:51.702Z</time>
      </trkpt>
      <trkpt lat="47.49345" lon="6.74941">
        <ele>408</ele>
        <time>2014-01-11T12:43:56.632Z</time>
      </trkpt>
      <trkpt lat="47.49343" lon="6.74932">
        <ele>408</ele>
        <time>2014-01-11T12:44:01.684Z</time>
      </trkpt>
      <trkpt lat="47.49342" lon="6.74922">
        <ele>407</ele>
        <time>2014-01-11T12:44:06.626Z</time>
      </trkpt>
      <trkpt lat="47.49342" lon="6.74909">
        <ele>406</ele>
        <time>2014-01-11T12:44:11.702Z</time>
      </trkpt>
      <trkpt lat="47.49342" lon="6.749">
        <ele>406</ele>
        <time>2014-01-11T12:44:16.626Z</time>
      </trkpt>
      <trkpt lat="47.49341" lon="6.74886">
        <ele>406</ele>
        <time>2014-01-11T12:44:21.668Z</time>
      </trkpt>
      <trkpt lat="47.49341" lon="6.74875">
        <ele>406</ele>
        <time>2014-01-11T12:44:26.756Z</time>
      </trkpt>
      <trkpt lat="47.49341" lon="6.74861">
        <ele>408</ele>
        <time>2014-01-11T12:44:31.705Z</time>
      </trkpt>
      <trkpt lat="47.4934" lon="6.74846">
        <ele>408</ele>
        <time>2014-01-11T12:44:36.636Z</time>
      </trkpt>
      <trkpt lat="47.49339" lon="6.74831">
        <ele>408</ele>
        <time>2014-01-11T12:44:41.678Z</time>
      </trkpt>
      <trkpt lat="47.49338" lon="6.74818">
        <ele>407</ele>
        <time>2014-01-11T12:44:46.626Z</time>
      </trkpt>
      <trkpt lat="47.49339" lon="6.74805">
        <ele>407</ele>
        <time>2014-01-11T12:44:51.705Z</time>
      </trkpt>
      <trkpt lat="47.49341" lon="6.74791">
        <ele>408</ele>
        <time>2014-01-11T12:44:56.625Z</time>
      </trkpt>
      <trkpt lat="47.49342" lon="6.74773">
        <ele>408</ele>
        <time>2014-01-11T12:45:01.705Z</time>
      </trkpt>
      <trkpt lat="47.49343" lon="6.74755">
        <ele>409</ele>
        <time>2014-01-11T12:45:06.632Z</time>
      </trkpt>
      <trkpt lat="47.49345" lon="6.74737">
        <ele>410</ele>
        <time>2014-01-11T12:45:11.700Z</time>
      </trkpt>
      <trkpt lat="47.49345" lon="6.74721">
        <ele>411</ele>
        <time>2014-01-11T12:45:16.626Z</time>
      </trkpt>
      <trkpt lat="47.49348" lon="6.7471">
        <ele>413</ele>
        <time>2014-01-11T12:45:21.666Z</time>
      </trkpt>
      <trkpt lat="47.4935" lon="6.74697">
        <ele>414</ele>
        <time>2014-01-11T12:45:26.625Z</time>
      </trkpt>
      <trkpt lat="47.49349" lon="6.74681">
        <ele>415</ele>
        <time>2014-01-11T12:45:31.704Z</time>
      </trkpt>
      <trkpt lat="47.49345" lon="6.74667">
        <ele>417</ele>
        <time>2014-01-11T12:45:36.634Z</time>
      </trkpt>
      <trkpt lat="47.49349" lon="6.74651">
        <ele>418</ele>
        <time>2014-01-11T12:45:41.688Z</time>
      </trkpt>
      <trkpt lat="47.49352" lon="6.74637">
        <ele>419</ele>
        <time>2014-01-11T12:45:46.599Z</time>
      </trkpt>
      <trkpt lat="47.49349" lon="6.74625">
        <ele>419</ele>
        <time>2014-01-11T12:45:51.685Z</time>
      </trkpt>
      <trkpt lat="47.49348" lon="6.74609">
        <ele>420</ele>
        <time>2014-01-11T12:45:56.638Z</time>
      </trkpt>
      <trkpt lat="47.49347" lon="6.7458">
        <ele>420</ele>
        <time>2014-01-11T12:46:06.664Z</time>
      </trkpt>
      <trkpt lat="47.4935" lon="6.74563">
        <ele>420</ele>
        <time>2014-01-11T12:46:11.633Z</time>
      </trkpt>
      <trkpt lat="47.49353" lon="6.74539">
        <ele>421</ele>
        <time>2014-01-11T12:46:16.625Z</time>
      </trkpt>
      <trkpt lat="47.49355" lon="6.74516">
        <ele>420</ele>
        <time>2014-01-11T12:46:21.683Z</time>
      </trkpt>
      <trkpt lat="47.49357" lon="6.74497">
        <ele>420</ele>
        <time>2014-01-11T12:46:26.703Z</time>
      </trkpt>
      <trkpt lat="47.49356" lon="6.74477">
        <ele>421</ele>
        <time>2014-01-11T12:46:31.634Z</time>
      </trkpt>
      <trkpt lat="47.49356" lon="6.74466">
        <ele>422</ele>
        <time>2014-01-11T12:46:36.708Z</time>
      </trkpt>
      <trkpt lat="47.49354" lon="6.7445">
        <ele>423</ele>
        <time>2014-01-11T12:46:41.626Z</time>
      </trkpt>
      <trkpt lat="47.49356" lon="6.7443">
        <ele>423</ele>
        <time>2014-01-11T12:46:46.706Z</time>
      </trkpt>
      <trkpt lat="47.49357" lon="6.74414">
        <ele>424</ele>
        <time>2014-01-11T12:46:51.626Z</time>
      </trkpt>
      <trkpt lat="47.49356" lon="6.74399">
        <ele>423</ele>
        <time>2014-01-11T12:46:56.709Z</time>
      </trkpt>
      <trkpt lat="47.49358" lon="6.74385">
        <ele>423</ele>
        <time>2014-01-11T12:47:01.626Z</time>
      </trkpt>
      <trkpt lat="47.49361" lon="6.7437">
        <ele>425</ele>
        <time>2014-01-11T12:47:06.704Z</time>
      </trkpt>
      <trkpt lat="47.49362" lon="6.7435">
        <ele>426</ele>
        <time>2014-01-11T12:47:11.633Z</time>
      </trkpt>
      <trkpt lat="47.49363" lon="6.74336">
        <ele>426</ele>
        <time>2014-01-11T12:47:16.704Z</time>
      </trkpt>
      <trkpt lat="47.49364" lon="6.74321">
        <ele>426</ele>
        <time>2014-01-11T12:47:21.626Z</time>
      </trkpt>
      <trkpt lat="47.49366" lon="6.743">
        <ele>427</ele>
        <time>2014-01-11T12:47:26.669Z</time>
      </trkpt>
      <trkpt lat="47.49368" lon="6.74286">
        <ele>426</ele>
        <time>2014-01-11T12:47:31.625Z</time>
      </trkpt>
      <trkpt lat="47.4937" lon="6.74272">
        <ele>424</ele>
        <time>2014-01-11T12:47:36.702Z</time>
      </trkpt>
      <trkpt lat="47.49372" lon="6.74262">
        <ele>424</ele>
        <time>2014-01-11T12:47:41.625Z</time>
      </trkpt>
      <trkpt lat="47.49372" lon="6.74254">
        <ele>424</ele>
        <time>2014-01-11T12:47:46.701Z</time>
      </trkpt>
      <trkpt lat="47.49372" lon="6.74243">
        <ele>423</ele>
        <time>2014-01-11T12:47:51.627Z</time>
      </trkpt>
      <trkpt lat="47.49377" lon="6.74225">
        <ele>422</ele>
        <time>2014-01-11T12:47:56.681Z</time>
      </trkpt>
      <trkpt lat="47.49386" lon="6.742">
        <ele>423</ele>
        <time>2014-01-11T12:48:06.704Z</time>
      </trkpt>
      <trkpt lat="47.4939" lon="6.74177">
        <ele>421</ele>
        <time>2014-01-11T12:48:11.633Z</time>
      </trkpt>
      <trkpt lat="47.49394" lon="6.7415">
        <ele>421</ele>
        <time>2014-01-11T12:48:16.703Z</time>
      </trkpt>
      <trkpt lat="47.49398" lon="6.74124">
        <ele>419</ele>
        <time>2014-01-11T12:48:21.623Z</time>
      </trkpt>
      <trkpt lat="47.49406" lon="6.7409">
        <ele>418</ele>
        <time>2014-01-11T12:48:26.702Z</time>
      </trkpt>
      <trkpt lat="47.49415" lon="6.74058">
        <ele>418</ele>
        <time>2014-01-11T12:48:31.611Z</time>
      </trkpt>
      <trkpt lat="47.49417" lon="6.74024">
        <ele>417</ele>
        <time>2014-01-11T12:48:36.696Z</time>
      </trkpt>
      <trkpt lat="47.49423" lon="6.73996">
        <ele>418</ele>
        <time>2014-01-11T12:48:41.635Z</time>
      </trkpt>
      <trkpt lat="47.49427" lon="6.73978">
        <ele>419</ele>
        <time>2014-01-11T12:48:46.876Z</time>
      </trkpt>
      <trkpt lat="47.49426" lon="6.73955">
        <ele>419</ele>
        <time>2014-01-11T12:48:51.639Z</time>
      </trkpt>
      <trkpt lat="47.49431" lon="6.73933">
        <ele>418</ele>
        <time>2014-01-11T12:48:56.686Z</time>
      </trkpt>
      <trkpt lat="47.49431" lon="6.73912">
        <ele>418</ele>
        <time>2014-01-11T12:49:01.627Z</time>
      </trkpt>
      <trkpt lat="47.49429" lon="6.73894">
        <ele>417</ele>
        <time>2014-01-11T12:49:06.705Z</time>
      </trkpt>
      <trkpt lat="47.49426" lon="6.73877">
        <ele>418</ele>
        <time>2014-01-11T12:49:11.624Z</time>
      </trkpt>
      <trkpt lat="47.49424" lon="6.73863">
        <ele>417</ele>
        <time>2014-01-11T12:49:16.674Z</time>
      </trkpt>
      <trkpt lat="47.49424" lon="6.73848">
        <ele>416</ele>
        <time>2014-01-11T12:49:21.626Z</time>
      </trkpt>
      <trkpt lat="47.49428" lon="6.73834">
        <ele>412</ele>
        <time>2014-01-11T12:49:26.712Z</time>
      </trkpt>
      <trkpt lat="47.49429" lon="6.7382">
        <ele>411</ele>
        <time>2014-01-11T12:49:31.627Z</time>
      </trkpt>
      <trkpt lat="47.49429" lon="6.73819">
        <ele>410</ele>
        <time>2014-01-11T12:49:36.676Z</time>
      </trkpt>
      <trkpt lat="47.49432" lon="6.73815">
        <ele>411</ele>
        <time>2014-01-11T12:49:41.646Z</time>
      </trkpt>
      <trkpt lat="47.49434" lon="6.73805">
        <ele>410</ele>
        <time>2014-01-11T12:49:46.705Z</time>
      </trkpt>
      <trkpt lat="47.49433" lon="6.73802">
        <ele>409</ele>
        <time>2014-01-11T12:49:51.633Z</time>
      </trkpt>
      <trkpt lat="47.49429" lon="6.73801">
        <ele>408</ele>
        <time>2014-01-11T12:49:56.711Z</time>
      </trkpt>
      <trkpt lat="47.49427" lon="6.73793">
        <ele>401</ele>
        <time>2014-01-11T12:50:16.663Z</time>
      </trkpt>
      <trkpt lat="47.49426" lon="6.73794">
        <ele>401</ele>
        <time>2014-01-11T12:50:21.624Z</time>
      </trkpt>
      <trkpt lat="47.49426" lon="6.73793">
        <ele>401</ele>
        <time>2014-01-11T12:50:26.708Z</time>
      </trkpt>
      <trkpt lat="47.49429" lon="6.73793">
        <ele>402</ele>
        <time>2014-01-11T12:50:31.637Z</time>
      </trkpt>
      <trkpt lat="47.4943" lon="6.73791">
        <ele>402</ele>
        <time>2014-01-11T12:50:36.697Z</time>
      </trkpt>
      <trkpt lat="47.49429" lon="6.73795">
        <ele>402</ele>
        <time>2014-01-11T12:50:41.626Z</time>
      </trkpt>
      <trkpt lat="47.49429" lon="6.73798">
        <ele>401</ele>
        <time>2014-01-11T12:50:46.702Z</time>
      </trkpt>
      <trkpt lat="47.49428" lon="6.73803">
        <ele>400</ele>
        <time>2014-01-11T12:50:51.627Z</time>
      </trkpt>
      <trkpt lat="47.49428" lon="6.73804">
        <ele>400</ele>
        <time>2014-01-11T12:50:56.703Z</time>
      </trkpt>
      <trkpt lat="47.49432" lon="6.73799">
        <ele>398</ele>
        <time>2014-01-11T12:51:03.516Z</time>
      </trkpt>
      <trkpt lat="47.49431" lon="6.73796">
        <ele>396</ele>
        <time>2014-01-11T12:51:06.682Z</time>
      </trkpt>
      <trkpt lat="47.49429" lon="6.73796">
        <ele>395</ele>
        <time>2014-01-11T12:51:11.623Z</time>
      </trkpt>
      <trkpt lat="47.49428" lon="6.73797">
        <ele>393</ele>
        <time>2014-01-11T12:51:16.703Z</time>
      </trkpt>
      <trkpt lat="47.49426" lon="6.73794">
        <ele>390</ele>
        <time>2014-01-11T12:51:21.626Z</time>
      </trkpt>
      <trkpt lat="47.49432" lon="6.73782">
        <ele>390</ele>
        <time>2014-01-11T12:51:26.700Z</time>
      </trkpt>
      <trkpt lat="47.49447" lon="6.73761">
        <ele>391</ele>
        <time>2014-01-11T12:51:31.625Z</time>
      </trkpt>
      <trkpt lat="47.49464" lon="6.73738">
        <ele>393</ele>
        <time>2014-01-11T12:51:36.663Z</time>
      </trkpt>
      <trkpt lat="47.49475" lon="6.7371">
        <ele>394</ele>
        <time>2014-01-11T12:51:41.850Z</time>
      </trkpt>
      <trkpt lat="47.49486" lon="6.73683">
        <ele>394</ele>
        <time>2014-01-11T12:51:46.701Z</time>
      </trkpt>
      <trkpt lat="47.49497" lon="6.73657">
        <ele>394</ele>
        <time>2014-01-11T12:51:51.632Z</time>
      </trkpt>
      <trkpt lat="47.49509" lon="6.73633">
        <ele>394</ele>
        <time>2014-01-11T12:51:56.700Z</time>
      </trkpt>
      <trkpt lat="47.49523" lon="6.73612">
        <ele>393</ele>
        <time>2014-01-11T12:52:01.632Z</time>
      </trkpt>
      <trkpt lat="47.49538" lon="6.73594">
        <ele>392</ele>
        <time>2014-01-11T12:52:06.693Z</time>
      </trkpt>
      <trkpt lat="47.49554" lon="6.73574">
        <ele>392</ele>
        <time>2014-01-11T12:52:11.624Z</time>
      </trkpt>
      <trkpt lat="47.49572" lon="6.73556">
        <ele>392</ele>
        <time>2014-01-11T12:52:16.704Z</time>
      </trkpt>
      <trkpt lat="47.4959" lon="6.73539">
        <ele>392</ele>
        <time>2014-01-11T12:52:21.597Z</time>
      </trkpt>
      <trkpt lat="47.49608" lon="6.73522">
        <ele>392</ele>
        <time>2014-01-11T12:52:26.702Z</time>
      </trkpt>
      <trkpt lat="47.49624" lon="6.73503">
        <ele>392</ele>
        <time>2014-01-11T12:52:31.625Z</time>
      </trkpt>
      <trkpt lat="47.49639" lon="6.73483">
        <ele>392</ele>
        <time>2014-01-11T12:52:36.703Z</time>
      </trkpt>
      <trkpt lat="47.49654" lon="6.73462">
        <ele>392</ele>
        <time>2014-01-11T12:52:41.622Z</time>
      </trkpt>
      <trkpt lat="47.49668" lon="6.73442">
        <ele>392</ele>
        <time>2014-01-11T12:52:46.656Z</time>
      </trkpt>
      <trkpt lat="47.49683" lon="6.73421">
        <ele>392</ele>
        <time>2014-01-11T12:52:51.638Z</time>
      </trkpt>
      <trkpt lat="47.49753" lon="6.73317">
        <ele>394</ele>
        <time>2014-01-11T12:53:16.709Z</time>
      </trkpt>
      <trkpt lat="47.49767" lon="6.73295">
        <ele>394</ele>
        <time>2014-01-11T12:53:21.635Z</time>
      </trkpt>
      <trkpt lat="47.49779" lon="6.73273">
        <ele>395</ele>
        <time>2014-01-11T12:53:26.635Z</time>
      </trkpt>
      <trkpt lat="47.49791" lon="6.7325">
        <ele>395</ele>
        <time>2014-01-11T12:53:31.700Z</time>
      </trkpt>
      <trkpt lat="47.49801" lon="6.73225">
        <ele>395</ele>
        <time>2014-01-11T12:53:36.625Z</time>
      </trkpt>
      <trkpt lat="47.4981" lon="6.73201">
        <ele>396</ele>
        <time>2014-01-11T12:53:41.684Z</time>
      </trkpt>
      <trkpt lat="47.49817" lon="6.73176">
        <ele>397</ele>
        <time>2014-01-11T12:53:46.593Z</time>
      </trkpt>
      <trkpt lat="47.49822" lon="6.73152">
        <ele>398</ele>
        <time>2014-01-11T12:53:51.702Z</time>
      </trkpt>
      <trkpt lat="47.49827" lon="6.73129">
        <ele>398</ele>
        <time>2014-01-11T12:53:56.620Z</time>
      </trkpt>
      <trkpt lat="47.49838" lon="6.73086">
        <ele>401</ele>
        <time>2014-01-11T12:54:06.628Z</time>
      </trkpt>
      <trkpt lat="47.49845" lon="6.73063">
        <ele>401</ele>
        <time>2014-01-11T12:54:11.613Z</time>
      </trkpt>
      <trkpt lat="47.49858" lon="6.73038">
        <ele>402</ele>
        <time>2014-01-11T12:54:16.663Z</time>
      </trkpt>
      <trkpt lat="47.49867" lon="6.73011">
        <ele>402</ele>
        <time>2014-01-11T12:54:21.628Z</time>
      </trkpt>
      <trkpt lat="47.49877" lon="6.72982">
        <ele>403</ele>
        <time>2014-01-11T12:54:26.703Z</time>
      </trkpt>
      <trkpt lat="47.49889" lon="6.72952">
        <ele>403</ele>
        <time>2014-01-11T12:54:31.629Z</time>
      </trkpt>
      <trkpt lat="47.4991" lon="6.72951">
        <ele>404</ele>
        <time>2014-01-11T12:54:36.709Z</time>
      </trkpt>
      <trkpt lat="47.4994" lon="6.72963">
        <ele>404</ele>
        <time>2014-01-11T12:54:41.638Z</time>
      </trkpt>
      <trkpt lat="47.4997" lon="6.72973">
        <ele>405</ele>
        <time>2014-01-11T12:54:46.667Z</time>
      </trkpt>
      <trkpt lat="47.49994" lon="6.73">
        <ele>404</ele>
        <time>2014-01-11T12:54:51.598Z</time>
      </trkpt>
      <trkpt lat="47.50011" lon="6.73028">
        <ele>403</ele>
        <time>2014-01-11T12:54:56.708Z</time>
      </trkpt>
      <trkpt lat="47.50088" lon="6.73109">
        <ele>401</ele>
        <time>2014-01-11T12:55:16.678Z</time>
      </trkpt>
      <trkpt lat="47.50109" lon="6.73119">
        <ele>400</ele>
        <time>2014-01-11T12:55:21.631Z</time>
      </trkpt>
      <trkpt lat="47.50128" lon="6.73123">
        <ele>401</ele>
        <time>2014-01-11T12:55:26.704Z</time>
      </trkpt>
      <trkpt lat="47.50144" lon="6.73122">
        <ele>402</ele>
        <time>2014-01-11T12:55:31.630Z</time>
      </trkpt>
      <trkpt lat="47.5016" lon="6.73125">
        <ele>402</ele>
        <time>2014-01-11T12:55:36.714Z</time>
      </trkpt>
      <trkpt lat="47.50174" lon="6.73135">
        <ele>402</ele>
        <time>2014-01-11T12:55:41.636Z</time>
      </trkpt>
      <trkpt lat="47.50192" lon="6.73128">
        <ele>401</ele>
        <time>2014-01-11T12:55:46.707Z</time>
      </trkpt>
      <trkpt lat="47.50202" lon="6.731">
        <ele>402</ele>
        <time>2014-01-11T12:55:51.631Z</time>
      </trkpt>
      <trkpt lat="47.50214" lon="6.73068">
        <ele>402</ele>
        <time>2014-01-11T12:55:56.706Z</time>
      </trkpt>
      <trkpt lat="47.50226" lon="6.73037">
        <ele>402</ele>
        <time>2014-01-11T12:56:01.638Z</time>
      </trkpt>
      <trkpt lat="47.50238" lon="6.73006">
        <ele>402</ele>
        <time>2014-01-11T12:56:06.692Z</time>
      </trkpt>
      <trkpt lat="47.5025" lon="6.72978">
        <ele>402</ele>
        <time>2014-01-11T12:56:11.635Z</time>
      </trkpt>
      <trkpt lat="47.50262" lon="6.72951">
        <ele>403</ele>
        <time>2014-01-11T12:56:16.704Z</time>
      </trkpt>
      <trkpt lat="47.5027" lon="6.72926">
        <ele>403</ele>
        <time>2014-01-11T12:56:21.626Z</time>
      </trkpt>
      <trkpt lat="47.50279" lon="6.72902">
        <ele>403</ele>
        <time>2014-01-11T12:56:26.705Z</time>
      </trkpt>
      <trkpt lat="47.50299" lon="6.72904">
        <ele>403</ele>
        <time>2014-01-11T12:56:31.632Z</time>
      </trkpt>
      <trkpt lat="47.50316" lon="6.7291">
        <ele>403</ele>
        <time>2014-01-11T12:56:36.704Z</time>
      </trkpt>
      <trkpt lat="47.50332" lon="6.72915">
        <ele>404</ele>
        <time>2014-01-11T12:56:41.633Z</time>
      </trkpt>
      <trkpt lat="47.50347" lon="6.7292">
        <ele>404</ele>
        <time>2014-01-11T12:56:46.682Z</time>
      </trkpt>
      <trkpt lat="47.50361" lon="6.72923">
        <ele>405</ele>
        <time>2014-01-11T12:56:51.633Z</time>
      </trkpt>
      <trkpt lat="47.50373" lon="6.72927">
        <ele>405</ele>
        <time>2014-01-11T12:56:56.698Z</time>
      </trkpt>
      <trkpt lat="47.50386" lon="6.72931">
        <ele>406</ele>
        <time>2014-01-11T12:57:01.630Z</time>
      </trkpt>
      <trkpt lat="47.504" lon="6.72932">
        <ele>407</ele>
        <time>2014-01-11T12:57:06.707Z</time>
      </trkpt>
      <trkpt lat="47.50412" lon="6.72935">
        <ele>407</ele>
        <time>2014-01-11T12:57:11.631Z</time>
      </trkpt>
      <trkpt lat="47.50423" lon="6.72938">
        <ele>408</ele>
        <time>2014-01-11T12:57:16.712Z</time>
      </trkpt>
      <trkpt lat="47.50435" lon="6.7294">
        <ele>409</ele>
        <time>2014-01-11T12:57:21.634Z</time>
      </trkpt>
      <trkpt lat="47.50446" lon="6.72941">
        <ele>410</ele>
        <time>2014-01-11T12:57:26.710Z</time>
      </trkpt>
      <trkpt lat="47.50456" lon="6.72936">
        <ele>411</ele>
        <time>2014-01-11T12:57:31.629Z</time>
      </trkpt>
      <trkpt lat="47.50464" lon="6.72927">
        <ele>412</ele>
        <time>2014-01-11T12:57:36.713Z</time>
      </trkpt>
      <trkpt lat="47.50472" lon="6.72917">
        <ele>415</ele>
        <time>2014-01-11T12:57:41.646Z</time>
      </trkpt>
      <trkpt lat="47.50475" lon="6.72912">
        <ele>415</ele>
        <time>2014-01-11T12:57:46.704Z</time>
      </trkpt>
      <trkpt lat="47.50475" lon="6.72912">
        <ele>415</ele>
        <time>2014-01-11T12:57:51.628Z</time>
      </trkpt>
      <trkpt lat="47.50475" lon="6.72911">
        <ele>415</ele>
        <time>2014-01-11T12:57:56.668Z</time>
      </trkpt>
      <trkpt lat="47.50475" lon="6.72911">
        <ele>415</ele>
        <time>2014-01-11T12:58:01.636Z</time>
      </trkpt>
      <trkpt lat="47.50476" lon="6.72909">
        <ele>414</ele>
        <time>2014-01-11T12:58:06.668Z</time>
      </trkpt>
      <trkpt lat="47.50476" lon="6.72909">
        <ele>414</ele>
        <time>2014-01-11T12:58:11.635Z</time>
      </trkpt>
      <trkpt lat="47.50476" lon="6.72909">
        <ele>414</ele>
        <time>2014-01-11T12:58:16.703Z</time>
      </trkpt>
      <trkpt lat="47.50477" lon="6.72908">
        <ele>414</ele>
        <time>2014-01-11T12:58:21.634Z</time>
      </trkpt>
      <trkpt lat="47.50477" lon="6.72908">
        <ele>414</ele>
        <time>2014-01-11T12:58:26.714Z</time>
      </trkpt>
      <trkpt lat="47.50477" lon="6.72908">
        <ele>413</ele>
        <time>2014-01-11T12:58:31.637Z</time>
      </trkpt>
      <trkpt lat="47.50478" lon="6.72907">
        <ele>413</ele>
        <time>2014-01-11T12:58:36.707Z</time>
      </trkpt>
      <trkpt lat="47.50485" lon="6.72899">
        <ele>415</ele>
        <time>2014-01-11T12:58:41.598Z</time>
      </trkpt>
      <trkpt lat="47.50497" lon="6.72887">
        <ele>417</ele>
        <time>2014-01-11T12:58:46.706Z</time>
      </trkpt>
      <trkpt lat="47.50509" lon="6.72877">
        <ele>418</ele>
        <time>2014-01-11T12:58:51.634Z</time>
      </trkpt>
      <trkpt lat="47.5052" lon="6.72867">
        <ele>420</ele>
        <time>2014-01-11T12:58:56.706Z</time>
      </trkpt>
      <trkpt lat="47.50529" lon="6.72858">
        <ele>421</ele>
        <time>2014-01-11T12:59:01.626Z</time>
      </trkpt>
      <trkpt lat="47.50538" lon="6.72852">
        <ele>423</ele>
        <time>2014-01-11T12:59:06.708Z</time>
      </trkpt>
      <trkpt lat="47.50547" lon="6.72845">
        <ele>425</ele>
        <time>2014-01-11T12:59:11.626Z</time>
      </trkpt>
      <trkpt lat="47.50559" lon="6.72839">
        <ele>425</ele>
        <time>2014-01-11T12:59:16.702Z</time>
      </trkpt>
      <trkpt lat="47.50568" lon="6.72833">
        <ele>426</ele>
        <time>2014-01-11T12:59:21.635Z</time>
      </trkpt>
      <trkpt lat="47.50576" lon="6.72827">
        <ele>427</ele>
        <time>2014-01-11T12:59:26.702Z</time>
      </trkpt>
      <trkpt lat="47.50583" lon="6.72822">
        <ele>428</ele>
        <time>2014-01-11T12:59:31.626Z</time>
      </trkpt>
      <trkpt lat="47.50589" lon="6.72816">
        <ele>430</ele>
        <time>2014-01-11T12:59:36.703Z</time>
      </trkpt>
      <trkpt lat="47.50595" lon="6.7281">
        <ele>431</ele>
        <time>2014-01-11T12:59:41.625Z</time>
      </trkpt>
      <trkpt lat="47.506" lon="6.72805">
        <ele>434</ele>
        <time>2014-01-11T12:59:46.626Z</time>
      </trkpt>
      <trkpt lat="47.50609" lon="6.72799">
        <ele>436</ele>
        <time>2014-01-11T12:59:51.702Z</time>
      </trkpt>
      <trkpt lat="47.50621" lon="6.72792">
        <ele>437</ele>
        <time>2014-01-11T12:59:56.625Z</time>
      </trkpt>
      <trkpt lat="47.50628" lon="6.72787">
        <ele>439</ele>
        <time>2014-01-11T13:00:01.704Z</time>
      </trkpt>
      <trkpt lat="47.50635" lon="6.7278">
        <ele>440</ele>
        <time>2014-01-11T13:00:06.629Z</time>
      </trkpt>
      <trkpt lat="47.50642" lon="6.72772">
        <ele>441</ele>
        <time>2014-01-11T13:00:11.701Z</time>
      </trkpt>
      <trkpt lat="47.5065" lon="6.72765">
        <ele>444</ele>
        <time>2014-01-11T13:00:16.638Z</time>
      </trkpt>
      <trkpt lat="47.5066" lon="6.72754">
        <ele>446</ele>
        <time>2014-01-11T13:00:21.690Z</time>
      </trkpt>
      <trkpt lat="47.50669" lon="6.72746">
        <ele>447</ele>
        <time>2014-01-11T13:00:26.640Z</time>
      </trkpt>
      <trkpt lat="47.50674" lon="6.72738">
        <ele>448</ele>
        <time>2014-01-11T13:00:31.705Z</time>
      </trkpt>
      <trkpt lat="47.50682" lon="6.72726">
        <ele>450</ele>
        <time>2014-01-11T13:00:36.640Z</time>
      </trkpt>
      <trkpt lat="47.50691" lon="6.72715">
        <ele>452</ele>
        <time>2014-01-11T13:00:41.693Z</time>
      </trkpt>
      <trkpt lat="47.50701" lon="6.72704">
        <ele>453</ele>
        <time>2014-01-11T13:00:46.845Z</time>
      </trkpt>
      <trkpt lat="47.50711" lon="6.72694">
        <ele>454</ele>
        <time>2014-01-11T13:00:51.703Z</time>
      </trkpt>
      <trkpt lat="47.50721" lon="6.72682">
        <ele>455</ele>
        <time>2014-01-11T13:00:56.625Z</time>
      </trkpt>
      <trkpt lat="47.50731" lon="6.72669">
        <ele>456</ele>
        <time>2014-01-11T13:01:01.707Z</time>
      </trkpt>
      <trkpt lat="47.50745" lon="6.72654">
        <ele>456</ele>
        <time>2014-01-11T13:01:06.628Z</time>
      </trkpt>
      <trkpt lat="47.50755" lon="6.72641">
        <ele>456</ele>
        <time>2014-01-11T13:01:11.705Z</time>
      </trkpt>
      <trkpt lat="47.50767" lon="6.72628">
        <ele>457</ele>
        <time>2014-01-11T13:01:16.623Z</time>
      </trkpt>
      <trkpt lat="47.50775" lon="6.72618">
        <ele>458</ele>
        <time>2014-01-11T13:01:21.704Z</time>
      </trkpt>
      <trkpt lat="47.50791" lon="6.72604">
        <ele>459</ele>
        <time>2014-01-11T13:01:26.628Z</time>
      </trkpt>
      <trkpt lat="47.50801" lon="6.7259">
        <ele>460</ele>
        <time>2014-01-11T13:01:31.709Z</time>
      </trkpt>
      <trkpt lat="47.50807" lon="6.72578">
        <ele>462</ele>
        <time>2014-01-11T13:01:36.629Z</time>
      </trkpt>
      <trkpt lat="47.50813" lon="6.72568">
        <ele>463</ele>
        <time>2014-01-11T13:01:41.684Z</time>
      </trkpt>
      <trkpt lat="47.50827" lon="6.72558">
        <ele>464</ele>
        <time>2014-01-11T13:01:46.624Z</time>
      </trkpt>
      <trkpt lat="47.50839" lon="6.7255">
        <ele>465</ele>
        <time>2014-01-11T13:01:51.702Z</time>
      </trkpt>
      <trkpt lat="47.50868" lon="6.72539">
        <ele>468</ele>
        <time>2014-01-11T13:02:09.323Z</time>
      </trkpt>
      <trkpt lat="47.50878" lon="6.72536">
        <ele>468</ele>
        <time>2014-01-11T13:02:11.683Z</time>
      </trkpt>
      <trkpt lat="47.50887" lon="6.72532">
        <ele>469</ele>
        <time>2014-01-11T13:02:16.613Z</time>
      </trkpt>
      <trkpt lat="47.50902" lon="6.7253">
        <ele>471</ele>
        <time>2014-01-11T13:02:26.629Z</time>
      </trkpt>
      <trkpt lat="47.5091" lon="6.72528">
        <ele>471</ele>
        <time>2014-01-11T13:02:31.705Z</time>
      </trkpt>
      <trkpt lat="47.50915" lon="6.72528">
        <ele>472</ele>
        <time>2014-01-11T13:02:36.631Z</time>
      </trkpt>
      <trkpt lat="47.50922" lon="6.72525">
        <ele>473</ele>
        <time>2014-01-11T13:02:41.669Z</time>
      </trkpt>
      <trkpt lat="47.50932" lon="6.72524">
        <ele>473</ele>
        <time>2014-01-11T13:02:46.634Z</time>
      </trkpt>
      <trkpt lat="47.50937" lon="6.72522">
        <ele>473</ele>
        <time>2014-01-11T13:02:51.658Z</time>
      </trkpt>
      <trkpt lat="47.50943" lon="6.72521">
        <ele>473</ele>
        <time>2014-01-11T13:02:56.631Z</time>
      </trkpt>
      <trkpt lat="47.50955" lon="6.72519">
        <ele>473</ele>
        <time>2014-01-11T13:03:01.703Z</time>
      </trkpt>
      <trkpt lat="47.50965" lon="6.72514">
        <ele>474</ele>
        <time>2014-01-11T13:03:06.622Z</time>
      </trkpt>
      <trkpt lat="47.50971" lon="6.72514">
        <ele>476</ele>
        <time>2014-01-11T13:03:11.713Z</time>
      </trkpt>
      <trkpt lat="47.50978" lon="6.7251">
        <ele>477</ele>
        <time>2014-01-11T13:03:16.624Z</time>
      </trkpt>
      <trkpt lat="47.50985" lon="6.72509">
        <ele>477</ele>
        <time>2014-01-11T13:03:21.703Z</time>
      </trkpt>
      <trkpt lat="47.50993" lon="6.72509">
        <ele>478</ele>
        <time>2014-01-11T13:03:26.628Z</time>
      </trkpt>
      <trkpt lat="47.50998" lon="6.72509">
        <ele>478</ele>
        <time>2014-01-11T13:03:31.678Z</time>
      </trkpt>
      <trkpt lat="47.51003" lon="6.72511">
        <ele>479</ele>
        <time>2014-01-11T13:03:36.627Z</time>
      </trkpt>
      <trkpt lat="47.51009" lon="6.72513">
        <ele>479</ele>
        <time>2014-01-11T13:03:41.664Z</time>
      </trkpt>
      <trkpt lat="47.51016" lon="6.72514">
        <ele>481</ele>
        <time>2014-01-11T13:03:46.686Z</time>
      </trkpt>
      <trkpt lat="47.51022" lon="6.72513">
        <ele>481</ele>
        <time>2014-01-11T13:03:51.636Z</time>
      </trkpt>
      <trkpt lat="47.51029" lon="6.72513">
        <ele>483</ele>
        <time>2014-01-11T13:03:56.695Z</time>
      </trkpt>
      <trkpt lat="47.51055" lon="6.72519">
        <ele>484</ele>
        <time>2014-01-11T13:04:11.633Z</time>
      </trkpt>
      <trkpt lat="47.51061" lon="6.72522">
        <ele>484</ele>
        <time>2014-01-11T13:04:16.627Z</time>
      </trkpt>
      <trkpt lat="47.51067" lon="6.72525">
        <ele>484</ele>
        <time>2014-01-11T13:04:21.704Z</time>
      </trkpt>
      <trkpt lat="47.51074" lon="6.72528">
        <ele>485</ele>
        <time>2014-01-11T13:04:26.635Z</time>
      </trkpt>
      <trkpt lat="47.51079" lon="6.72531">
        <ele>486</ele>
        <time>2014-01-11T13:04:31.707Z</time>
      </trkpt>
      <trkpt lat="47.51082" lon="6.72534">
        <ele>487</ele>
        <time>2014-01-11T13:04:36.629Z</time>
      </trkpt>
      <trkpt lat="47.51087" lon="6.72537">
        <ele>490</ele>
        <time>2014-01-11T13:04:41.702Z</time>
      </trkpt>
      <trkpt lat="47.51092" lon="6.7254">
        <ele>492</ele>
        <time>2014-01-11T13:04:46.633Z</time>
      </trkpt>
      <trkpt lat="47.51095" lon="6.72542">
        <ele>492</ele>
        <time>2014-01-11T13:04:51.702Z</time>
      </trkpt>
      <trkpt lat="47.51098" lon="6.72541">
        <ele>494</ele>
        <time>2014-01-11T13:04:56.703Z</time>
      </trkpt>
      <trkpt lat="47.51098" lon="6.72541">
        <ele>494</ele>
        <time>2014-01-11T13:05:01.635Z</time>
      </trkpt>
      <trkpt lat="47.51098" lon="6.72541">
        <ele>494</ele>
        <time>2014-01-11T13:05:06.677Z</time>
      </trkpt>
      <trkpt lat="47.51098" lon="6.72541">
        <ele>494</ele>
        <time>2014-01-11T13:05:11.631Z</time>
      </trkpt>
      <trkpt lat="47.51098" lon="6.72541">
        <ele>494</ele>
        <time>2014-01-11T13:05:16.693Z</time>
      </trkpt>
      <trkpt lat="47.51099" lon="6.72541">
        <ele>494</ele>
        <time>2014-01-11T13:05:21.630Z</time>
      </trkpt>
      <trkpt lat="47.51099" lon="6.72541">
        <ele>494</ele>
        <time>2014-01-11T13:05:26.705Z</time>
      </trkpt>
      <trkpt lat="47.51098" lon="6.72541">
        <ele>495</ele>
        <time>2014-01-11T13:05:31.632Z</time>
      </trkpt>
      <trkpt lat="47.51095" lon="6.72537">
        <ele>495</ele>
        <time>2014-01-11T13:05:36.707Z</time>
      </trkpt>
      <trkpt lat="47.51093" lon="6.72539">
        <ele>495</ele>
        <time>2014-01-11T13:05:41.629Z</time>
      </trkpt>
      <trkpt lat="47.51089" lon="6.7254">
        <ele>496</ele>
        <time>2014-01-11T13:05:46.703Z</time>
      </trkpt>
      <trkpt lat="47.51088" lon="6.7254">
        <ele>496</ele>
        <time>2014-01-11T13:05:51.639Z</time>
      </trkpt>
      <trkpt lat="47.51095" lon="6.72541">
        <ele>498</ele>
        <time>2014-01-11T13:05:56.675Z</time>
      </trkpt>
      <trkpt lat="47.51112" lon="6.72546">
        <ele>499</ele>
        <time>2014-01-11T13:06:06.689Z</time>
      </trkpt>
      <trkpt lat="47.5112" lon="6.72549">
        <ele>499</ele>
        <time>2014-01-11T13:06:11.634Z</time>
      </trkpt>
      <trkpt lat="47.51131" lon="6.7255">
        <ele>500</ele>
        <time>2014-01-11T13:06:16.715Z</time>
      </trkpt>
      <trkpt lat="47.51139" lon="6.72552">
        <ele>501</ele>
        <time>2014-01-11T13:06:21.628Z</time>
      </trkpt>
      <trkpt lat="47.51148" lon="6.72553">
        <ele>501</ele>
        <time>2014-01-11T13:06:26.711Z</time>
      </trkpt>
      <trkpt lat="47.51155" lon="6.72559">
        <ele>502</ele>
        <time>2014-01-11T13:06:31.633Z</time>
      </trkpt>
      <trkpt lat="47.51165" lon="6.72561">
        <ele>502</ele>
        <time>2014-01-11T13:06:37.016Z</time>
      </trkpt>
      <trkpt lat="47.51173" lon="6.72565">
        <ele>502</ele>
        <time>2014-01-11T13:06:41.638Z</time>
      </trkpt>
      <trkpt lat="47.51181" lon="6.72568">
        <ele>502</ele>
        <time>2014-01-11T13:06:46.707Z</time>
      </trkpt>
      <trkpt lat="47.51188" lon="6.72567">
        <ele>502</ele>
        <time>2014-01-11T13:06:51.641Z</time>
      </trkpt>
      <trkpt lat="47.51194" lon="6.72568">
        <ele>502</ele>
        <time>2014-01-11T13:06:56.683Z</time>
      </trkpt>
      <trkpt lat="47.51201" lon="6.72568">
        <ele>502</ele>
        <time>2014-01-11T13:07:01.628Z</time>
      </trkpt>
      <trkpt lat="47.5121" lon="6.72572">
        <ele>501</ele>
        <time>2014-01-11T13:07:06.704Z</time>
      </trkpt>
      <trkpt lat="47.51215" lon="6.72577">
        <ele>502</ele>
        <time>2014-01-11T13:07:11.630Z</time>
      </trkpt>
      <trkpt lat="47.51223" lon="6.72581">
        <ele>503</ele>
        <time>2014-01-11T13:07:16.705Z</time>
      </trkpt>
      <trkpt lat="47.51237" lon="6.72583">
        <ele>502</ele>
        <time>2014-01-11T13:07:21.629Z</time>
      </trkpt>
      <trkpt lat="47.51252" lon="6.72582">
        <ele>501</ele>
        <time>2014-01-11T13:07:26.703Z</time>
      </trkpt>
      <trkpt lat="47.51261" lon="6.72583">
        <ele>502</ele>
        <time>2014-01-11T13:07:31.634Z</time>
      </trkpt>
      <trkpt lat="47.51269" lon="6.72587">
        <ele>502</ele>
        <time>2014-01-11T13:07:36.693Z</time>
      </trkpt>
      <trkpt lat="47.5128" lon="6.72591">
        <ele>502</ele>
        <time>2014-01-11T13:07:41.638Z</time>
      </trkpt>
      <trkpt lat="47.5129" lon="6.72597">
        <ele>501</ele>
        <time>2014-01-11T13:07:46.705Z</time>
      </trkpt>
      <trkpt lat="47.51301" lon="6.72601">
        <ele>500</ele>
        <time>2014-01-11T13:07:51.629Z</time>
      </trkpt>
      <trkpt lat="47.51314" lon="6.72606">
        <ele>500</ele>
        <time>2014-01-11T13:07:56.695Z</time>
      </trkpt>
      <trkpt lat="47.51324" lon="6.72613">
        <ele>499</ele>
        <time>2014-01-11T13:08:01.628Z</time>
      </trkpt>
      <trkpt lat="47.51331" lon="6.72624">
        <ele>498</ele>
        <time>2014-01-11T13:08:06.704Z</time>
      </trkpt>
      <trkpt lat="47.51338" lon="6.72631">
        <ele>498</ele>
        <time>2014-01-11T13:08:11.627Z</time>
      </trkpt>
      <trkpt lat="47.51346" lon="6.72638">
        <ele>498</ele>
        <time>2014-01-11T13:08:16.684Z</time>
      </trkpt>
      <trkpt lat="47.51351" lon="6.72646">
        <ele>497</ele>
        <time>2014-01-11T13:08:21.626Z</time>
      </trkpt>
      <trkpt lat="47.51352" lon="6.7265">
        <ele>497</ele>
        <time>2014-01-11T13:08:26.705Z</time>
      </trkpt>
      <trkpt lat="47.51353" lon="6.72644">
        <ele>496</ele>
        <time>2014-01-11T13:08:31.627Z</time>
      </trkpt>
      <trkpt lat="47.51353" lon="6.72634">
        <ele>495</ele>
        <time>2014-01-11T13:08:36.706Z</time>
      </trkpt>
      <trkpt lat="47.51349" lon="6.72628">
        <ele>496</ele>
        <time>2014-01-11T13:08:41.632Z</time>
      </trkpt>
      <trkpt lat="47.51354" lon="6.72628">
        <ele>496</ele>
        <time>2014-01-11T13:08:46.701Z</time>
      </trkpt>
      <trkpt lat="47.51363" lon="6.72625">
        <ele>497</ele>
        <time>2014-01-11T13:08:51.636Z</time>
      </trkpt>
      <trkpt lat="47.51373" lon="6.72623">
        <ele>497</ele>
        <time>2014-01-11T13:08:56.672Z</time>
      </trkpt>
      <trkpt lat="47.51384" lon="6.72611">
        <ele>497</ele>
        <time>2014-01-11T13:09:01.621Z</time>
      </trkpt>
      <trkpt lat="47.51386" lon="6.72592">
        <ele>496</ele>
        <time>2014-01-11T13:09:06.705Z</time>
      </trkpt>
      <trkpt lat="47.5139" lon="6.72564">
        <ele>495</ele>
        <time>2014-01-11T13:09:11.636Z</time>
      </trkpt>
      <trkpt lat="47.5139" lon="6.7254">
        <ele>494</ele>
        <time>2014-01-11T13:09:16.693Z</time>
      </trkpt>
      <trkpt lat="47.51388" lon="6.72517">
        <ele>492</ele>
        <time>2014-01-11T13:09:21.629Z</time>
      </trkpt>
      <trkpt lat="47.51386" lon="6.72494">
        <ele>490</ele>
        <time>2014-01-11T13:09:26.704Z</time>
      </trkpt>
      <trkpt lat="47.51381" lon="6.72471">
        <ele>490</ele>
        <time>2014-01-11T13:09:31.637Z</time>
      </trkpt>
      <trkpt lat="47.51378" lon="6.72453">
        <ele>490</ele>
        <time>2014-01-11T13:09:36.698Z</time>
      </trkpt>
      <trkpt lat="47.51378" lon="6.72449">
        <ele>491</ele>
        <time>2014-01-11T13:09:41.625Z</time>
      </trkpt>
      <trkpt lat="47.51389" lon="6.72444">
        <ele>491</ele>
        <time>2014-01-11T13:09:46.704Z</time>
      </trkpt>
      <trkpt lat="47.51402" lon="6.72436">
        <ele>491</ele>
        <time>2014-01-11T13:09:51.631Z</time>
      </trkpt>
      <trkpt lat="47.5149" lon="6.72404">
        <ele>485</ele>
        <time>2014-01-11T13:10:11.623Z</time>
      </trkpt>
      <trkpt lat="47.51493" lon="6.72396">
        <ele>483</ele>
        <time>2014-01-11T13:10:17.611Z</time>
      </trkpt>
      <trkpt lat="47.51488" lon="6.72382">
        <ele>482</ele>
        <time>2014-01-11T13:10:21.624Z</time>
      </trkpt>
      <trkpt lat="47.51484" lon="6.72364">
        <ele>481</ele>
        <time>2014-01-11T13:10:26.701Z</time>
      </trkpt>
      <trkpt lat="47.51478" lon="6.72339">
        <ele>480</ele>
        <time>2014-01-11T13:10:31.630Z</time>
      </trkpt>
      <trkpt lat="47.5148" lon="6.72319">
        <ele>478</ele>
        <time>2014-01-11T13:10:36.659Z</time>
      </trkpt>
      <trkpt lat="47.51478" lon="6.72299">
        <ele>478</ele>
        <time>2014-01-11T13:10:41.618Z</time>
      </trkpt>
      <trkpt lat="47.51483" lon="6.72295">
        <ele>478</ele>
        <time>2014-01-11T13:10:46.703Z</time>
      </trkpt>
      <trkpt lat="47.51498" lon="6.72287">
        <ele>479</ele>
        <time>2014-01-11T13:10:51.618Z</time>
      </trkpt>
      <trkpt lat="47.51525" lon="6.72278">
        <ele>477</ele>
        <time>2014-01-11T13:10:56.704Z</time>
      </trkpt>
      <trkpt lat="47.51549" lon="6.72269">
        <ele>476</ele>
        <time>2014-01-11T13:11:01.632Z</time>
      </trkpt>
      <trkpt lat="47.51563" lon="6.72264">
        <ele>474</ele>
        <time>2014-01-11T13:11:06.701Z</time>
      </trkpt>
      <trkpt lat="47.51584" lon="6.72254">
        <ele>473</ele>
        <time>2014-01-11T13:11:11.611Z</time>
      </trkpt>
      <trkpt lat="47.51611" lon="6.72242">
        <ele>472</ele>
        <time>2014-01-11T13:11:16.704Z</time>
      </trkpt>
      <trkpt lat="47.51644" lon="6.72232">
        <ele>471</ele>
        <time>2014-01-11T13:11:21.618Z</time>
      </trkpt>
      <trkpt lat="47.51672" lon="6.72218">
        <ele>470</ele>
        <time>2014-01-11T13:11:26.702Z</time>
      </trkpt>
      <trkpt lat="47.51703" lon="6.72203">
        <ele>469</ele>
        <time>2014-01-11T13:11:31.625Z</time>
      </trkpt>
      <trkpt lat="47.51725" lon="6.72202">
        <ele>468</ele>
        <time>2014-01-11T13:11:36.705Z</time>
      </trkpt>
      <trkpt lat="47.51748" lon="6.7221">
        <ele>467</ele>
        <time>2014-01-11T13:11:41.626Z</time>
      </trkpt>
      <trkpt lat="47.51771" lon="6.72215">
        <ele>465</ele>
        <time>2014-01-11T13:11:46.701Z</time>
      </trkpt>
      <trkpt lat="47.51789" lon="6.72218">
        <ele>464</ele>
        <time>2014-01-11T13:11:51.627Z</time>
      </trkpt>
      <trkpt lat="47.51805" lon="6.72224">
        <ele>465</ele>
        <time>2014-01-11T13:11:56.703Z</time>
      </trkpt>
      <trkpt lat="47.51827" lon="6.72231">
        <ele>465</ele>
        <time>2014-01-11T13:12:01.634Z</time>
      </trkpt>
      <trkpt lat="47.51851" lon="6.72231">
        <ele>464</ele>
        <time>2014-01-11T13:12:06.675Z</time>
      </trkpt>
      <trkpt lat="47.51868" lon="6.72231">
        <ele>462</ele>
        <time>2014-01-11T13:12:11.622Z</time>
      </trkpt>
      <trkpt lat="47.5188" lon="6.72234">
        <ele>462</ele>
        <time>2014-01-11T13:12:16.620Z</time>
      </trkpt>
      <trkpt lat="47.51894" lon="6.72234">
        <ele>463</ele>
        <time>2014-01-11T13:12:21.705Z</time>
      </trkpt>
      <trkpt lat="47.51905" lon="6.72234">
        <ele>463</ele>
        <time>2014-01-11T13:12:26.632Z</time>
      </trkpt>
      <trkpt lat="47.51919" lon="6.72227">
        <ele>463</ele>
        <time>2014-01-11T13:12:31.706Z</time>
      </trkpt>
      <trkpt lat="47.51931" lon="6.72227">
        <ele>463</ele>
        <time>2014-01-11T13:12:36.625Z</time>
      </trkpt>
      <trkpt lat="47.51937" lon="6.72227">
        <ele>461</ele>
        <time>2014-01-11T13:12:41.707Z</time>
      </trkpt>
      <trkpt lat="47.51937" lon="6.7223">
        <ele>460</ele>
        <time>2014-01-11T13:12:46.635Z</time>
      </trkpt>
      <trkpt lat="47.51945" lon="6.72231">
        <ele>460</ele>
        <time>2014-01-11T13:12:51.662Z</time>
      </trkpt>
      <trkpt lat="47.5195" lon="6.72233">
        <ele>461</ele>
        <time>2014-01-11T13:12:56.636Z</time>
      </trkpt>
      <trkpt lat="47.51959" lon="6.72236">
        <ele>461</ele>
        <time>2014-01-11T13:13:01.698Z</time>
      </trkpt>
      <trkpt lat="47.51969" lon="6.72232">
        <ele>461</ele>
        <time>2014-01-11T13:13:06.625Z</time>
      </trkpt>
      <trkpt lat="47.51982" lon="6.72227">
        <ele>461</ele>
        <time>2014-01-11T13:13:11.702Z</time>
      </trkpt>
      <trkpt lat="47.51995" lon="6.72219">
        <ele>459</ele>
        <time>2014-01-11T13:13:16.629Z</time>
      </trkpt>
      <trkpt lat="47.52004" lon="6.72211">
        <ele>458</ele>
        <time>2014-01-11T13:13:21.706Z</time>
      </trkpt>
      <trkpt lat="47.52011" lon="6.72201">
        <ele>458</ele>
        <time>2014-01-11T13:13:26.635Z</time>
      </trkpt>
      <trkpt lat="47.52017" lon="6.72194">
        <ele>457</ele>
        <time>2014-01-11T13:13:31.702Z</time>
      </trkpt>
      <trkpt lat="47.52019" lon="6.72185">
        <ele>458</ele>
        <time>2014-01-11T13:13:36.640Z</time>
      </trkpt>
      <trkpt lat="47.5202" lon="6.72178">
        <ele>459</ele>
        <time>2014-01-11T13:13:41.701Z</time>
      </trkpt>
      <trkpt lat="47.52024" lon="6.72169">
        <ele>459</ele>
        <time>2014-01-11T13:13:46.639Z</time>
      </trkpt>
      <trkpt lat="47.52028" lon="6.72159">
        <ele>459</ele>
        <time>2014-01-11T13:13:51.703Z</time>
      </trkpt>
      <trkpt lat="47.52033" lon="6.7215">
        <ele>459</ele>
        <time>2014-01-11T13:13:56.629Z</time>
      </trkpt>
      <trkpt lat="47.5204" lon="6.7214">
        <ele>457</ele>
        <time>2014-01-11T13:14:01.703Z</time>
      </trkpt>
      <trkpt lat="47.52042" lon="6.72128">
        <ele>458</ele>
        <time>2014-01-11T13:14:06.694Z</time>
      </trkpt>
      <trkpt lat="47.52042" lon="6.72118">
        <ele>459</ele>
        <time>2014-01-11T13:14:11.629Z</time>
      </trkpt>
      <trkpt lat="47.52044" lon="6.72106">
        <ele>460</ele>
        <time>2014-01-11T13:14:16.663Z</time>
      </trkpt>
      <trkpt lat="47.52046" lon="6.72098">
        <ele>461</ele>
        <time>2014-01-11T13:14:21.698Z</time>
      </trkpt>
      <trkpt lat="47.52049" lon="6.72087">
        <ele>460</ele>
        <time>2014-01-11T13:14:26.638Z</time>
      </trkpt>
      <trkpt lat="47.52045" lon="6.72065">
        <ele>461</ele>
        <time>2014-01-11T13:14:36.638Z</time>
      </trkpt>
      <trkpt lat="47.52047" lon="6.72057">
        <ele>461</ele>
        <time>2014-01-11T13:14:41.666Z</time>
      </trkpt>
      <trkpt lat="47.52046" lon="6.72045">
        <ele>462</ele>
        <time>2014-01-11T13:14:46.628Z</time>
      </trkpt>
      <trkpt lat="47.52046" lon="6.72033">
        <ele>463</ele>
        <time>2014-01-11T13:14:51.684Z</time>
      </trkpt>
      <trkpt lat="47.52046" lon="6.72021">
        <ele>463</ele>
        <time>2014-01-11T13:14:56.628Z</time>
      </trkpt>
      <trkpt lat="47.52042" lon="6.71997">
        <ele>462</ele>
        <time>2014-01-11T13:15:06.615Z</time>
      </trkpt>
      <trkpt lat="47.52041" lon="6.71985">
        <ele>462</ele>
        <time>2014-01-11T13:15:11.629Z</time>
      </trkpt>
      <trkpt lat="47.52041" lon="6.71973">
        <ele>462</ele>
        <time>2014-01-11T13:15:16.705Z</time>
      </trkpt>
      <trkpt lat="47.52043" lon="6.71959">
        <ele>461</ele>
        <time>2014-01-11T13:15:21.633Z</time>
      </trkpt>
      <trkpt lat="47.52042" lon="6.71951">
        <ele>461</ele>
        <time>2014-01-11T13:15:26.683Z</time>
      </trkpt>
      <trkpt lat="47.52042" lon="6.71941">
        <ele>463</ele>
        <time>2014-01-11T13:15:31.627Z</time>
      </trkpt>
      <trkpt lat="47.52039" lon="6.71926">
        <ele>463</ele>
        <time>2014-01-11T13:15:36.704Z</time>
      </trkpt>
      <trkpt lat="47.5204" lon="6.71913">
        <ele>465</ele>
        <time>2014-01-11T13:15:41.640Z</time>
      </trkpt>
      <trkpt lat="47.52043" lon="6.71901">
        <ele>465</ele>
        <time>2014-01-11T13:15:46.700Z</time>
      </trkpt>
      <trkpt lat="47.52045" lon="6.71891">
        <ele>465</ele>
        <time>2014-01-11T13:15:51.642Z</time>
      </trkpt>
      <trkpt lat="47.52045" lon="6.71877">
        <ele>464</ele>
        <time>2014-01-11T13:15:56.697Z</time>
      </trkpt>
      <trkpt lat="47.52042" lon="6.71864">
        <ele>464</ele>
        <time>2014-01-11T13:16:01.634Z</time>
      </trkpt>
      <trkpt lat="47.52037" lon="6.7185">
        <ele>465</ele>
        <time>2014-01-11T13:16:06.704Z</time>
      </trkpt>
      <trkpt lat="47.5203" lon="6.71835">
        <ele>468</ele>
        <time>2014-01-11T13:16:11.634Z</time>
      </trkpt>
      <trkpt lat="47.52031" lon="6.71817">
        <ele>470</ele>
        <time>2014-01-11T13:16:16.705Z</time>
      </trkpt>
      <trkpt lat="47.52038" lon="6.71799">
        <ele>470</ele>
        <time>2014-01-11T13:16:21.603Z</time>
      </trkpt>
      <trkpt lat="47.52041" lon="6.71785">
        <ele>471</ele>
        <time>2014-01-11T13:16:26.678Z</time>
      </trkpt>
      <trkpt lat="47.52045" lon="6.7177">
        <ele>470</ele>
        <time>2014-01-11T13:16:31.626Z</time>
      </trkpt>
      <trkpt lat="47.5205" lon="6.71756">
        <ele>471</ele>
        <time>2014-01-11T13:16:36.702Z</time>
      </trkpt>
      <trkpt lat="47.52054" lon="6.71746">
        <ele>473</ele>
        <time>2014-01-11T13:16:41.638Z</time>
      </trkpt>
      <trkpt lat="47.52061" lon="6.71735">
        <ele>475</ele>
        <time>2014-01-11T13:16:46.664Z</time>
      </trkpt>
      <trkpt lat="47.52065" lon="6.71722">
        <ele>477</ele>
        <time>2014-01-11T13:16:51.629Z</time>
      </trkpt>
      <trkpt lat="47.52069" lon="6.7171">
        <ele>479</ele>
        <time>2014-01-11T13:16:56.666Z</time>
      </trkpt>
      <trkpt lat="47.52073" lon="6.71696">
        <ele>480</ele>
        <time>2014-01-11T13:17:01.607Z</time>
      </trkpt>
      <trkpt lat="47.52079" lon="6.71683">
        <ele>480</ele>
        <time>2014-01-11T13:17:06.704Z</time>
      </trkpt>
      <trkpt lat="47.52088" lon="6.7167">
        <ele>479</ele>
        <time>2014-01-11T13:17:11.634Z</time>
      </trkpt>
      <trkpt lat="47.52096" lon="6.71657">
        <ele>475</ele>
        <time>2014-01-11T13:17:16.701Z</time>
      </trkpt>
      <trkpt lat="47.52107" lon="6.71641">
        <ele>471</ele>
        <time>2014-01-11T13:17:21.638Z</time>
      </trkpt>
      <trkpt lat="47.52118" lon="6.71622">
        <ele>469</ele>
        <time>2014-01-11T13:17:26.703Z</time>
      </trkpt>
      <trkpt lat="47.52134" lon="6.71607">
        <ele>466</ele>
        <time>2014-01-11T13:17:31.638Z</time>
      </trkpt>
      <trkpt lat="47.52149" lon="6.71601">
        <ele>466</ele>
        <time>2014-01-11T13:17:36.706Z</time>
      </trkpt>
      <trkpt lat="47.52157" lon="6.71597">
        <ele>464</ele>
        <time>2014-01-11T13:17:41.634Z</time>
      </trkpt>
      <trkpt lat="47.52161" lon="6.71591">
        <ele>463</ele>
        <time>2014-01-11T13:17:46.705Z</time>
      </trkpt>
      <trkpt lat="47.52165" lon="6.71568">
        <ele>463</ele>
        <time>2014-01-11T13:17:51.642Z</time>
      </trkpt>
      <trkpt lat="47.52169" lon="6.71537">
        <ele>462</ele>
        <time>2014-01-11T13:17:56.668Z</time>
      </trkpt>
      <trkpt lat="47.52176" lon="6.71505">
        <ele>460</ele>
        <time>2014-01-11T13:18:01.618Z</time>
      </trkpt>
      <trkpt lat="47.52171" lon="6.71461">
        <ele>459</ele>
        <time>2014-01-11T13:18:06.621Z</time>
      </trkpt>
      <trkpt lat="47.52162" lon="6.71414">
        <ele>456</ele>
        <time>2014-01-11T13:18:11.706Z</time>
      </trkpt>
      <trkpt lat="47.52152" lon="6.71363">
        <ele>455</ele>
        <time>2014-01-11T13:18:16.642Z</time>
      </trkpt>
      <trkpt lat="47.52168" lon="6.71314">
        <ele>455</ele>
        <time>2014-01-11T13:18:21.693Z</time>
      </trkpt>
      <trkpt lat="47.52209" lon="6.71275">
        <ele>454</ele>
        <time>2014-01-11T13:18:26.963Z</time>
      </trkpt>
      <trkpt lat="47.52248" lon="6.71241">
        <ele>453</ele>
        <time>2014-01-11T13:18:31.662Z</time>
      </trkpt>
      <trkpt lat="47.52273" lon="6.71223">
        <ele>452</ele>
        <time>2014-01-11T13:18:36.632Z</time>
      </trkpt>
      <trkpt lat="47.523" lon="6.7119">
        <ele>447</ele>
        <time>2014-01-11T13:18:41.705Z</time>
      </trkpt>
      <trkpt lat="47.52328" lon="6.71162">
        <ele>442</ele>
        <time>2014-01-11T13:18:46.639Z</time>
      </trkpt>
      <trkpt lat="47.5236" lon="6.71181">
        <ele>438</ele>
        <time>2014-01-11T13:18:51.708Z</time>
      </trkpt>
      <trkpt lat="47.52394" lon="6.7119">
        <ele>434</ele>
        <time>2014-01-11T13:18:56.626Z</time>
      </trkpt>
      <trkpt lat="47.5243" lon="6.71185">
        <ele>430</ele>
        <time>2014-01-11T13:19:01.707Z</time>
      </trkpt>
      <trkpt lat="47.52466" lon="6.71183">
        <ele>428</ele>
        <time>2014-01-11T13:19:06.630Z</time>
      </trkpt>
      <trkpt lat="47.52497" lon="6.71203">
        <ele>426</ele>
        <time>2014-01-11T13:19:11.706Z</time>
      </trkpt>
      <trkpt lat="47.52521" lon="6.71234">
        <ele>423</ele>
        <time>2014-01-11T13:19:16.636Z</time>
      </trkpt>
      <trkpt lat="47.5255" lon="6.71252">
        <ele>422</ele>
        <time>2014-01-11T13:19:21.712Z</time>
      </trkpt>
      <trkpt lat="47.52581" lon="6.71262">
        <ele>421</ele>
        <time>2014-01-11T13:19:26.637Z</time>
      </trkpt>
      <trkpt lat="47.52608" lon="6.71272">
        <ele>421</ele>
        <time>2014-01-11T13:19:31.677Z</time>
      </trkpt>
      <trkpt lat="47.52639" lon="6.7128">
        <ele>421</ele>
        <time>2014-01-11T13:19:36.640Z</time>
      </trkpt>
      <trkpt lat="47.52674" lon="6.71286">
        <ele>421</ele>
        <time>2014-01-11T13:19:41.702Z</time>
      </trkpt>
      <trkpt lat="47.52703" lon="6.71283">
        <ele>423</ele>
        <time>2014-01-11T13:19:46.622Z</time>
      </trkpt>
      <trkpt lat="47.52712" lon="6.71249">
        <ele>421</ele>
        <time>2014-01-11T13:19:51.706Z</time>
      </trkpt>
      <trkpt lat="47.52741" lon="6.71176">
        <ele>425</ele>
        <time>2014-01-11T13:20:21.644Z</time>
      </trkpt>
      <trkpt lat="47.52753" lon="6.71114">
        <ele>424</ele>
        <time>2014-01-11T13:20:26.701Z</time>
      </trkpt>
      <trkpt lat="47.52755" lon="6.7105">
        <ele>422</ele>
        <time>2014-01-11T13:20:31.791Z</time>
      </trkpt>
      <trkpt lat="47.52749" lon="6.71012">
        <ele>421</ele>
        <time>2014-01-11T13:20:36.667Z</time>
      </trkpt>
      <trkpt lat="47.52739" lon="6.70982">
        <ele>420</ele>
        <time>2014-01-11T13:20:41.620Z</time>
      </trkpt>
      <trkpt lat="47.52735" lon="6.70964">
        <ele>420</ele>
        <time>2014-01-11T13:20:46.690Z</time>
      </trkpt>
      <trkpt lat="47.5274" lon="6.70953">
        <ele>420</ele>
        <time>2014-01-11T13:20:51.626Z</time>
      </trkpt>
      <trkpt lat="47.5274" lon="6.70927">
        <ele>419</ele>
        <time>2014-01-11T13:20:56.711Z</time>
      </trkpt>
      <trkpt lat="47.5274" lon="6.70899">
        <ele>419</ele>
        <time>2014-01-11T13:21:01.615Z</time>
      </trkpt>
      <trkpt lat="47.52737" lon="6.7087">
        <ele>420</ele>
        <time>2014-01-11T13:21:06.703Z</time>
      </trkpt>
      <trkpt lat="47.52741" lon="6.70843">
        <ele>418</ele>
        <time>2014-01-11T13:21:11.621Z</time>
      </trkpt>
      <trkpt lat="47.52743" lon="6.70813">
        <ele>419</ele>
        <time>2014-01-11T13:21:16.702Z</time>
      </trkpt>
      <trkpt lat="47.52745" lon="6.70791">
        <ele>419</ele>
        <time>2014-01-11T13:21:21.616Z</time>
      </trkpt>
      <trkpt lat="47.5275" lon="6.70761">
        <ele>418</ele>
        <time>2014-01-11T13:21:26.706Z</time>
      </trkpt>
      <trkpt lat="47.52754" lon="6.7074">
        <ele>419</ele>
        <time>2014-01-11T13:21:31.624Z</time>
      </trkpt>
      <trkpt lat="47.52769" lon="6.707">
        <ele>416</ele>
        <time>2014-01-11T13:21:36.675Z</time>
      </trkpt>
      <trkpt lat="47.5277" lon="6.70663">
        <ele>414</ele>
        <time>2014-01-11T13:21:41.619Z</time>
      </trkpt>
      <trkpt lat="47.5277" lon="6.70632">
        <ele>414</ele>
        <time>2014-01-11T13:21:46.709Z</time>
      </trkpt>
      <trkpt lat="47.52763" lon="6.70609">
        <ele>414</ele>
        <time>2014-01-11T13:21:51.615Z</time>
      </trkpt>
      <trkpt lat="47.52765" lon="6.70602">
        <ele>414</ele>
        <time>2014-01-11T13:21:56.705Z</time>
      </trkpt>
      <trkpt lat="47.52776" lon="6.70601">
        <ele>413</ele>
        <time>2014-01-11T13:22:01.614Z</time>
      </trkpt>
      <trkpt lat="47.52781" lon="6.70595">
        <ele>414</ele>
        <time>2014-01-11T13:22:06.701Z</time>
      </trkpt>
      <trkpt lat="47.5278" lon="6.70595">
        <ele>412</ele>
        <time>2014-01-11T13:22:11.620Z</time>
      </trkpt>
      <trkpt lat="47.52781" lon="6.70592">
        <ele>410</ele>
        <time>2014-01-11T13:22:16.693Z</time>
      </trkpt>
      <trkpt lat="47.52784" lon="6.70588">
        <ele>410</ele>
        <time>2014-01-11T13:22:21.627Z</time>
      </trkpt>
      <trkpt lat="47.52788" lon="6.70575">
        <ele>411</ele>
        <time>2014-01-11T13:22:26.706Z</time>
      </trkpt>
      <trkpt lat="47.52791" lon="6.70563">
        <ele>411</ele>
        <time>2014-01-11T13:22:31.633Z</time>
      </trkpt>
      <trkpt lat="47.52798" lon="6.70561">
        <ele>409</ele>
        <time>2014-01-11T13:22:36.794Z</time>
      </trkpt>
      <trkpt lat="47.52805" lon="6.70567">
        <ele>408</ele>
        <time>2014-01-11T13:22:41.704Z</time>
      </trkpt>
      <trkpt lat="47.52808" lon="6.70574">
        <ele>408</ele>
        <time>2014-01-11T13:22:46.624Z</time>
      </trkpt>
      <trkpt lat="47.5281" lon="6.70575">
        <ele>409</ele>
        <time>2014-01-11T13:22:51.704Z</time>
      </trkpt>
      <trkpt lat="47.52814" lon="6.70578">
        <ele>409</ele>
        <time>2014-01-11T13:22:56.622Z</time>
      </trkpt>
      <trkpt lat="47.52818" lon="6.70582">
        <ele>410</ele>
        <time>2014-01-11T13:23:01.712Z</time>
      </trkpt>
      <trkpt lat="47.52818" lon="6.70582">
        <ele>410</ele>
        <time>2014-01-11T13:23:06.809Z</time>
      </trkpt>
      <trkpt lat="47.52815" lon="6.70583">
        <ele>410</ele>
        <time>2014-01-11T13:23:11.724Z</time>
      </trkpt>
      <trkpt lat="47.52819" lon="6.70583">
        <ele>410</ele>
        <time>2014-01-11T13:23:16.806Z</time>
      </trkpt>
      <trkpt lat="47.52828" lon="6.70587">
        <ele>417</ele>
        <time>2014-01-11T13:23:21.725Z</time>
      </trkpt>
      <trkpt lat="47.52835" lon="6.70586">
        <ele>420</ele>
        <time>2014-01-11T13:23:26.807Z</time>
      </trkpt>
      <trkpt lat="47.52842" lon="6.70572">
        <ele>421</ele>
        <time>2014-01-11T13:23:31.724Z</time>
      </trkpt>
      <trkpt lat="47.52846" lon="6.70556">
        <ele>421</ele>
        <time>2014-01-11T13:23:36.803Z</time>
      </trkpt>
      <trkpt lat="47.5285" lon="6.70534">
        <ele>420</ele>
        <time>2014-01-11T13:23:41.732Z</time>
      </trkpt>
      <trkpt lat="47.52846" lon="6.70504">
        <ele>420</ele>
        <time>2014-01-11T13:23:46.801Z</time>
      </trkpt>
      <trkpt lat="47.52843" lon="6.70479">
        <ele>420</ele>
        <time>2014-01-11T13:23:51.732Z</time>
      </trkpt>
      <trkpt lat="47.52839" lon="6.70456">
        <ele>420</ele>
        <time>2014-01-11T13:23:56.805Z</time>
      </trkpt>
      <trkpt lat="47.5284" lon="6.70437">
        <ele>416</ele>
        <time>2014-01-11T13:24:14.648Z</time>
      </trkpt>
      <trkpt lat="47.52849" lon="6.70437">
        <ele>416</ele>
        <time>2014-01-11T13:24:16.724Z</time>
      </trkpt>
      <trkpt lat="47.52858" lon="6.70441">
        <ele>416</ele>
        <time>2014-01-11T13:24:21.834Z</time>
      </trkpt>
      <trkpt lat="47.52868" lon="6.70445">
        <ele>414</ele>
        <time>2014-01-11T13:24:26.728Z</time>
      </trkpt>
      <trkpt lat="47.52877" lon="6.70448">
        <ele>414</ele>
        <time>2014-01-11T13:24:31.810Z</time>
      </trkpt>
      <trkpt lat="47.52889" lon="6.70449">
        <ele>415</ele>
        <time>2014-01-11T13:24:36.721Z</time>
      </trkpt>
      <trkpt lat="47.52898" lon="6.70451">
        <ele>416</ele>
        <time>2014-01-11T13:24:42.220Z</time>
      </trkpt>
      <trkpt lat="47.52905" lon="6.70452">
        <ele>416</ele>
        <time>2014-01-11T13:24:46.729Z</time>
      </trkpt>
      <trkpt lat="47.52912" lon="6.70453">
        <ele>415</ele>
        <time>2014-01-11T13:24:51.805Z</time>
      </trkpt>
      <trkpt lat="47.52919" lon="6.70452">
        <ele>415</ele>
        <time>2014-01-11T13:24:56.729Z</time>
      </trkpt>
      <trkpt lat="47.52924" lon="6.70452">
        <ele>416</ele>
        <time>2014-01-11T13:25:01.769Z</time>
      </trkpt>
      <trkpt lat="47.52932" lon="6.70454">
        <ele>416</ele>
        <time>2014-01-11T13:25:06.720Z</time>
      </trkpt>
      <trkpt lat="47.52941" lon="6.70455">
        <ele>417</ele>
        <time>2014-01-11T13:25:11.804Z</time>
      </trkpt>
      <trkpt lat="47.52951" lon="6.70455">
        <ele>417</ele>
        <time>2014-01-11T13:25:16.723Z</time>
      </trkpt>
      <trkpt lat="47.5296" lon="6.70459">
        <ele>418</ele>
        <time>2014-01-11T13:25:21.808Z</time>
      </trkpt>
      <trkpt lat="47.52963" lon="6.70456">
        <ele>418</ele>
        <time>2014-01-11T13:25:26.720Z</time>
      </trkpt>
      <trkpt lat="47.52971" lon="6.7046">
        <ele>418</ele>
        <time>2014-01-11T13:25:31.798Z</time>
      </trkpt>
      <trkpt lat="47.52978" lon="6.70465">
        <ele>419</ele>
        <time>2014-01-11T13:25:36.737Z</time>
      </trkpt>
      <trkpt lat="47.52984" lon="6.70468">
        <ele>419</ele>
        <time>2014-01-11T13:25:41.802Z</time>
      </trkpt>
      <trkpt lat="47.52991" lon="6.7047">
        <ele>419</ele>
        <time>2014-01-11T13:25:46.728Z</time>
      </trkpt>
      <trkpt lat="47.52998" lon="6.70474">
        <ele>421</ele>
        <time>2014-01-11T13:25:51.804Z</time>
      </trkpt>
      <trkpt lat="47.53002" lon="6.70476">
        <ele>423</ele>
        <time>2014-01-11T13:25:56.727Z</time>
      </trkpt>
      <trkpt lat="47.53006" lon="6.70479">
        <ele>426</ele>
        <time>2014-01-11T13:26:01.805Z</time>
      </trkpt>
      <trkpt lat="47.53011" lon="6.7048">
        <ele>429</ele>
        <time>2014-01-11T13:26:06.732Z</time>
      </trkpt>
      <trkpt lat="47.53016" lon="6.7048">
        <ele>429</ele>
        <time>2014-01-11T13:26:11.805Z</time>
      </trkpt>
      <trkpt lat="47.53018" lon="6.70481">
        <ele>428</ele>
        <time>2014-01-11T13:26:16.730Z</time>
      </trkpt>
      <trkpt lat="47.5302" lon="6.70482">
        <ele>429</ele>
        <time>2014-01-11T13:26:21.803Z</time>
      </trkpt>
      <trkpt lat="47.53024" lon="6.7048">
        <ele>428</ele>
        <time>2014-01-11T13:26:26.731Z</time>
      </trkpt>
      <trkpt lat="47.53028" lon="6.70477">
        <ele>428</ele>
        <time>2014-01-11T13:26:31.783Z</time>
      </trkpt>
      <trkpt lat="47.53025" lon="6.70469">
        <ele>429</ele>
        <time>2014-01-11T13:26:36.721Z</time>
      </trkpt>
      <trkpt lat="47.53025" lon="6.70451">
        <ele>429</ele>
        <time>2014-01-11T13:26:41.760Z</time>
      </trkpt>
      <trkpt lat="47.53025" lon="6.70429">
        <ele>430</ele>
        <time>2014-01-11T13:26:46.729Z</time>
      </trkpt>
      <trkpt lat="47.53028" lon="6.70408">
        <ele>431</ele>
        <time>2014-01-11T13:26:51.769Z</time>
      </trkpt>
      <trkpt lat="47.5303" lon="6.70394">
        <ele>431</ele>
        <time>2014-01-11T13:26:56.697Z</time>
      </trkpt>
      <trkpt lat="47.53035" lon="6.70367">
        <ele>432</ele>
        <time>2014-01-11T13:27:06.731Z</time>
      </trkpt>
      <trkpt lat="47.53037" lon="6.70356">
        <ele>434</ele>
        <time>2014-01-11T13:27:11.787Z</time>
      </trkpt>
      <trkpt lat="47.53038" lon="6.70342">
        <ele>434</ele>
        <time>2014-01-11T13:27:16.739Z</time>
      </trkpt>
      <trkpt lat="47.53041" lon="6.70332">
        <ele>434</ele>
        <time>2014-01-11T13:27:21.805Z</time>
      </trkpt>
      <trkpt lat="47.53047" lon="6.70317">
        <ele>435</ele>
        <time>2014-01-11T13:27:26.733Z</time>
      </trkpt>
      <trkpt lat="47.53051" lon="6.70301">
        <ele>435</ele>
        <time>2014-01-11T13:27:31.777Z</time>
      </trkpt>
      <trkpt lat="47.53058" lon="6.70287">
        <ele>435</ele>
        <time>2014-01-11T13:27:36.724Z</time>
      </trkpt>
      <trkpt lat="47.53063" lon="6.70275">
        <ele>436</ele>
        <time>2014-01-11T13:27:41.768Z</time>
      </trkpt>
      <trkpt lat="47.53073" lon="6.70261">
        <ele>436</ele>
        <time>2014-01-11T13:27:46.732Z</time>
      </trkpt>
      <trkpt lat="47.53081" lon="6.70249">
        <ele>437</ele>
        <time>2014-01-11T13:27:51.805Z</time>
      </trkpt>
      <trkpt lat="47.5309" lon="6.70238">
        <ele>439</ele>
        <time>2014-01-11T13:27:56.798Z</time>
      </trkpt>
      <trkpt lat="47.53097" lon="6.7023">
        <ele>438</ele>
        <time>2014-01-11T13:28:01.720Z</time>
      </trkpt>
      <trkpt lat="47.53103" lon="6.70221">
        <ele>439</ele>
        <time>2014-01-11T13:28:06.807Z</time>
      </trkpt>
      <trkpt lat="47.53105" lon="6.70213">
        <ele>438</ele>
        <time>2014-01-11T13:28:11.722Z</time>
      </trkpt>
      <trkpt lat="47.53109" lon="6.70206">
        <ele>439</ele>
        <time>2014-01-11T13:28:16.778Z</time>
      </trkpt>
      <trkpt lat="47.53115" lon="6.70201">
        <ele>439</ele>
        <time>2014-01-11T13:28:21.725Z</time>
      </trkpt>
      <trkpt lat="47.53122" lon="6.70194">
        <ele>440</ele>
        <time>2014-01-11T13:28:26.803Z</time>
      </trkpt>
      <trkpt lat="47.53133" lon="6.70186">
        <ele>439</ele>
        <time>2014-01-11T13:28:31.736Z</time>
      </trkpt>
      <trkpt lat="47.53138" lon="6.70173">
        <ele>440</ele>
        <time>2014-01-11T13:28:36.805Z</time>
      </trkpt>
      <trkpt lat="47.53144" lon="6.70167">
        <ele>441</ele>
        <time>2014-01-11T13:28:41.723Z</time>
      </trkpt>
      <trkpt lat="47.53155" lon="6.70157">
        <ele>439</ele>
        <time>2014-01-11T13:28:46.788Z</time>
      </trkpt>
      <trkpt lat="47.53165" lon="6.70142">
        <ele>439</ele>
        <time>2014-01-11T13:28:51.971Z</time>
      </trkpt>
      <trkpt lat="47.53173" lon="6.70132">
        <ele>440</ele>
        <time>2014-01-11T13:28:56.803Z</time>
      </trkpt>
      <trkpt lat="47.53196" lon="6.70105">
        <ele>441</ele>
        <time>2014-01-11T13:29:11.725Z</time>
      </trkpt>
      <trkpt lat="47.53204" lon="6.70096">
        <ele>440</ele>
        <time>2014-01-11T13:29:16.777Z</time>
      </trkpt>
      <trkpt lat="47.53211" lon="6.70084">
        <ele>439</ele>
        <time>2014-01-11T13:29:21.729Z</time>
      </trkpt>
      <trkpt lat="47.53218" lon="6.70073">
        <ele>439</ele>
        <time>2014-01-11T13:29:26.796Z</time>
      </trkpt>
      <trkpt lat="47.53225" lon="6.70064">
        <ele>439</ele>
        <time>2014-01-11T13:29:31.721Z</time>
      </trkpt>
      <trkpt lat="47.53233" lon="6.70052">
        <ele>439</ele>
        <time>2014-01-11T13:29:36.808Z</time>
      </trkpt>
      <trkpt lat="47.53245" lon="6.70036">
        <ele>440</ele>
        <time>2014-01-11T13:29:41.732Z</time>
      </trkpt>
      <trkpt lat="47.53259" lon="6.70019">
        <ele>440</ele>
        <time>2014-01-11T13:29:46.803Z</time>
      </trkpt>
      <trkpt lat="47.53272" lon="6.70002">
        <ele>439</ele>
        <time>2014-01-11T13:29:51.723Z</time>
      </trkpt>
      <trkpt lat="47.53282" lon="6.69984">
        <ele>438</ele>
        <time>2014-01-11T13:29:56.717Z</time>
      </trkpt>
      <trkpt lat="47.53313" lon="6.6994">
        <ele>434</ele>
        <time>2014-01-11T13:30:06.723Z</time>
      </trkpt>
      <trkpt lat="47.53323" lon="6.69919">
        <ele>433</ele>
        <time>2014-01-11T13:30:11.803Z</time>
      </trkpt>
      <trkpt lat="47.53331" lon="6.6989">
        <ele>432</ele>
        <time>2014-01-11T13:30:16.723Z</time>
      </trkpt>
      <trkpt lat="47.53336" lon="6.69859">
        <ele>429</ele>
        <time>2014-01-11T13:30:21.926Z</time>
      </trkpt>
      <trkpt lat="47.53337" lon="6.69829">
        <ele>424</ele>
        <time>2014-01-11T13:30:26.807Z</time>
      </trkpt>
      <trkpt lat="47.53333" lon="6.69808">
        <ele>422</ele>
        <time>2014-01-11T13:30:31.724Z</time>
      </trkpt>
      <trkpt lat="47.53332" lon="6.6979">
        <ele>420</ele>
        <time>2014-01-11T13:30:36.804Z</time>
      </trkpt>
      <trkpt lat="47.53327" lon="6.69765">
        <ele>418</ele>
        <time>2014-01-11T13:30:41.733Z</time>
      </trkpt>
      <trkpt lat="47.53325" lon="6.69745">
        <ele>417</ele>
        <time>2014-01-11T13:30:46.805Z</time>
      </trkpt>
      <trkpt lat="47.53322" lon="6.69725">
        <ele>415</ele>
        <time>2014-01-11T13:30:51.728Z</time>
      </trkpt>
      <trkpt lat="47.53318" lon="6.69705">
        <ele>415</ele>
        <time>2014-01-11T13:30:56.839Z</time>
      </trkpt>
      <trkpt lat="47.53315" lon="6.69684">
        <ele>414</ele>
        <time>2014-01-11T13:31:01.723Z</time>
      </trkpt>
      <trkpt lat="47.53311" lon="6.69667">
        <ele>414</ele>
        <time>2014-01-11T13:31:06.804Z</time>
      </trkpt>
      <trkpt lat="47.53309" lon="6.6965">
        <ele>413</ele>
        <time>2014-01-11T13:31:11.727Z</time>
      </trkpt>
      <trkpt lat="47.53305" lon="6.69632">
        <ele>412</ele>
        <time>2014-01-11T13:31:16.765Z</time>
      </trkpt>
      <trkpt lat="47.53303" lon="6.69616">
        <ele>411</ele>
        <time>2014-01-11T13:31:21.722Z</time>
      </trkpt>
      <trkpt lat="47.53304" lon="6.69601">
        <ele>411</ele>
        <time>2014-01-11T13:31:26.790Z</time>
      </trkpt>
      <trkpt lat="47.53301" lon="6.69581">
        <ele>409</ele>
        <time>2014-01-11T13:31:31.718Z</time>
      </trkpt>
      <trkpt lat="47.53301" lon="6.6956">
        <ele>408</ele>
        <time>2014-01-11T13:31:36.803Z</time>
      </trkpt>
      <trkpt lat="47.53297" lon="6.69543">
        <ele>408</ele>
        <time>2014-01-11T13:31:41.723Z</time>
      </trkpt>
      <trkpt lat="47.53299" lon="6.69529">
        <ele>409</ele>
        <time>2014-01-11T13:31:46.801Z</time>
      </trkpt>
      <trkpt lat="47.53304" lon="6.69527">
        <ele>409</ele>
        <time>2014-01-11T13:31:51.723Z</time>
      </trkpt>
      <trkpt lat="47.53304" lon="6.69525">
        <ele>408</ele>
        <time>2014-01-11T13:31:56.801Z</time>
      </trkpt>
      <trkpt lat="47.53304" lon="6.69525">
        <ele>408</ele>
        <time>2014-01-11T13:32:01.688Z</time>
      </trkpt>
      <trkpt lat="47.53304" lon="6.69525">
        <ele>408</ele>
        <time>2014-01-11T13:32:06.802Z</time>
      </trkpt>
      <trkpt lat="47.53304" lon="6.69525">
        <ele>408</ele>
        <time>2014-01-11T13:32:11.726Z</time>
      </trkpt>
      <trkpt lat="47.53303" lon="6.69524">
        <ele>407</ele>
        <time>2014-01-11T13:32:16.759Z</time>
      </trkpt>
      <trkpt lat="47.53303" lon="6.69525">
        <ele>408</ele>
        <time>2014-01-11T13:32:21.721Z</time>
      </trkpt>
      <trkpt lat="47.53301" lon="6.69525">
        <ele>408</ele>
        <time>2014-01-11T13:32:26.772Z</time>
      </trkpt>
      <trkpt lat="47.53301" lon="6.69524">
        <ele>408</ele>
        <time>2014-01-11T13:32:31.722Z</time>
      </trkpt>
      <trkpt lat="47.53301" lon="6.69524">
        <ele>407</ele>
        <time>2014-01-11T13:32:36.804Z</time>
      </trkpt>
      <trkpt lat="47.53302" lon="6.69525">
        <ele>407</ele>
        <time>2014-01-11T13:32:41.723Z</time>
      </trkpt>
      <trkpt lat="47.53311" lon="6.69526">
        <ele>408</ele>
        <time>2014-01-11T13:32:46.802Z</time>
      </trkpt>
      <trkpt lat="47.53328" lon="6.69523">
        <ele>408</ele>
        <time>2014-01-11T13:32:51.725Z</time>
      </trkpt>
      <trkpt lat="47.53345" lon="6.69518">
        <ele>409</ele>
        <time>2014-01-11T13:32:56.758Z</time>
      </trkpt>
      <trkpt lat="47.53362" lon="6.6951">
        <ele>409</ele>
        <time>2014-01-11T13:33:02.027Z</time>
      </trkpt>
      <trkpt lat="47.53378" lon="6.69499">
        <ele>410</ele>
        <time>2014-01-11T13:33:06.805Z</time>
      </trkpt>
      <trkpt lat="47.53392" lon="6.6949">
        <ele>410</ele>
        <time>2014-01-11T13:33:11.735Z</time>
      </trkpt>
      <trkpt lat="47.53407" lon="6.69484">
        <ele>410</ele>
        <time>2014-01-11T13:33:16.806Z</time>
      </trkpt>
      <trkpt lat="47.53425" lon="6.69481">
        <ele>410</ele>
        <time>2014-01-11T13:33:21.736Z</time>
      </trkpt>
      <trkpt lat="47.53443" lon="6.6948">
        <ele>410</ele>
        <time>2014-01-11T13:33:26.806Z</time>
      </trkpt>
      <trkpt lat="47.53462" lon="6.6948">
        <ele>409</ele>
        <time>2014-01-11T13:33:31.735Z</time>
      </trkpt>
      <trkpt lat="47.53482" lon="6.69479">
        <ele>408</ele>
        <time>2014-01-11T13:33:36.803Z</time>
      </trkpt>
      <trkpt lat="47.53502" lon="6.69479">
        <ele>408</ele>
        <time>2014-01-11T13:33:41.730Z</time>
      </trkpt>
      <trkpt lat="47.53525" lon="6.69479">
        <ele>408</ele>
        <time>2014-01-11T13:33:46.805Z</time>
      </trkpt>
      <trkpt lat="47.53547" lon="6.69478">
        <ele>408</ele>
        <time>2014-01-11T13:33:51.723Z</time>
      </trkpt>
      <trkpt lat="47.53569" lon="6.69477">
        <ele>407</ele>
        <time>2014-01-11T13:33:56.806Z</time>
      </trkpt>
      <trkpt lat="47.53591" lon="6.69475">
        <ele>406</ele>
        <time>2014-01-11T13:34:01.733Z</time>
      </trkpt>
      <trkpt lat="47.53612" lon="6.69471">
        <ele>407</ele>
        <time>2014-01-11T13:34:06.808Z</time>
      </trkpt>
      <trkpt lat="47.53633" lon="6.69467">
        <ele>408</ele>
        <time>2014-01-11T13:34:11.732Z</time>
      </trkpt>
      <trkpt lat="47.53653" lon="6.69462">
        <ele>408</ele>
        <time>2014-01-11T13:34:16.800Z</time>
      </trkpt>
      <trkpt lat="47.53673" lon="6.69457">
        <ele>409</ele>
        <time>2014-01-11T13:34:21.727Z</time>
      </trkpt>
      <trkpt lat="47.53693" lon="6.69453">
        <ele>409</ele>
        <time>2014-01-11T13:34:26.809Z</time>
      </trkpt>
      <trkpt lat="47.53711" lon="6.6945">
        <ele>410</ele>
        <time>2014-01-11T13:34:31.730Z</time>
      </trkpt>
      <trkpt lat="47.53725" lon="6.69437">
        <ele>410</ele>
        <time>2014-01-11T13:34:36.795Z</time>
      </trkpt>
      <trkpt lat="47.5372" lon="6.69416">
        <ele>409</ele>
        <time>2014-01-11T13:34:41.724Z</time>
      </trkpt>
      <trkpt lat="47.53715" lon="6.69398">
        <ele>408</ele>
        <time>2014-01-11T13:34:46.804Z</time>
      </trkpt>
      <trkpt lat="47.53711" lon="6.69378">
        <ele>408</ele>
        <time>2014-01-11T13:34:51.725Z</time>
      </trkpt>
      <trkpt lat="47.53697" lon="6.69286">
        <ele>410</ele>
        <time>2014-01-11T13:35:11.741Z</time>
      </trkpt>
      <trkpt lat="47.53694" lon="6.69263">
        <ele>410</ele>
        <time>2014-01-11T13:35:16.788Z</time>
      </trkpt>
      <trkpt lat="47.5369" lon="6.6924">
        <ele>411</ele>
        <time>2014-01-11T13:35:21.727Z</time>
      </trkpt>
      <trkpt lat="47.53687" lon="6.69218">
        <ele>411</ele>
        <time>2014-01-11T13:35:26.805Z</time>
      </trkpt>
      <trkpt lat="47.53684" lon="6.69198">
        <ele>411</ele>
        <time>2014-01-11T13:35:31.728Z</time>
      </trkpt>
      <trkpt lat="47.53682" lon="6.6918">
        <ele>411</ele>
        <time>2014-01-11T13:35:36.773Z</time>
      </trkpt>
      <trkpt lat="47.5368" lon="6.69162">
        <ele>412</ele>
        <time>2014-01-11T13:35:41.946Z</time>
      </trkpt>
      <trkpt lat="47.53678" lon="6.69145">
        <ele>413</ele>
        <time>2014-01-11T13:35:46.805Z</time>
      </trkpt>
      <trkpt lat="47.53676" lon="6.6913">
        <ele>413</ele>
        <time>2014-01-11T13:35:51.733Z</time>
      </trkpt>
      <trkpt lat="47.53674" lon="6.69114">
        <ele>413</ele>
        <time>2014-01-11T13:35:56.808Z</time>
      </trkpt>
      <trkpt lat="47.53672" lon="6.691">
        <ele>413</ele>
        <time>2014-01-11T13:36:01.738Z</time>
      </trkpt>
      <trkpt lat="47.53671" lon="6.69085">
        <ele>413</ele>
        <time>2014-01-11T13:36:06.777Z</time>
      </trkpt>
      <trkpt lat="47.5367" lon="6.6907">
        <ele>414</ele>
        <time>2014-01-11T13:36:11.776Z</time>
      </trkpt>
      <trkpt lat="47.53669" lon="6.69056">
        <ele>414</ele>
        <time>2014-01-11T13:36:16.723Z</time>
      </trkpt>
      <trkpt lat="47.53669" lon="6.69041">
        <ele>415</ele>
        <time>2014-01-11T13:36:21.809Z</time>
      </trkpt>
      <trkpt lat="47.53668" lon="6.69026">
        <ele>416</ele>
        <time>2014-01-11T13:36:26.731Z</time>
      </trkpt>
      <trkpt lat="47.53668" lon="6.69012">
        <ele>417</ele>
        <time>2014-01-11T13:36:31.805Z</time>
      </trkpt>
      <trkpt lat="47.53668" lon="6.68998">
        <ele>417</ele>
        <time>2014-01-11T13:36:36.722Z</time>
      </trkpt>
      <trkpt lat="47.53668" lon="6.68983">
        <ele>417</ele>
        <time>2014-01-11T13:36:41.789Z</time>
      </trkpt>
      <trkpt lat="47.53668" lon="6.68969">
        <ele>418</ele>
        <time>2014-01-11T13:36:46.726Z</time>
      </trkpt>
      <trkpt lat="47.53669" lon="6.68954">
        <ele>419</ele>
        <time>2014-01-11T13:36:51.802Z</time>
      </trkpt>
      <trkpt lat="47.5367" lon="6.68939">
        <ele>418</ele>
        <time>2014-01-11T13:36:56.726Z</time>
      </trkpt>
      <trkpt lat="47.5367" lon="6.68924">
        <ele>419</ele>
        <time>2014-01-11T13:37:01.804Z</time>
      </trkpt>
      <trkpt lat="47.5367" lon="6.68908">
        <ele>420</ele>
        <time>2014-01-11T13:37:06.724Z</time>
      </trkpt>
      <trkpt lat="47.5367" lon="6.68891">
        <ele>421</ele>
        <time>2014-01-11T13:37:11.773Z</time>
      </trkpt>
      <trkpt lat="47.5367" lon="6.68874">
        <ele>422</ele>
        <time>2014-01-11T13:37:16.719Z</time>
      </trkpt>
      <trkpt lat="47.53671" lon="6.68857">
        <ele>423</ele>
        <time>2014-01-11T13:37:21.807Z</time>
      </trkpt>
      <trkpt lat="47.53672" lon="6.68842">
        <ele>423</ele>
        <time>2014-01-11T13:37:26.725Z</time>
      </trkpt>
      <trkpt lat="47.53672" lon="6.68827">
        <ele>424</ele>
        <time>2014-01-11T13:37:31.776Z</time>
      </trkpt>
      <trkpt lat="47.53671" lon="6.68813">
        <ele>425</ele>
        <time>2014-01-11T13:37:36.728Z</time>
      </trkpt>
      <trkpt lat="47.53672" lon="6.68798">
        <ele>426</ele>
        <time>2014-01-11T13:37:41.803Z</time>
      </trkpt>
      <trkpt lat="47.53671" lon="6.68783">
        <ele>426</ele>
        <time>2014-01-11T13:37:46.697Z</time>
      </trkpt>
      <trkpt lat="47.5367" lon="6.68769">
        <ele>426</ele>
        <time>2014-01-11T13:37:51.817Z</time>
      </trkpt>
      <trkpt lat="47.53669" lon="6.68755">
        <ele>428</ele>
        <time>2014-01-11T13:37:56.739Z</time>
      </trkpt>
      <trkpt lat="47.53668" lon="6.68742">
        <ele>429</ele>
        <time>2014-01-11T13:38:01.801Z</time>
      </trkpt>
      <trkpt lat="47.53667" lon="6.6873">
        <ele>429</ele>
        <time>2014-01-11T13:38:06.721Z</time>
      </trkpt>
      <trkpt lat="47.53666" lon="6.68716">
        <ele>430</ele>
        <time>2014-01-11T13:38:11.801Z</time>
      </trkpt>
      <trkpt lat="47.53667" lon="6.68702">
        <ele>430</ele>
        <time>2014-01-11T13:38:17.065Z</time>
      </trkpt>
      <trkpt lat="47.53669" lon="6.68689">
        <ele>431</ele>
        <time>2014-01-11T13:38:21.805Z</time>
      </trkpt>
      <trkpt lat="47.5367" lon="6.68677">
        <ele>431</ele>
        <time>2014-01-11T13:38:26.727Z</time>
      </trkpt>
      <trkpt lat="47.53672" lon="6.68664">
        <ele>432</ele>
        <time>2014-01-11T13:38:31.801Z</time>
      </trkpt>
      <trkpt lat="47.53673" lon="6.6865">
        <ele>433</ele>
        <time>2014-01-11T13:38:36.725Z</time>
      </trkpt>
      <trkpt lat="47.53677" lon="6.68639">
        <ele>434</ele>
        <time>2014-01-11T13:38:41.803Z</time>
      </trkpt>
      <trkpt lat="47.53676" lon="6.68628">
        <ele>435</ele>
        <time>2014-01-11T13:38:46.733Z</time>
      </trkpt>
      <trkpt lat="47.53679" lon="6.68617">
        <ele>435</ele>
        <time>2014-01-11T13:38:51.799Z</time>
      </trkpt>
      <trkpt lat="47.5368" lon="6.68603">
        <ele>435</ele>
        <time>2014-01-11T13:38:56.733Z</time>
      </trkpt>
      <trkpt lat="47.53677" lon="6.68585">
        <ele>434</ele>
        <time>2014-01-11T13:39:01.804Z</time>
      </trkpt>
      <trkpt lat="47.5367" lon="6.68563">
        <ele>434</ele>
        <time>2014-01-11T13:39:06.741Z</time>
      </trkpt>
      <trkpt lat="47.53662" lon="6.68541">
        <ele>435</ele>
        <time>2014-01-11T13:39:11.804Z</time>
      </trkpt>
      <trkpt lat="47.53647" lon="6.6853">
        <ele>438</ele>
        <time>2014-01-11T13:39:16.725Z</time>
      </trkpt>
      <trkpt lat="47.53631" lon="6.68529">
        <ele>440</ele>
        <time>2014-01-11T13:39:21.802Z</time>
      </trkpt>
      <trkpt lat="47.5362" lon="6.68528">
        <ele>443</ele>
        <time>2014-01-11T13:39:26.741Z</time>
      </trkpt>
      <trkpt lat="47.53595" lon="6.68531">
        <ele>447</ele>
        <time>2014-01-11T13:39:36.727Z</time>
      </trkpt>
      <trkpt lat="47.53587" lon="6.68532">
        <ele>449</ele>
        <time>2014-01-11T13:39:41.804Z</time>
      </trkpt>
      <trkpt lat="47.53573" lon="6.68534">
        <ele>450</ele>
        <time>2014-01-11T13:39:46.728Z</time>
      </trkpt>
      <trkpt lat="47.53558" lon="6.68534">
        <ele>449</ele>
        <time>2014-01-11T13:39:51.788Z</time>
      </trkpt>
      <trkpt lat="47.53545" lon="6.68537">
        <ele>450</ele>
        <time>2014-01-11T13:39:56.718Z</time>
      </trkpt>
      <trkpt lat="47.53524" lon="6.68549">
        <ele>453</ele>
        <time>2014-01-11T13:40:06.727Z</time>
      </trkpt>
      <trkpt lat="47.5351" lon="6.68551">
        <ele>454</ele>
        <time>2014-01-11T13:40:11.797Z</time>
      </trkpt>
      <trkpt lat="47.53503" lon="6.68546">
        <ele>455</ele>
        <time>2014-01-11T13:40:16.720Z</time>
      </trkpt>
      <trkpt lat="47.53489" lon="6.68549">
        <ele>455</ele>
        <time>2014-01-11T13:40:21.793Z</time>
      </trkpt>
      <trkpt lat="47.53475" lon="6.68549">
        <ele>456</ele>
        <time>2014-01-11T13:40:26.728Z</time>
      </trkpt>
      <trkpt lat="47.5346" lon="6.68539">
        <ele>456</ele>
        <time>2014-01-11T13:40:31.799Z</time>
      </trkpt>
      <trkpt lat="47.53442" lon="6.68534">
        <ele>454</ele>
        <time>2014-01-11T13:40:36.726Z</time>
      </trkpt>
      <trkpt lat="47.53431" lon="6.6853">
        <ele>454</ele>
        <time>2014-01-11T13:40:41.799Z</time>
      </trkpt>
      <trkpt lat="47.53416" lon="6.68527">
        <ele>453</ele>
        <time>2014-01-11T13:40:46.731Z</time>
      </trkpt>
      <trkpt lat="47.53407" lon="6.68524">
        <ele>451</ele>
        <time>2014-01-11T13:40:51.791Z</time>
      </trkpt>
      <trkpt lat="47.53397" lon="6.68522">
        <ele>450</ele>
        <time>2014-01-11T13:40:56.721Z</time>
      </trkpt>
      <trkpt lat="47.53391" lon="6.68523">
        <ele>446</ele>
        <time>2014-01-11T13:41:01.810Z</time>
      </trkpt>
      <trkpt lat="47.5338" lon="6.68523">
        <ele>444</ele>
        <time>2014-01-11T13:41:06.724Z</time>
      </trkpt>
      <trkpt lat="47.53366" lon="6.68522">
        <ele>442</ele>
        <time>2014-01-11T13:41:11.805Z</time>
      </trkpt>
      <trkpt lat="47.53358" lon="6.68518">
        <ele>440</ele>
        <time>2014-01-11T13:41:16.732Z</time>
      </trkpt>
      <trkpt lat="47.53352" lon="6.68519">
        <ele>436</ele>
        <time>2014-01-11T13:41:21.804Z</time>
      </trkpt>
      <trkpt lat="47.53345" lon="6.68529">
        <ele>434</ele>
        <time>2014-01-11T13:41:26.735Z</time>
      </trkpt>
      <trkpt lat="47.53345" lon="6.68533">
        <ele>433</ele>
        <time>2014-01-11T13:41:31.802Z</time>
      </trkpt>
      <trkpt lat="47.53347" lon="6.6853">
        <ele>433</ele>
        <time>2014-01-11T13:41:36.728Z</time>
      </trkpt>
      <trkpt lat="47.53349" lon="6.68527">
        <ele>433</ele>
        <time>2014-01-11T13:41:41.807Z</time>
      </trkpt>
      <trkpt lat="47.53349" lon="6.6852">
        <ele>433</ele>
        <time>2014-01-11T13:41:46.731Z</time>
      </trkpt>
      <trkpt lat="47.5335" lon="6.6851">
        <ele>434</ele>
        <time>2014-01-11T13:41:51.774Z</time>
      </trkpt>
      <trkpt lat="47.53353" lon="6.68495">
        <ele>433</ele>
        <time>2014-01-11T13:41:56.725Z</time>
      </trkpt>
      <trkpt lat="47.53355" lon="6.68482">
        <ele>435</ele>
        <time>2014-01-11T13:42:01.801Z</time>
      </trkpt>
      <trkpt lat="47.53356" lon="6.68466">
        <ele>436</ele>
        <time>2014-01-11T13:42:06.723Z</time>
      </trkpt>
      <trkpt lat="47.53358" lon="6.68448">
        <ele>435</ele>
        <time>2014-01-11T13:42:11.806Z</time>
      </trkpt>
      <trkpt lat="47.53361" lon="6.68427">
        <ele>434</ele>
        <time>2014-01-11T13:42:16.737Z</time>
      </trkpt>
      <trkpt lat="47.53365" lon="6.684">
        <ele>432</ele>
        <time>2014-01-11T13:42:21.805Z</time>
      </trkpt>
      <trkpt lat="47.53369" lon="6.68378">
        <ele>432</ele>
        <time>2014-01-11T13:42:26.731Z</time>
      </trkpt>
      <trkpt lat="47.53374" lon="6.68354">
        <ele>432</ele>
        <time>2014-01-11T13:42:31.808Z</time>
      </trkpt>
      <trkpt lat="47.53378" lon="6.68333">
        <ele>430</ele>
        <time>2014-01-11T13:42:36.722Z</time>
      </trkpt>
      <trkpt lat="47.5338" lon="6.68311">
        <ele>429</ele>
        <time>2014-01-11T13:42:41.791Z</time>
      </trkpt>
      <trkpt lat="47.5338" lon="6.68293">
        <ele>430</ele>
        <time>2014-01-11T13:42:46.731Z</time>
      </trkpt>
      <trkpt lat="47.53382" lon="6.68274">
        <ele>430</ele>
        <time>2014-01-11T13:42:51.801Z</time>
      </trkpt>
      <trkpt lat="47.53385" lon="6.68253">
        <ele>430</ele>
        <time>2014-01-11T13:42:56.950Z</time>
      </trkpt>
      <trkpt lat="47.53387" lon="6.68231">
        <ele>430</ele>
        <time>2014-01-11T13:43:01.788Z</time>
      </trkpt>
      <trkpt lat="47.53389" lon="6.6821">
        <ele>430</ele>
        <time>2014-01-11T13:43:06.712Z</time>
      </trkpt>
      <trkpt lat="47.53392" lon="6.68188">
        <ele>429</ele>
        <time>2014-01-11T13:43:11.798Z</time>
      </trkpt>
      <trkpt lat="47.53397" lon="6.68166">
        <ele>429</ele>
        <time>2014-01-11T13:43:16.727Z</time>
      </trkpt>
      <trkpt lat="47.53402" lon="6.68147">
        <ele>429</ele>
        <time>2014-01-11T13:43:21.823Z</time>
      </trkpt>
      <trkpt lat="47.53408" lon="6.68127">
        <ele>429</ele>
        <time>2014-01-11T13:43:26.729Z</time>
      </trkpt>
      <trkpt lat="47.53415" lon="6.68105">
        <ele>427</ele>
        <time>2014-01-11T13:43:31.788Z</time>
      </trkpt>
      <trkpt lat="47.53421" lon="6.68083">
        <ele>428</ele>
        <time>2014-01-11T13:43:36.725Z</time>
      </trkpt>
      <trkpt lat="47.53425" lon="6.68061">
        <ele>428</ele>
        <time>2014-01-11T13:43:41.773Z</time>
      </trkpt>
      <trkpt lat="47.53431" lon="6.68032">
        <ele>429</ele>
        <time>2014-01-11T13:43:46.717Z</time>
      </trkpt>
      <trkpt lat="47.53437" lon="6.68003">
        <ele>427</ele>
        <time>2014-01-11T13:43:51.808Z</time>
      </trkpt>
      <trkpt lat="47.53442" lon="6.67973">
        <ele>426</ele>
        <time>2014-01-11T13:43:56.730Z</time>
      </trkpt>
      <trkpt lat="47.53444" lon="6.67944">
        <ele>425</ele>
        <time>2014-01-11T13:44:01.802Z</time>
      </trkpt>
      <trkpt lat="47.53443" lon="6.67919">
        <ele>425</ele>
        <time>2014-01-11T13:44:06.722Z</time>
      </trkpt>
      <trkpt lat="47.53445" lon="6.67895">
        <ele>426</ele>
        <time>2014-01-11T13:44:11.763Z</time>
      </trkpt>
      <trkpt lat="47.53446" lon="6.67874">
        <ele>426</ele>
        <time>2014-01-11T13:44:16.705Z</time>
      </trkpt>
      <trkpt lat="47.53448" lon="6.67852">
        <ele>425</ele>
        <time>2014-01-11T13:44:21.759Z</time>
      </trkpt>
      <trkpt lat="47.53447" lon="6.67836">
        <ele>426</ele>
        <time>2014-01-11T13:44:26.700Z</time>
      </trkpt>
      <trkpt lat="47.53447" lon="6.67818">
        <ele>426</ele>
        <time>2014-01-11T13:44:31.768Z</time>
      </trkpt>
      <trkpt lat="47.53449" lon="6.67803">
        <ele>426</ele>
        <time>2014-01-11T13:44:36.739Z</time>
      </trkpt>
      <trkpt lat="47.53466" lon="6.67793">
        <ele>427</ele>
        <time>2014-01-11T13:44:46.733Z</time>
      </trkpt>
      <trkpt lat="47.53475" lon="6.67787">
        <ele>428</ele>
        <time>2014-01-11T13:44:51.807Z</time>
      </trkpt>
      <trkpt lat="47.5348" lon="6.67774">
        <ele>429</ele>
        <time>2014-01-11T13:44:56.723Z</time>
      </trkpt>
      <trkpt lat="47.53483" lon="6.67759">
        <ele>430</ele>
        <time>2014-01-11T13:45:01.726Z</time>
      </trkpt>
      <trkpt lat="47.53487" lon="6.67745">
        <ele>431</ele>
        <time>2014-01-11T13:45:06.774Z</time>
      </trkpt>
      <trkpt lat="47.5349" lon="6.67732">
        <ele>431</ele>
        <time>2014-01-11T13:45:11.737Z</time>
      </trkpt>
      <trkpt lat="47.53492" lon="6.67723">
        <ele>433</ele>
        <time>2014-01-11T13:45:16.807Z</time>
      </trkpt>
      <trkpt lat="47.53501" lon="6.67722">
        <ele>434</ele>
        <time>2014-01-11T13:45:21.725Z</time>
      </trkpt>
      <trkpt lat="47.53509" lon="6.67722">
        <ele>434</ele>
        <time>2014-01-11T13:45:26.763Z</time>
      </trkpt>
      <trkpt lat="47.53521" lon="6.67724">
        <ele>435</ele>
        <time>2014-01-11T13:45:31.725Z</time>
      </trkpt>
      <trkpt lat="47.53539" lon="6.67725">
        <ele>434</ele>
        <time>2014-01-11T13:45:36.777Z</time>
      </trkpt>
      <trkpt lat="47.53559" lon="6.67727">
        <ele>434</ele>
        <time>2014-01-11T13:45:41.732Z</time>
      </trkpt>
      <trkpt lat="47.5358" lon="6.67726">
        <ele>434</ele>
        <time>2014-01-11T13:45:46.803Z</time>
      </trkpt>
      <trkpt lat="47.53605" lon="6.67727">
        <ele>434</ele>
        <time>2014-01-11T13:45:51.734Z</time>
      </trkpt>
      <trkpt lat="47.53635" lon="6.67736">
        <ele>433</ele>
        <time>2014-01-11T13:45:56.778Z</time>
      </trkpt>
      <trkpt lat="47.53667" lon="6.6775">
        <ele>432</ele>
        <time>2014-01-11T13:46:01.724Z</time>
      </trkpt>
      <trkpt lat="47.53693" lon="6.67752">
        <ele>432</ele>
        <time>2014-01-11T13:46:06.802Z</time>
      </trkpt>
      <trkpt lat="47.53709" lon="6.67748">
        <ele>433</ele>
        <time>2014-01-11T13:46:11.734Z</time>
      </trkpt>
      <trkpt lat="47.53723" lon="6.67744">
        <ele>435</ele>
        <time>2014-01-11T13:46:16.804Z</time>
      </trkpt>
      <trkpt lat="47.53736" lon="6.67743">
        <ele>437</ele>
        <time>2014-01-11T13:46:21.754Z</time>
      </trkpt>
      <trkpt lat="47.5375" lon="6.67744">
        <ele>438</ele>
        <time>2014-01-11T13:46:26.805Z</time>
      </trkpt>
      <trkpt lat="47.53767" lon="6.67747">
        <ele>437</ele>
        <time>2014-01-11T13:46:31.740Z</time>
      </trkpt>
      <trkpt lat="47.53786" lon="6.6775">
        <ele>437</ele>
        <time>2014-01-11T13:46:36.992Z</time>
      </trkpt>
      <trkpt lat="47.53806" lon="6.67752">
        <ele>436</ele>
        <time>2014-01-11T13:46:41.806Z</time>
      </trkpt>
      <trkpt lat="47.53825" lon="6.67757">
        <ele>436</ele>
        <time>2014-01-11T13:46:46.740Z</time>
      </trkpt>
      <trkpt lat="47.53845" lon="6.67755">
        <ele>436</ele>
        <time>2014-01-11T13:46:51.790Z</time>
      </trkpt>
      <trkpt lat="47.53872" lon="6.67738">
        <ele>437</ele>
        <time>2014-01-11T13:46:56.735Z</time>
      </trkpt>
      <trkpt lat="47.53898" lon="6.6772">
        <ele>437</ele>
        <time>2014-01-11T13:47:01.803Z</time>
      </trkpt>
      <trkpt lat="47.53921" lon="6.67709">
        <ele>438</ele>
        <time>2014-01-11T13:47:06.735Z</time>
      </trkpt>
      <trkpt lat="47.53943" lon="6.67698">
        <ele>438</ele>
        <time>2014-01-11T13:47:11.805Z</time>
      </trkpt>
      <trkpt lat="47.53962" lon="6.67692">
        <ele>438</ele>
        <time>2014-01-11T13:47:16.738Z</time>
      </trkpt>
      <trkpt lat="47.5398" lon="6.67684">
        <ele>437</ele>
        <time>2014-01-11T13:47:21.805Z</time>
      </trkpt>
      <trkpt lat="47.53997" lon="6.67675">
        <ele>436</ele>
        <time>2014-01-11T13:47:26.733Z</time>
      </trkpt>
      <trkpt lat="47.54012" lon="6.6766">
        <ele>436</ele>
        <time>2014-01-11T13:47:31.804Z</time>
      </trkpt>
      <trkpt lat="47.54025" lon="6.67641">
        <ele>436</ele>
        <time>2014-01-11T13:47:36.726Z</time>
      </trkpt>
      <trkpt lat="47.54038" lon="6.67622">
        <ele>436</ele>
        <time>2014-01-11T13:47:41.804Z</time>
      </trkpt>
      <trkpt lat="47.54054" lon="6.67611">
        <ele>437</ele>
        <time>2014-01-11T13:47:46.730Z</time>
      </trkpt>
      <trkpt lat="47.54074" lon="6.67605">
        <ele>437</ele>
        <time>2014-01-11T13:47:51.806Z</time>
      </trkpt>
      <trkpt lat="47.54093" lon="6.67604">
        <ele>437</ele>
        <time>2014-01-11T13:47:56.733Z</time>
      </trkpt>
      <trkpt lat="47.54145" lon="6.67602">
        <ele>438</ele>
        <time>2014-01-11T13:48:11.730Z</time>
      </trkpt>
      <trkpt lat="47.54161" lon="6.67594">
        <ele>438</ele>
        <time>2014-01-11T13:48:16.777Z</time>
      </trkpt>
      <trkpt lat="47.54177" lon="6.6759">
        <ele>439</ele>
        <time>2014-01-11T13:48:21.734Z</time>
      </trkpt>
      <trkpt lat="47.54195" lon="6.67588">
        <ele>439</ele>
        <time>2014-01-11T13:48:26.804Z</time>
      </trkpt>
      <trkpt lat="47.54213" lon="6.67584">
        <ele>440</ele>
        <time>2014-01-11T13:48:31.734Z</time>
      </trkpt>
      <trkpt lat="47.54231" lon="6.67587">
        <ele>439</ele>
        <time>2014-01-11T13:48:36.804Z</time>
      </trkpt>
      <trkpt lat="47.54249" lon="6.67589">
        <ele>440</ele>
        <time>2014-01-11T13:48:41.729Z</time>
      </trkpt>
      <trkpt lat="47.54269" lon="6.67588">
        <ele>442</ele>
        <time>2014-01-11T13:48:46.809Z</time>
      </trkpt>
      <trkpt lat="47.54292" lon="6.6758">
        <ele>444</ele>
        <time>2014-01-11T13:48:51.731Z</time>
      </trkpt>
      <trkpt lat="47.54309" lon="6.67572">
        <ele>445</ele>
        <time>2014-01-11T13:48:56.805Z</time>
      </trkpt>
      <trkpt lat="47.5434" lon="6.6756">
        <ele>446</ele>
        <time>2014-01-11T13:49:08.490Z</time>
      </trkpt>
      <trkpt lat="47.54357" lon="6.6755">
        <ele>446</ele>
        <time>2014-01-11T13:49:11.728Z</time>
      </trkpt>
      <trkpt lat="47.54374" lon="6.67542">
        <ele>447</ele>
        <time>2014-01-11T13:49:16.734Z</time>
      </trkpt>
      <trkpt lat="47.54388" lon="6.67536">
        <ele>446</ele>
        <time>2014-01-11T13:49:21.770Z</time>
      </trkpt>
      <trkpt lat="47.54402" lon="6.6753">
        <ele>446</ele>
        <time>2014-01-11T13:49:26.720Z</time>
      </trkpt>
      <trkpt lat="47.54418" lon="6.67525">
        <ele>447</ele>
        <time>2014-01-11T13:49:31.764Z</time>
      </trkpt>
      <trkpt lat="47.54439" lon="6.6752">
        <ele>448</ele>
        <time>2014-01-11T13:49:36.697Z</time>
      </trkpt>
      <trkpt lat="47.5446" lon="6.67518">
        <ele>448</ele>
        <time>2014-01-11T13:49:41.804Z</time>
      </trkpt>
      <trkpt lat="47.54494" lon="6.6751">
        <ele>446</ele>
        <time>2014-01-11T13:49:51.766Z</time>
      </trkpt>
      <trkpt lat="47.54514" lon="6.67509">
        <ele>446</ele>
        <time>2014-01-11T13:49:56.727Z</time>
      </trkpt>
      <trkpt lat="47.54563" lon="6.67506">
        <ele>447</ele>
        <time>2014-01-11T13:50:11.803Z</time>
      </trkpt>
      <trkpt lat="47.54578" lon="6.67503">
        <ele>447</ele>
        <time>2014-01-11T13:50:16.734Z</time>
      </trkpt>
      <trkpt lat="47.54592" lon="6.67505">
        <ele>447</ele>
        <time>2014-01-11T13:50:21.800Z</time>
      </trkpt>
      <trkpt lat="47.54606" lon="6.67507">
        <ele>448</ele>
        <time>2014-01-11T13:50:26.747Z</time>
      </trkpt>
      <trkpt lat="47.54622" lon="6.67512">
        <ele>449</ele>
        <time>2014-01-11T13:50:31.786Z</time>
      </trkpt>
      <trkpt lat="47.54636" lon="6.67515">
        <ele>450</ele>
        <time>2014-01-11T13:50:36.735Z</time>
      </trkpt>
      <trkpt lat="47.5465" lon="6.67522">
        <ele>452</ele>
        <time>2014-01-11T13:50:41.808Z</time>
      </trkpt>
      <trkpt lat="47.54663" lon="6.67526">
        <ele>452</ele>
        <time>2014-01-11T13:50:46.733Z</time>
      </trkpt>
      <trkpt lat="47.54675" lon="6.67526">
        <ele>452</ele>
        <time>2014-01-11T13:50:51.800Z</time>
      </trkpt>
      <trkpt lat="47.54685" lon="6.67529">
        <ele>453</ele>
        <time>2014-01-11T13:50:56.729Z</time>
      </trkpt>
      <trkpt lat="47.54696" lon="6.67533">
        <ele>453</ele>
        <time>2014-01-11T13:51:01.803Z</time>
      </trkpt>
      <trkpt lat="47.54707" lon="6.67535">
        <ele>453</ele>
        <time>2014-01-11T13:51:06.726Z</time>
      </trkpt>
      <trkpt lat="47.5472" lon="6.67537">
        <ele>454</ele>
        <time>2014-01-11T13:51:11.809Z</time>
      </trkpt>
      <trkpt lat="47.54731" lon="6.67536">
        <ele>454</ele>
        <time>2014-01-11T13:51:16.722Z</time>
      </trkpt>
      <trkpt lat="47.54741" lon="6.67536">
        <ele>456</ele>
        <time>2014-01-11T13:51:21.801Z</time>
      </trkpt>
      <trkpt lat="47.54751" lon="6.67539">
        <ele>456</ele>
        <time>2014-01-11T13:51:26.718Z</time>
      </trkpt>
      <trkpt lat="47.5476" lon="6.6754">
        <ele>457</ele>
        <time>2014-01-11T13:51:31.802Z</time>
      </trkpt>
      <trkpt lat="47.54772" lon="6.67541">
        <ele>457</ele>
        <time>2014-01-11T13:51:36.720Z</time>
      </trkpt>
      <trkpt lat="47.54782" lon="6.67543">
        <ele>456</ele>
        <time>2014-01-11T13:51:41.782Z</time>
      </trkpt>
      <trkpt lat="47.54793" lon="6.67545">
        <ele>457</ele>
        <time>2014-01-11T13:51:46.914Z</time>
      </trkpt>
      <trkpt lat="47.54802" lon="6.67547">
        <ele>460</ele>
        <time>2014-01-11T13:51:51.805Z</time>
      </trkpt>
      <trkpt lat="47.54811" lon="6.67549">
        <ele>461</ele>
        <time>2014-01-11T13:51:56.727Z</time>
      </trkpt>
      <trkpt lat="47.54821" lon="6.67551">
        <ele>462</ele>
        <time>2014-01-11T13:52:01.805Z</time>
      </trkpt>
      <trkpt lat="47.54832" lon="6.67552">
        <ele>463</ele>
        <time>2014-01-11T13:52:06.735Z</time>
      </trkpt>
      <trkpt lat="47.54841" lon="6.67553">
        <ele>465</ele>
        <time>2014-01-11T13:52:11.807Z</time>
      </trkpt>
      <trkpt lat="47.54851" lon="6.67553">
        <ele>466</ele>
        <time>2014-01-11T13:52:16.734Z</time>
      </trkpt>
      <trkpt lat="47.54863" lon="6.67554">
        <ele>466</ele>
        <time>2014-01-11T13:52:21.805Z</time>
      </trkpt>
      <trkpt lat="47.54873" lon="6.67555">
        <ele>468</ele>
        <time>2014-01-11T13:52:26.740Z</time>
      </trkpt>
      <trkpt lat="47.54884" lon="6.6756">
        <ele>469</ele>
        <time>2014-01-11T13:52:31.790Z</time>
      </trkpt>
      <trkpt lat="47.54896" lon="6.67561">
        <ele>470</ele>
        <time>2014-01-11T13:52:36.732Z</time>
      </trkpt>
      <trkpt lat="47.54906" lon="6.67566">
        <ele>472</ele>
        <time>2014-01-11T13:52:42.318Z</time>
      </trkpt>
      <trkpt lat="47.54916" lon="6.67566">
        <ele>473</ele>
        <time>2014-01-11T13:52:46.736Z</time>
      </trkpt>
      <trkpt lat="47.54926" lon="6.67565">
        <ele>473</ele>
        <time>2014-01-11T13:52:51.806Z</time>
      </trkpt>
      <trkpt lat="47.54935" lon="6.67567">
        <ele>474</ele>
        <time>2014-01-11T13:52:56.702Z</time>
      </trkpt>
      <trkpt lat="47.54953" lon="6.67568">
        <ele>475</ele>
        <time>2014-01-11T13:53:06.731Z</time>
      </trkpt>
      <trkpt lat="47.54962" lon="6.67566">
        <ele>475</ele>
        <time>2014-01-11T13:53:11.808Z</time>
      </trkpt>
      <trkpt lat="47.54972" lon="6.67568">
        <ele>476</ele>
        <time>2014-01-11T13:53:16.731Z</time>
      </trkpt>
      <trkpt lat="47.54983" lon="6.67568">
        <ele>476</ele>
        <time>2014-01-11T13:53:21.805Z</time>
      </trkpt>
      <trkpt lat="47.54993" lon="6.67568">
        <ele>476</ele>
        <time>2014-01-11T13:53:26.735Z</time>
      </trkpt>
      <trkpt lat="47.55006" lon="6.67571">
        <ele>477</ele>
        <time>2014-01-11T13:53:31.806Z</time>
      </trkpt>
      <trkpt lat="47.55016" lon="6.67569">
        <ele>477</ele>
        <time>2014-01-11T13:53:36.715Z</time>
      </trkpt>
      <trkpt lat="47.5503" lon="6.67568">
        <ele>477</ele>
        <time>2014-01-11T13:53:41.763Z</time>
      </trkpt>
      <trkpt lat="47.55043" lon="6.67569">
        <ele>477</ele>
        <time>2014-01-11T13:53:46.918Z</time>
      </trkpt>
      <trkpt lat="47.55056" lon="6.67566">
        <ele>478</ele>
        <time>2014-01-11T13:53:51.806Z</time>
      </trkpt>
      <trkpt lat="47.55066" lon="6.67566">
        <ele>478</ele>
        <time>2014-01-11T13:53:56.730Z</time>
      </trkpt>
      <trkpt lat="47.55078" lon="6.67567">
        <ele>478</ele>
        <time>2014-01-11T13:54:01.804Z</time>
      </trkpt>
      <trkpt lat="47.55089" lon="6.67568">
        <ele>478</ele>
        <time>2014-01-11T13:54:06.726Z</time>
      </trkpt>
      <trkpt lat="47.551" lon="6.6757">
        <ele>479</ele>
        <time>2014-01-11T13:54:11.811Z</time>
      </trkpt>
      <trkpt lat="47.55109" lon="6.67572">
        <ele>480</ele>
        <time>2014-01-11T13:54:16.735Z</time>
      </trkpt>
      <trkpt lat="47.5512" lon="6.67573">
        <ele>481</ele>
        <time>2014-01-11T13:54:21.807Z</time>
      </trkpt>
      <trkpt lat="47.55129" lon="6.67572">
        <ele>483</ele>
        <time>2014-01-11T13:54:26.728Z</time>
      </trkpt>
      <trkpt lat="47.55141" lon="6.67572">
        <ele>483</ele>
        <time>2014-01-11T13:54:31.926Z</time>
      </trkpt>
      <trkpt lat="47.55153" lon="6.67574">
        <ele>484</ele>
        <time>2014-01-11T13:54:36.730Z</time>
      </trkpt>
      <trkpt lat="47.55164" lon="6.67577">
        <ele>485</ele>
        <time>2014-01-11T13:54:41.770Z</time>
      </trkpt>
      <trkpt lat="47.55175" lon="6.67578">
        <ele>486</ele>
        <time>2014-01-11T13:54:46.726Z</time>
      </trkpt>
      <trkpt lat="47.55187" lon="6.67582">
        <ele>487</ele>
        <time>2014-01-11T13:54:51.804Z</time>
      </trkpt>
      <trkpt lat="47.55197" lon="6.67584">
        <ele>487</ele>
        <time>2014-01-11T13:54:56.726Z</time>
      </trkpt>
      <trkpt lat="47.55207" lon="6.67584">
        <ele>487</ele>
        <time>2014-01-11T13:55:01.772Z</time>
      </trkpt>
      <trkpt lat="47.55218" lon="6.67585">
        <ele>488</ele>
        <time>2014-01-11T13:55:06.728Z</time>
      </trkpt>
      <trkpt lat="47.55227" lon="6.67586">
        <ele>489</ele>
        <time>2014-01-11T13:55:11.805Z</time>
      </trkpt>
      <trkpt lat="47.55238" lon="6.67588">
        <ele>489</ele>
        <time>2014-01-11T13:55:16.728Z</time>
      </trkpt>
      <trkpt lat="47.55249" lon="6.67592">
        <ele>490</ele>
        <time>2014-01-11T13:55:21.805Z</time>
      </trkpt>
      <trkpt lat="47.55258" lon="6.67591">
        <ele>490</ele>
        <time>2014-01-11T13:55:26.736Z</time>
      </trkpt>
      <trkpt lat="47.5527" lon="6.67594">
        <ele>490</ele>
        <time>2014-01-11T13:55:31.806Z</time>
      </trkpt>
      <trkpt lat="47.5528" lon="6.67596">
        <ele>492</ele>
        <time>2014-01-11T13:55:36.736Z</time>
      </trkpt>
      <trkpt lat="47.55291" lon="6.67597">
        <ele>493</ele>
        <time>2014-01-11T13:55:41.790Z</time>
      </trkpt>
      <trkpt lat="47.553" lon="6.67599">
        <ele>493</ele>
        <time>2014-01-11T13:55:46.736Z</time>
      </trkpt>
      <trkpt lat="47.5531" lon="6.67602">
        <ele>493</ele>
        <time>2014-01-11T13:55:51.806Z</time>
      </trkpt>
      <trkpt lat="47.55321" lon="6.67602">
        <ele>493</ele>
        <time>2014-01-11T13:55:56.729Z</time>
      </trkpt>
      <trkpt lat="47.55332" lon="6.67603">
        <ele>494</ele>
        <time>2014-01-11T13:56:01.844Z</time>
      </trkpt>
      <trkpt lat="47.55342" lon="6.67605">
        <ele>493</ele>
        <time>2014-01-11T13:56:06.738Z</time>
      </trkpt>
      <trkpt lat="47.55353" lon="6.67609">
        <ele>492</ele>
        <time>2014-01-11T13:56:11.774Z</time>
      </trkpt>
      <trkpt lat="47.55363" lon="6.6761">
        <ele>492</ele>
        <time>2014-01-11T13:56:16.731Z</time>
      </trkpt>
      <trkpt lat="47.55374" lon="6.67611">
        <ele>492</ele>
        <time>2014-01-11T13:56:21.770Z</time>
      </trkpt>
      <trkpt lat="47.55385" lon="6.67612">
        <ele>493</ele>
        <time>2014-01-11T13:56:26.727Z</time>
      </trkpt>
      <trkpt lat="47.55395" lon="6.67613">
        <ele>494</ele>
        <time>2014-01-11T13:56:31.806Z</time>
      </trkpt>
      <trkpt lat="47.55405" lon="6.67614">
        <ele>495</ele>
        <time>2014-01-11T13:56:36.736Z</time>
      </trkpt>
      <trkpt lat="47.55412" lon="6.67614">
        <ele>497</ele>
        <time>2014-01-11T13:56:41.772Z</time>
      </trkpt>
      <trkpt lat="47.55418" lon="6.67613">
        <ele>498</ele>
        <time>2014-01-11T13:56:46.728Z</time>
      </trkpt>
      <trkpt lat="47.55426" lon="6.67613">
        <ele>501</ele>
        <time>2014-01-11T13:56:51.803Z</time>
      </trkpt>
      <trkpt lat="47.55452" lon="6.67611">
        <ele>510</ele>
        <time>2014-01-11T13:57:11.815Z</time>
      </trkpt>
      <trkpt lat="47.55461" lon="6.67607">
        <ele>510</ele>
        <time>2014-01-11T13:57:16.737Z</time>
      </trkpt>
      <trkpt lat="47.55469" lon="6.67605">
        <ele>512</ele>
        <time>2014-01-11T13:57:21.803Z</time>
      </trkpt>
      <trkpt lat="47.55479" lon="6.67598">
        <ele>510</ele>
        <time>2014-01-11T13:57:26.734Z</time>
      </trkpt>
      <trkpt lat="47.55487" lon="6.67596">
        <ele>509</ele>
        <time>2014-01-11T13:57:31.807Z</time>
      </trkpt>
      <trkpt lat="47.55493" lon="6.67596">
        <ele>510</ele>
        <time>2014-01-11T13:57:36.726Z</time>
      </trkpt>
      <trkpt lat="47.55497" lon="6.67597">
        <ele>512</ele>
        <time>2014-01-11T13:57:41.811Z</time>
      </trkpt>
      <trkpt lat="47.55501" lon="6.67592">
        <ele>513</ele>
        <time>2014-01-11T13:57:46.736Z</time>
      </trkpt>
      <trkpt lat="47.55504" lon="6.67589">
        <ele>510</ele>
        <time>2014-01-11T13:57:51.805Z</time>
      </trkpt>
      <trkpt lat="47.55505" lon="6.67586">
        <ele>508</ele>
        <time>2014-01-11T13:57:56.726Z</time>
      </trkpt>
      <trkpt lat="47.55505" lon="6.67586">
        <ele>508</ele>
        <time>2014-01-11T13:58:06.808Z</time>
      </trkpt>
      <trkpt lat="47.55505" lon="6.67585">
        <ele>508</ele>
        <time>2014-01-11T13:58:11.735Z</time>
      </trkpt>
      <trkpt lat="47.55505" lon="6.67583">
        <ele>507</ele>
        <time>2014-01-11T13:58:16.808Z</time>
      </trkpt>
      <trkpt lat="47.55505" lon="6.67583">
        <ele>507</ele>
        <time>2014-01-11T13:58:21.720Z</time>
      </trkpt>
      <trkpt lat="47.55505" lon="6.67583">
        <ele>506</ele>
        <time>2014-01-11T13:58:26.803Z</time>
      </trkpt>
      <trkpt lat="47.55505" lon="6.67583">
        <ele>506</ele>
        <time>2014-01-11T13:58:31.729Z</time>
      </trkpt>
      <trkpt lat="47.55505" lon="6.67583">
        <ele>506</ele>
        <time>2014-01-11T13:58:36.806Z</time>
      </trkpt>
      <trkpt lat="47.55504" lon="6.67582">
        <ele>505</ele>
        <time>2014-01-11T13:58:41.726Z</time>
      </trkpt>
      <trkpt lat="47.55504" lon="6.67582">
        <ele>504</ele>
        <time>2014-01-11T13:58:46.805Z</time>
      </trkpt>
      <trkpt lat="47.55504" lon="6.67582">
        <ele>504</ele>
        <time>2014-01-11T13:58:51.728Z</time>
      </trkpt>
      <trkpt lat="47.55504" lon="6.67582">
        <ele>504</ele>
        <time>2014-01-11T13:58:56.814Z</time>
      </trkpt>
      <trkpt lat="47.55504" lon="6.67583">
        <ele>504</ele>
        <time>2014-01-11T13:59:01.731Z</time>
      </trkpt>
      <trkpt lat="47.55504" lon="6.67583">
        <ele>504</ele>
        <time>2014-01-11T13:59:06.806Z</time>
      </trkpt>
      <trkpt lat="47.55503" lon="6.67582">
        <ele>504</ele>
        <time>2014-01-11T13:59:11.735Z</time>
      </trkpt>
      <trkpt lat="47.55501" lon="6.67582">
        <ele>505</ele>
        <time>2014-01-11T13:59:16.762Z</time>
      </trkpt>
      <trkpt lat="47.55501" lon="6.67582">
        <ele>505</ele>
        <time>2014-01-11T13:59:21.730Z</time>
      </trkpt>
      <trkpt lat="47.55503" lon="6.67581">
        <ele>505</ele>
        <time>2014-01-11T13:59:26.805Z</time>
      </trkpt>
      <trkpt lat="47.55506" lon="6.67583">
        <ele>505</ele>
        <time>2014-01-11T13:59:31.765Z</time>
      </trkpt>
      <trkpt lat="47.55507" lon="6.67586">
        <ele>505</ele>
        <time>2014-01-11T13:59:36.807Z</time>
      </trkpt>
      <trkpt lat="47.55501" lon="6.67582">
        <ele>508</ele>
        <time>2014-01-11T13:59:41.811Z</time>
      </trkpt>
      <trkpt lat="47.55497" lon="6.67575">
        <ele>507</ele>
        <time>2014-01-11T13:59:46.727Z</time>
      </trkpt>
      <trkpt lat="47.55497" lon="6.67571">
        <ele>505</ele>
        <time>2014-01-11T13:59:51.805Z</time>
      </trkpt>
      <trkpt lat="47.55497" lon="6.67571">
        <ele>505</ele>
        <time>2014-01-11T13:59:56.734Z</time>
      </trkpt>
      <trkpt lat="47.55497" lon="6.67571">
        <ele>505</ele>
        <time>2014-01-11T14:00:11.808Z</time>
      </trkpt>
      <trkpt lat="47.55497" lon="6.67571">
        <ele>505</ele>
        <time>2014-01-11T14:00:16.728Z</time>
      </trkpt>
      <trkpt lat="47.55497" lon="6.67571">
        <ele>504</ele>
        <time>2014-01-11T14:00:21.804Z</time>
      </trkpt>
      <trkpt lat="47.55499" lon="6.67574">
        <ele>504</ele>
        <time>2014-01-11T14:00:26.727Z</time>
      </trkpt>
      <trkpt lat="47.55499" lon="6.67574">
        <ele>504</ele>
        <time>2014-01-11T14:00:31.806Z</time>
      </trkpt>
      <trkpt lat="47.55499" lon="6.67574">
        <ele>504</ele>
        <time>2014-01-11T14:00:36.729Z</time>
      </trkpt>
      <trkpt lat="47.55499" lon="6.67574">
        <ele>504</ele>
        <time>2014-01-11T14:00:41.817Z</time>
      </trkpt>
      <trkpt lat="47.55499" lon="6.67574">
        <ele>503</ele>
        <time>2014-01-11T14:00:46.736Z</time>
      </trkpt>
      <trkpt lat="47.55499" lon="6.67574">
        <ele>503</ele>
        <time>2014-01-11T14:00:51.811Z</time>
      </trkpt>
      <trkpt lat="47.555" lon="6.67573">
        <ele>504</ele>
        <time>2014-01-11T14:00:56.726Z</time>
      </trkpt>
      <trkpt lat="47.55502" lon="6.67574">
        <ele>505</ele>
        <time>2014-01-11T14:01:01.805Z</time>
      </trkpt>
      <trkpt lat="47.55502" lon="6.67574">
        <ele>505</ele>
        <time>2014-01-11T14:01:06.727Z</time>
      </trkpt>
      <trkpt lat="47.55502" lon="6.67574">
        <ele>505</ele>
        <time>2014-01-11T14:01:11.806Z</time>
      </trkpt>
      <trkpt lat="47.55502" lon="6.67576">
        <ele>505</ele>
        <time>2014-01-11T14:01:16.887Z</time>
      </trkpt>
      <trkpt lat="47.55503" lon="6.67575">
        <ele>504</ele>
        <time>2014-01-11T14:01:21.812Z</time>
      </trkpt>
      <trkpt lat="47.55505" lon="6.67574">
        <ele>503</ele>
        <time>2014-01-11T14:01:26.723Z</time>
      </trkpt>
      <trkpt lat="47.55505" lon="6.67575">
        <ele>503</ele>
        <time>2014-01-11T14:01:31.784Z</time>
      </trkpt>
      <trkpt lat="47.55505" lon="6.67575">
        <ele>503</ele>
        <time>2014-01-11T14:01:36.737Z</time>
      </trkpt>
      <trkpt lat="47.55505" lon="6.67575">
        <ele>503</ele>
        <time>2014-01-11T14:01:41.806Z</time>
      </trkpt>
      <trkpt lat="47.55505" lon="6.67574">
        <ele>503</ele>
        <time>2014-01-11T14:01:46.735Z</time>
      </trkpt>
      <trkpt lat="47.55505" lon="6.67574">
        <ele>503</ele>
        <time>2014-01-11T14:01:51.727Z</time>
      </trkpt>
      <trkpt lat="47.55505" lon="6.67574">
        <ele>503</ele>
        <time>2014-01-11T14:01:56.807Z</time>
      </trkpt>
      <trkpt lat="47.55505" lon="6.67574">
        <ele>503</ele>
        <time>2014-01-11T14:02:01.738Z</time>
      </trkpt>
      <trkpt lat="47.55505" lon="6.67574">
        <ele>503</ele>
        <time>2014-01-11T14:02:06.771Z</time>
      </trkpt>
      <trkpt lat="47.55505" lon="6.67574">
        <ele>503</ele>
        <time>2014-01-11T14:02:11.729Z</time>
      </trkpt>
      <trkpt lat="47.55505" lon="6.67574">
        <ele>503</ele>
        <time>2014-01-11T14:02:16.808Z</time>
      </trkpt>
      <trkpt lat="47.55505" lon="6.67574">
        <ele>503</ele>
        <time>2014-01-11T14:02:21.809Z</time>
      </trkpt>
      <trkpt lat="47.55506" lon="6.67571">
        <ele>499</ele>
        <time>2014-01-11T14:02:26.726Z</time>
      </trkpt>
      <trkpt lat="47.55506" lon="6.67569">
        <ele>499</ele>
        <time>2014-01-11T14:02:31.805Z</time>
      </trkpt>
      <trkpt lat="47.55506" lon="6.67569">
        <ele>499</ele>
        <time>2014-01-11T14:02:36.726Z</time>
      </trkpt>
      <trkpt lat="47.55506" lon="6.67569">
        <ele>499</ele>
        <time>2014-01-11T14:02:41.811Z</time>
      </trkpt>
      <trkpt lat="47.55506" lon="6.67569">
        <ele>499</ele>
        <time>2014-01-11T14:02:46.737Z</time>
      </trkpt>
      <trkpt lat="47.55506" lon="6.67569">
        <ele>499</ele>
        <time>2014-01-11T14:02:51.772Z</time>
      </trkpt>
      <trkpt lat="47.55506" lon="6.67569">
        <ele>499</ele>
        <time>2014-01-11T14:02:56.728Z</time>
      </trkpt>
      <trkpt lat="47.55506" lon="6.67569">
        <ele>498</ele>
        <time>2014-01-11T14:03:01.806Z</time>
      </trkpt>
      <trkpt lat="47.55506" lon="6.67569">
        <ele>498</ele>
        <time>2014-01-11T14:03:06.730Z</time>
      </trkpt>
      <trkpt lat="47.55506" lon="6.67569">
        <ele>498</ele>
        <time>2014-01-11T14:03:11.776Z</time>
      </trkpt>
      <trkpt lat="47.55506" lon="6.6757">
        <ele>499</ele>
        <time>2014-01-11T14:03:16.737Z</time>
      </trkpt>
      <trkpt lat="47.55508" lon="6.67572">
        <ele>500</ele>
        <time>2014-01-11T14:03:21.778Z</time>
      </trkpt>
      <trkpt lat="47.55508" lon="6.67573">
        <ele>501</ele>
        <time>2014-01-11T14:03:26.723Z</time>
      </trkpt>
      <trkpt lat="47.55508" lon="6.67576">
        <ele>501</ele>
        <time>2014-01-11T14:03:31.806Z</time>
      </trkpt>
      <trkpt lat="47.55508" lon="6.67577">
        <ele>501</ele>
        <time>2014-01-11T14:03:36.740Z</time>
      </trkpt>
      <trkpt lat="47.55509" lon="6.67578">
        <ele>501</ele>
        <time>2014-01-11T14:03:41.804Z</time>
      </trkpt>
      <trkpt lat="47.55509" lon="6.67578">
        <ele>502</ele>
        <time>2014-01-11T14:03:46.741Z</time>
      </trkpt>
      <trkpt lat="47.55509" lon="6.67581">
        <ele>503</ele>
        <time>2014-01-11T14:03:51.809Z</time>
      </trkpt>
      <trkpt lat="47.55509" lon="6.67581">
        <ele>503</ele>
        <time>2014-01-11T14:03:56.735Z</time>
      </trkpt>
      <trkpt lat="47.55509" lon="6.67581">
        <ele>503</ele>
        <time>2014-01-11T14:04:01.843Z</time>
      </trkpt>
      <trkpt lat="47.55509" lon="6.67581">
        <ele>503</ele>
        <time>2014-01-11T14:04:06.729Z</time>
      </trkpt>
      <trkpt lat="47.55509" lon="6.67581">
        <ele>503</ele>
        <time>2014-01-11T14:04:11.805Z</time>
      </trkpt>
      <trkpt lat="47.55509" lon="6.67581">
        <ele>503</ele>
        <time>2014-01-11T14:04:16.734Z</time>
      </trkpt>
      <trkpt lat="47.55509" lon="6.67581">
        <ele>503</ele>
        <time>2014-01-11T14:04:21.810Z</time>
      </trkpt>
      <trkpt lat="47.55509" lon="6.67581">
        <ele>503</ele>
        <time>2014-01-11T14:04:26.742Z</time>
      </trkpt>
      <trkpt lat="47.5551" lon="6.6758">
        <ele>503</ele>
        <time>2014-01-11T14:04:31.813Z</time>
      </trkpt>
      <trkpt lat="47.55512" lon="6.67578">
        <ele>504</ele>
        <time>2014-01-11T14:04:36.727Z</time>
      </trkpt>
      <trkpt lat="47.55515" lon="6.67576">
        <ele>506</ele>
        <time>2014-01-11T14:04:41.777Z</time>
      </trkpt>
      <trkpt lat="47.55518" lon="6.67572">
        <ele>507</ele>
        <time>2014-01-11T14:04:46.727Z</time>
      </trkpt>
      <trkpt lat="47.55521" lon="6.67564">
        <ele>508</ele>
        <time>2014-01-11T14:04:51.807Z</time>
      </trkpt>
      <trkpt lat="47.55524" lon="6.67557">
        <ele>511</ele>
        <time>2014-01-11T14:04:56.726Z</time>
      </trkpt>
      <trkpt lat="47.55529" lon="6.67551">
        <ele>512</ele>
        <time>2014-01-11T14:05:01.817Z</time>
      </trkpt>
      <trkpt lat="47.55532" lon="6.67545">
        <ele>513</ele>
        <time>2014-01-11T14:05:06.727Z</time>
      </trkpt>
      <trkpt lat="47.55535" lon="6.67537">
        <ele>514</ele>
        <time>2014-01-11T14:05:11.790Z</time>
      </trkpt>
      <trkpt lat="47.55537" lon="6.67529">
        <ele>515</ele>
        <time>2014-01-11T14:05:16.728Z</time>
      </trkpt>
      <trkpt lat="47.55541" lon="6.67522">
        <ele>517</ele>
        <time>2014-01-11T14:05:21.811Z</time>
      </trkpt>
      <trkpt lat="47.55544" lon="6.67511">
        <ele>518</ele>
        <time>2014-01-11T14:05:26.808Z</time>
      </trkpt>
      <trkpt lat="47.55545" lon="6.67498">
        <ele>519</ele>
        <time>2014-01-11T14:05:31.730Z</time>
      </trkpt>
      <trkpt lat="47.55547" lon="6.67485">
        <ele>519</ele>
        <time>2014-01-11T14:05:36.806Z</time>
      </trkpt>
      <trkpt lat="47.55548" lon="6.67473">
        <ele>519</ele>
        <time>2014-01-11T14:05:41.731Z</time>
      </trkpt>
      <trkpt lat="47.55549" lon="6.6746">
        <ele>520</ele>
        <time>2014-01-11T14:05:46.806Z</time>
      </trkpt>
      <trkpt lat="47.5555" lon="6.67449">
        <ele>521</ele>
        <time>2014-01-11T14:05:51.734Z</time>
      </trkpt>
      <trkpt lat="47.55552" lon="6.67442">
        <ele>522</ele>
        <time>2014-01-11T14:05:56.812Z</time>
      </trkpt>
      <trkpt lat="47.55556" lon="6.6744">
        <ele>523</ele>
        <time>2014-01-11T14:06:01.730Z</time>
      </trkpt>
      <trkpt lat="47.55558" lon="6.67437">
        <ele>525</ele>
        <time>2014-01-11T14:06:06.816Z</time>
      </trkpt>
      <trkpt lat="47.55561" lon="6.67434">
        <ele>526</ele>
        <time>2014-01-11T14:06:11.740Z</time>
      </trkpt>
      <trkpt lat="47.55566" lon="6.67431">
        <ele>527</ele>
        <time>2014-01-11T14:06:16.805Z</time>
      </trkpt>
      <trkpt lat="47.5557" lon="6.67426">
        <ele>527</ele>
        <time>2014-01-11T14:06:21.736Z</time>
      </trkpt>
      <trkpt lat="47.55573" lon="6.67421">
        <ele>528</ele>
        <time>2014-01-11T14:06:26.764Z</time>
      </trkpt>
      <trkpt lat="47.55574" lon="6.67415">
        <ele>527</ele>
        <time>2014-01-11T14:06:31.743Z</time>
      </trkpt>
      <trkpt lat="47.55577" lon="6.67411">
        <ele>528</ele>
        <time>2014-01-11T14:06:36.817Z</time>
      </trkpt>
      <trkpt lat="47.55582" lon="6.67406">
        <ele>530</ele>
        <time>2014-01-11T14:06:41.734Z</time>
      </trkpt>
      <trkpt lat="47.55583" lon="6.67402">
        <ele>531</ele>
        <time>2014-01-11T14:06:46.808Z</time>
      </trkpt>
      <trkpt lat="47.55587" lon="6.67394">
        <ele>531</ele>
        <time>2014-01-11T14:06:51.748Z</time>
      </trkpt>
      <trkpt lat="47.55593" lon="6.67385">
        <ele>531</ele>
        <time>2014-01-11T14:06:56.810Z</time>
      </trkpt>
      <trkpt lat="47.55596" lon="6.67375">
        <ele>531</ele>
        <time>2014-01-11T14:07:01.745Z</time>
      </trkpt>
      <trkpt lat="47.556" lon="6.67367">
        <ele>533</ele>
        <time>2014-01-11T14:07:06.806Z</time>
      </trkpt>
      <trkpt lat="47.55604" lon="6.6736">
        <ele>533</ele>
        <time>2014-01-11T14:07:11.746Z</time>
      </trkpt>
      <trkpt lat="47.55608" lon="6.67353">
        <ele>533</ele>
        <time>2014-01-11T14:07:16.778Z</time>
      </trkpt>
      <trkpt lat="47.55612" lon="6.67347">
        <ele>534</ele>
        <time>2014-01-11T14:07:21.736Z</time>
      </trkpt>
      <trkpt lat="47.55615" lon="6.67342">
        <ele>535</ele>
        <time>2014-01-11T14:07:26.810Z</time>
      </trkpt>
      <trkpt lat="47.55618" lon="6.67335">
        <ele>536</ele>
        <time>2014-01-11T14:07:31.746Z</time>
      </trkpt>
      <trkpt lat="47.55621" lon="6.67331">
        <ele>536</ele>
        <time>2014-01-11T14:07:36.813Z</time>
      </trkpt>
      <trkpt lat="47.55622" lon="6.67326">
        <ele>538</ele>
        <time>2014-01-11T14:07:41.734Z</time>
      </trkpt>
      <trkpt lat="47.55625" lon="6.67319">
        <ele>538</ele>
        <time>2014-01-11T14:07:46.805Z</time>
      </trkpt>
      <trkpt lat="47.55626" lon="6.67312">
        <ele>540</ele>
        <time>2014-01-11T14:07:51.741Z</time>
      </trkpt>
      <trkpt lat="47.55628" lon="6.67306">
        <ele>542</ele>
        <time>2014-01-11T14:07:56.808Z</time>
      </trkpt>
      <trkpt lat="47.5563" lon="6.67301">
        <ele>544</ele>
        <time>2014-01-11T14:08:01.749Z</time>
      </trkpt>
      <trkpt lat="47.55634" lon="6.673">
        <ele>544</ele>
        <time>2014-01-11T14:08:06.780Z</time>
      </trkpt>
      <trkpt lat="47.55637" lon="6.67299">
        <ele>546</ele>
        <time>2014-01-11T14:08:11.735Z</time>
      </trkpt>
      <trkpt lat="47.55642" lon="6.67295">
        <ele>548</ele>
        <time>2014-01-11T14:08:16.796Z</time>
      </trkpt>
      <trkpt lat="47.55647" lon="6.67294">
        <ele>549</ele>
        <time>2014-01-11T14:08:21.750Z</time>
      </trkpt>
      <trkpt lat="47.55653" lon="6.67289">
        <ele>548</ele>
        <time>2014-01-11T14:08:26.808Z</time>
      </trkpt>
      <trkpt lat="47.5566" lon="6.67284">
        <ele>548</ele>
        <time>2014-01-11T14:08:31.750Z</time>
      </trkpt>
      <trkpt lat="47.55671" lon="6.67279">
        <ele>552</ele>
        <time>2014-01-11T14:08:41.744Z</time>
      </trkpt>
      <trkpt lat="47.55675" lon="6.67276">
        <ele>554</ele>
        <time>2014-01-11T14:08:46.809Z</time>
      </trkpt>
      <trkpt lat="47.55681" lon="6.67276">
        <ele>555</ele>
        <time>2014-01-11T14:08:51.741Z</time>
      </trkpt>
      <trkpt lat="47.55686" lon="6.67276">
        <ele>555</ele>
        <time>2014-01-11T14:08:56.735Z</time>
      </trkpt>
      <trkpt lat="47.55695" lon="6.67272">
        <ele>556</ele>
        <time>2014-01-11T14:09:06.813Z</time>
      </trkpt>
      <trkpt lat="47.55702" lon="6.67266">
        <ele>556</ele>
        <time>2014-01-11T14:09:11.743Z</time>
      </trkpt>
      <trkpt lat="47.55707" lon="6.67259">
        <ele>557</ele>
        <time>2014-01-11T14:09:16.810Z</time>
      </trkpt>
      <trkpt lat="47.55709" lon="6.67259">
        <ele>559</ele>
        <time>2014-01-11T14:09:21.743Z</time>
      </trkpt>
      <trkpt lat="47.55712" lon="6.67253">
        <ele>560</ele>
        <time>2014-01-11T14:09:26.807Z</time>
      </trkpt>
      <trkpt lat="47.55717" lon="6.67247">
        <ele>561</ele>
        <time>2014-01-11T14:09:31.744Z</time>
      </trkpt>
      <trkpt lat="47.55723" lon="6.67243">
        <ele>560</ele>
        <time>2014-01-11T14:09:36.797Z</time>
      </trkpt>
      <trkpt lat="47.55726" lon="6.67238">
        <ele>561</ele>
        <time>2014-01-11T14:09:41.736Z</time>
      </trkpt>
      <trkpt lat="47.55732" lon="6.67232">
        <ele>560</ele>
        <time>2014-01-11T14:09:46.954Z</time>
      </trkpt>
      <trkpt lat="47.55737" lon="6.67223">
        <ele>559</ele>
        <time>2014-01-11T14:09:51.737Z</time>
      </trkpt>
      <trkpt lat="47.55737" lon="6.67214">
        <ele>559</ele>
        <time>2014-01-11T14:09:56.793Z</time>
      </trkpt>
      <trkpt lat="47.55739" lon="6.67203">
        <ele>558</ele>
        <time>2014-01-11T14:10:01.736Z</time>
      </trkpt>
      <trkpt lat="47.55739" lon="6.67191">
        <ele>558</ele>
        <time>2014-01-11T14:10:06.804Z</time>
      </trkpt>
      <trkpt lat="47.55739" lon="6.67182">
        <ele>558</ele>
        <time>2014-01-11T14:10:11.742Z</time>
      </trkpt>
      <trkpt lat="47.55739" lon="6.67179">
        <ele>559</ele>
        <time>2014-01-11T14:10:16.811Z</time>
      </trkpt>
      <trkpt lat="47.55739" lon="6.67174">
        <ele>561</ele>
        <time>2014-01-11T14:10:21.736Z</time>
      </trkpt>
      <trkpt lat="47.55741" lon="6.67168">
        <ele>563</ele>
        <time>2014-01-11T14:10:26.806Z</time>
      </trkpt>
      <trkpt lat="47.55746" lon="6.67161">
        <ele>564</ele>
        <time>2014-01-11T14:10:31.736Z</time>
      </trkpt>
      <trkpt lat="47.55754" lon="6.67151">
        <ele>566</ele>
        <time>2014-01-11T14:10:36.811Z</time>
      </trkpt>
      <trkpt lat="47.55765" lon="6.67138">
        <ele>566</ele>
        <time>2014-01-11T14:10:41.735Z</time>
      </trkpt>
      <trkpt lat="47.55773" lon="6.67129">
        <ele>569</ele>
        <time>2014-01-11T14:10:46.809Z</time>
      </trkpt>
      <trkpt lat="47.5578" lon="6.67121">
        <ele>570</ele>
        <time>2014-01-11T14:10:51.736Z</time>
      </trkpt>
      <trkpt lat="47.55787" lon="6.67111">
        <ele>570</ele>
        <time>2014-01-11T14:10:56.808Z</time>
      </trkpt>
      <trkpt lat="47.55792" lon="6.671">
        <ele>571</ele>
        <time>2014-01-11T14:11:01.737Z</time>
      </trkpt>
      <trkpt lat="47.558" lon="6.67085">
        <ele>570</ele>
        <time>2014-01-11T14:11:06.806Z</time>
      </trkpt>
      <trkpt lat="47.55804" lon="6.67066">
        <ele>568</ele>
        <time>2014-01-11T14:11:11.743Z</time>
      </trkpt>
      <trkpt lat="47.55799" lon="6.67054">
        <ele>567</ele>
        <time>2014-01-11T14:11:16.808Z</time>
      </trkpt>
      <trkpt lat="47.55791" lon="6.67042">
        <ele>568</ele>
        <time>2014-01-11T14:11:21.733Z</time>
      </trkpt>
      <trkpt lat="47.55783" lon="6.67034">
        <ele>569</ele>
        <time>2014-01-11T14:11:26.795Z</time>
      </trkpt>
      <trkpt lat="47.55773" lon="6.6703">
        <ele>570</ele>
        <time>2014-01-11T14:11:31.734Z</time>
      </trkpt>
      <trkpt lat="47.55764" lon="6.67027">
        <ele>571</ele>
        <time>2014-01-11T14:11:36.793Z</time>
      </trkpt>
      <trkpt lat="47.55761" lon="6.6702">
        <ele>572</ele>
        <time>2014-01-11T14:11:41.701Z</time>
      </trkpt>
      <trkpt lat="47.55757" lon="6.67011">
        <ele>572</ele>
        <time>2014-01-11T14:11:46.812Z</time>
      </trkpt>
      <trkpt lat="47.55748" lon="6.67006">
        <ele>573</ele>
        <time>2014-01-11T14:11:51.745Z</time>
      </trkpt>
      <trkpt lat="47.5574" lon="6.66998">
        <ele>573</ele>
        <time>2014-01-11T14:11:56.810Z</time>
      </trkpt>
      <trkpt lat="47.55733" lon="6.66987">
        <ele>574</ele>
        <time>2014-01-11T14:12:01.737Z</time>
      </trkpt>
      <trkpt lat="47.55726" lon="6.66975">
        <ele>574</ele>
        <time>2014-01-11T14:12:06.806Z</time>
      </trkpt>
      <trkpt lat="47.55712" lon="6.66965">
        <ele>574</ele>
        <time>2014-01-11T14:12:11.713Z</time>
      </trkpt>
      <trkpt lat="47.557" lon="6.66956">
        <ele>575</ele>
        <time>2014-01-11T14:12:16.809Z</time>
      </trkpt>
      <trkpt lat="47.55687" lon="6.6695">
        <ele>574</ele>
        <time>2014-01-11T14:12:21.744Z</time>
      </trkpt>
      <trkpt lat="47.5567" lon="6.66942">
        <ele>573</ele>
        <time>2014-01-11T14:12:26.811Z</time>
      </trkpt>
      <trkpt lat="47.55652" lon="6.66929">
        <ele>573</ele>
        <time>2014-01-11T14:12:31.747Z</time>
      </trkpt>
      <trkpt lat="47.55639" lon="6.66918">
        <ele>574</ele>
        <time>2014-01-11T14:12:36.809Z</time>
      </trkpt>
      <trkpt lat="47.55617" lon="6.66901">
        <ele>574</ele>
        <time>2014-01-11T14:12:41.744Z</time>
      </trkpt>
      <trkpt lat="47.55592" lon="6.66884">
        <ele>574</ele>
        <time>2014-01-11T14:12:46.709Z</time>
      </trkpt>
      <trkpt lat="47.55569" lon="6.66859">
        <ele>574</ele>
        <time>2014-01-11T14:12:51.808Z</time>
      </trkpt>
      <trkpt lat="47.55548" lon="6.66838">
        <ele>573</ele>
        <time>2014-01-11T14:12:56.734Z</time>
      </trkpt>
      <trkpt lat="47.55537" lon="6.66825">
        <ele>572</ele>
        <time>2014-01-11T14:13:01.806Z</time>
      </trkpt>
      <trkpt lat="47.55527" lon="6.66812">
        <ele>571</ele>
        <time>2014-01-11T14:13:06.732Z</time>
      </trkpt>
      <trkpt lat="47.55525" lon="6.66805">
        <ele>570</ele>
        <time>2014-01-11T14:13:11.807Z</time>
      </trkpt>
      <trkpt lat="47.55524" lon="6.668">
        <ele>570</ele>
        <time>2014-01-11T14:13:16.731Z</time>
      </trkpt>
      <trkpt lat="47.55522" lon="6.66796">
        <ele>570</ele>
        <time>2014-01-11T14:13:21.794Z</time>
      </trkpt>
      <trkpt lat="47.55517" lon="6.66795">
        <ele>570</ele>
        <time>2014-01-11T14:13:26.742Z</time>
      </trkpt>
      <trkpt lat="47.55514" lon="6.66802">
        <ele>567</ele>
        <time>2014-01-11T14:13:31.735Z</time>
      </trkpt>
      <trkpt lat="47.55515" lon="6.66796">
        <ele>567</ele>
        <time>2014-01-11T14:13:36.817Z</time>
      </trkpt>
      <trkpt lat="47.55512" lon="6.66786">
        <ele>566</ele>
        <time>2014-01-11T14:13:41.735Z</time>
      </trkpt>
      <trkpt lat="47.55508" lon="6.66775">
        <ele>567</ele>
        <time>2014-01-11T14:13:47.235Z</time>
      </trkpt>
      <trkpt lat="47.555" lon="6.66765">
        <ele>567</ele>
        <time>2014-01-11T14:13:51.747Z</time>
      </trkpt>
      <trkpt lat="47.55494" lon="6.66755">
        <ele>568</ele>
        <time>2014-01-11T14:13:56.813Z</time>
      </trkpt>
      <trkpt lat="47.55487" lon="6.66742">
        <ele>569</ele>
        <time>2014-01-11T14:14:01.743Z</time>
      </trkpt>
      <trkpt lat="47.5548" lon="6.6673">
        <ele>568</ele>
        <time>2014-01-11T14:14:06.809Z</time>
      </trkpt>
      <trkpt lat="47.55474" lon="6.66716">
        <ele>569</ele>
        <time>2014-01-11T14:14:11.741Z</time>
      </trkpt>
      <trkpt lat="47.55467" lon="6.66702">
        <ele>569</ele>
        <time>2014-01-11T14:14:16.794Z</time>
      </trkpt>
      <trkpt lat="47.55459" lon="6.66687">
        <ele>569</ele>
        <time>2014-01-11T14:14:21.734Z</time>
      </trkpt>
      <trkpt lat="47.55454" lon="6.66674">
        <ele>570</ele>
        <time>2014-01-11T14:14:26.809Z</time>
      </trkpt>
      <trkpt lat="47.55453" lon="6.66668">
        <ele>571</ele>
        <time>2014-01-11T14:14:31.744Z</time>
      </trkpt>
      <trkpt lat="47.55448" lon="6.66662">
        <ele>572</ele>
        <time>2014-01-11T14:14:36.808Z</time>
      </trkpt>
      <trkpt lat="47.55443" lon="6.66655">
        <ele>573</ele>
        <time>2014-01-11T14:14:41.730Z</time>
      </trkpt>
      <trkpt lat="47.55437" lon="6.66648">
        <ele>573</ele>
        <time>2014-01-11T14:14:46.807Z</time>
      </trkpt>
      <trkpt lat="47.55431" lon="6.66639">
        <ele>572</ele>
        <time>2014-01-11T14:14:51.742Z</time>
      </trkpt>
      <trkpt lat="47.55423" lon="6.6663">
        <ele>572</ele>
        <time>2014-01-11T14:14:56.808Z</time>
      </trkpt>
      <trkpt lat="47.55414" lon="6.66618">
        <ele>570</ele>
        <time>2014-01-11T14:15:01.741Z</time>
      </trkpt>
      <trkpt lat="47.5541" lon="6.66606">
        <ele>569</ele>
        <time>2014-01-11T14:15:06.809Z</time>
      </trkpt>
      <trkpt lat="47.55404" lon="6.66595">
        <ele>568</ele>
        <time>2014-01-11T14:15:11.739Z</time>
      </trkpt>
      <trkpt lat="47.55396" lon="6.66582">
        <ele>567</ele>
        <time>2014-01-11T14:15:16.809Z</time>
      </trkpt>
      <trkpt lat="47.55391" lon="6.66569">
        <ele>566</ele>
        <time>2014-01-11T14:15:21.752Z</time>
      </trkpt>
      <trkpt lat="47.5538" lon="6.66545">
        <ele>567</ele>
        <time>2014-01-11T14:15:31.742Z</time>
      </trkpt>
      <trkpt lat="47.55374" lon="6.66539">
        <ele>568</ele>
        <time>2014-01-11T14:15:36.794Z</time>
      </trkpt>
      <trkpt lat="47.55366" lon="6.66529">
        <ele>569</ele>
        <time>2014-01-11T14:15:41.735Z</time>
      </trkpt>
      <trkpt lat="47.5536" lon="6.66521">
        <ele>570</ele>
        <time>2014-01-11T14:15:46.804Z</time>
      </trkpt>
      <trkpt lat="47.55358" lon="6.66512">
        <ele>572</ele>
        <time>2014-01-11T14:15:51.781Z</time>
      </trkpt>
      <trkpt lat="47.55355" lon="6.66504">
        <ele>573</ele>
        <time>2014-01-11T14:15:56.736Z</time>
      </trkpt>
      <trkpt lat="47.5535" lon="6.66495">
        <ele>574</ele>
        <time>2014-01-11T14:16:01.798Z</time>
      </trkpt>
      <trkpt lat="47.55345" lon="6.66486">
        <ele>575</ele>
        <time>2014-01-11T14:16:06.761Z</time>
      </trkpt>
      <trkpt lat="47.5534" lon="6.66478">
        <ele>576</ele>
        <time>2014-01-11T14:16:11.719Z</time>
      </trkpt>
      <trkpt lat="47.55336" lon="6.6647">
        <ele>576</ele>
        <time>2014-01-11T14:16:16.787Z</time>
      </trkpt>
      <trkpt lat="47.55332" lon="6.66461">
        <ele>578</ele>
        <time>2014-01-11T14:16:21.747Z</time>
      </trkpt>
      <trkpt lat="47.55329" lon="6.66453">
        <ele>578</ele>
        <time>2014-01-11T14:16:26.804Z</time>
      </trkpt>
      <trkpt lat="47.55325" lon="6.66443">
        <ele>580</ele>
        <time>2014-01-11T14:16:31.743Z</time>
      </trkpt>
      <trkpt lat="47.55318" lon="6.66433">
        <ele>581</ele>
        <time>2014-01-11T14:16:36.811Z</time>
      </trkpt>
      <trkpt lat="47.55313" lon="6.66424">
        <ele>582</ele>
        <time>2014-01-11T14:16:41.735Z</time>
      </trkpt>
      <trkpt lat="47.55312" lon="6.66418">
        <ele>581</ele>
        <time>2014-01-11T14:16:46.775Z</time>
      </trkpt>
      <trkpt lat="47.55312" lon="6.66416">
        <ele>581</ele>
        <time>2014-01-11T14:16:51.761Z</time>
      </trkpt>
      <trkpt lat="47.55309" lon="6.66407">
        <ele>581</ele>
        <time>2014-01-11T14:16:56.802Z</time>
      </trkpt>
      <trkpt lat="47.55306" lon="6.66399">
        <ele>580</ele>
        <time>2014-01-11T14:17:01.747Z</time>
      </trkpt>
      <trkpt lat="47.55302" lon="6.6639">
        <ele>579</ele>
        <time>2014-01-11T14:17:06.809Z</time>
      </trkpt>
      <trkpt lat="47.55296" lon="6.66381">
        <ele>578</ele>
        <time>2014-01-11T14:17:11.738Z</time>
      </trkpt>
      <trkpt lat="47.55294" lon="6.66373">
        <ele>577</ele>
        <time>2014-01-11T14:17:16.809Z</time>
      </trkpt>
      <trkpt lat="47.55289" lon="6.66363">
        <ele>576</ele>
        <time>2014-01-11T14:17:21.748Z</time>
      </trkpt>
      <trkpt lat="47.55286" lon="6.66353">
        <ele>576</ele>
        <time>2014-01-11T14:17:26.738Z</time>
      </trkpt>
      <trkpt lat="47.55285" lon="6.66342">
        <ele>576</ele>
        <time>2014-01-11T14:17:31.810Z</time>
      </trkpt>
      <trkpt lat="47.5528" lon="6.66334">
        <ele>574</ele>
        <time>2014-01-11T14:17:36.746Z</time>
      </trkpt>
      <trkpt lat="47.55275" lon="6.66324">
        <ele>574</ele>
        <time>2014-01-11T14:17:41.808Z</time>
      </trkpt>
      <trkpt lat="47.55269" lon="6.66314">
        <ele>575</ele>
        <time>2014-01-11T14:17:46.739Z</time>
      </trkpt>
      <trkpt lat="47.55261" lon="6.66307">
        <ele>575</ele>
        <time>2014-01-11T14:17:51.814Z</time>
      </trkpt>
      <trkpt lat="47.55251" lon="6.66298">
        <ele>576</ele>
        <time>2014-01-11T14:17:56.796Z</time>
      </trkpt>
      <trkpt lat="47.55239" lon="6.66289">
        <ele>578</ele>
        <time>2014-01-11T14:18:16.747Z</time>
      </trkpt>
      <trkpt lat="47.55239" lon="6.66289">
        <ele>578</ele>
        <time>2014-01-11T14:18:21.778Z</time>
      </trkpt>
      <trkpt lat="47.55239" lon="6.66288">
        <ele>578</ele>
        <time>2014-01-11T14:18:26.753Z</time>
      </trkpt>
      <trkpt lat="47.55234" lon="6.6628">
        <ele>578</ele>
        <time>2014-01-11T14:18:31.809Z</time>
      </trkpt>
      <trkpt lat="47.55229" lon="6.66268">
        <ele>578</ele>
        <time>2014-01-11T14:18:36.741Z</time>
      </trkpt>
      <trkpt lat="47.55224" lon="6.6625">
        <ele>578</ele>
        <time>2014-01-11T14:18:41.802Z</time>
      </trkpt>
      <trkpt lat="47.55213" lon="6.66233">
        <ele>578</ele>
        <time>2014-01-11T14:18:46.742Z</time>
      </trkpt>
      <trkpt lat="47.552" lon="6.66217">
        <ele>579</ele>
        <time>2014-01-11T14:18:51.810Z</time>
      </trkpt>
      <trkpt lat="47.55183" lon="6.66205">
        <ele>579</ele>
        <time>2014-01-11T14:18:56.740Z</time>
      </trkpt>
      <trkpt lat="47.55163" lon="6.66194">
        <ele>580</ele>
        <time>2014-01-11T14:19:01.806Z</time>
      </trkpt>
      <trkpt lat="47.55142" lon="6.6619">
        <ele>580</ele>
        <time>2014-01-11T14:19:06.733Z</time>
      </trkpt>
      <trkpt lat="47.55129" lon="6.66184">
        <ele>579</ele>
        <time>2014-01-11T14:19:11.808Z</time>
      </trkpt>
      <trkpt lat="47.55117" lon="6.66177">
        <ele>579</ele>
        <time>2014-01-11T14:19:16.731Z</time>
      </trkpt>
      <trkpt lat="47.55096" lon="6.66165">
        <ele>580</ele>
        <time>2014-01-11T14:19:21.815Z</time>
      </trkpt>
      <trkpt lat="47.55077" lon="6.66154">
        <ele>581</ele>
        <time>2014-01-11T14:19:26.731Z</time>
      </trkpt>
      <trkpt lat="47.55066" lon="6.66146">
        <ele>581</ele>
        <time>2014-01-11T14:19:31.809Z</time>
      </trkpt>
      <trkpt lat="47.55043" lon="6.66136">
        <ele>581</ele>
        <time>2014-01-11T14:19:36.741Z</time>
      </trkpt>
      <trkpt lat="47.55021" lon="6.66136">
        <ele>582</ele>
        <time>2014-01-11T14:19:41.809Z</time>
      </trkpt>
      <trkpt lat="47.55009" lon="6.66123">
        <ele>581</ele>
        <time>2014-01-11T14:19:46.739Z</time>
      </trkpt>
      <trkpt lat="47.54996" lon="6.66109">
        <ele>580</ele>
        <time>2014-01-11T14:19:51.807Z</time>
      </trkpt>
      <trkpt lat="47.54982" lon="6.66101">
        <ele>580</ele>
        <time>2014-01-11T14:19:56.731Z</time>
      </trkpt>
      <trkpt lat="47.54976" lon="6.66093">
        <ele>579</ele>
        <time>2014-01-11T14:20:01.777Z</time>
      </trkpt>
      <trkpt lat="47.54976" lon="6.66086">
        <ele>578</ele>
        <time>2014-01-11T14:20:06.736Z</time>
      </trkpt>
      <trkpt lat="47.54969" lon="6.66075">
        <ele>580</ele>
        <time>2014-01-11T14:20:11.807Z</time>
      </trkpt>
      <trkpt lat="47.54961" lon="6.66064">
        <ele>580</ele>
        <time>2014-01-11T14:20:16.736Z</time>
      </trkpt>
      <trkpt lat="47.54951" lon="6.66049">
        <ele>580</ele>
        <time>2014-01-11T14:20:21.809Z</time>
      </trkpt>
      <trkpt lat="47.54939" lon="6.66038">
        <ele>580</ele>
        <time>2014-01-11T14:20:26.736Z</time>
      </trkpt>
      <trkpt lat="47.54921" lon="6.66027">
        <ele>581</ele>
        <time>2014-01-11T14:20:31.806Z</time>
      </trkpt>
      <trkpt lat="47.54907" lon="6.66019">
        <ele>579</ele>
        <time>2014-01-11T14:20:36.748Z</time>
      </trkpt>
      <trkpt lat="47.54889" lon="6.66007">
        <ele>578</ele>
        <time>2014-01-11T14:20:46.738Z</time>
      </trkpt>
      <trkpt lat="47.5488" lon="6.66004">
        <ele>577</ele>
        <time>2014-01-11T14:20:51.807Z</time>
      </trkpt>
      <trkpt lat="47.54868" lon="6.65996">
        <ele>577</ele>
        <time>2014-01-11T14:20:56.736Z</time>
      </trkpt>
      <trkpt lat="47.54856" lon="6.65991">
        <ele>577</ele>
        <time>2014-01-11T14:21:07.962Z</time>
      </trkpt>
      <trkpt lat="47.54857" lon="6.65994">
        <ele>576</ele>
        <time>2014-01-11T14:21:11.808Z</time>
      </trkpt>
      <trkpt lat="47.54854" lon="6.65993">
        <ele>576</ele>
        <time>2014-01-11T14:21:16.740Z</time>
      </trkpt>
      <trkpt lat="47.54848" lon="6.65993">
        <ele>575</ele>
        <time>2014-01-11T14:21:21.781Z</time>
      </trkpt>
      <trkpt lat="47.54847" lon="6.65994">
        <ele>574</ele>
        <time>2014-01-11T14:21:26.730Z</time>
      </trkpt>
      <trkpt lat="47.54845" lon="6.65993">
        <ele>573</ele>
        <time>2014-01-11T14:21:31.776Z</time>
      </trkpt>
      <trkpt lat="47.54846" lon="6.65992">
        <ele>574</ele>
        <time>2014-01-11T14:21:36.743Z</time>
      </trkpt>
      <trkpt lat="47.54846" lon="6.65992">
        <ele>574</ele>
        <time>2014-01-11T14:21:41.811Z</time>
      </trkpt>
      <trkpt lat="47.54847" lon="6.65993">
        <ele>575</ele>
        <time>2014-01-11T14:21:46.743Z</time>
      </trkpt>
      <trkpt lat="47.54845" lon="6.65992">
        <ele>575</ele>
        <time>2014-01-11T14:21:51.809Z</time>
      </trkpt>
      <trkpt lat="47.54845" lon="6.65994">
        <ele>575</ele>
        <time>2014-01-11T14:22:11.745Z</time>
      </trkpt>
      <trkpt lat="47.54844" lon="6.65996">
        <ele>573</ele>
        <time>2014-01-11T14:22:16.740Z</time>
      </trkpt>
      <trkpt lat="47.54844" lon="6.65995">
        <ele>573</ele>
        <time>2014-01-11T14:22:21.809Z</time>
      </trkpt>
      <trkpt lat="47.54844" lon="6.65995">
        <ele>573</ele>
        <time>2014-01-11T14:22:26.732Z</time>
      </trkpt>
      <trkpt lat="47.54844" lon="6.65995">
        <ele>573</ele>
        <time>2014-01-11T14:22:31.810Z</time>
      </trkpt>
      <trkpt lat="47.54844" lon="6.65995">
        <ele>573</ele>
        <time>2014-01-11T14:22:36.735Z</time>
      </trkpt>
      <trkpt lat="47.54844" lon="6.65995">
        <ele>573</ele>
        <time>2014-01-11T14:22:41.789Z</time>
      </trkpt>
      <trkpt lat="47.54844" lon="6.65995">
        <ele>573</ele>
        <time>2014-01-11T14:22:46.735Z</time>
      </trkpt>
      <trkpt lat="47.54844" lon="6.65995">
        <ele>573</ele>
        <time>2014-01-11T14:22:51.810Z</time>
      </trkpt>
      <trkpt lat="47.54844" lon="6.65995">
        <ele>573</ele>
        <time>2014-01-11T14:22:56.726Z</time>
      </trkpt>
      <trkpt lat="47.54844" lon="6.65995">
        <ele>573</ele>
        <time>2014-01-11T14:23:01.809Z</time>
      </trkpt>
      <trkpt lat="47.54844" lon="6.65995">
        <ele>573</ele>
        <time>2014-01-11T14:23:06.725Z</time>
      </trkpt>
      <trkpt lat="47.54844" lon="6.65996">
        <ele>573</ele>
        <time>2014-01-11T14:23:11.806Z</time>
      </trkpt>
      <trkpt lat="47.54844" lon="6.65996">
        <ele>573</ele>
        <time>2014-01-11T14:23:16.710Z</time>
      </trkpt>
      <trkpt lat="47.54844" lon="6.65996">
        <ele>573</ele>
        <time>2014-01-11T14:23:21.811Z</time>
      </trkpt>
      <trkpt lat="47.54844" lon="6.65996">
        <ele>573</ele>
        <time>2014-01-11T14:23:26.812Z</time>
      </trkpt>
      <trkpt lat="47.54844" lon="6.65997">
        <ele>573</ele>
        <time>2014-01-11T14:23:31.780Z</time>
      </trkpt>
      <trkpt lat="47.54844" lon="6.65997">
        <ele>573</ele>
        <time>2014-01-11T14:23:36.810Z</time>
      </trkpt>
      <trkpt lat="47.54844" lon="6.65997">
        <ele>573</ele>
        <time>2014-01-11T14:23:41.736Z</time>
      </trkpt>
      <trkpt lat="47.54844" lon="6.65997">
        <ele>573</ele>
        <time>2014-01-11T14:23:46.783Z</time>
      </trkpt>
      <trkpt lat="47.54844" lon="6.65997">
        <ele>573</ele>
        <time>2014-01-11T14:23:51.743Z</time>
      </trkpt>
      <trkpt lat="47.54844" lon="6.65997">
        <ele>573</ele>
        <time>2014-01-11T14:23:56.810Z</time>
      </trkpt>
      <trkpt lat="47.54844" lon="6.65997">
        <ele>573</ele>
        <time>2014-01-11T14:24:01.737Z</time>
      </trkpt>
      <trkpt lat="47.54845" lon="6.65997">
        <ele>573</ele>
        <time>2014-01-11T14:24:06.814Z</time>
      </trkpt>
      <trkpt lat="47.54845" lon="6.65997">
        <ele>573</ele>
        <time>2014-01-11T14:24:11.737Z</time>
      </trkpt>
      <trkpt lat="47.54844" lon="6.65997">
        <ele>573</ele>
        <time>2014-01-11T14:24:16.800Z</time>
      </trkpt>
      <trkpt lat="47.54844" lon="6.65997">
        <ele>573</ele>
        <time>2014-01-11T14:24:21.796Z</time>
      </trkpt>
      <trkpt lat="47.54844" lon="6.65997">
        <ele>572</ele>
        <time>2014-01-11T14:24:26.737Z</time>
      </trkpt>
      <trkpt lat="47.54844" lon="6.65997">
        <ele>572</ele>
        <time>2014-01-11T14:24:31.812Z</time>
      </trkpt>
      <trkpt lat="47.54844" lon="6.65997">
        <ele>572</ele>
        <time>2014-01-11T14:24:36.735Z</time>
      </trkpt>
      <trkpt lat="47.54844" lon="6.65997">
        <ele>572</ele>
        <time>2014-01-11T14:24:41.776Z</time>
      </trkpt>
      <trkpt lat="47.54844" lon="6.65997">
        <ele>572</ele>
        <time>2014-01-11T14:24:46.735Z</time>
      </trkpt>
      <trkpt lat="47.54844" lon="6.65996">
        <ele>572</ele>
        <time>2014-01-11T14:24:51.809Z</time>
      </trkpt>
      <trkpt lat="47.54844" lon="6.65996">
        <ele>572</ele>
        <time>2014-01-11T14:24:56.734Z</time>
      </trkpt>
      <trkpt lat="47.54845" lon="6.65996">
        <ele>572</ele>
        <time>2014-01-11T14:25:01.812Z</time>
      </trkpt>
      <trkpt lat="47.54845" lon="6.65996">
        <ele>572</ele>
        <time>2014-01-11T14:25:06.746Z</time>
      </trkpt>
      <trkpt lat="47.54845" lon="6.65996">
        <ele>571</ele>
        <time>2014-01-11T14:25:11.737Z</time>
      </trkpt>
      <trkpt lat="47.54845" lon="6.65996">
        <ele>571</ele>
        <time>2014-01-11T14:25:16.809Z</time>
      </trkpt>
      <trkpt lat="47.54845" lon="6.65996">
        <ele>571</ele>
        <time>2014-01-11T14:25:21.710Z</time>
      </trkpt>
      <trkpt lat="47.54845" lon="6.65996">
        <ele>571</ele>
        <time>2014-01-11T14:25:26.812Z</time>
      </trkpt>
      <trkpt lat="47.54845" lon="6.65996">
        <ele>571</ele>
        <time>2014-01-11T14:25:31.730Z</time>
      </trkpt>
      <trkpt lat="47.54842" lon="6.65996">
        <ele>571</ele>
        <time>2014-01-11T14:25:36.795Z</time>
      </trkpt>
      <trkpt lat="47.54836" lon="6.65991">
        <ele>572</ele>
        <time>2014-01-11T14:25:41.728Z</time>
      </trkpt>
      <trkpt lat="47.54831" lon="6.65988">
        <ele>573</ele>
        <time>2014-01-11T14:25:46.820Z</time>
      </trkpt>
      <trkpt lat="47.54825" lon="6.65982">
        <ele>573</ele>
        <time>2014-01-11T14:25:51.733Z</time>
      </trkpt>
      <trkpt lat="47.5482" lon="6.65973">
        <ele>573</ele>
        <time>2014-01-11T14:25:56.810Z</time>
      </trkpt>
      <trkpt lat="47.54788" lon="6.65958">
        <ele>572</ele>
        <time>2014-01-11T14:26:06.811Z</time>
      </trkpt>
      <trkpt lat="47.5477" lon="6.65948">
        <ele>572</ele>
        <time>2014-01-11T14:26:11.735Z</time>
      </trkpt>
      <trkpt lat="47.54757" lon="6.65942">
        <ele>571</ele>
        <time>2014-01-11T14:26:16.779Z</time>
      </trkpt>
      <trkpt lat="47.54744" lon="6.6594">
        <ele>572</ele>
        <time>2014-01-11T14:26:21.957Z</time>
      </trkpt>
      <trkpt lat="47.5474" lon="6.65934">
        <ele>572</ele>
        <time>2014-01-11T14:26:26.739Z</time>
      </trkpt>
      <trkpt lat="47.54726" lon="6.65924">
        <ele>571</ele>
        <time>2014-01-11T14:26:31.809Z</time>
      </trkpt>
      <trkpt lat="47.54714" lon="6.65917">
        <ele>571</ele>
        <time>2014-01-11T14:26:36.733Z</time>
      </trkpt>
      <trkpt lat="47.54702" lon="6.65911">
        <ele>572</ele>
        <time>2014-01-11T14:26:41.767Z</time>
      </trkpt>
      <trkpt lat="47.5469" lon="6.65907">
        <ele>571</ele>
        <time>2014-01-11T14:26:46.735Z</time>
      </trkpt>
      <trkpt lat="47.54682" lon="6.65902">
        <ele>573</ele>
        <time>2014-01-11T14:26:51.807Z</time>
      </trkpt>
      <trkpt lat="47.54677" lon="6.659">
        <ele>572</ele>
        <time>2014-01-11T14:26:56.733Z</time>
      </trkpt>
      <trkpt lat="47.54644" lon="6.65882">
        <ele>572</ele>
        <time>2014-01-11T14:27:11.883Z</time>
      </trkpt>
      <trkpt lat="47.54633" lon="6.65877">
        <ele>573</ele>
        <time>2014-01-11T14:27:16.711Z</time>
      </trkpt>
      <trkpt lat="47.54608" lon="6.65865">
        <ele>575</ele>
        <time>2014-01-11T14:27:26.739Z</time>
      </trkpt>
      <trkpt lat="47.54604" lon="6.65861">
        <ele>575</ele>
        <time>2014-01-11T14:27:31.808Z</time>
      </trkpt>
      <trkpt lat="47.54598" lon="6.65851">
        <ele>575</ele>
        <time>2014-01-11T14:27:36.741Z</time>
      </trkpt>
      <trkpt lat="47.5459" lon="6.65842">
        <ele>574</ele>
        <time>2014-01-11T14:27:41.814Z</time>
      </trkpt>
      <trkpt lat="47.54578" lon="6.6583">
        <ele>573</ele>
        <time>2014-01-11T14:27:46.742Z</time>
      </trkpt>
      <trkpt lat="47.54565" lon="6.65816">
        <ele>571</ele>
        <time>2014-01-11T14:27:51.812Z</time>
      </trkpt>
      <trkpt lat="47.54556" lon="6.65808">
        <ele>571</ele>
        <time>2014-01-11T14:27:56.737Z</time>
      </trkpt>
      <trkpt lat="47.54541" lon="6.65794">
        <ele>572</ele>
        <time>2014-01-11T14:28:01.791Z</time>
      </trkpt>
      <trkpt lat="47.54529" lon="6.6578">
        <ele>574</ele>
        <time>2014-01-11T14:28:06.739Z</time>
      </trkpt>
      <trkpt lat="47.54521" lon="6.65768">
        <ele>574</ele>
        <time>2014-01-11T14:28:11.811Z</time>
      </trkpt>
      <trkpt lat="47.54514" lon="6.65756">
        <ele>573</ele>
        <time>2014-01-11T14:28:16.746Z</time>
      </trkpt>
      <trkpt lat="47.54506" lon="6.65748">
        <ele>573</ele>
        <time>2014-01-11T14:28:21.811Z</time>
      </trkpt>
      <trkpt lat="47.54498" lon="6.65742">
        <ele>572</ele>
        <time>2014-01-11T14:28:26.708Z</time>
      </trkpt>
      <trkpt lat="47.54488" lon="6.65732">
        <ele>573</ele>
        <time>2014-01-11T14:28:31.808Z</time>
      </trkpt>
      <trkpt lat="47.54473" lon="6.65718">
        <ele>574</ele>
        <time>2014-01-11T14:28:36.749Z</time>
      </trkpt>
      <trkpt lat="47.54469" lon="6.65709">
        <ele>576</ele>
        <time>2014-01-11T14:28:41.810Z</time>
      </trkpt>
      <trkpt lat="47.54465" lon="6.65704">
        <ele>576</ele>
        <time>2014-01-11T14:28:46.750Z</time>
      </trkpt>
      <trkpt lat="47.54459" lon="6.65694">
        <ele>576</ele>
        <time>2014-01-11T14:28:51.810Z</time>
      </trkpt>
      <trkpt lat="47.54449" lon="6.65683">
        <ele>576</ele>
        <time>2014-01-11T14:28:56.744Z</time>
      </trkpt>
      <trkpt lat="47.54436" lon="6.65671">
        <ele>575</ele>
        <time>2014-01-11T14:29:01.810Z</time>
      </trkpt>
      <trkpt lat="47.54422" lon="6.65661">
        <ele>573</ele>
        <time>2014-01-11T14:29:06.738Z</time>
      </trkpt>
      <trkpt lat="47.54411" lon="6.65651">
        <ele>572</ele>
        <time>2014-01-11T14:29:11.810Z</time>
      </trkpt>
      <trkpt lat="47.54401" lon="6.65636">
        <ele>571</ele>
        <time>2014-01-11T14:29:16.743Z</time>
      </trkpt>
      <trkpt lat="47.54385" lon="6.65622">
        <ele>571</ele>
        <time>2014-01-11T14:29:21.805Z</time>
      </trkpt>
      <trkpt lat="47.54373" lon="6.65613">
        <ele>570</ele>
        <time>2014-01-11T14:29:26.743Z</time>
      </trkpt>
      <trkpt lat="47.54359" lon="6.65603">
        <ele>570</ele>
        <time>2014-01-11T14:29:31.807Z</time>
      </trkpt>
      <trkpt lat="47.54349" lon="6.65592">
        <ele>570</ele>
        <time>2014-01-11T14:29:36.737Z</time>
      </trkpt>
      <trkpt lat="47.54338" lon="6.65578">
        <ele>570</ele>
        <time>2014-01-11T14:29:41.810Z</time>
      </trkpt>
      <trkpt lat="47.54326" lon="6.65562">
        <ele>570</ele>
        <time>2014-01-11T14:29:46.742Z</time>
      </trkpt>
      <trkpt lat="47.54315" lon="6.65548">
        <ele>571</ele>
        <time>2014-01-11T14:29:51.808Z</time>
      </trkpt>
      <trkpt lat="47.54304" lon="6.65535">
        <ele>571</ele>
        <time>2014-01-11T14:29:56.732Z</time>
      </trkpt>
      <trkpt lat="47.54292" lon="6.65519">
        <ele>571</ele>
        <time>2014-01-11T14:30:02.128Z</time>
      </trkpt>
      <trkpt lat="47.54282" lon="6.65506">
        <ele>571</ele>
        <time>2014-01-11T14:30:06.741Z</time>
      </trkpt>
      <trkpt lat="47.54273" lon="6.65493">
        <ele>572</ele>
        <time>2014-01-11T14:30:11.808Z</time>
      </trkpt>
      <trkpt lat="47.54258" lon="6.65481">
        <ele>571</ele>
        <time>2014-01-11T14:30:16.741Z</time>
      </trkpt>
      <trkpt lat="47.54245" lon="6.65471">
        <ele>570</ele>
        <time>2014-01-11T14:30:21.809Z</time>
      </trkpt>
      <trkpt lat="47.54233" lon="6.65461">
        <ele>570</ele>
        <time>2014-01-11T14:30:26.740Z</time>
      </trkpt>
      <trkpt lat="47.54221" lon="6.65446">
        <ele>568</ele>
        <time>2014-01-11T14:30:31.779Z</time>
      </trkpt>
      <trkpt lat="47.54206" lon="6.65429">
        <ele>568</ele>
        <time>2014-01-11T14:30:36.741Z</time>
      </trkpt>
      <trkpt lat="47.542" lon="6.65415">
        <ele>566</ele>
        <time>2014-01-11T14:30:41.786Z</time>
      </trkpt>
      <trkpt lat="47.54191" lon="6.65399">
        <ele>565</ele>
        <time>2014-01-11T14:30:46.739Z</time>
      </trkpt>
      <trkpt lat="47.54182" lon="6.65382">
        <ele>565</ele>
        <time>2014-01-11T14:30:51.812Z</time>
      </trkpt>
      <trkpt lat="47.54175" lon="6.65365">
        <ele>565</ele>
        <time>2014-01-11T14:30:56.738Z</time>
      </trkpt>
      <trkpt lat="47.54168" lon="6.6535">
        <ele>564</ele>
        <time>2014-01-11T14:31:01.777Z</time>
      </trkpt>
      <trkpt lat="47.54153" lon="6.65335">
        <ele>564</ele>
        <time>2014-01-11T14:31:06.730Z</time>
      </trkpt>
      <trkpt lat="47.54141" lon="6.65322">
        <ele>563</ele>
        <time>2014-01-11T14:31:11.810Z</time>
      </trkpt>
      <trkpt lat="47.54125" lon="6.65299">
        <ele>562</ele>
        <time>2014-01-11T14:31:16.734Z</time>
      </trkpt>
      <trkpt lat="47.54115" lon="6.65282">
        <ele>562</ele>
        <time>2014-01-11T14:31:21.817Z</time>
      </trkpt>
      <trkpt lat="47.54109" lon="6.65265">
        <ele>562</ele>
        <time>2014-01-11T14:31:26.732Z</time>
      </trkpt>
      <trkpt lat="47.54101" lon="6.65245">
        <ele>562</ele>
        <time>2014-01-11T14:31:31.813Z</time>
      </trkpt>
      <trkpt lat="47.5409" lon="6.65223">
        <ele>562</ele>
        <time>2014-01-11T14:31:36.806Z</time>
      </trkpt>
      <trkpt lat="47.54082" lon="6.65198">
        <ele>561</ele>
        <time>2014-01-11T14:31:41.741Z</time>
      </trkpt>
      <trkpt lat="47.54073" lon="6.65176">
        <ele>561</ele>
        <time>2014-01-11T14:31:46.807Z</time>
      </trkpt>
      <trkpt lat="47.54061" lon="6.65158">
        <ele>561</ele>
        <time>2014-01-11T14:31:51.735Z</time>
      </trkpt>
      <trkpt lat="47.54055" lon="6.65148">
        <ele>561</ele>
        <time>2014-01-11T14:31:56.808Z</time>
      </trkpt>
      <trkpt lat="47.54052" lon="6.65146">
        <ele>560</ele>
        <time>2014-01-11T14:32:01.735Z</time>
      </trkpt>
      <trkpt lat="47.54052" lon="6.65146">
        <ele>560</ele>
        <time>2014-01-11T14:32:06.789Z</time>
      </trkpt>
      <trkpt lat="47.54047" lon="6.65141">
        <ele>560</ele>
        <time>2014-01-11T14:32:11.727Z</time>
      </trkpt>
      <trkpt lat="47.54042" lon="6.65135">
        <ele>560</ele>
        <time>2014-01-11T14:32:16.809Z</time>
      </trkpt>
      <trkpt lat="47.5404" lon="6.65133">
        <ele>559</ele>
        <time>2014-01-11T14:32:21.728Z</time>
      </trkpt>
      <trkpt lat="47.54038" lon="6.65132">
        <ele>559</ele>
        <time>2014-01-11T14:32:26.808Z</time>
      </trkpt>
      <trkpt lat="47.54036" lon="6.65128">
        <ele>558</ele>
        <time>2014-01-11T14:32:31.733Z</time>
      </trkpt>
      <trkpt lat="47.54029" lon="6.65126">
        <ele>557</ele>
        <time>2014-01-11T14:32:36.775Z</time>
      </trkpt>
      <trkpt lat="47.5402" lon="6.65121">
        <ele>554</ele>
        <time>2014-01-11T14:32:41.728Z</time>
      </trkpt>
      <trkpt lat="47.54012" lon="6.65119">
        <ele>552</ele>
        <time>2014-01-11T14:32:46.807Z</time>
      </trkpt>
      <trkpt lat="47.54008" lon="6.65118">
        <ele>551</ele>
        <time>2014-01-11T14:32:51.738Z</time>
      </trkpt>
      <trkpt lat="47.54007" lon="6.65117">
        <ele>550</ele>
        <time>2014-01-11T14:32:56.809Z</time>
      </trkpt>
      <trkpt lat="47.53999" lon="6.65108">
        <ele>550</ele>
        <time>2014-01-11T14:33:01.738Z</time>
      </trkpt>
      <trkpt lat="47.53987" lon="6.65096">
        <ele>550</ele>
        <time>2014-01-11T14:33:06.806Z</time>
      </trkpt>
      <trkpt lat="47.53977" lon="6.65085">
        <ele>549</ele>
        <time>2014-01-11T14:33:11.733Z</time>
      </trkpt>
      <trkpt lat="47.53965" lon="6.65072">
        <ele>547</ele>
        <time>2014-01-11T14:33:16.808Z</time>
      </trkpt>
      <trkpt lat="47.53951" lon="6.65063">
        <ele>547</ele>
        <time>2014-01-11T14:33:21.734Z</time>
      </trkpt>
      <trkpt lat="47.53934" lon="6.65052">
        <ele>546</ele>
        <time>2014-01-11T14:33:26.808Z</time>
      </trkpt>
      <trkpt lat="47.53921" lon="6.65044">
        <ele>545</ele>
        <time>2014-01-11T14:33:31.738Z</time>
      </trkpt>
      <trkpt lat="47.53907" lon="6.65032">
        <ele>544</ele>
        <time>2014-01-11T14:33:36.808Z</time>
      </trkpt>
      <trkpt lat="47.53896" lon="6.65019">
        <ele>543</ele>
        <time>2014-01-11T14:33:41.734Z</time>
      </trkpt>
      <trkpt lat="47.53883" lon="6.65012">
        <ele>543</ele>
        <time>2014-01-11T14:33:46.808Z</time>
      </trkpt>
      <trkpt lat="47.53872" lon="6.65011">
        <ele>542</ele>
        <time>2014-01-11T14:33:51.741Z</time>
      </trkpt>
      <trkpt lat="47.53862" lon="6.65004">
        <ele>541</ele>
        <time>2014-01-11T14:33:56.810Z</time>
      </trkpt>
      <trkpt lat="47.53848" lon="6.64991">
        <ele>542</ele>
        <time>2014-01-11T14:34:01.742Z</time>
      </trkpt>
      <trkpt lat="47.53835" lon="6.64981">
        <ele>541</ele>
        <time>2014-01-11T14:34:06.809Z</time>
      </trkpt>
      <trkpt lat="47.53834" lon="6.64981">
        <ele>541</ele>
        <time>2014-01-11T14:34:11.736Z</time>
      </trkpt>
      <trkpt lat="47.53821" lon="6.64976">
        <ele>540</ele>
        <time>2014-01-11T14:34:16.810Z</time>
      </trkpt>
      <trkpt lat="47.5381" lon="6.64979">
        <ele>538</ele>
        <time>2014-01-11T14:34:21.738Z</time>
      </trkpt>
      <trkpt lat="47.53803" lon="6.64984">
        <ele>536</ele>
        <time>2014-01-11T14:34:26.809Z</time>
      </trkpt>
      <trkpt lat="47.53799" lon="6.64987">
        <ele>536</ele>
        <time>2014-01-11T14:34:31.734Z</time>
      </trkpt>
      <trkpt lat="47.538" lon="6.64989">
        <ele>536</ele>
        <time>2014-01-11T14:34:36.809Z</time>
      </trkpt>
      <trkpt lat="47.53798" lon="6.64988">
        <ele>536</ele>
        <time>2014-01-11T14:34:41.743Z</time>
      </trkpt>
      <trkpt lat="47.53799" lon="6.6498">
        <ele>535</ele>
        <time>2014-01-11T14:34:46.784Z</time>
      </trkpt>
      <trkpt lat="47.53785" lon="6.6497">
        <ele>536</ele>
        <time>2014-01-11T14:34:51.741Z</time>
      </trkpt>
      <trkpt lat="47.53772" lon="6.64962">
        <ele>536</ele>
        <time>2014-01-11T14:34:56.807Z</time>
      </trkpt>
      <trkpt lat="47.5376" lon="6.6495">
        <ele>538</ele>
        <time>2014-01-11T14:35:01.739Z</time>
      </trkpt>
      <trkpt lat="47.5375" lon="6.64946">
        <ele>536</ele>
        <time>2014-01-11T14:35:06.808Z</time>
      </trkpt>
      <trkpt lat="47.53734" lon="6.64941">
        <ele>535</ele>
        <time>2014-01-11T14:35:11.734Z</time>
      </trkpt>
      <trkpt lat="47.53716" lon="6.64943">
        <ele>534</ele>
        <time>2014-01-11T14:35:16.792Z</time>
      </trkpt>
      <trkpt lat="47.53704" lon="6.64946">
        <ele>531</ele>
        <time>2014-01-11T14:35:21.709Z</time>
      </trkpt>
      <trkpt lat="47.53693" lon="6.64962">
        <ele>530</ele>
        <time>2014-01-11T14:35:31.740Z</time>
      </trkpt>
      <trkpt lat="47.53693" lon="6.64962">
        <ele>530</ele>
        <time>2014-01-11T14:35:31.740Z</time>
      </trkpt>
      <trkpt lat="47.53684" lon="6.64974">
        <ele>532</ele>
        <time>2014-01-11T14:35:41.699Z</time>
      </trkpt>
      <trkpt lat="47.53681" lon="6.64979">
        <ele>533</ele>
        <time>2014-01-11T14:35:46.770Z</time>
      </trkpt>
      <trkpt lat="47.53675" lon="6.64985">
        <ele>535</ele>
        <time>2014-01-11T14:35:51.739Z</time>
      </trkpt>
      <trkpt lat="47.5367" lon="6.64992">
        <ele>537</ele>
        <time>2014-01-11T14:35:56.807Z</time>
      </trkpt>
      <trkpt lat="47.53664" lon="6.64996">
        <ele>538</ele>
        <time>2014-01-11T14:36:01.728Z</time>
      </trkpt>
      <trkpt lat="47.53657" lon="6.65005">
        <ele>539</ele>
        <time>2014-01-11T14:36:06.815Z</time>
      </trkpt>
      <trkpt lat="47.5365" lon="6.65014">
        <ele>540</ele>
        <time>2014-01-11T14:36:11.746Z</time>
      </trkpt>
      <trkpt lat="47.53642" lon="6.6502">
        <ele>540</ele>
        <time>2014-01-11T14:36:16.809Z</time>
      </trkpt>
      <trkpt lat="47.53631" lon="6.65027">
        <ele>537</ele>
        <time>2014-01-11T14:36:21.747Z</time>
      </trkpt>
      <trkpt lat="47.53622" lon="6.65034">
        <ele>537</ele>
        <time>2014-01-11T14:36:26.807Z</time>
      </trkpt>
      <trkpt lat="47.53613" lon="6.6504">
        <ele>537</ele>
        <time>2014-01-11T14:36:31.743Z</time>
      </trkpt>
      <trkpt lat="47.53604" lon="6.65049">
        <ele>537</ele>
        <time>2014-01-11T14:36:36.810Z</time>
      </trkpt>
      <trkpt lat="47.53597" lon="6.6505">
        <ele>535</ele>
        <time>2014-01-11T14:36:41.732Z</time>
      </trkpt>
      <trkpt lat="47.53588" lon="6.6504">
        <ele>535</ele>
        <time>2014-01-11T14:36:46.795Z</time>
      </trkpt>
      <trkpt lat="47.53569" lon="6.65047">
        <ele>532</ele>
        <time>2014-01-11T14:36:51.745Z</time>
      </trkpt>
      <trkpt lat="47.53552" lon="6.65068">
        <ele>528</ele>
        <time>2014-01-11T14:36:56.809Z</time>
      </trkpt>
      <trkpt lat="47.53511" lon="6.65122">
        <ele>526</ele>
        <time>2014-01-11T14:37:11.733Z</time>
      </trkpt>
      <trkpt lat="47.535" lon="6.65136">
        <ele>526</ele>
        <time>2014-01-11T14:37:16.808Z</time>
      </trkpt>
      <trkpt lat="47.53488" lon="6.65154">
        <ele>526</ele>
        <time>2014-01-11T14:37:21.777Z</time>
      </trkpt>
      <trkpt lat="47.53474" lon="6.65178">
        <ele>526</ele>
        <time>2014-01-11T14:37:26.746Z</time>
      </trkpt>
      <trkpt lat="47.53458" lon="6.65199">
        <ele>526</ele>
        <time>2014-01-11T14:37:31.802Z</time>
      </trkpt>
      <trkpt lat="47.53441" lon="6.65213">
        <ele>526</ele>
        <time>2014-01-11T14:37:36.735Z</time>
      </trkpt>
      <trkpt lat="47.53436" lon="6.65203">
        <ele>526</ele>
        <time>2014-01-11T14:37:41.811Z</time>
      </trkpt>
      <trkpt lat="47.53424" lon="6.65188">
        <ele>527</ele>
        <time>2014-01-11T14:37:46.743Z</time>
      </trkpt>
      <trkpt lat="47.53409" lon="6.65169">
        <ele>525</ele>
        <time>2014-01-11T14:37:51.810Z</time>
      </trkpt>
      <trkpt lat="47.53393" lon="6.65146">
        <ele>523</ele>
        <time>2014-01-11T14:37:56.735Z</time>
      </trkpt>
      <trkpt lat="47.53375" lon="6.65114">
        <ele>522</ele>
        <time>2014-01-11T14:38:01.811Z</time>
      </trkpt>
      <trkpt lat="47.53354" lon="6.65086">
        <ele>520</ele>
        <time>2014-01-11T14:38:06.741Z</time>
      </trkpt>
      <trkpt lat="47.53328" lon="6.65055">
        <ele>518</ele>
        <time>2014-01-11T14:38:11.811Z</time>
      </trkpt>
      <trkpt lat="47.53305" lon="6.65027">
        <ele>516</ele>
        <time>2014-01-11T14:38:16.745Z</time>
      </trkpt>
      <trkpt lat="47.5328" lon="6.65001">
        <ele>514</ele>
        <time>2014-01-11T14:38:21.812Z</time>
      </trkpt>
      <trkpt lat="47.53251" lon="6.64994">
        <ele>513</ele>
        <time>2014-01-11T14:38:26.735Z</time>
      </trkpt>
      <trkpt lat="47.53224" lon="6.64991">
        <ele>512</ele>
        <time>2014-01-11T14:38:31.812Z</time>
      </trkpt>
      <trkpt lat="47.53194" lon="6.64988">
        <ele>510</ele>
        <time>2014-01-11T14:38:36.745Z</time>
      </trkpt>
      <trkpt lat="47.5317" lon="6.64999">
        <ele>508</ele>
        <time>2014-01-11T14:38:41.815Z</time>
      </trkpt>
      <trkpt lat="47.53157" lon="6.65018">
        <ele>507</ele>
        <time>2014-01-11T14:38:46.738Z</time>
      </trkpt>
      <trkpt lat="47.53137" lon="6.65017">
        <ele>506</ele>
        <time>2014-01-11T14:38:51.892Z</time>
      </trkpt>
      <trkpt lat="47.53116" lon="6.65017">
        <ele>505</ele>
        <time>2014-01-11T14:38:56.777Z</time>
      </trkpt>
      <trkpt lat="47.5309" lon="6.65021">
        <ele>503</ele>
        <time>2014-01-11T14:39:01.741Z</time>
      </trkpt>
      <trkpt lat="47.53071" lon="6.65034">
        <ele>501</ele>
        <time>2014-01-11T14:39:06.809Z</time>
      </trkpt>
      <trkpt lat="47.53056" lon="6.65047">
        <ele>499</ele>
        <time>2014-01-11T14:39:11.740Z</time>
      </trkpt>
      <trkpt lat="47.53035" lon="6.65056">
        <ele>498</ele>
        <time>2014-01-11T14:39:16.811Z</time>
      </trkpt>
      <trkpt lat="47.53006" lon="6.65077">
        <ele>497</ele>
        <time>2014-01-11T14:39:21.734Z</time>
      </trkpt>
      <trkpt lat="47.52976" lon="6.65088">
        <ele>496</ele>
        <time>2014-01-11T14:39:26.810Z</time>
      </trkpt>
      <trkpt lat="47.52945" lon="6.65097">
        <ele>494</ele>
        <time>2014-01-11T14:39:31.736Z</time>
      </trkpt>
      <trkpt lat="47.52914" lon="6.65115">
        <ele>493</ele>
        <time>2014-01-11T14:39:36.812Z</time>
      </trkpt>
      <trkpt lat="47.52883" lon="6.65123">
        <ele>491</ele>
        <time>2014-01-11T14:39:41.740Z</time>
      </trkpt>
      <trkpt lat="47.52854" lon="6.6515">
        <ele>488</ele>
        <time>2014-01-11T14:39:46.809Z</time>
      </trkpt>
      <trkpt lat="47.52827" lon="6.65173">
        <ele>485</ele>
        <time>2014-01-11T14:39:51.745Z</time>
      </trkpt>
      <trkpt lat="47.528" lon="6.65195">
        <ele>482</ele>
        <time>2014-01-11T14:39:56.767Z</time>
      </trkpt>
      <trkpt lat="47.52777" lon="6.65213">
        <ele>479</ele>
        <time>2014-01-11T14:40:01.740Z</time>
      </trkpt>
      <trkpt lat="47.52764" lon="6.65205">
        <ele>478</ele>
        <time>2014-01-11T14:40:06.818Z</time>
      </trkpt>
      <trkpt lat="47.52764" lon="6.652">
        <ele>476</ele>
        <time>2014-01-11T14:40:11.763Z</time>
      </trkpt>
      <trkpt lat="47.52756" lon="6.65186">
        <ele>470</ele>
        <time>2014-01-11T14:40:21.750Z</time>
      </trkpt>
      <trkpt lat="47.52745" lon="6.65188">
        <ele>468</ele>
        <time>2014-01-11T14:40:26.816Z</time>
      </trkpt>
      <trkpt lat="47.52737" lon="6.65191">
        <ele>465</ele>
        <time>2014-01-11T14:40:31.748Z</time>
      </trkpt>
      <trkpt lat="47.52735" lon="6.65193">
        <ele>463</ele>
        <time>2014-01-11T14:40:36.793Z</time>
      </trkpt>
      <trkpt lat="47.52733" lon="6.65193">
        <ele>463</ele>
        <time>2014-01-11T14:40:41.740Z</time>
      </trkpt>
      <trkpt lat="47.52732" lon="6.65193">
        <ele>463</ele>
        <time>2014-01-11T14:40:46.903Z</time>
      </trkpt>
      <trkpt lat="47.5273" lon="6.65193">
        <ele>462</ele>
        <time>2014-01-11T14:40:51.740Z</time>
      </trkpt>
      <trkpt lat="47.52724" lon="6.65203">
        <ele>462</ele>
        <time>2014-01-11T14:40:56.815Z</time>
      </trkpt>
      <trkpt lat="47.5269" lon="6.65255">
        <ele>459</ele>
        <time>2014-01-11T14:41:06.812Z</time>
      </trkpt>
      <trkpt lat="47.52669" lon="6.65282">
        <ele>458</ele>
        <time>2014-01-11T14:41:11.742Z</time>
      </trkpt>
      <trkpt lat="47.5264" lon="6.65306">
        <ele>454</ele>
        <time>2014-01-11T14:41:16.771Z</time>
      </trkpt>
      <trkpt lat="47.52612" lon="6.65339">
        <ele>451</ele>
        <time>2014-01-11T14:41:21.813Z</time>
      </trkpt>
      <trkpt lat="47.52588" lon="6.65376">
        <ele>448</ele>
        <time>2014-01-11T14:41:26.738Z</time>
      </trkpt>
      <trkpt lat="47.52567" lon="6.65425">
        <ele>445</ele>
        <time>2014-01-11T14:41:31.811Z</time>
      </trkpt>
      <trkpt lat="47.5255" lon="6.6548">
        <ele>442</ele>
        <time>2014-01-11T14:41:36.740Z</time>
      </trkpt>
      <trkpt lat="47.5253" lon="6.65534">
        <ele>440</ele>
        <time>2014-01-11T14:41:41.796Z</time>
      </trkpt>
      <trkpt lat="47.52506" lon="6.65585">
        <ele>437</ele>
        <time>2014-01-11T14:41:46.749Z</time>
      </trkpt>
      <trkpt lat="47.52484" lon="6.65633">
        <ele>435</ele>
        <time>2014-01-11T14:41:51.809Z</time>
      </trkpt>
      <trkpt lat="47.52465" lon="6.65676">
        <ele>433</ele>
        <time>2014-01-11T14:41:56.743Z</time>
      </trkpt>
      <trkpt lat="47.52447" lon="6.65713">
        <ele>432</ele>
        <time>2014-01-11T14:42:01.705Z</time>
      </trkpt>
      <trkpt lat="47.52429" lon="6.65746">
        <ele>433</ele>
        <time>2014-01-11T14:42:06.778Z</time>
      </trkpt>
      <trkpt lat="47.52413" lon="6.6578">
        <ele>433</ele>
        <time>2014-01-11T14:42:11.738Z</time>
      </trkpt>
      <trkpt lat="47.52396" lon="6.65812">
        <ele>433</ele>
        <time>2014-01-11T14:42:16.815Z</time>
      </trkpt>
      <trkpt lat="47.52378" lon="6.65845">
        <ele>433</ele>
        <time>2014-01-11T14:42:21.746Z</time>
      </trkpt>
      <trkpt lat="47.52361" lon="6.65878">
        <ele>433</ele>
        <time>2014-01-11T14:42:26.813Z</time>
      </trkpt>
      <trkpt lat="47.52344" lon="6.65908">
        <ele>433</ele>
        <time>2014-01-11T14:42:31.736Z</time>
      </trkpt>
      <trkpt lat="47.52328" lon="6.65937">
        <ele>433</ele>
        <time>2014-01-11T14:42:36.810Z</time>
      </trkpt>
      <trkpt lat="47.52315" lon="6.65964">
        <ele>433</ele>
        <time>2014-01-11T14:42:41.740Z</time>
      </trkpt>
      <trkpt lat="47.52302" lon="6.6599">
        <ele>434</ele>
        <time>2014-01-11T14:42:46.809Z</time>
      </trkpt>
      <trkpt lat="47.52289" lon="6.66017">
        <ele>434</ele>
        <time>2014-01-11T14:42:51.748Z</time>
      </trkpt>
      <trkpt lat="47.52275" lon="6.66041">
        <ele>434</ele>
        <time>2014-01-11T14:42:56.814Z</time>
      </trkpt>
      <trkpt lat="47.52262" lon="6.6606">
        <ele>435</ele>
        <time>2014-01-11T14:43:01.754Z</time>
      </trkpt>
      <trkpt lat="47.52255" lon="6.66073">
        <ele>437</ele>
        <time>2014-01-11T14:43:06.808Z</time>
      </trkpt>
      <trkpt lat="47.52252" lon="6.66079">
        <ele>437</ele>
        <time>2014-01-11T14:43:11.754Z</time>
      </trkpt>
      <trkpt lat="47.5225" lon="6.66088">
        <ele>437</ele>
        <time>2014-01-11T14:43:16.815Z</time>
      </trkpt>
      <trkpt lat="47.52247" lon="6.66101">
        <ele>437</ele>
        <time>2014-01-11T14:43:21.747Z</time>
      </trkpt>
      <trkpt lat="47.52243" lon="6.66116">
        <ele>437</ele>
        <time>2014-01-11T14:43:26.813Z</time>
      </trkpt>
      <trkpt lat="47.52243" lon="6.66131">
        <ele>437</ele>
        <time>2014-01-11T14:43:31.747Z</time>
      </trkpt>
      <trkpt lat="47.52227" lon="6.66144">
        <ele>436</ele>
        <time>2014-01-11T14:43:36.825Z</time>
      </trkpt>
      <trkpt lat="47.52215" lon="6.66155">
        <ele>437</ele>
        <time>2014-01-11T14:43:41.724Z</time>
      </trkpt>
      <trkpt lat="47.52205" lon="6.66166">
        <ele>439</ele>
        <time>2014-01-11T14:43:46.805Z</time>
      </trkpt>
      <trkpt lat="47.52194" lon="6.66178">
        <ele>438</ele>
        <time>2014-01-11T14:43:51.739Z</time>
      </trkpt>
      <trkpt lat="47.52186" lon="6.66192">
        <ele>439</ele>
        <time>2014-01-11T14:43:56.805Z</time>
      </trkpt>
      <trkpt lat="47.52178" lon="6.66206">
        <ele>440</ele>
        <time>2014-01-11T14:44:01.746Z</time>
      </trkpt>
      <trkpt lat="47.52168" lon="6.66218">
        <ele>440</ele>
        <time>2014-01-11T14:44:06.812Z</time>
      </trkpt>
      <trkpt lat="47.52159" lon="6.6623">
        <ele>441</ele>
        <time>2014-01-11T14:44:11.723Z</time>
      </trkpt>
      <trkpt lat="47.52151" lon="6.66243">
        <ele>441</ele>
        <time>2014-01-11T14:44:16.809Z</time>
      </trkpt>
      <trkpt lat="47.52139" lon="6.66257">
        <ele>440</ele>
        <time>2014-01-11T14:44:21.741Z</time>
      </trkpt>
      <trkpt lat="47.52128" lon="6.66274">
        <ele>440</ele>
        <time>2014-01-11T14:44:26.811Z</time>
      </trkpt>
      <trkpt lat="47.52115" lon="6.6629">
        <ele>440</ele>
        <time>2014-01-11T14:44:31.744Z</time>
      </trkpt>
      <trkpt lat="47.52104" lon="6.6631">
        <ele>440</ele>
        <time>2014-01-11T14:44:36.840Z</time>
      </trkpt>
      <trkpt lat="47.52102" lon="6.66336">
        <ele>441</ele>
        <time>2014-01-11T14:44:41.734Z</time>
      </trkpt>
      <trkpt lat="47.52105" lon="6.66364">
        <ele>441</ele>
        <time>2014-01-11T14:44:46.789Z</time>
      </trkpt>
      <trkpt lat="47.52109" lon="6.66392">
        <ele>440</ele>
        <time>2014-01-11T14:44:51.753Z</time>
      </trkpt>
      <trkpt lat="47.52112" lon="6.66502">
        <ele>441</ele>
        <time>2014-01-11T14:45:11.749Z</time>
      </trkpt>
      <trkpt lat="47.5211" lon="6.66527">
        <ele>441</ele>
        <time>2014-01-11T14:45:16.781Z</time>
      </trkpt>
      <trkpt lat="47.52109" lon="6.66552">
        <ele>442</ele>
        <time>2014-01-11T14:45:21.741Z</time>
      </trkpt>
      <trkpt lat="47.52109" lon="6.66578">
        <ele>442</ele>
        <time>2014-01-11T14:45:26.814Z</time>
      </trkpt>
      <trkpt lat="47.52108" lon="6.66606">
        <ele>442</ele>
        <time>2014-01-11T14:45:31.747Z</time>
      </trkpt>
      <trkpt lat="47.52108" lon="6.66636">
        <ele>442</ele>
        <time>2014-01-11T14:45:36.815Z</time>
      </trkpt>
      <trkpt lat="47.52109" lon="6.66667">
        <ele>442</ele>
        <time>2014-01-11T14:45:41.743Z</time>
      </trkpt>
      <trkpt lat="47.52109" lon="6.66701">
        <ele>441</ele>
        <time>2014-01-11T14:45:46.814Z</time>
      </trkpt>
      <trkpt lat="47.52107" lon="6.66733">
        <ele>441</ele>
        <time>2014-01-11T14:45:51.756Z</time>
      </trkpt>
      <trkpt lat="47.52105" lon="6.66762">
        <ele>442</ele>
        <time>2014-01-11T14:45:56.814Z</time>
      </trkpt>
      <trkpt lat="47.52103" lon="6.66792">
        <ele>442</ele>
        <time>2014-01-11T14:46:01.756Z</time>
      </trkpt>
      <trkpt lat="47.52105" lon="6.66827">
        <ele>442</ele>
        <time>2014-01-11T14:46:06.815Z</time>
      </trkpt>
      <trkpt lat="47.52106" lon="6.66863">
        <ele>441</ele>
        <time>2014-01-11T14:46:11.745Z</time>
      </trkpt>
      <trkpt lat="47.52107" lon="6.66901">
        <ele>441</ele>
        <time>2014-01-11T14:46:16.744Z</time>
      </trkpt>
      <trkpt lat="47.52109" lon="6.66944">
        <ele>438</ele>
        <time>2014-01-11T14:46:21.793Z</time>
      </trkpt>
      <trkpt lat="47.52113" lon="6.66985">
        <ele>437</ele>
        <time>2014-01-11T14:46:26.739Z</time>
      </trkpt>
      <trkpt lat="47.5212" lon="6.67024">
        <ele>435</ele>
        <time>2014-01-11T14:46:31.815Z</time>
      </trkpt>
      <trkpt lat="47.52129" lon="6.67065">
        <ele>434</ele>
        <time>2014-01-11T14:46:36.754Z</time>
      </trkpt>
      <trkpt lat="47.52137" lon="6.67105">
        <ele>434</ele>
        <time>2014-01-11T14:46:41.816Z</time>
      </trkpt>
      <trkpt lat="47.52143" lon="6.67136">
        <ele>434</ele>
        <time>2014-01-11T14:46:46.814Z</time>
      </trkpt>
      <trkpt lat="47.52148" lon="6.67155">
        <ele>434</ele>
        <time>2014-01-11T14:46:51.754Z</time>
      </trkpt>
      <trkpt lat="47.52159" lon="6.67208">
        <ele>433</ele>
        <time>2014-01-11T14:47:06.746Z</time>
      </trkpt>
      <trkpt lat="47.52163" lon="6.67228">
        <ele>433</ele>
        <time>2014-01-11T14:47:11.817Z</time>
      </trkpt>
      <trkpt lat="47.52166" lon="6.67245">
        <ele>433</ele>
        <time>2014-01-11T14:47:16.756Z</time>
      </trkpt>
      <trkpt lat="47.52169" lon="6.67267">
        <ele>433</ele>
        <time>2014-01-11T14:47:21.812Z</time>
      </trkpt>
      <trkpt lat="47.52171" lon="6.67292">
        <ele>433</ele>
        <time>2014-01-11T14:47:26.811Z</time>
      </trkpt>
      <trkpt lat="47.52172" lon="6.67317">
        <ele>434</ele>
        <time>2014-01-11T14:47:31.745Z</time>
      </trkpt>
      <trkpt lat="47.52173" lon="6.67343">
        <ele>434</ele>
        <time>2014-01-11T14:47:36.816Z</time>
      </trkpt>
      <trkpt lat="47.52177" lon="6.67374">
        <ele>434</ele>
        <time>2014-01-11T14:47:41.759Z</time>
      </trkpt>
      <trkpt lat="47.52185" lon="6.67404">
        <ele>433</ele>
        <time>2014-01-11T14:47:46.802Z</time>
      </trkpt>
      <trkpt lat="47.52196" lon="6.67431">
        <ele>433</ele>
        <time>2014-01-11T14:47:51.818Z</time>
      </trkpt>
      <trkpt lat="47.52205" lon="6.67458">
        <ele>433</ele>
        <time>2014-01-11T14:47:56.746Z</time>
      </trkpt>
      <trkpt lat="47.52208" lon="6.67488">
        <ele>434</ele>
        <time>2014-01-11T14:48:01.814Z</time>
      </trkpt>
      <trkpt lat="47.52207" lon="6.67519">
        <ele>434</ele>
        <time>2014-01-11T14:48:06.742Z</time>
      </trkpt>
      <trkpt lat="47.52205" lon="6.67553">
        <ele>434</ele>
        <time>2014-01-11T14:48:11.788Z</time>
      </trkpt>
      <trkpt lat="47.52205" lon="6.67587">
        <ele>434</ele>
        <time>2014-01-11T14:48:16.751Z</time>
      </trkpt>
      <trkpt lat="47.52204" lon="6.67623">
        <ele>434</ele>
        <time>2014-01-11T14:48:21.806Z</time>
      </trkpt>
      <trkpt lat="47.52202" lon="6.67661">
        <ele>433</ele>
        <time>2014-01-11T14:48:26.749Z</time>
      </trkpt>
      <trkpt lat="47.52201" lon="6.67702">
        <ele>433</ele>
        <time>2014-01-11T14:48:31.815Z</time>
      </trkpt>
      <trkpt lat="47.52198" lon="6.67744">
        <ele>432</ele>
        <time>2014-01-11T14:48:36.752Z</time>
      </trkpt>
      <trkpt lat="47.52195" lon="6.67785">
        <ele>431</ele>
        <time>2014-01-11T14:48:41.816Z</time>
      </trkpt>
      <trkpt lat="47.52192" lon="6.67824">
        <ele>429</ele>
        <time>2014-01-11T14:48:46.744Z</time>
      </trkpt>
      <trkpt lat="47.52191" lon="6.67863">
        <ele>429</ele>
        <time>2014-01-11T14:48:51.815Z</time>
      </trkpt>
      <trkpt lat="47.52188" lon="6.679">
        <ele>429</ele>
        <time>2014-01-11T14:48:56.742Z</time>
      </trkpt>
      <trkpt lat="47.52179" lon="6.68008">
        <ele>429</ele>
        <time>2014-01-11T14:49:11.744Z</time>
      </trkpt>
      <trkpt lat="47.52176" lon="6.68043">
        <ele>428</ele>
        <time>2014-01-11T14:49:16.817Z</time>
      </trkpt>
      <trkpt lat="47.52173" lon="6.68078">
        <ele>428</ele>
        <time>2014-01-11T14:49:21.711Z</time>
      </trkpt>
      <trkpt lat="47.5217" lon="6.6811">
        <ele>427</ele>
        <time>2014-01-11T14:49:26.818Z</time>
      </trkpt>
      <trkpt lat="47.52161" lon="6.68133">
        <ele>427</ele>
        <time>2014-01-11T14:49:31.748Z</time>
      </trkpt>
      <trkpt lat="47.52139" lon="6.68139">
        <ele>426</ele>
        <time>2014-01-11T14:49:36.814Z</time>
      </trkpt>
      <trkpt lat="47.52116" lon="6.68145">
        <ele>425</ele>
        <time>2014-01-11T14:49:41.809Z</time>
      </trkpt>
      <trkpt lat="47.52093" lon="6.68149">
        <ele>425</ele>
        <time>2014-01-11T14:49:46.750Z</time>
      </trkpt>
      <trkpt lat="47.52069" lon="6.68155">
        <ele>425</ele>
        <time>2014-01-11T14:49:51.817Z</time>
      </trkpt>
      <trkpt lat="47.52045" lon="6.68159">
        <ele>424</ele>
        <time>2014-01-11T14:49:56.816Z</time>
      </trkpt>
      <trkpt lat="47.52018" lon="6.68174">
        <ele>424</ele>
        <time>2014-01-11T14:50:01.754Z</time>
      </trkpt>
      <trkpt lat="47.51992" lon="6.68193">
        <ele>423</ele>
        <time>2014-01-11T14:50:06.813Z</time>
      </trkpt>
      <trkpt lat="47.51964" lon="6.68212">
        <ele>424</ele>
        <time>2014-01-11T14:50:11.745Z</time>
      </trkpt>
      <trkpt lat="47.51938" lon="6.6823">
        <ele>424</ele>
        <time>2014-01-11T14:50:16.818Z</time>
      </trkpt>
      <trkpt lat="47.51916" lon="6.68246">
        <ele>425</ele>
        <time>2014-01-11T14:50:21.711Z</time>
      </trkpt>
      <trkpt lat="47.51894" lon="6.68262">
        <ele>424</ele>
        <time>2014-01-11T14:50:26.795Z</time>
      </trkpt>
      <trkpt lat="47.51871" lon="6.68279">
        <ele>424</ele>
        <time>2014-01-11T14:50:31.786Z</time>
      </trkpt>
      <trkpt lat="47.51849" lon="6.68294">
        <ele>424</ele>
        <time>2014-01-11T14:50:36.748Z</time>
      </trkpt>
      <trkpt lat="47.5183" lon="6.68308">
        <ele>425</ele>
        <time>2014-01-11T14:50:41.811Z</time>
      </trkpt>
      <trkpt lat="47.51813" lon="6.68319">
        <ele>425</ele>
        <time>2014-01-11T14:50:46.757Z</time>
      </trkpt>
      <trkpt lat="47.51797" lon="6.6833">
        <ele>426</ele>
        <time>2014-01-11T14:50:51.816Z</time>
      </trkpt>
      <trkpt lat="47.51782" lon="6.68341">
        <ele>426</ele>
        <time>2014-01-11T14:50:56.742Z</time>
      </trkpt>
      <trkpt lat="47.51768" lon="6.68351">
        <ele>427</ele>
        <time>2014-01-11T14:51:01.816Z</time>
      </trkpt>
      <trkpt lat="47.51754" lon="6.6836">
        <ele>428</ele>
        <time>2014-01-11T14:51:06.742Z</time>
      </trkpt>
      <trkpt lat="47.51739" lon="6.6837">
        <ele>428</ele>
        <time>2014-01-11T14:51:11.812Z</time>
      </trkpt>
      <trkpt lat="47.51722" lon="6.68384">
        <ele>427</ele>
        <time>2014-01-11T14:51:16.742Z</time>
      </trkpt>
      <trkpt lat="47.51702" lon="6.68403">
        <ele>427</ele>
        <time>2014-01-11T14:51:21.813Z</time>
      </trkpt>
      <trkpt lat="47.51684" lon="6.68427">
        <ele>427</ele>
        <time>2014-01-11T14:51:26.750Z</time>
      </trkpt>
      <trkpt lat="47.51669" lon="6.68448">
        <ele>427</ele>
        <time>2014-01-11T14:51:31.812Z</time>
      </trkpt>
      <trkpt lat="47.51656" lon="6.68461">
        <ele>428</ele>
        <time>2014-01-11T14:51:36.742Z</time>
      </trkpt>
      <trkpt lat="47.51641" lon="6.68468">
        <ele>428</ele>
        <time>2014-01-11T14:51:41.800Z</time>
      </trkpt>
      <trkpt lat="47.51624" lon="6.68475">
        <ele>429</ele>
        <time>2014-01-11T14:51:46.738Z</time>
      </trkpt>
      <trkpt lat="47.51608" lon="6.68481">
        <ele>429</ele>
        <time>2014-01-11T14:51:51.811Z</time>
      </trkpt>
      <trkpt lat="47.51592" lon="6.68491">
        <ele>430</ele>
        <time>2014-01-11T14:51:56.915Z</time>
      </trkpt>
      <trkpt lat="47.51575" lon="6.68503">
        <ele>430</ele>
        <time>2014-01-11T14:52:01.845Z</time>
      </trkpt>
      <trkpt lat="47.51563" lon="6.68516">
        <ele>430</ele>
        <time>2014-01-11T14:52:06.914Z</time>
      </trkpt>
      <trkpt lat="47.5155" lon="6.6853">
        <ele>431</ele>
        <time>2014-01-11T14:52:11.847Z</time>
      </trkpt>
      <trkpt lat="47.51536" lon="6.68545">
        <ele>430</ele>
        <time>2014-01-11T14:52:16.908Z</time>
      </trkpt>
      <trkpt lat="47.51521" lon="6.68561">
        <ele>430</ele>
        <time>2014-01-11T14:52:21.833Z</time>
      </trkpt>
      <trkpt lat="47.51509" lon="6.68574">
        <ele>429</ele>
        <time>2014-01-11T14:52:26.911Z</time>
      </trkpt>
      <trkpt lat="47.51498" lon="6.68585">
        <ele>429</ele>
        <time>2014-01-11T14:52:31.850Z</time>
      </trkpt>
      <trkpt lat="47.51486" lon="6.68597">
        <ele>429</ele>
        <time>2014-01-11T14:52:36.884Z</time>
      </trkpt>
      <trkpt lat="47.51474" lon="6.68607">
        <ele>429</ele>
        <time>2014-01-11T14:52:41.847Z</time>
      </trkpt>
      <trkpt lat="47.51462" lon="6.68615">
        <ele>429</ele>
        <time>2014-01-11T14:52:46.908Z</time>
      </trkpt>
      <trkpt lat="47.51451" lon="6.68621">
        <ele>430</ele>
        <time>2014-01-11T14:52:51.838Z</time>
      </trkpt>
      <trkpt lat="47.51444" lon="6.68626">
        <ele>430</ele>
        <time>2014-01-11T14:52:56.911Z</time>
      </trkpt>
      <trkpt lat="47.51443" lon="6.68625">
        <ele>430</ele>
        <time>2014-01-11T14:53:01.856Z</time>
      </trkpt>
      <trkpt lat="47.51443" lon="6.68625">
        <ele>430</ele>
        <time>2014-01-11T14:53:06.912Z</time>
      </trkpt>
      <trkpt lat="47.51443" lon="6.68626">
        <ele>430</ele>
        <time>2014-01-11T14:53:11.841Z</time>
      </trkpt>
      <trkpt lat="47.51443" lon="6.68626">
        <ele>430</ele>
        <time>2014-01-11T14:53:16.913Z</time>
      </trkpt>
      <trkpt lat="47.51443" lon="6.68626">
        <ele>430</ele>
        <time>2014-01-11T14:53:21.853Z</time>
      </trkpt>
      <trkpt lat="47.51443" lon="6.68626">
        <ele>430</ele>
        <time>2014-01-11T14:53:26.915Z</time>
      </trkpt>
      <trkpt lat="47.51443" lon="6.68626">
        <ele>430</ele>
        <time>2014-01-11T14:53:36.917Z</time>
      </trkpt>
      <trkpt lat="47.51443" lon="6.68627">
        <ele>430</ele>
        <time>2014-01-11T14:53:41.851Z</time>
      </trkpt>
      <trkpt lat="47.51444" lon="6.68627">
        <ele>430</ele>
        <time>2014-01-11T14:53:46.912Z</time>
      </trkpt>
      <trkpt lat="47.51444" lon="6.68627">
        <ele>430</ele>
        <time>2014-01-11T14:53:51.842Z</time>
      </trkpt>
      <trkpt lat="47.51443" lon="6.68627">
        <ele>430</ele>
        <time>2014-01-11T14:53:56.914Z</time>
      </trkpt>
      <trkpt lat="47.51443" lon="6.68627">
        <ele>430</ele>
        <time>2014-01-11T14:54:01.845Z</time>
      </trkpt>
      <trkpt lat="47.51442" lon="6.68628">
        <ele>430</ele>
        <time>2014-01-11T14:54:06.911Z</time>
      </trkpt>
      <trkpt lat="47.51442" lon="6.68628">
        <ele>430</ele>
        <time>2014-01-11T14:54:11.839Z</time>
      </trkpt>
      <trkpt lat="47.51441" lon="6.68628">
        <ele>430</ele>
        <time>2014-01-11T14:54:16.920Z</time>
      </trkpt>
      <trkpt lat="47.51441" lon="6.68628">
        <ele>430</ele>
        <time>2014-01-11T14:54:21.844Z</time>
      </trkpt>
      <trkpt lat="47.51441" lon="6.68629">
        <ele>430</ele>
        <time>2014-01-11T14:54:26.912Z</time>
      </trkpt>
      <trkpt lat="47.51441" lon="6.68629">
        <ele>430</ele>
        <time>2014-01-11T14:54:31.843Z</time>
      </trkpt>
      <trkpt lat="47.51441" lon="6.68629">
        <ele>430</ele>
        <time>2014-01-11T14:54:36.915Z</time>
      </trkpt>
      <trkpt lat="47.51441" lon="6.68629">
        <ele>430</ele>
        <time>2014-01-11T14:54:41.846Z</time>
      </trkpt>
      <trkpt lat="47.51441" lon="6.68629">
        <ele>430</ele>
        <time>2014-01-11T14:54:46.915Z</time>
      </trkpt>
      <trkpt lat="47.51441" lon="6.68629">
        <ele>430</ele>
        <time>2014-01-11T14:54:51.849Z</time>
      </trkpt>
      <trkpt lat="47.51441" lon="6.68629">
        <ele>430</ele>
        <time>2014-01-11T14:54:56.911Z</time>
      </trkpt>
      <trkpt lat="47.51441" lon="6.68628">
        <ele>430</ele>
        <time>2014-01-11T14:55:06.911Z</time>
      </trkpt>
      <trkpt lat="47.51441" lon="6.68628">
        <ele>430</ele>
        <time>2014-01-11T14:55:11.850Z</time>
      </trkpt>
      <trkpt lat="47.51441" lon="6.68628">
        <ele>430</ele>
        <time>2014-01-11T14:55:16.916Z</time>
      </trkpt>
      <trkpt lat="47.51439" lon="6.68628">
        <ele>430</ele>
        <time>2014-01-11T14:55:21.842Z</time>
      </trkpt>
      <trkpt lat="47.51437" lon="6.68628">
        <ele>431</ele>
        <time>2014-01-11T14:55:26.914Z</time>
      </trkpt>
      <trkpt lat="47.51433" lon="6.6863">
        <ele>431</ele>
        <time>2014-01-11T14:55:31.844Z</time>
      </trkpt>
      <trkpt lat="47.51424" lon="6.68635">
        <ele>431</ele>
        <time>2014-01-11T14:55:36.853Z</time>
      </trkpt>
      <trkpt lat="47.51409" lon="6.68644">
        <ele>431</ele>
        <time>2014-01-11T14:55:41.912Z</time>
      </trkpt>
      <trkpt lat="47.5139" lon="6.68654">
        <ele>431</ele>
        <time>2014-01-11T14:55:46.860Z</time>
      </trkpt>
      <trkpt lat="47.51371" lon="6.68664">
        <ele>431</ele>
        <time>2014-01-11T14:55:51.915Z</time>
      </trkpt>
      <trkpt lat="47.51351" lon="6.68671">
        <ele>431</ele>
        <time>2014-01-11T14:55:56.845Z</time>
      </trkpt>
      <trkpt lat="47.51285" lon="6.68675">
        <ele>431</ele>
        <time>2014-01-11T14:56:11.891Z</time>
      </trkpt>
      <trkpt lat="47.51269" lon="6.68691">
        <ele>431</ele>
        <time>2014-01-11T14:56:16.856Z</time>
      </trkpt>
      <trkpt lat="47.51256" lon="6.6871">
        <ele>432</ele>
        <time>2014-01-11T14:56:21.916Z</time>
      </trkpt>
      <trkpt lat="47.51243" lon="6.68729">
        <ele>433</ele>
        <time>2014-01-11T14:56:26.854Z</time>
      </trkpt>
      <trkpt lat="47.5123" lon="6.68748">
        <ele>434</ele>
        <time>2014-01-11T14:56:31.921Z</time>
      </trkpt>
      <trkpt lat="47.51216" lon="6.68766">
        <ele>435</ele>
        <time>2014-01-11T14:56:37.012Z</time>
      </trkpt>
      <trkpt lat="47.51204" lon="6.68785">
        <ele>436</ele>
        <time>2014-01-11T14:56:41.911Z</time>
      </trkpt>
      <trkpt lat="47.51191" lon="6.68805">
        <ele>436</ele>
        <time>2014-01-11T14:56:46.852Z</time>
      </trkpt>
      <trkpt lat="47.51178" lon="6.68824">
        <ele>437</ele>
        <time>2014-01-11T14:56:51.868Z</time>
      </trkpt>
      <trkpt lat="47.51167" lon="6.68844">
        <ele>437</ele>
        <time>2014-01-11T14:56:56.886Z</time>
      </trkpt>
      <trkpt lat="47.51153" lon="6.68863">
        <ele>437</ele>
        <time>2014-01-11T14:57:02.675Z</time>
      </trkpt>
      <trkpt lat="47.51137" lon="6.68887">
        <ele>438</ele>
        <time>2014-01-11T14:57:06.904Z</time>
      </trkpt>
      <trkpt lat="47.51126" lon="6.68916">
        <ele>438</ele>
        <time>2014-01-11T14:57:11.842Z</time>
      </trkpt>
      <trkpt lat="47.51115" lon="6.68948">
        <ele>438</ele>
        <time>2014-01-11T14:57:16.917Z</time>
      </trkpt>
      <trkpt lat="47.51104" lon="6.6898">
        <ele>437</ele>
        <time>2014-01-11T14:57:21.913Z</time>
      </trkpt>
      <trkpt lat="47.51091" lon="6.69009">
        <ele>437</ele>
        <time>2014-01-11T14:57:26.841Z</time>
      </trkpt>
      <trkpt lat="47.51075" lon="6.69034">
        <ele>436</ele>
        <time>2014-01-11T14:57:31.915Z</time>
      </trkpt>
      <trkpt lat="47.51061" lon="6.69055">
        <ele>434</ele>
        <time>2014-01-11T14:57:36.842Z</time>
      </trkpt>
      <trkpt lat="47.51047" lon="6.69078">
        <ele>433</ele>
        <time>2014-01-11T14:57:41.897Z</time>
      </trkpt>
      <trkpt lat="47.51032" lon="6.691">
        <ele>433</ele>
        <time>2014-01-11T14:57:46.843Z</time>
      </trkpt>
      <trkpt lat="47.51022" lon="6.69121">
        <ele>433</ele>
        <time>2014-01-11T14:57:51.912Z</time>
      </trkpt>
      <trkpt lat="47.51014" lon="6.69139">
        <ele>433</ele>
        <time>2014-01-11T14:57:56.828Z</time>
      </trkpt>
      <trkpt lat="47.51005" lon="6.69156">
        <ele>433</ele>
        <time>2014-01-11T14:58:01.885Z</time>
      </trkpt>
      <trkpt lat="47.50993" lon="6.69174">
        <ele>433</ele>
        <time>2014-01-11T14:58:06.843Z</time>
      </trkpt>
      <trkpt lat="47.50983" lon="6.69191">
        <ele>433</ele>
        <time>2014-01-11T14:58:11.912Z</time>
      </trkpt>
      <trkpt lat="47.50975" lon="6.69209">
        <ele>434</ele>
        <time>2014-01-11T14:58:16.851Z</time>
      </trkpt>
      <trkpt lat="47.50967" lon="6.69226">
        <ele>436</ele>
        <time>2014-01-11T14:58:21.922Z</time>
      </trkpt>
      <trkpt lat="47.50958" lon="6.69243">
        <ele>436</ele>
        <time>2014-01-11T14:58:26.841Z</time>
      </trkpt>
      <trkpt lat="47.50949" lon="6.69261">
        <ele>438</ele>
        <time>2014-01-11T14:58:31.914Z</time>
      </trkpt>
      <trkpt lat="47.50939" lon="6.69278">
        <ele>439</ele>
        <time>2014-01-11T14:58:36.839Z</time>
      </trkpt>
      <trkpt lat="47.5093" lon="6.69296">
        <ele>440</ele>
        <time>2014-01-11T14:58:41.911Z</time>
      </trkpt>
      <trkpt lat="47.50922" lon="6.69315">
        <ele>442</ele>
        <time>2014-01-11T14:58:46.843Z</time>
      </trkpt>
      <trkpt lat="47.50918" lon="6.69336">
        <ele>443</ele>
        <time>2014-01-11T14:58:51.886Z</time>
      </trkpt>
      <trkpt lat="47.50913" lon="6.69357">
        <ele>443</ele>
        <time>2014-01-11T14:58:57.056Z</time>
      </trkpt>
      <trkpt lat="47.50906" lon="6.69374">
        <ele>444</ele>
        <time>2014-01-11T14:59:01.853Z</time>
      </trkpt>
      <trkpt lat="47.50899" lon="6.69389">
        <ele>443</ele>
        <time>2014-01-11T14:59:06.909Z</time>
      </trkpt>
      <trkpt lat="47.50894" lon="6.69404">
        <ele>443</ele>
        <time>2014-01-11T14:59:11.838Z</time>
      </trkpt>
      <trkpt lat="47.50891" lon="6.69424">
        <ele>444</ele>
        <time>2014-01-11T14:59:16.913Z</time>
      </trkpt>
      <trkpt lat="47.50889" lon="6.69448">
        <ele>444</ele>
        <time>2014-01-11T14:59:21.839Z</time>
      </trkpt>
      <trkpt lat="47.50888" lon="6.69471">
        <ele>444</ele>
        <time>2014-01-11T14:59:26.923Z</time>
      </trkpt>
      <trkpt lat="47.50886" lon="6.69493">
        <ele>444</ele>
        <time>2014-01-11T14:59:31.844Z</time>
      </trkpt>
      <trkpt lat="47.50882" lon="6.69516">
        <ele>444</ele>
        <time>2014-01-11T14:59:36.856Z</time>
      </trkpt>
      <trkpt lat="47.50872" lon="6.69533">
        <ele>445</ele>
        <time>2014-01-11T14:59:41.914Z</time>
      </trkpt>
      <trkpt lat="47.5086" lon="6.69551">
        <ele>443</ele>
        <time>2014-01-11T14:59:46.894Z</time>
      </trkpt>
      <trkpt lat="47.50847" lon="6.69567">
        <ele>443</ele>
        <time>2014-01-11T14:59:51.841Z</time>
      </trkpt>
      <trkpt lat="47.50832" lon="6.69582">
        <ele>443</ele>
        <time>2014-01-11T14:59:56.912Z</time>
      </trkpt>
      <trkpt lat="47.5082" lon="6.69598">
        <ele>442</ele>
        <time>2014-01-11T15:00:01.838Z</time>
      </trkpt>
      <trkpt lat="47.50807" lon="6.69612">
        <ele>443</ele>
        <time>2014-01-11T15:00:06.899Z</time>
      </trkpt>
      <trkpt lat="47.50793" lon="6.69622">
        <ele>443</ele>
        <time>2014-01-11T15:00:11.863Z</time>
      </trkpt>
      <trkpt lat="47.50778" lon="6.69638">
        <ele>443</ele>
        <time>2014-01-11T15:00:16.912Z</time>
      </trkpt>
      <trkpt lat="47.50767" lon="6.69657">
        <ele>444</ele>
        <time>2014-01-11T15:00:21.849Z</time>
      </trkpt>
      <trkpt lat="47.50757" lon="6.69676">
        <ele>443</ele>
        <time>2014-01-11T15:00:26.911Z</time>
      </trkpt>
      <trkpt lat="47.50744" lon="6.6969">
        <ele>443</ele>
        <time>2014-01-11T15:00:31.839Z</time>
      </trkpt>
      <trkpt lat="47.50733" lon="6.69703">
        <ele>443</ele>
        <time>2014-01-11T15:00:36.890Z</time>
      </trkpt>
      <trkpt lat="47.50721" lon="6.69715">
        <ele>443</ele>
        <time>2014-01-11T15:00:41.841Z</time>
      </trkpt>
      <trkpt lat="47.50711" lon="6.69725">
        <ele>444</ele>
        <time>2014-01-11T15:00:46.888Z</time>
      </trkpt>
      <trkpt lat="47.50701" lon="6.69737">
        <ele>443</ele>
        <time>2014-01-11T15:00:51.812Z</time>
      </trkpt>
      <trkpt lat="47.50657" lon="6.69778">
        <ele>446</ele>
        <time>2014-01-11T15:01:11.848Z</time>
      </trkpt>
      <trkpt lat="47.50644" lon="6.69789">
        <ele>446</ele>
        <time>2014-01-11T15:01:16.913Z</time>
      </trkpt>
      <trkpt lat="47.50631" lon="6.698">
        <ele>447</ele>
        <time>2014-01-11T15:01:21.849Z</time>
      </trkpt>
      <trkpt lat="47.50618" lon="6.69813">
        <ele>446</ele>
        <time>2014-01-11T15:01:26.902Z</time>
      </trkpt>
      <trkpt lat="47.50605" lon="6.69826">
        <ele>447</ele>
        <time>2014-01-11T15:01:31.847Z</time>
      </trkpt>
      <trkpt lat="47.50591" lon="6.69839">
        <ele>447</ele>
        <time>2014-01-11T15:01:36.912Z</time>
      </trkpt>
      <trkpt lat="47.50577" lon="6.69852">
        <ele>447</ele>
        <time>2014-01-11T15:01:41.845Z</time>
      </trkpt>
      <trkpt lat="47.50563" lon="6.69865">
        <ele>447</ele>
        <time>2014-01-11T15:01:46.901Z</time>
      </trkpt>
      <trkpt lat="47.5055" lon="6.69878">
        <ele>447</ele>
        <time>2014-01-11T15:01:51.847Z</time>
      </trkpt>
      <trkpt lat="47.50537" lon="6.69893">
        <ele>447</ele>
        <time>2014-01-11T15:01:56.914Z</time>
      </trkpt>
      <trkpt lat="47.50524" lon="6.69908">
        <ele>448</ele>
        <time>2014-01-11T15:02:01.844Z</time>
      </trkpt>
      <trkpt lat="47.50511" lon="6.69921">
        <ele>448</ele>
        <time>2014-01-11T15:02:06.915Z</time>
      </trkpt>
      <trkpt lat="47.50498" lon="6.69934">
        <ele>448</ele>
        <time>2014-01-11T15:02:11.849Z</time>
      </trkpt>
      <trkpt lat="47.50484" lon="6.69944">
        <ele>448</ele>
        <time>2014-01-11T15:02:16.912Z</time>
      </trkpt>
      <trkpt lat="47.50467" lon="6.69952">
        <ele>448</ele>
        <time>2014-01-11T15:02:21.843Z</time>
      </trkpt>
      <trkpt lat="47.5045" lon="6.69958">
        <ele>448</ele>
        <time>2014-01-11T15:02:26.907Z</time>
      </trkpt>
      <trkpt lat="47.50432" lon="6.69966">
        <ele>449</ele>
        <time>2014-01-11T15:02:31.841Z</time>
      </trkpt>
      <trkpt lat="47.50413" lon="6.69974">
        <ele>448</ele>
        <time>2014-01-11T15:02:36.902Z</time>
      </trkpt>
      <trkpt lat="47.50394" lon="6.69983">
        <ele>448</ele>
        <time>2014-01-11T15:02:41.838Z</time>
      </trkpt>
      <trkpt lat="47.50376" lon="6.69991">
        <ele>448</ele>
        <time>2014-01-11T15:02:46.923Z</time>
      </trkpt>
      <trkpt lat="47.50357" lon="6.69998">
        <ele>448</ele>
        <time>2014-01-11T15:02:51.845Z</time>
      </trkpt>
      <trkpt lat="47.50338" lon="6.70005">
        <ele>448</ele>
        <time>2014-01-11T15:02:56.908Z</time>
      </trkpt>
      <trkpt lat="47.50317" lon="6.7001">
        <ele>447</ele>
        <time>2014-01-11T15:03:01.840Z</time>
      </trkpt>
      <trkpt lat="47.50295" lon="6.70015">
        <ele>447</ele>
        <time>2014-01-11T15:03:06.907Z</time>
      </trkpt>
      <trkpt lat="47.50273" lon="6.70022">
        <ele>447</ele>
        <time>2014-01-11T15:03:11.811Z</time>
      </trkpt>
      <trkpt lat="47.50251" lon="6.70034">
        <ele>447</ele>
        <time>2014-01-11T15:03:16.917Z</time>
      </trkpt>
      <trkpt lat="47.50232" lon="6.70049">
        <ele>446</ele>
        <time>2014-01-11T15:03:21.848Z</time>
      </trkpt>
      <trkpt lat="47.50216" lon="6.70074">
        <ele>445</ele>
        <time>2014-01-11T15:03:26.903Z</time>
      </trkpt>
      <trkpt lat="47.502" lon="6.70103">
        <ele>445</ele>
        <time>2014-01-11T15:03:31.844Z</time>
      </trkpt>
      <trkpt lat="47.50179" lon="6.70125">
        <ele>444</ele>
        <time>2014-01-11T15:03:36.916Z</time>
      </trkpt>
      <trkpt lat="47.50158" lon="6.70147">
        <ele>443</ele>
        <time>2014-01-11T15:03:41.845Z</time>
      </trkpt>
      <trkpt lat="47.50136" lon="6.70173">
        <ele>443</ele>
        <time>2014-01-11T15:03:46.893Z</time>
      </trkpt>
      <trkpt lat="47.50114" lon="6.70206">
        <ele>441</ele>
        <time>2014-01-11T15:03:51.849Z</time>
      </trkpt>
      <trkpt lat="47.50089" lon="6.70235">
        <ele>438</ele>
        <time>2014-01-11T15:03:57.298Z</time>
      </trkpt>
      <trkpt lat="47.50042" lon="6.70282">
        <ele>437</ele>
        <time>2014-01-11T15:04:06.913Z</time>
      </trkpt>
      <trkpt lat="47.50027" lon="6.7031">
        <ele>437</ele>
        <time>2014-01-11T15:04:11.847Z</time>
      </trkpt>
      <trkpt lat="47.50013" lon="6.70336">
        <ele>438</ele>
        <time>2014-01-11T15:04:16.916Z</time>
      </trkpt>
      <trkpt lat="47.49999" lon="6.70359">
        <ele>438</ele>
        <time>2014-01-11T15:04:21.849Z</time>
      </trkpt>
      <trkpt lat="47.49983" lon="6.70378">
        <ele>439</ele>
        <time>2014-01-11T15:04:26.913Z</time>
      </trkpt>
      <trkpt lat="47.49968" lon="6.70397">
        <ele>438</ele>
        <time>2014-01-11T15:04:31.841Z</time>
      </trkpt>
      <trkpt lat="47.4995" lon="6.70417">
        <ele>438</ele>
        <time>2014-01-11T15:04:36.914Z</time>
      </trkpt>
      <trkpt lat="47.49932" lon="6.70439">
        <ele>438</ele>
        <time>2014-01-11T15:04:41.846Z</time>
      </trkpt>
      <trkpt lat="47.49916" lon="6.70461">
        <ele>438</ele>
        <time>2014-01-11T15:04:46.913Z</time>
      </trkpt>
      <trkpt lat="47.49902" lon="6.70484">
        <ele>439</ele>
        <time>2014-01-11T15:04:51.810Z</time>
      </trkpt>
      <trkpt lat="47.49898" lon="6.70514">
        <ele>439</ele>
        <time>2014-01-11T15:04:56.846Z</time>
      </trkpt>
      <trkpt lat="47.49898" lon="6.70545">
        <ele>440</ele>
        <time>2014-01-11T15:05:01.903Z</time>
      </trkpt>
      <trkpt lat="47.49898" lon="6.70574">
        <ele>440</ele>
        <time>2014-01-11T15:05:06.839Z</time>
      </trkpt>
      <trkpt lat="47.49899" lon="6.70603">
        <ele>439</ele>
        <time>2014-01-11T15:05:11.913Z</time>
      </trkpt>
      <trkpt lat="47.49901" lon="6.70627">
        <ele>439</ele>
        <time>2014-01-11T15:05:16.841Z</time>
      </trkpt>
      <trkpt lat="47.49902" lon="6.70653">
        <ele>440</ele>
        <time>2014-01-11T15:05:21.916Z</time>
      </trkpt>
      <trkpt lat="47.49903" lon="6.70677">
        <ele>441</ele>
        <time>2014-01-11T15:05:26.836Z</time>
      </trkpt>
      <trkpt lat="47.49905" lon="6.70701">
        <ele>441</ele>
        <time>2014-01-11T15:05:31.873Z</time>
      </trkpt>
      <trkpt lat="47.49906" lon="6.70721">
        <ele>441</ele>
        <time>2014-01-11T15:05:36.838Z</time>
      </trkpt>
      <trkpt lat="47.49908" lon="6.70742">
        <ele>440</ele>
        <time>2014-01-11T15:05:41.912Z</time>
      </trkpt>
      <trkpt lat="47.4991" lon="6.70763">
        <ele>440</ele>
        <time>2014-01-11T15:05:46.847Z</time>
      </trkpt>
      <trkpt lat="47.4991" lon="6.70785">
        <ele>440</ele>
        <time>2014-01-11T15:05:51.911Z</time>
      </trkpt>
      <trkpt lat="47.49901" lon="6.70901">
        <ele>440</ele>
        <time>2014-01-11T15:06:11.884Z</time>
      </trkpt>
      <trkpt lat="47.49897" lon="6.70948">
        <ele>439</ele>
        <time>2014-01-11T15:06:16.887Z</time>
      </trkpt>
      <trkpt lat="47.49893" lon="6.70995">
        <ele>438</ele>
        <time>2014-01-11T15:06:21.919Z</time>
      </trkpt>
      <trkpt lat="47.49892" lon="6.71033">
        <ele>437</ele>
        <time>2014-01-11T15:06:26.852Z</time>
      </trkpt>
      <trkpt lat="47.49891" lon="6.71068">
        <ele>438</ele>
        <time>2014-01-11T15:06:31.915Z</time>
      </trkpt>
      <trkpt lat="47.49891" lon="6.711">
        <ele>438</ele>
        <time>2014-01-11T15:06:36.853Z</time>
      </trkpt>
      <trkpt lat="47.49893" lon="6.7113">
        <ele>438</ele>
        <time>2014-01-11T15:06:41.916Z</time>
      </trkpt>
      <trkpt lat="47.49894" lon="6.71159">
        <ele>439</ele>
        <time>2014-01-11T15:06:46.858Z</time>
      </trkpt>
      <trkpt lat="47.49896" lon="6.7119">
        <ele>438</ele>
        <time>2014-01-11T15:06:51.917Z</time>
      </trkpt>
      <trkpt lat="47.49897" lon="6.71223">
        <ele>436</ele>
        <time>2014-01-11T15:06:56.857Z</time>
      </trkpt>
      <trkpt lat="47.49899" lon="6.71256">
        <ele>436</ele>
        <time>2014-01-11T15:07:01.916Z</time>
      </trkpt>
      <trkpt lat="47.49902" lon="6.71289">
        <ele>434</ele>
        <time>2014-01-11T15:07:06.847Z</time>
      </trkpt>
      <trkpt lat="47.49904" lon="6.71324">
        <ele>432</ele>
        <time>2014-01-11T15:07:11.884Z</time>
      </trkpt>
      <trkpt lat="47.49905" lon="6.71356">
        <ele>433</ele>
        <time>2014-01-11T15:07:16.847Z</time>
      </trkpt>
      <trkpt lat="47.49905" lon="6.71386">
        <ele>433</ele>
        <time>2014-01-11T15:07:21.921Z</time>
      </trkpt>
      <trkpt lat="47.49905" lon="6.71411">
        <ele>433</ele>
        <time>2014-01-11T15:07:26.844Z</time>
      </trkpt>
      <trkpt lat="47.49903" lon="6.71438">
        <ele>433</ele>
        <time>2014-01-11T15:07:31.886Z</time>
      </trkpt>
      <trkpt lat="47.49901" lon="6.71474">
        <ele>432</ele>
        <time>2014-01-11T15:07:36.846Z</time>
      </trkpt>
      <trkpt lat="47.49898" lon="6.71517">
        <ele>431</ele>
        <time>2014-01-11T15:07:41.914Z</time>
      </trkpt>
      <trkpt lat="47.49896" lon="6.71561">
        <ele>431</ele>
        <time>2014-01-11T15:07:46.846Z</time>
      </trkpt>
      <trkpt lat="47.49898" lon="6.71604">
        <ele>431</ele>
        <time>2014-01-11T15:07:51.911Z</time>
      </trkpt>
      <trkpt lat="47.49903" lon="6.71641">
        <ele>432</ele>
        <time>2014-01-11T15:07:56.842Z</time>
      </trkpt>
      <trkpt lat="47.49908" lon="6.71677">
        <ele>432</ele>
        <time>2014-01-11T15:08:02.021Z</time>
      </trkpt>
      <trkpt lat="47.49913" lon="6.71715">
        <ele>431</ele>
        <time>2014-01-11T15:08:06.919Z</time>
      </trkpt>
      <trkpt lat="47.49917" lon="6.71756">
        <ele>430</ele>
        <time>2014-01-11T15:08:11.835Z</time>
      </trkpt>
      <trkpt lat="47.49923" lon="6.71798">
        <ele>427</ele>
        <time>2014-01-11T15:08:16.914Z</time>
      </trkpt>
      <trkpt lat="47.49928" lon="6.71841">
        <ele>425</ele>
        <time>2014-01-11T15:08:21.847Z</time>
      </trkpt>
      <trkpt lat="47.49933" lon="6.71884">
        <ele>424</ele>
        <time>2014-01-11T15:08:26.913Z</time>
      </trkpt>
      <trkpt lat="47.49938" lon="6.7193">
        <ele>422</ele>
        <time>2014-01-11T15:08:31.842Z</time>
      </trkpt>
      <trkpt lat="47.49943" lon="6.71977">
        <ele>421</ele>
        <time>2014-01-11T15:08:36.919Z</time>
      </trkpt>
      <trkpt lat="47.49947" lon="6.72023">
        <ele>420</ele>
        <time>2014-01-11T15:08:41.836Z</time>
      </trkpt>
      <trkpt lat="47.49948" lon="6.7207">
        <ele>419</ele>
        <time>2014-01-11T15:08:46.903Z</time>
      </trkpt>
      <trkpt lat="47.49942" lon="6.72118">
        <ele>419</ele>
        <time>2014-01-11T15:08:51.845Z</time>
      </trkpt>
      <trkpt lat="47.49931" lon="6.72165">
        <ele>418</ele>
        <time>2014-01-11T15:08:56.914Z</time>
      </trkpt>
      <trkpt lat="47.49923" lon="6.72215">
        <ele>417</ele>
        <time>2014-01-11T15:09:01.840Z</time>
      </trkpt>
      <trkpt lat="47.49923" lon="6.72267">
        <ele>417</ele>
        <time>2014-01-11T15:09:06.884Z</time>
      </trkpt>
      <trkpt lat="47.49923" lon="6.72316">
        <ele>416</ele>
        <time>2014-01-11T15:09:11.845Z</time>
      </trkpt>
      <trkpt lat="47.49922" lon="6.72363">
        <ele>415</ele>
        <time>2014-01-11T15:09:16.880Z</time>
      </trkpt>
      <trkpt lat="47.49921" lon="6.7241">
        <ele>413</ele>
        <time>2014-01-11T15:09:21.844Z</time>
      </trkpt>
      <trkpt lat="47.4992" lon="6.72456">
        <ele>412</ele>
        <time>2014-01-11T15:09:26.904Z</time>
      </trkpt>
      <trkpt lat="47.49923" lon="6.725">
        <ele>411</ele>
        <time>2014-01-11T15:09:31.835Z</time>
      </trkpt>
      <trkpt lat="47.49926" lon="6.72544">
        <ele>409</ele>
        <time>2014-01-11T15:09:36.908Z</time>
      </trkpt>
      <trkpt lat="47.49928" lon="6.7259">
        <ele>408</ele>
        <time>2014-01-11T15:09:41.842Z</time>
      </trkpt>
      <trkpt lat="47.49925" lon="6.72638">
        <ele>407</ele>
        <time>2014-01-11T15:09:46.848Z</time>
      </trkpt>
      <trkpt lat="47.49922" lon="6.72686">
        <ele>406</ele>
        <time>2014-01-11T15:09:51.911Z</time>
      </trkpt>
      <trkpt lat="47.49924" lon="6.72735">
        <ele>405</ele>
        <time>2014-01-11T15:09:56.837Z</time>
      </trkpt>
      <trkpt lat="47.49932" lon="6.7278">
        <ele>405</ele>
        <time>2014-01-11T15:10:01.915Z</time>
      </trkpt>
      <trkpt lat="47.49936" lon="6.72827">
        <ele>405</ele>
        <time>2014-01-11T15:10:06.836Z</time>
      </trkpt>
      <trkpt lat="47.49942" lon="6.72867">
        <ele>404</ele>
        <time>2014-01-11T15:10:11.886Z</time>
      </trkpt>
      <trkpt lat="47.49942" lon="6.72873">
        <ele>405</ele>
        <time>2014-01-11T15:10:16.839Z</time>
      </trkpt>
      <trkpt lat="47.49942" lon="6.72873">
        <ele>404</ele>
        <time>2014-01-11T15:10:21.913Z</time>
      </trkpt>
      <trkpt lat="47.49942" lon="6.72873">
        <ele>404</ele>
        <time>2014-01-11T15:10:26.837Z</time>
      </trkpt>
      <trkpt lat="47.49942" lon="6.72873">
        <ele>404</ele>
        <time>2014-01-11T15:10:31.914Z</time>
      </trkpt>
      <trkpt lat="47.49942" lon="6.72873">
        <ele>403</ele>
        <time>2014-01-11T15:10:36.849Z</time>
      </trkpt>
      <trkpt lat="47.49942" lon="6.72873">
        <ele>403</ele>
        <time>2014-01-11T15:10:41.908Z</time>
      </trkpt>
      <trkpt lat="47.49942" lon="6.72873">
        <ele>403</ele>
        <time>2014-01-11T15:10:46.837Z</time>
      </trkpt>
      <trkpt lat="47.49941" lon="6.72872">
        <ele>403</ele>
        <time>2014-01-11T15:10:51.913Z</time>
      </trkpt>
      <trkpt lat="47.49942" lon="6.72872">
        <ele>402</ele>
        <time>2014-01-11T15:10:56.835Z</time>
      </trkpt>
      <trkpt lat="47.49942" lon="6.72872">
        <ele>402</ele>
        <time>2014-01-11T15:11:01.910Z</time>
      </trkpt>
      <trkpt lat="47.49941" lon="6.72871">
        <ele>403</ele>
        <time>2014-01-11T15:11:06.839Z</time>
      </trkpt>
      <trkpt lat="47.49941" lon="6.7287">
        <ele>403</ele>
        <time>2014-01-11T15:11:11.907Z</time>
      </trkpt>
      <trkpt lat="47.49941" lon="6.72869">
        <ele>403</ele>
        <time>2014-01-11T15:11:16.840Z</time>
      </trkpt>
      <trkpt lat="47.49941" lon="6.72869">
        <ele>403</ele>
        <time>2014-01-11T15:11:21.903Z</time>
      </trkpt>
      <trkpt lat="47.49941" lon="6.72869">
        <ele>403</ele>
        <time>2014-01-11T15:11:26.808Z</time>
      </trkpt>
      <trkpt lat="47.49941" lon="6.72869">
        <ele>404</ele>
        <time>2014-01-11T15:11:36.846Z</time>
      </trkpt>
      <trkpt lat="47.4994" lon="6.72876">
        <ele>404</ele>
        <time>2014-01-11T15:11:41.914Z</time>
      </trkpt>
      <trkpt lat="47.4994" lon="6.72882">
        <ele>401</ele>
        <time>2014-01-11T15:11:46.835Z</time>
      </trkpt>
      <trkpt lat="47.49939" lon="6.72891">
        <ele>401</ele>
        <time>2014-01-11T15:11:51.887Z</time>
      </trkpt>
      <trkpt lat="47.4993" lon="6.72914">
        <ele>401</ele>
        <time>2014-01-11T15:11:56.834Z</time>
      </trkpt>
      <trkpt lat="47.49919" lon="6.72941">
        <ele>401</ele>
        <time>2014-01-11T15:12:01.909Z</time>
      </trkpt>
      <trkpt lat="47.49901" lon="6.7294">
        <ele>402</ele>
        <time>2014-01-11T15:12:06.844Z</time>
      </trkpt>
      <trkpt lat="47.49884" lon="6.72955">
        <ele>403</ele>
        <time>2014-01-11T15:12:11.910Z</time>
      </trkpt>
      <trkpt lat="47.49873" lon="6.72979">
        <ele>403</ele>
        <time>2014-01-11T15:12:16.885Z</time>
      </trkpt>
      <trkpt lat="47.49865" lon="6.73003">
        <ele>404</ele>
        <time>2014-01-11T15:12:21.839Z</time>
      </trkpt>
      <trkpt lat="47.49858" lon="6.73024">
        <ele>405</ele>
        <time>2014-01-11T15:12:26.921Z</time>
      </trkpt>
      <trkpt lat="47.49849" lon="6.73047">
        <ele>405</ele>
        <time>2014-01-11T15:12:31.837Z</time>
      </trkpt>
      <trkpt lat="47.4984" lon="6.73071">
        <ele>405</ele>
        <time>2014-01-11T15:12:36.913Z</time>
      </trkpt>
      <trkpt lat="47.49832" lon="6.73098">
        <ele>405</ele>
        <time>2014-01-11T15:12:41.838Z</time>
      </trkpt>
      <trkpt lat="47.49824" lon="6.73132">
        <ele>404</ele>
        <time>2014-01-11T15:12:46.916Z</time>
      </trkpt>
      <trkpt lat="47.49814" lon="6.73172">
        <ele>403</ele>
        <time>2014-01-11T15:12:51.838Z</time>
      </trkpt>
      <trkpt lat="47.49801" lon="6.73213">
        <ele>402</ele>
        <time>2014-01-11T15:12:56.903Z</time>
      </trkpt>
      <trkpt lat="47.49786" lon="6.73251">
        <ele>401</ele>
        <time>2014-01-11T15:13:01.846Z</time>
      </trkpt>
      <trkpt lat="47.49767" lon="6.73288">
        <ele>399</ele>
        <time>2014-01-11T15:13:06.912Z</time>
      </trkpt>
      <trkpt lat="47.49745" lon="6.73323">
        <ele>399</ele>
        <time>2014-01-11T15:13:11.840Z</time>
      </trkpt>
      <trkpt lat="47.49723" lon="6.73357">
        <ele>398</ele>
        <time>2014-01-11T15:13:16.891Z</time>
      </trkpt>
      <trkpt lat="47.49702" lon="6.73389">
        <ele>397</ele>
        <time>2014-01-11T15:13:21.910Z</time>
      </trkpt>
      <trkpt lat="47.4968" lon="6.73421">
        <ele>396</ele>
        <time>2014-01-11T15:13:26.838Z</time>
      </trkpt>
      <trkpt lat="47.49658" lon="6.73451">
        <ele>396</ele>
        <time>2014-01-11T15:13:31.910Z</time>
      </trkpt>
      <trkpt lat="47.49637" lon="6.73481">
        <ele>395</ele>
        <time>2014-01-11T15:13:36.846Z</time>
      </trkpt>
      <trkpt lat="47.49617" lon="6.73507">
        <ele>395</ele>
        <time>2014-01-11T15:13:41.914Z</time>
      </trkpt>
      <trkpt lat="47.49595" lon="6.73531">
        <ele>394</ele>
        <time>2014-01-11T15:13:46.848Z</time>
      </trkpt>
      <trkpt lat="47.49573" lon="6.73551">
        <ele>393</ele>
        <time>2014-01-11T15:13:51.912Z</time>
      </trkpt>
      <trkpt lat="47.49552" lon="6.73571">
        <ele>392</ele>
        <time>2014-01-11T15:13:56.840Z</time>
      </trkpt>
      <trkpt lat="47.49533" lon="6.73594">
        <ele>392</ele>
        <time>2014-01-11T15:14:01.915Z</time>
      </trkpt>
      <trkpt lat="47.49513" lon="6.73617">
        <ele>392</ele>
        <time>2014-01-11T15:14:06.843Z</time>
      </trkpt>
      <trkpt lat="47.49496" lon="6.73644">
        <ele>391</ele>
        <time>2014-01-11T15:14:11.912Z</time>
      </trkpt>
      <trkpt lat="47.49481" lon="6.73675">
        <ele>391</ele>
        <time>2014-01-11T15:14:16.838Z</time>
      </trkpt>
      <trkpt lat="47.49468" lon="6.73705">
        <ele>392</ele>
        <time>2014-01-11T15:14:22.045Z</time>
      </trkpt>
      <trkpt lat="47.49454" lon="6.73732">
        <ele>393</ele>
        <time>2014-01-11T15:14:26.910Z</time>
      </trkpt>
      <trkpt lat="47.49439" lon="6.73752">
        <ele>393</ele>
        <time>2014-01-11T15:14:31.837Z</time>
      </trkpt>
      <trkpt lat="47.49426" lon="6.7377">
        <ele>393</ele>
        <time>2014-01-11T15:14:36.889Z</time>
      </trkpt>
      <trkpt lat="47.4942" lon="6.73791">
        <ele>394</ele>
        <time>2014-01-11T15:14:41.846Z</time>
      </trkpt>
      <trkpt lat="47.49415" lon="6.73811">
        <ele>396</ele>
        <time>2014-01-11T15:14:46.913Z</time>
      </trkpt>
      <trkpt lat="47.49411" lon="6.73837">
        <ele>398</ele>
        <time>2014-01-11T15:14:51.841Z</time>
      </trkpt>
      <trkpt lat="47.49412" lon="6.73866">
        <ele>401</ele>
        <time>2014-01-11T15:14:56.904Z</time>
      </trkpt>
      <trkpt lat="47.49415" lon="6.73895">
        <ele>404</ele>
        <time>2014-01-11T15:15:01.839Z</time>
      </trkpt>
      <trkpt lat="47.49415" lon="6.73919">
        <ele>405</ele>
        <time>2014-01-11T15:15:06.911Z</time>
      </trkpt>
      <trkpt lat="47.49413" lon="6.73942">
        <ele>406</ele>
        <time>2014-01-11T15:15:11.850Z</time>
      </trkpt>
      <trkpt lat="47.49412" lon="6.7396">
        <ele>406</ele>
        <time>2014-01-11T15:15:16.914Z</time>
      </trkpt>
      <trkpt lat="47.49412" lon="6.73978">
        <ele>407</ele>
        <time>2014-01-11T15:15:21.848Z</time>
      </trkpt>
      <trkpt lat="47.49409" lon="6.73997">
        <ele>407</ele>
        <time>2014-01-11T15:15:26.889Z</time>
      </trkpt>
      <trkpt lat="47.49405" lon="6.7401">
        <ele>408</ele>
        <time>2014-01-11T15:15:31.840Z</time>
      </trkpt>
      <trkpt lat="47.49403" lon="6.74019">
        <ele>407</ele>
        <time>2014-01-11T15:15:36.919Z</time>
      </trkpt>
      <trkpt lat="47.49403" lon="6.74019">
        <ele>407</ele>
        <time>2014-01-11T15:15:41.840Z</time>
      </trkpt>
      <trkpt lat="47.49401" lon="6.74024">
        <ele>407</ele>
        <time>2014-01-11T15:15:46.914Z</time>
      </trkpt>
      <trkpt lat="47.49398" lon="6.74029">
        <ele>407</ele>
        <time>2014-01-11T15:15:51.840Z</time>
      </trkpt>
      <trkpt lat="47.49394" lon="6.74039">
        <ele>407</ele>
        <time>2014-01-11T15:15:56.887Z</time>
      </trkpt>
      <trkpt lat="47.4939" lon="6.74047">
        <ele>409</ele>
        <time>2014-01-11T15:16:01.840Z</time>
      </trkpt>
      <trkpt lat="47.49386" lon="6.74058">
        <ele>409</ele>
        <time>2014-01-11T15:16:06.903Z</time>
      </trkpt>
      <trkpt lat="47.49383" lon="6.74068">
        <ele>411</ele>
        <time>2014-01-11T15:16:11.839Z</time>
      </trkpt>
      <trkpt lat="47.49381" lon="6.74077">
        <ele>412</ele>
        <time>2014-01-11T15:16:16.912Z</time>
      </trkpt>
      <trkpt lat="47.49379" lon="6.74088">
        <ele>411</ele>
        <time>2014-01-11T15:16:21.848Z</time>
      </trkpt>
      <trkpt lat="47.49378" lon="6.741">
        <ele>412</ele>
        <time>2014-01-11T15:16:26.909Z</time>
      </trkpt>
      <trkpt lat="47.49376" lon="6.74114">
        <ele>412</ele>
        <time>2014-01-11T15:16:31.917Z</time>
      </trkpt>
      <trkpt lat="47.49375" lon="6.74125">
        <ele>413</ele>
        <time>2014-01-11T15:16:36.848Z</time>
      </trkpt>
      <trkpt lat="47.49373" lon="6.74137">
        <ele>415</ele>
        <time>2014-01-11T15:16:41.900Z</time>
      </trkpt>
      <trkpt lat="47.49372" lon="6.74142">
        <ele>416</ele>
        <time>2014-01-11T15:16:46.840Z</time>
      </trkpt>
      <trkpt lat="47.49371" lon="6.74156">
        <ele>416</ele>
        <time>2014-01-11T15:16:51.912Z</time>
      </trkpt>
      <trkpt lat="47.49369" lon="6.74166">
        <ele>416</ele>
        <time>2014-01-11T15:16:56.839Z</time>
      </trkpt>
      <trkpt lat="47.49365" lon="6.74187">
        <ele>417</ele>
        <time>2014-01-11T15:17:09.353Z</time>
      </trkpt>
      <trkpt lat="47.49362" lon="6.74199">
        <ele>418</ele>
        <time>2014-01-11T15:17:11.893Z</time>
      </trkpt>
      <trkpt lat="47.49358" lon="6.74212">
        <ele>418</ele>
        <time>2014-01-11T15:17:16.902Z</time>
      </trkpt>
      <trkpt lat="47.49355" lon="6.74224">
        <ele>420</ele>
        <time>2014-01-11T15:17:21.849Z</time>
      </trkpt>
      <trkpt lat="47.49354" lon="6.74236">
        <ele>421</ele>
        <time>2014-01-11T15:17:26.912Z</time>
      </trkpt>
      <trkpt lat="47.49352" lon="6.74247">
        <ele>421</ele>
        <time>2014-01-11T15:17:31.845Z</time>
      </trkpt>
      <trkpt lat="47.49351" lon="6.74257">
        <ele>421</ele>
        <time>2014-01-11T15:17:36.913Z</time>
      </trkpt>
      <trkpt lat="47.49347" lon="6.74272">
        <ele>421</ele>
        <time>2014-01-11T15:17:41.837Z</time>
      </trkpt>
      <trkpt lat="47.49347" lon="6.74285">
        <ele>422</ele>
        <time>2014-01-11T15:17:46.915Z</time>
      </trkpt>
      <trkpt lat="47.49345" lon="6.74297">
        <ele>423</ele>
        <time>2014-01-11T15:17:51.845Z</time>
      </trkpt>
      <trkpt lat="47.49345" lon="6.74308">
        <ele>424</ele>
        <time>2014-01-11T15:17:56.834Z</time>
      </trkpt>
      <trkpt lat="47.49343" lon="6.74316">
        <ele>424</ele>
        <time>2014-01-11T15:18:01.882Z</time>
      </trkpt>
      <trkpt lat="47.4934" lon="6.7433">
        <ele>425</ele>
        <time>2014-01-11T15:18:06.833Z</time>
      </trkpt>
      <trkpt lat="47.49339" lon="6.74346">
        <ele>426</ele>
        <time>2014-01-11T15:18:11.909Z</time>
      </trkpt>
      <trkpt lat="47.49341" lon="6.74362">
        <ele>428</ele>
        <time>2014-01-11T15:18:16.837Z</time>
      </trkpt>
      <trkpt lat="47.49344" lon="6.74379">
        <ele>429</ele>
        <time>2014-01-11T15:18:21.911Z</time>
      </trkpt>
      <trkpt lat="47.49342" lon="6.74392">
        <ele>428</ele>
        <time>2014-01-11T15:18:26.843Z</time>
      </trkpt>
      <trkpt lat="47.49342" lon="6.744">
        <ele>429</ele>
        <time>2014-01-11T15:18:31.877Z</time>
      </trkpt>
      <trkpt lat="47.49339" lon="6.74408">
        <ele>428</ele>
        <time>2014-01-11T15:18:36.838Z</time>
      </trkpt>
      <trkpt lat="47.49338" lon="6.74423">
        <ele>428</ele>
        <time>2014-01-11T15:18:41.910Z</time>
      </trkpt>
      <trkpt lat="47.49336" lon="6.74431">
        <ele>428</ele>
        <time>2014-01-11T15:18:46.837Z</time>
      </trkpt>
      <trkpt lat="47.49334" lon="6.74442">
        <ele>428</ele>
        <time>2014-01-11T15:18:51.912Z</time>
      </trkpt>
      <trkpt lat="47.49335" lon="6.74455">
        <ele>429</ele>
        <time>2014-01-11T15:18:56.837Z</time>
      </trkpt>
      <trkpt lat="47.49336" lon="6.7447">
        <ele>429</ele>
        <time>2014-01-11T15:19:01.912Z</time>
      </trkpt>
      <trkpt lat="47.49335" lon="6.74491">
        <ele>430</ele>
        <time>2014-01-11T15:19:06.837Z</time>
      </trkpt>
      <trkpt lat="47.49333" lon="6.74505">
        <ele>428</ele>
        <time>2014-01-11T15:19:11.913Z</time>
      </trkpt>
      <trkpt lat="47.49332" lon="6.74523">
        <ele>427</ele>
        <time>2014-01-11T15:19:16.837Z</time>
      </trkpt>
      <trkpt lat="47.49331" lon="6.74538">
        <ele>427</ele>
        <time>2014-01-11T15:19:21.912Z</time>
      </trkpt>
      <trkpt lat="47.4933" lon="6.74552">
        <ele>426</ele>
        <time>2014-01-11T15:19:26.835Z</time>
      </trkpt>
      <trkpt lat="47.49327" lon="6.74563">
        <ele>427</ele>
        <time>2014-01-11T15:19:31.918Z</time>
      </trkpt>
      <trkpt lat="47.49327" lon="6.74575">
        <ele>428</ele>
        <time>2014-01-11T15:19:36.843Z</time>
      </trkpt>
      <trkpt lat="47.49326" lon="6.7459">
        <ele>429</ele>
        <time>2014-01-11T15:19:41.913Z</time>
      </trkpt>
      <trkpt lat="47.49327" lon="6.74613">
        <ele>430</ele>
        <time>2014-01-11T15:19:46.841Z</time>
      </trkpt>
      <trkpt lat="47.49326" lon="6.74643">
        <ele>431</ele>
        <time>2014-01-11T15:19:51.912Z</time>
      </trkpt>
      <trkpt lat="47.49325" lon="6.74672">
        <ele>430</ele>
        <time>2014-01-11T15:19:56.855Z</time>
      </trkpt>
      <trkpt lat="47.49328" lon="6.74715">
        <ele>429</ele>
        <time>2014-01-11T15:20:06.849Z</time>
      </trkpt>
      <trkpt lat="47.49329" lon="6.74718">
        <ele>427</ele>
        <time>2014-01-11T15:20:11.911Z</time>
      </trkpt>
      <trkpt lat="47.49333" lon="6.74718">
        <ele>424</ele>
        <time>2014-01-11T15:20:16.840Z</time>
      </trkpt>
      <trkpt lat="47.49333" lon="6.74719">
        <ele>423</ele>
        <time>2014-01-11T15:20:21.911Z</time>
      </trkpt>
      <trkpt lat="47.4933" lon="6.74729">
        <ele>424</ele>
        <time>2014-01-11T15:20:26.839Z</time>
      </trkpt>
      <trkpt lat="47.49329" lon="6.74752">
        <ele>423</ele>
        <time>2014-01-11T15:20:31.911Z</time>
      </trkpt>
      <trkpt lat="47.49326" lon="6.74778">
        <ele>424</ele>
        <time>2014-01-11T15:20:36.850Z</time>
      </trkpt>
      <trkpt lat="47.49323" lon="6.74807">
        <ele>424</ele>
        <time>2014-01-11T15:20:41.912Z</time>
      </trkpt>
      <trkpt lat="47.49322" lon="6.74835">
        <ele>423</ele>
        <time>2014-01-11T15:20:46.845Z</time>
      </trkpt>
      <trkpt lat="47.4932" lon="6.74863">
        <ele>421</ele>
        <time>2014-01-11T15:20:51.902Z</time>
      </trkpt>
      <trkpt lat="47.49321" lon="6.74881">
        <ele>420</ele>
        <time>2014-01-11T15:20:56.837Z</time>
      </trkpt>
      <trkpt lat="47.49321" lon="6.74894">
        <ele>420</ele>
        <time>2014-01-11T15:21:01.915Z</time>
      </trkpt>
      <trkpt lat="47.49322" lon="6.74905">
        <ele>420</ele>
        <time>2014-01-11T15:21:06.850Z</time>
      </trkpt>
      <trkpt lat="47.49323" lon="6.7492">
        <ele>419</ele>
        <time>2014-01-11T15:21:11.907Z</time>
      </trkpt>
      <trkpt lat="47.49323" lon="6.74941">
        <ele>419</ele>
        <time>2014-01-11T15:21:16.837Z</time>
      </trkpt>
      <trkpt lat="47.49325" lon="6.7497">
        <ele>419</ele>
        <time>2014-01-11T15:21:21.914Z</time>
      </trkpt>
      <trkpt lat="47.49322" lon="6.75011">
        <ele>416</ele>
        <time>2014-01-11T15:21:26.836Z</time>
      </trkpt>
      <trkpt lat="47.49311" lon="6.75042">
        <ele>412</ele>
        <time>2014-01-11T15:21:31.913Z</time>
      </trkpt>
      <trkpt lat="47.49301" lon="6.75058">
        <ele>410</ele>
        <time>2014-01-11T15:21:36.845Z</time>
      </trkpt>
      <trkpt lat="47.49292" lon="6.75073">
        <ele>408</ele>
        <time>2014-01-11T15:21:41.916Z</time>
      </trkpt>
      <trkpt lat="47.49288" lon="6.75086">
        <ele>408</ele>
        <time>2014-01-11T15:21:46.837Z</time>
      </trkpt>
      <trkpt lat="47.49285" lon="6.75104">
        <ele>410</ele>
        <time>2014-01-11T15:21:51.898Z</time>
      </trkpt>
      <trkpt lat="47.49285" lon="6.75124">
        <ele>412</ele>
        <time>2014-01-11T15:21:56.905Z</time>
      </trkpt>
      <trkpt lat="47.49283" lon="6.75144">
        <ele>412</ele>
        <time>2014-01-11T15:22:01.920Z</time>
      </trkpt>
      <trkpt lat="47.49279" lon="6.75163">
        <ele>414</ele>
        <time>2014-01-11T15:22:06.845Z</time>
      </trkpt>
      <trkpt lat="47.4928" lon="6.75184">
        <ele>414</ele>
        <time>2014-01-11T15:22:11.920Z</time>
      </trkpt>
      <trkpt lat="47.49279" lon="6.75206">
        <ele>414</ele>
        <time>2014-01-11T15:22:16.836Z</time>
      </trkpt>
      <trkpt lat="47.4928" lon="6.75226">
        <ele>414</ele>
        <time>2014-01-11T15:22:21.912Z</time>
      </trkpt>
      <trkpt lat="47.49283" lon="6.75251">
        <ele>413</ele>
        <time>2014-01-11T15:22:26.837Z</time>
      </trkpt>
      <trkpt lat="47.49285" lon="6.75282">
        <ele>411</ele>
        <time>2014-01-11T15:22:31.889Z</time>
      </trkpt>
      <trkpt lat="47.49281" lon="6.75314">
        <ele>410</ele>
        <time>2014-01-11T15:22:36.837Z</time>
      </trkpt>
      <trkpt lat="47.49277" lon="6.75337">
        <ele>409</ele>
        <time>2014-01-11T15:22:41.942Z</time>
      </trkpt>
      <trkpt lat="47.49269" lon="6.75375">
        <ele>409</ele>
        <time>2014-01-11T15:22:46.846Z</time>
      </trkpt>
      <trkpt lat="47.49261" lon="6.75404">
        <ele>410</ele>
        <time>2014-01-11T15:22:51.912Z</time>
      </trkpt>
      <trkpt lat="47.49255" lon="6.75432">
        <ele>409</ele>
        <time>2014-01-11T15:22:56.837Z</time>
      </trkpt>
      <trkpt lat="47.49248" lon="6.75491">
        <ele>406</ele>
        <time>2014-01-11T15:23:11.835Z</time>
      </trkpt>
      <trkpt lat="47.49247" lon="6.75496">
        <ele>404</ele>
        <time>2014-01-11T15:23:16.913Z</time>
      </trkpt>
      <trkpt lat="47.49247" lon="6.75496">
        <ele>403</ele>
        <time>2014-01-11T15:23:21.847Z</time>
      </trkpt>
      <trkpt lat="47.49246" lon="6.75499">
        <ele>401</ele>
        <time>2014-01-11T15:23:26.916Z</time>
      </trkpt>
      <trkpt lat="47.49245" lon="6.75501">
        <ele>401</ele>
        <time>2014-01-11T15:23:31.845Z</time>
      </trkpt>
      <trkpt lat="47.49245" lon="6.75501">
        <ele>401</ele>
        <time>2014-01-11T15:23:36.915Z</time>
      </trkpt>
      <trkpt lat="47.49245" lon="6.75501">
        <ele>401</ele>
        <time>2014-01-11T15:23:41.839Z</time>
      </trkpt>
      <trkpt lat="47.49245" lon="6.75501">
        <ele>401</ele>
        <time>2014-01-11T15:23:46.925Z</time>
      </trkpt>
      <trkpt lat="47.49245" lon="6.75502">
        <ele>400</ele>
        <time>2014-01-11T15:23:51.836Z</time>
      </trkpt>
      <trkpt lat="47.49244" lon="6.75506">
        <ele>400</ele>
        <time>2014-01-11T15:23:56.899Z</time>
      </trkpt>
      <trkpt lat="47.49242" lon="6.75511">
        <ele>396</ele>
        <time>2014-01-11T15:24:06.904Z</time>
      </trkpt>
      <trkpt lat="47.49242" lon="6.75511">
        <ele>396</ele>
        <time>2014-01-11T15:24:11.833Z</time>
      </trkpt>
      <trkpt lat="47.49242" lon="6.75513">
        <ele>395</ele>
        <time>2014-01-11T15:24:16.919Z</time>
      </trkpt>
      <trkpt lat="47.49242" lon="6.75513">
        <ele>395</ele>
        <time>2014-01-11T15:24:21.845Z</time>
      </trkpt>
      <trkpt lat="47.49242" lon="6.75513">
        <ele>395</ele>
        <time>2014-01-11T15:24:26.916Z</time>
      </trkpt>
      <trkpt lat="47.49242" lon="6.75513">
        <ele>395</ele>
        <time>2014-01-11T15:24:31.838Z</time>
      </trkpt>
      <trkpt lat="47.49242" lon="6.75513">
        <ele>395</ele>
        <time>2014-01-11T15:24:36.913Z</time>
      </trkpt>
      <trkpt lat="47.49242" lon="6.75513">
        <ele>395</ele>
        <time>2014-01-11T15:24:41.841Z</time>
      </trkpt>
      <trkpt lat="47.49242" lon="6.75513">
        <ele>395</ele>
        <time>2014-01-11T15:24:46.891Z</time>
      </trkpt>
      <trkpt lat="47.49242" lon="6.75513">
        <ele>394</ele>
        <time>2014-01-11T15:24:51.851Z</time>
      </trkpt>
      <trkpt lat="47.49242" lon="6.75513">
        <ele>394</ele>
        <time>2014-01-11T15:24:56.915Z</time>
      </trkpt>
      <trkpt lat="47.49245" lon="6.75515">
        <ele>392</ele>
        <time>2014-01-11T15:25:11.918Z</time>
      </trkpt>
      <trkpt lat="47.49245" lon="6.75515">
        <ele>392</ele>
        <time>2014-01-11T15:25:16.844Z</time>
      </trkpt>
      <trkpt lat="47.49244" lon="6.75516">
        <ele>391</ele>
        <time>2014-01-11T15:25:21.914Z</time>
      </trkpt>
      <trkpt lat="47.49245" lon="6.75514">
        <ele>391</ele>
        <time>2014-01-11T15:25:26.845Z</time>
      </trkpt>
      <trkpt lat="47.49251" lon="6.75518">
        <ele>390</ele>
        <time>2014-01-11T15:25:31.912Z</time>
      </trkpt>
      <trkpt lat="47.49269" lon="6.75517">
        <ele>387</ele>
        <time>2014-01-11T15:25:36.845Z</time>
      </trkpt>
      <trkpt lat="47.49289" lon="6.75511">
        <ele>386</ele>
        <time>2014-01-11T15:25:41.879Z</time>
      </trkpt>
      <trkpt lat="47.49306" lon="6.75509">
        <ele>384</ele>
        <time>2014-01-11T15:25:46.808Z</time>
      </trkpt>
      <trkpt lat="47.49315" lon="6.75527">
        <ele>384</ele>
        <time>2014-01-11T15:25:51.842Z</time>
      </trkpt>
      <trkpt lat="47.49319" lon="6.75554">
        <ele>384</ele>
        <time>2014-01-11T15:25:56.917Z</time>
      </trkpt>
      <trkpt lat="47.49325" lon="6.75583">
        <ele>384</ele>
        <time>2014-01-11T15:26:02.453Z</time>
      </trkpt>
      <trkpt lat="47.49331" lon="6.7561">
        <ele>385</ele>
        <time>2014-01-11T15:26:06.920Z</time>
      </trkpt>
      <trkpt lat="47.49335" lon="6.75637">
        <ele>386</ele>
        <time>2014-01-11T15:26:11.813Z</time>
      </trkpt>
      <trkpt lat="47.4934" lon="6.75666">
        <ele>386</ele>
        <time>2014-01-11T15:26:16.918Z</time>
      </trkpt>
      <trkpt lat="47.49348" lon="6.75695">
        <ele>384</ele>
        <time>2014-01-11T15:26:21.841Z</time>
      </trkpt>
      <trkpt lat="47.49353" lon="6.75715">
        <ele>384</ele>
        <time>2014-01-11T15:26:26.917Z</time>
      </trkpt>
      <trkpt lat="47.49366" lon="6.75717">
        <ele>381</ele>
        <time>2014-01-11T15:26:31.838Z</time>
      </trkpt>
      <trkpt lat="47.49382" lon="6.75706">
        <ele>380</ele>
        <time>2014-01-11T15:26:36.871Z</time>
      </trkpt>
      <trkpt lat="47.49398" lon="6.75696">
        <ele>379</ele>
        <time>2014-01-11T15:26:41.838Z</time>
      </trkpt>
      <trkpt lat="47.49416" lon="6.75682">
        <ele>379</ele>
        <time>2014-01-11T15:26:46.914Z</time>
      </trkpt>
      <trkpt lat="47.49431" lon="6.75676">
        <ele>380</ele>
        <time>2014-01-11T15:26:51.912Z</time>
      </trkpt>
      <trkpt lat="47.49439" lon="6.75694">
        <ele>379</ele>
        <time>2014-01-11T15:26:56.849Z</time>
      </trkpt>
      <trkpt lat="47.49452" lon="6.75697">
        <ele>379</ele>
        <time>2014-01-11T15:27:01.876Z</time>
      </trkpt>
      <trkpt lat="47.49468" lon="6.75706">
        <ele>379</ele>
        <time>2014-01-11T15:27:06.836Z</time>
      </trkpt>
      <trkpt lat="47.49478" lon="6.75731">
        <ele>379</ele>
        <time>2014-01-11T15:27:11.902Z</time>
      </trkpt>
      <trkpt lat="47.49495" lon="6.7574">
        <ele>380</ele>
        <time>2014-01-11T15:27:16.840Z</time>
      </trkpt>
      <trkpt lat="47.49514" lon="6.75732">
        <ele>380</ele>
        <time>2014-01-11T15:27:21.914Z</time>
      </trkpt>
      <trkpt lat="47.49531" lon="6.75721">
        <ele>381</ele>
        <time>2014-01-11T15:27:26.847Z</time>
      </trkpt>
      <trkpt lat="47.49546" lon="6.75706">
        <ele>382</ele>
        <time>2014-01-11T15:27:31.911Z</time>
      </trkpt>
      <trkpt lat="47.4956" lon="6.75686">
        <ele>382</ele>
        <time>2014-01-11T15:27:36.838Z</time>
      </trkpt>
      <trkpt lat="47.49577" lon="6.75674">
        <ele>382</ele>
        <time>2014-01-11T15:27:41.884Z</time>
      </trkpt>
      <trkpt lat="47.4959" lon="6.75688">
        <ele>382</ele>
        <time>2014-01-11T15:27:46.843Z</time>
      </trkpt>
      <trkpt lat="47.49592" lon="6.75707">
        <ele>381</ele>
        <time>2014-01-11T15:27:51.914Z</time>
      </trkpt>
      <trkpt lat="47.49581" lon="6.75723">
        <ele>381</ele>
        <time>2014-01-11T15:27:56.851Z</time>
      </trkpt>
      <trkpt lat="47.4957" lon="6.75736">
        <ele>381</ele>
        <time>2014-01-11T15:28:01.915Z</time>
      </trkpt>
      <trkpt lat="47.49558" lon="6.75748">
        <ele>381</ele>
        <time>2014-01-11T15:28:06.845Z</time>
      </trkpt>
      <trkpt lat="47.49554" lon="6.75762">
        <ele>382</ele>
        <time>2014-01-11T15:28:11.917Z</time>
      </trkpt>
      <trkpt lat="47.49561" lon="6.7577">
        <ele>383</ele>
        <time>2014-01-11T15:28:17.023Z</time>
      </trkpt>
      <trkpt lat="47.49565" lon="6.75777">
        <ele>384</ele>
        <time>2014-01-11T15:28:21.882Z</time>
      </trkpt>
      <trkpt lat="47.49569" lon="6.75781">
        <ele>385</ele>
        <time>2014-01-11T15:28:26.838Z</time>
      </trkpt>
      <trkpt lat="47.49572" lon="6.75784">
        <ele>386</ele>
        <time>2014-01-11T15:28:31.921Z</time>
      </trkpt>
      <trkpt lat="47.49576" lon="6.75786">
        <ele>387</ele>
        <time>2014-01-11T15:28:36.848Z</time>
      </trkpt>
      <trkpt lat="47.49581" lon="6.75786">
        <ele>389</ele>
        <time>2014-01-11T15:28:41.913Z</time>
      </trkpt>
      <trkpt lat="47.49586" lon="6.75788">
        <ele>391</ele>
        <time>2014-01-11T15:28:46.841Z</time>
      </trkpt>
      <trkpt lat="47.49589" lon="6.75788">
        <ele>392</ele>
        <time>2014-01-11T15:28:51.919Z</time>
      </trkpt>
      <trkpt lat="47.49593" lon="6.7579">
        <ele>394</ele>
        <time>2014-01-11T15:28:56.844Z</time>
      </trkpt>
      <trkpt lat="47.49599" lon="6.75792">
        <ele>395</ele>
        <time>2014-01-11T15:29:01.913Z</time>
      </trkpt>
      <trkpt lat="47.49606" lon="6.75789">
        <ele>395</ele>
        <time>2014-01-11T15:29:06.854Z</time>
      </trkpt>
      <trkpt lat="47.49612" lon="6.75791">
        <ele>396</ele>
        <time>2014-01-11T15:29:11.913Z</time>
      </trkpt>
      <trkpt lat="47.49614" lon="6.75794">
        <ele>398</ele>
        <time>2014-01-11T15:29:16.854Z</time>
      </trkpt>
      <trkpt lat="47.49621" lon="6.75792">
        <ele>400</ele>
        <time>2014-01-11T15:29:21.872Z</time>
      </trkpt>
      <trkpt lat="47.49626" lon="6.75792">
        <ele>401</ele>
        <time>2014-01-11T15:29:26.918Z</time>
      </trkpt>
      <trkpt lat="47.49632" lon="6.75793">
        <ele>403</ele>
        <time>2014-01-11T15:29:31.847Z</time>
      </trkpt>
      <trkpt lat="47.49638" lon="6.75792">
        <ele>404</ele>
        <time>2014-01-11T15:29:36.915Z</time>
      </trkpt>
      <trkpt lat="47.49644" lon="6.75795">
        <ele>405</ele>
        <time>2014-01-11T15:29:41.837Z</time>
      </trkpt>
      <trkpt lat="47.49652" lon="6.75795">
        <ele>405</ele>
        <time>2014-01-11T15:29:46.914Z</time>
      </trkpt>
      <trkpt lat="47.49658" lon="6.75793">
        <ele>406</ele>
        <time>2014-01-11T15:29:51.841Z</time>
      </trkpt>
      <trkpt lat="47.49666" lon="6.75795">
        <ele>405</ele>
        <time>2014-01-11T15:29:57.211Z</time>
      </trkpt>
      <trkpt lat="47.49676" lon="6.75794">
        <ele>406</ele>
        <time>2014-01-11T15:30:01.838Z</time>
      </trkpt>
      <trkpt lat="47.49687" lon="6.75791">
        <ele>407</ele>
        <time>2014-01-11T15:30:06.915Z</time>
      </trkpt>
      <trkpt lat="47.49694" lon="6.75793">
        <ele>408</ele>
        <time>2014-01-11T15:30:11.836Z</time>
      </trkpt>
      <trkpt lat="47.49704" lon="6.75789">
        <ele>409</ele>
        <time>2014-01-11T15:30:16.882Z</time>
      </trkpt>
      <trkpt lat="47.49713" lon="6.75787">
        <ele>410</ele>
        <time>2014-01-11T15:30:21.836Z</time>
      </trkpt>
      <trkpt lat="47.49722" lon="6.75784">
        <ele>410</ele>
        <time>2014-01-11T15:30:26.915Z</time>
      </trkpt>
      <trkpt lat="47.49732" lon="6.7578">
        <ele>411</ele>
        <time>2014-01-11T15:30:31.848Z</time>
      </trkpt>
      <trkpt lat="47.49752" lon="6.7577">
        <ele>411</ele>
        <time>2014-01-11T15:30:41.838Z</time>
      </trkpt>
      <trkpt lat="47.49761" lon="6.75765">
        <ele>411</ele>
        <time>2014-01-11T15:30:46.913Z</time>
      </trkpt>
      <trkpt lat="47.49772" lon="6.7576">
        <ele>412</ele>
        <time>2014-01-11T15:30:51.846Z</time>
      </trkpt>
      <trkpt lat="47.49782" lon="6.75755">
        <ele>412</ele>
        <time>2014-01-11T15:30:56.916Z</time>
      </trkpt>
      <trkpt lat="47.4979" lon="6.75753">
        <ele>414</ele>
        <time>2014-01-11T15:31:01.963Z</time>
      </trkpt>
      <trkpt lat="47.49796" lon="6.75752">
        <ele>415</ele>
        <time>2014-01-11T15:31:06.917Z</time>
      </trkpt>
      <trkpt lat="47.49806" lon="6.75751">
        <ele>415</ele>
        <time>2014-01-11T15:31:11.840Z</time>
      </trkpt>
      <trkpt lat="47.49811" lon="6.75748">
        <ele>416</ele>
        <time>2014-01-11T15:31:16.915Z</time>
      </trkpt>
      <trkpt lat="47.49819" lon="6.75744">
        <ele>418</ele>
        <time>2014-01-11T15:31:21.842Z</time>
      </trkpt>
      <trkpt lat="47.49827" lon="6.75741">
        <ele>419</ele>
        <time>2014-01-11T15:31:26.913Z</time>
      </trkpt>
      <trkpt lat="47.49835" lon="6.75739">
        <ele>421</ele>
        <time>2014-01-11T15:31:31.849Z</time>
      </trkpt>
      <trkpt lat="47.49842" lon="6.75736">
        <ele>421</ele>
        <time>2014-01-11T15:31:36.911Z</time>
      </trkpt>
      <trkpt lat="47.49848" lon="6.75739">
        <ele>422</ele>
        <time>2014-01-11T15:31:41.845Z</time>
      </trkpt>
      <trkpt lat="47.49854" lon="6.75737">
        <ele>422</ele>
        <time>2014-01-11T15:31:46.915Z</time>
      </trkpt>
      <trkpt lat="47.49861" lon="6.75735">
        <ele>422</ele>
        <time>2014-01-11T15:31:51.849Z</time>
      </trkpt>
      <trkpt lat="47.49869" lon="6.75737">
        <ele>422</ele>
        <time>2014-01-11T15:31:56.903Z</time>
      </trkpt>
      <trkpt lat="47.49894" lon="6.75729">
        <ele>424</ele>
        <time>2014-01-11T15:32:11.842Z</time>
      </trkpt>
      <trkpt lat="47.499" lon="6.75729">
        <ele>425</ele>
        <time>2014-01-11T15:32:16.923Z</time>
      </trkpt>
      <trkpt lat="47.49904" lon="6.75734">
        <ele>425</ele>
        <time>2014-01-11T15:32:21.847Z</time>
      </trkpt>
      <trkpt lat="47.49909" lon="6.75736">
        <ele>426</ele>
        <time>2014-01-11T15:32:26.884Z</time>
      </trkpt>
      <trkpt lat="47.49915" lon="6.7574">
        <ele>427</ele>
        <time>2014-01-11T15:32:31.838Z</time>
      </trkpt>
      <trkpt lat="47.49917" lon="6.75744">
        <ele>430</ele>
        <time>2014-01-11T15:32:36.916Z</time>
      </trkpt>
      <trkpt lat="47.49923" lon="6.75747">
        <ele>430</ele>
        <time>2014-01-11T15:32:41.836Z</time>
      </trkpt>
      <trkpt lat="47.49928" lon="6.75752">
        <ele>430</ele>
        <time>2014-01-11T15:32:46.915Z</time>
      </trkpt>
      <trkpt lat="47.49933" lon="6.75756">
        <ele>429</ele>
        <time>2014-01-11T15:32:51.845Z</time>
      </trkpt>
      <trkpt lat="47.49936" lon="6.75761">
        <ele>430</ele>
        <time>2014-01-11T15:32:56.912Z</time>
      </trkpt>
      <trkpt lat="47.4994" lon="6.75766">
        <ele>431</ele>
        <time>2014-01-11T15:33:02.928Z</time>
      </trkpt>
      <trkpt lat="47.49947" lon="6.75772">
        <ele>431</ele>
        <time>2014-01-11T15:33:06.913Z</time>
      </trkpt>
      <trkpt lat="47.49953" lon="6.75778">
        <ele>432</ele>
        <time>2014-01-11T15:33:11.849Z</time>
      </trkpt>
      <trkpt lat="47.49958" lon="6.75784">
        <ele>432</ele>
        <time>2014-01-11T15:33:16.913Z</time>
      </trkpt>
      <trkpt lat="47.49961" lon="6.7579">
        <ele>433</ele>
        <time>2014-01-11T15:33:21.842Z</time>
      </trkpt>
      <trkpt lat="47.49966" lon="6.75795">
        <ele>434</ele>
        <time>2014-01-11T15:33:26.916Z</time>
      </trkpt>
      <trkpt lat="47.49971" lon="6.75806">
        <ele>434</ele>
        <time>2014-01-11T15:33:31.812Z</time>
      </trkpt>
      <trkpt lat="47.49977" lon="6.75814">
        <ele>435</ele>
        <time>2014-01-11T15:33:36.911Z</time>
      </trkpt>
      <trkpt lat="47.49983" lon="6.75821">
        <ele>436</ele>
        <time>2014-01-11T15:33:41.838Z</time>
      </trkpt>
      <trkpt lat="47.49989" lon="6.75827">
        <ele>437</ele>
        <time>2014-01-11T15:33:46.914Z</time>
      </trkpt>
      <trkpt lat="47.49992" lon="6.75836">
        <ele>437</ele>
        <time>2014-01-11T15:33:51.852Z</time>
      </trkpt>
      <trkpt lat="47.49995" lon="6.75845">
        <ele>436</ele>
        <time>2014-01-11T15:33:56.912Z</time>
      </trkpt>
      <trkpt lat="47.5" lon="6.75851">
        <ele>436</ele>
        <time>2014-01-11T15:34:01.841Z</time>
      </trkpt>
      <trkpt lat="47.50005" lon="6.75861">
        <ele>436</ele>
        <time>2014-01-11T15:34:06.913Z</time>
      </trkpt>
      <trkpt lat="47.50009" lon="6.75866">
        <ele>437</ele>
        <time>2014-01-11T15:34:11.833Z</time>
      </trkpt>
      <trkpt lat="47.50012" lon="6.75876">
        <ele>438</ele>
        <time>2014-01-11T15:34:16.918Z</time>
      </trkpt>
      <trkpt lat="47.50017" lon="6.75885">
        <ele>438</ele>
        <time>2014-01-11T15:34:21.837Z</time>
      </trkpt>
      <trkpt lat="47.50023" lon="6.75895">
        <ele>437</ele>
        <time>2014-01-11T15:34:26.913Z</time>
      </trkpt>
      <trkpt lat="47.50029" lon="6.75903">
        <ele>438</ele>
        <time>2014-01-11T15:34:31.837Z</time>
      </trkpt>
      <trkpt lat="47.50034" lon="6.75912">
        <ele>439</ele>
        <time>2014-01-11T15:34:36.908Z</time>
      </trkpt>
      <trkpt lat="47.50041" lon="6.75918">
        <ele>441</ele>
        <time>2014-01-11T15:34:41.841Z</time>
      </trkpt>
      <trkpt lat="47.5005" lon="6.75923">
        <ele>441</ele>
        <time>2014-01-11T15:34:46.913Z</time>
      </trkpt>
      <trkpt lat="47.50056" lon="6.75932">
        <ele>443</ele>
        <time>2014-01-11T15:34:51.846Z</time>
      </trkpt>
      <trkpt lat="47.50061" lon="6.75945">
        <ele>444</ele>
        <time>2014-01-11T15:34:56.912Z</time>
      </trkpt>
      <trkpt lat="47.50066" lon="6.75953">
        <ele>443</ele>
        <time>2014-01-11T15:35:01.837Z</time>
      </trkpt>
      <trkpt lat="47.50073" lon="6.75964">
        <ele>444</ele>
        <time>2014-01-11T15:35:06.900Z</time>
      </trkpt>
      <trkpt lat="47.50079" lon="6.75975">
        <ele>445</ele>
        <time>2014-01-11T15:35:11.837Z</time>
      </trkpt>
      <trkpt lat="47.50086" lon="6.75985">
        <ele>445</ele>
        <time>2014-01-11T15:35:16.878Z</time>
      </trkpt>
      <trkpt lat="47.50089" lon="6.75993">
        <ele>445</ele>
        <time>2014-01-11T15:35:21.845Z</time>
      </trkpt>
      <trkpt lat="47.5009" lon="6.76">
        <ele>447</ele>
        <time>2014-01-11T15:35:26.915Z</time>
      </trkpt>
      <trkpt lat="47.50093" lon="6.76011">
        <ele>448</ele>
        <time>2014-01-11T15:35:31.853Z</time>
      </trkpt>
      <trkpt lat="47.50095" lon="6.76024">
        <ele>448</ele>
        <time>2014-01-11T15:35:36.890Z</time>
      </trkpt>
      <trkpt lat="47.50096" lon="6.76036">
        <ele>451</ele>
        <time>2014-01-11T15:35:41.844Z</time>
      </trkpt>
      <trkpt lat="47.50099" lon="6.76045">
        <ele>452</ele>
        <time>2014-01-11T15:35:46.885Z</time>
      </trkpt>
      <trkpt lat="47.501" lon="6.76056">
        <ele>453</ele>
        <time>2014-01-11T15:35:51.859Z</time>
      </trkpt>
      <trkpt lat="47.50101" lon="6.76068">
        <ele>453</ele>
        <time>2014-01-11T15:35:56.915Z</time>
      </trkpt>
      <trkpt lat="47.50103" lon="6.76079">
        <ele>456</ele>
        <time>2014-01-11T15:36:01.851Z</time>
      </trkpt>
      <trkpt lat="47.50106" lon="6.76093">
        <ele>457</ele>
        <time>2014-01-11T15:36:06.912Z</time>
      </trkpt>
      <trkpt lat="47.50108" lon="6.76106">
        <ele>458</ele>
        <time>2014-01-11T15:36:11.844Z</time>
      </trkpt>
      <trkpt lat="47.5011" lon="6.76119">
        <ele>460</ele>
        <time>2014-01-11T15:36:16.914Z</time>
      </trkpt>
      <trkpt lat="47.50113" lon="6.76132">
        <ele>460</ele>
        <time>2014-01-11T15:36:21.853Z</time>
      </trkpt>
      <trkpt lat="47.50114" lon="6.76142">
        <ele>461</ele>
        <time>2014-01-11T15:36:26.916Z</time>
      </trkpt>
      <trkpt lat="47.50116" lon="6.76153">
        <ele>463</ele>
        <time>2014-01-11T15:36:31.851Z</time>
      </trkpt>
      <trkpt lat="47.5012" lon="6.76169">
        <ele>462</ele>
        <time>2014-01-11T15:36:36.913Z</time>
      </trkpt>
      <trkpt lat="47.50123" lon="6.76183">
        <ele>463</ele>
        <time>2014-01-11T15:36:41.844Z</time>
      </trkpt>
      <trkpt lat="47.50127" lon="6.76198">
        <ele>461</ele>
        <time>2014-01-11T15:36:46.916Z</time>
      </trkpt>
      <trkpt lat="47.50129" lon="6.76212">
        <ele>462</ele>
        <time>2014-01-11T15:36:51.843Z</time>
      </trkpt>
      <trkpt lat="47.5013" lon="6.76227">
        <ele>462</ele>
        <time>2014-01-11T15:36:56.913Z</time>
      </trkpt>
      <trkpt lat="47.50132" lon="6.76238">
        <ele>462</ele>
        <time>2014-01-11T15:37:01.842Z</time>
      </trkpt>
      <trkpt lat="47.50132" lon="6.76249">
        <ele>460</ele>
        <time>2014-01-11T15:37:06.922Z</time>
      </trkpt>
      <trkpt lat="47.50133" lon="6.76258">
        <ele>460</ele>
        <time>2014-01-11T15:37:11.842Z</time>
      </trkpt>
      <trkpt lat="47.50134" lon="6.76271">
        <ele>460</ele>
        <time>2014-01-11T15:37:16.914Z</time>
      </trkpt>
      <trkpt lat="47.50136" lon="6.76281">
        <ele>460</ele>
        <time>2014-01-11T15:37:21.844Z</time>
      </trkpt>
      <trkpt lat="47.50142" lon="6.7629">
        <ele>462</ele>
        <time>2014-01-11T15:37:26.916Z</time>
      </trkpt>
      <trkpt lat="47.50147" lon="6.76309">
        <ele>464</ele>
        <time>2014-01-11T15:37:31.844Z</time>
      </trkpt>
      <trkpt lat="47.50153" lon="6.76323">
        <ele>464</ele>
        <time>2014-01-11T15:37:36.916Z</time>
      </trkpt>
      <trkpt lat="47.50157" lon="6.76335">
        <ele>464</ele>
        <time>2014-01-11T15:37:41.830Z</time>
      </trkpt>
      <trkpt lat="47.50159" lon="6.76347">
        <ele>465</ele>
        <time>2014-01-11T15:37:46.911Z</time>
      </trkpt>
      <trkpt lat="47.50164" lon="6.76362">
        <ele>464</ele>
        <time>2014-01-11T15:37:51.848Z</time>
      </trkpt>
      <trkpt lat="47.5017" lon="6.76376">
        <ele>464</ele>
        <time>2014-01-11T15:37:56.914Z</time>
      </trkpt>
      <trkpt lat="47.50172" lon="6.76386">
        <ele>461</ele>
        <time>2014-01-11T15:38:01.858Z</time>
      </trkpt>
      <trkpt lat="47.5018" lon="6.76412">
        <ele>459</ele>
        <time>2014-01-11T15:38:11.874Z</time>
      </trkpt>
      <trkpt lat="47.50183" lon="6.76427">
        <ele>460</ele>
        <time>2014-01-11T15:38:16.913Z</time>
      </trkpt>
      <trkpt lat="47.50187" lon="6.76436">
        <ele>461</ele>
        <time>2014-01-11T15:38:21.842Z</time>
      </trkpt>
      <trkpt lat="47.50191" lon="6.76447">
        <ele>461</ele>
        <time>2014-01-11T15:38:26.886Z</time>
      </trkpt>
      <trkpt lat="47.50196" lon="6.76457">
        <ele>461</ele>
        <time>2014-01-11T15:38:31.841Z</time>
      </trkpt>
      <trkpt lat="47.50197" lon="6.76468">
        <ele>461</ele>
        <time>2014-01-11T15:38:36.915Z</time>
      </trkpt>
      <trkpt lat="47.50202" lon="6.76482">
        <ele>462</ele>
        <time>2014-01-11T15:38:41.841Z</time>
      </trkpt>
      <trkpt lat="47.50207" lon="6.76493">
        <ele>462</ele>
        <time>2014-01-11T15:38:46.876Z</time>
      </trkpt>
      <trkpt lat="47.5021" lon="6.76501">
        <ele>462</ele>
        <time>2014-01-11T15:38:51.841Z</time>
      </trkpt>
      <trkpt lat="47.50212" lon="6.7651">
        <ele>463</ele>
        <time>2014-01-11T15:38:56.914Z</time>
      </trkpt>
      <trkpt lat="47.50213" lon="6.76518">
        <ele>464</ele>
        <time>2014-01-11T15:39:01.845Z</time>
      </trkpt>
      <trkpt lat="47.50216" lon="6.76528">
        <ele>464</ele>
        <time>2014-01-11T15:39:06.914Z</time>
      </trkpt>
      <trkpt lat="47.50219" lon="6.76539">
        <ele>464</ele>
        <time>2014-01-11T15:39:11.841Z</time>
      </trkpt>
      <trkpt lat="47.50218" lon="6.76541">
        <ele>462</ele>
        <time>2014-01-11T15:39:16.915Z</time>
      </trkpt>
      <trkpt lat="47.50217" lon="6.76547">
        <ele>461</ele>
        <time>2014-01-11T15:39:21.843Z</time>
      </trkpt>
      <trkpt lat="47.50216" lon="6.76552">
        <ele>461</ele>
        <time>2014-01-11T15:39:26.914Z</time>
      </trkpt>
      <trkpt lat="47.50211" lon="6.76555">
        <ele>459</ele>
        <time>2014-01-11T15:39:31.806Z</time>
      </trkpt>
      <trkpt lat="47.50208" lon="6.76558">
        <ele>459</ele>
        <time>2014-01-11T15:39:36.912Z</time>
      </trkpt>
      <trkpt lat="47.50203" lon="6.7656">
        <ele>460</ele>
        <time>2014-01-11T15:39:41.849Z</time>
      </trkpt>
      <trkpt lat="47.502" lon="6.76562">
        <ele>459</ele>
        <time>2014-01-11T15:39:46.921Z</time>
      </trkpt>
      <trkpt lat="47.50192" lon="6.76563">
        <ele>459</ele>
        <time>2014-01-11T15:39:51.845Z</time>
      </trkpt>
      <trkpt lat="47.50187" lon="6.76565">
        <ele>460</ele>
        <time>2014-01-11T15:39:56.912Z</time>
      </trkpt>
      <trkpt lat="47.50181" lon="6.76567">
        <ele>460</ele>
        <time>2014-01-11T15:40:01.852Z</time>
      </trkpt>
      <trkpt lat="47.50178" lon="6.76566">
        <ele>461</ele>
        <time>2014-01-11T15:40:06.919Z</time>
      </trkpt>
      <trkpt lat="47.50173" lon="6.76566">
        <ele>462</ele>
        <time>2014-01-11T15:40:11.842Z</time>
      </trkpt>
      <trkpt lat="47.50171" lon="6.76567">
        <ele>464</ele>
        <time>2014-01-11T15:40:16.914Z</time>
      </trkpt>
      <trkpt lat="47.50165" lon="6.76567">
        <ele>466</ele>
        <time>2014-01-11T15:40:21.843Z</time>
      </trkpt>
      <trkpt lat="47.50157" lon="6.76565">
        <ele>464</ele>
        <time>2014-01-11T15:40:26.910Z</time>
      </trkpt>
      <trkpt lat="47.50148" lon="6.76565">
        <ele>464</ele>
        <time>2014-01-11T15:40:31.847Z</time>
      </trkpt>
      <trkpt lat="47.50143" lon="6.76565">
        <ele>463</ele>
        <time>2014-01-11T15:40:36.915Z</time>
      </trkpt>
      <trkpt lat="47.50131" lon="6.7657">
        <ele>463</ele>
        <time>2014-01-11T15:40:41.852Z</time>
      </trkpt>
      <trkpt lat="47.50127" lon="6.76577">
        <ele>465</ele>
        <time>2014-01-11T15:40:46.913Z</time>
      </trkpt>
      <trkpt lat="47.5013" lon="6.7659">
        <ele>466</ele>
        <time>2014-01-11T15:40:51.841Z</time>
      </trkpt>
      <trkpt lat="47.50139" lon="6.76605">
        <ele>464</ele>
        <time>2014-01-11T15:40:56.914Z</time>
      </trkpt>
      <trkpt lat="47.50156" lon="6.7661">
        <ele>463</ele>
        <time>2014-01-11T15:41:01.845Z</time>
      </trkpt>
      <trkpt lat="47.50178" lon="6.76615">
        <ele>461</ele>
        <time>2014-01-11T15:41:06.911Z</time>
      </trkpt>
      <trkpt lat="47.5019" lon="6.76615">
        <ele>460</ele>
        <time>2014-01-11T15:41:11.837Z</time>
      </trkpt>
      <trkpt lat="47.50197" lon="6.76621">
        <ele>459</ele>
        <time>2014-01-11T15:41:16.913Z</time>
      </trkpt>
      <trkpt lat="47.50201" lon="6.7663">
        <ele>459</ele>
        <time>2014-01-11T15:41:21.838Z</time>
      </trkpt>
      <trkpt lat="47.50206" lon="6.76643">
        <ele>460</ele>
        <time>2014-01-11T15:41:26.902Z</time>
      </trkpt>
      <trkpt lat="47.50212" lon="6.76655">
        <ele>461</ele>
        <time>2014-01-11T15:41:31.848Z</time>
      </trkpt>
      <trkpt lat="47.50216" lon="6.76669">
        <ele>461</ele>
        <time>2014-01-11T15:41:36.918Z</time>
      </trkpt>
      <trkpt lat="47.50221" lon="6.76684">
        <ele>462</ele>
        <time>2014-01-11T15:41:41.845Z</time>
      </trkpt>
      <trkpt lat="47.50227" lon="6.767">
        <ele>462</ele>
        <time>2014-01-11T15:41:46.915Z</time>
      </trkpt>
      <trkpt lat="47.50233" lon="6.76716">
        <ele>462</ele>
        <time>2014-01-11T15:41:51.841Z</time>
      </trkpt>
      <trkpt lat="47.5024" lon="6.76732">
        <ele>462</ele>
        <time>2014-01-11T15:41:56.889Z</time>
      </trkpt>
      <trkpt lat="47.50289" lon="6.76739">
        <ele>457</ele>
        <time>2014-01-11T15:42:11.842Z</time>
      </trkpt>
      <trkpt lat="47.50308" lon="6.76736">
        <ele>457</ele>
        <time>2014-01-11T15:42:16.918Z</time>
      </trkpt>
      <trkpt lat="47.50323" lon="6.76731">
        <ele>458</ele>
        <time>2014-01-11T15:42:21.856Z</time>
      </trkpt>
      <trkpt lat="47.50338" lon="6.76726">
        <ele>459</ele>
        <time>2014-01-11T15:42:26.917Z</time>
      </trkpt>
      <trkpt lat="47.50354" lon="6.76719">
        <ele>459</ele>
        <time>2014-01-11T15:42:31.847Z</time>
      </trkpt>
      <trkpt lat="47.50368" lon="6.76712">
        <ele>459</ele>
        <time>2014-01-11T15:42:36.919Z</time>
      </trkpt>
      <trkpt lat="47.50382" lon="6.76705">
        <ele>459</ele>
        <time>2014-01-11T15:42:41.845Z</time>
      </trkpt>
      <trkpt lat="47.50394" lon="6.76699">
        <ele>460</ele>
        <time>2014-01-11T15:42:46.922Z</time>
      </trkpt>
      <trkpt lat="47.50406" lon="6.76693">
        <ele>459</ele>
        <time>2014-01-11T15:42:51.843Z</time>
      </trkpt>
      <trkpt lat="47.50417" lon="6.76692">
        <ele>459</ele>
        <time>2014-01-11T15:42:56.918Z</time>
      </trkpt>
      <trkpt lat="47.50429" lon="6.76688">
        <ele>459</ele>
        <time>2014-01-11T15:43:01.845Z</time>
      </trkpt>
      <trkpt lat="47.50441" lon="6.76683">
        <ele>460</ele>
        <time>2014-01-11T15:43:06.886Z</time>
      </trkpt>
      <trkpt lat="47.50453" lon="6.76677">
        <ele>460</ele>
        <time>2014-01-11T15:43:11.850Z</time>
      </trkpt>
      <trkpt lat="47.50465" lon="6.76671">
        <ele>460</ele>
        <time>2014-01-11T15:43:16.916Z</time>
      </trkpt>
      <trkpt lat="47.50476" lon="6.76666">
        <ele>460</ele>
        <time>2014-01-11T15:43:21.840Z</time>
      </trkpt>
      <trkpt lat="47.50486" lon="6.76662">
        <ele>460</ele>
        <time>2014-01-11T15:43:26.916Z</time>
      </trkpt>
      <trkpt lat="47.50497" lon="6.76658">
        <ele>460</ele>
        <time>2014-01-11T15:43:31.841Z</time>
      </trkpt>
      <trkpt lat="47.50508" lon="6.76655">
        <ele>461</ele>
        <time>2014-01-11T15:43:36.910Z</time>
      </trkpt>
      <trkpt lat="47.50516" lon="6.76654">
        <ele>461</ele>
        <time>2014-01-11T15:43:41.832Z</time>
      </trkpt>
      <trkpt lat="47.50525" lon="6.76651">
        <ele>460</ele>
        <time>2014-01-11T15:43:46.898Z</time>
      </trkpt>
      <trkpt lat="47.50533" lon="6.76648">
        <ele>461</ele>
        <time>2014-01-11T15:43:51.852Z</time>
      </trkpt>
      <trkpt lat="47.50543" lon="6.76646">
        <ele>461</ele>
        <time>2014-01-11T15:43:56.916Z</time>
      </trkpt>
      <trkpt lat="47.50566" lon="6.76638">
        <ele>461</ele>
        <time>2014-01-11T15:44:06.889Z</time>
      </trkpt>
      <trkpt lat="47.50582" lon="6.76633">
        <ele>460</ele>
        <time>2014-01-11T15:44:11.849Z</time>
      </trkpt>
      <trkpt lat="47.50599" lon="6.76627">
        <ele>459</ele>
        <time>2014-01-11T15:44:16.915Z</time>
      </trkpt>
      <trkpt lat="47.50617" lon="6.76619">
        <ele>459</ele>
        <time>2014-01-11T15:44:21.855Z</time>
      </trkpt>
      <trkpt lat="47.50632" lon="6.76611">
        <ele>459</ele>
        <time>2014-01-11T15:44:26.867Z</time>
      </trkpt>
      <trkpt lat="47.50644" lon="6.76603">
        <ele>459</ele>
        <time>2014-01-11T15:44:31.830Z</time>
      </trkpt>
      <trkpt lat="47.5066" lon="6.76601">
        <ele>458</ele>
        <time>2014-01-11T15:44:36.897Z</time>
      </trkpt>
      <trkpt lat="47.50676" lon="6.76596">
        <ele>457</ele>
        <time>2014-01-11T15:44:41.843Z</time>
      </trkpt>
      <trkpt lat="47.50694" lon="6.76592">
        <ele>456</ele>
        <time>2014-01-11T15:44:46.898Z</time>
      </trkpt>
      <trkpt lat="47.5071" lon="6.76594">
        <ele>456</ele>
        <time>2014-01-11T15:44:51.853Z</time>
      </trkpt>
      <trkpt lat="47.50727" lon="6.76595">
        <ele>455</ele>
        <time>2014-01-11T15:44:56.919Z</time>
      </trkpt>
      <trkpt lat="47.50743" lon="6.76598">
        <ele>454</ele>
        <time>2014-01-11T15:45:01.846Z</time>
      </trkpt>
      <trkpt lat="47.50758" lon="6.766">
        <ele>454</ele>
        <time>2014-01-11T15:45:06.917Z</time>
      </trkpt>
      <trkpt lat="47.50776" lon="6.76597">
        <ele>454</ele>
        <time>2014-01-11T15:45:11.845Z</time>
      </trkpt>
      <trkpt lat="47.50793" lon="6.76593">
        <ele>453</ele>
        <time>2014-01-11T15:45:16.917Z</time>
      </trkpt>
      <trkpt lat="47.50808" lon="6.76591">
        <ele>453</ele>
        <time>2014-01-11T15:45:21.858Z</time>
      </trkpt>
      <trkpt lat="47.50815" lon="6.76595">
        <ele>452</ele>
        <time>2014-01-11T15:45:26.850Z</time>
      </trkpt>
      <trkpt lat="47.50828" lon="6.76606">
        <ele>450</ele>
        <time>2014-01-11T15:45:31.918Z</time>
      </trkpt>
      <trkpt lat="47.50839" lon="6.76634">
        <ele>449</ele>
        <time>2014-01-11T15:45:36.859Z</time>
      </trkpt>
      <trkpt lat="47.50855" lon="6.7667">
        <ele>448</ele>
        <time>2014-01-11T15:45:41.916Z</time>
      </trkpt>
      <trkpt lat="47.50871" lon="6.76712">
        <ele>447</ele>
        <time>2014-01-11T15:45:46.914Z</time>
      </trkpt>
      <trkpt lat="47.50886" lon="6.76758">
        <ele>445</ele>
        <time>2014-01-11T15:45:51.847Z</time>
      </trkpt>
      <trkpt lat="47.50972" lon="6.76899">
        <ele>438</ele>
        <time>2014-01-11T15:46:11.850Z</time>
      </trkpt>
      <trkpt lat="47.51" lon="6.76912">
        <ele>437</ele>
        <time>2014-01-11T15:46:16.913Z</time>
      </trkpt>
      <trkpt lat="47.51015" lon="6.76932">
        <ele>436</ele>
        <time>2014-01-11T15:46:21.849Z</time>
      </trkpt>
      <trkpt lat="47.51035" lon="6.76947">
        <ele>437</ele>
        <time>2014-01-11T15:46:26.899Z</time>
      </trkpt>
      <trkpt lat="47.51055" lon="6.76967">
        <ele>437</ele>
        <time>2014-01-11T15:46:31.850Z</time>
      </trkpt>
      <trkpt lat="47.51074" lon="6.76984">
        <ele>437</ele>
        <time>2014-01-11T15:46:36.915Z</time>
      </trkpt>
      <trkpt lat="47.51091" lon="6.76999">
        <ele>438</ele>
        <time>2014-01-11T15:46:41.857Z</time>
      </trkpt>
      <trkpt lat="47.51095" lon="6.77019">
        <ele>438</ele>
        <time>2014-01-11T15:46:46.911Z</time>
      </trkpt>
      <trkpt lat="47.51113" lon="6.77036">
        <ele>439</ele>
        <time>2014-01-11T15:46:51.852Z</time>
      </trkpt>
      <trkpt lat="47.51131" lon="6.77054">
        <ele>437</ele>
        <time>2014-01-11T15:46:56.847Z</time>
      </trkpt>
      <trkpt lat="47.5115" lon="6.77068">
        <ele>437</ele>
        <time>2014-01-11T15:47:01.905Z</time>
      </trkpt>
      <trkpt lat="47.51168" lon="6.77086">
        <ele>437</ele>
        <time>2014-01-11T15:47:06.847Z</time>
      </trkpt>
      <trkpt lat="47.51181" lon="6.77107">
        <ele>437</ele>
        <time>2014-01-11T15:47:11.918Z</time>
      </trkpt>
      <trkpt lat="47.51193" lon="6.7713">
        <ele>437</ele>
        <time>2014-01-11T15:47:16.917Z</time>
      </trkpt>
      <trkpt lat="47.51205" lon="6.77151">
        <ele>438</ele>
        <time>2014-01-11T15:47:21.859Z</time>
      </trkpt>
      <trkpt lat="47.51215" lon="6.77171">
        <ele>439</ele>
        <time>2014-01-11T15:47:26.920Z</time>
      </trkpt>
      <trkpt lat="47.51225" lon="6.77191">
        <ele>440</ele>
        <time>2014-01-11T15:47:31.888Z</time>
      </trkpt>
      <trkpt lat="47.51235" lon="6.77212">
        <ele>440</ele>
        <time>2014-01-11T15:47:36.907Z</time>
      </trkpt>
      <trkpt lat="47.51245" lon="6.77232">
        <ele>441</ele>
        <time>2014-01-11T15:47:41.918Z</time>
      </trkpt>
      <trkpt lat="47.51256" lon="6.7725">
        <ele>442</ele>
        <time>2014-01-11T15:47:46.849Z</time>
      </trkpt>
      <trkpt lat="47.51271" lon="6.77265">
        <ele>442</ele>
        <time>2014-01-11T15:47:51.918Z</time>
      </trkpt>
      <trkpt lat="47.51289" lon="6.77275">
        <ele>442</ele>
        <time>2014-01-11T15:47:56.903Z</time>
      </trkpt>
      <trkpt lat="47.51309" lon="6.77287">
        <ele>442</ele>
        <time>2014-01-11T15:48:01.852Z</time>
      </trkpt>
      <trkpt lat="47.51333" lon="6.7729">
        <ele>441</ele>
        <time>2014-01-11T15:48:06.854Z</time>
      </trkpt>
      <trkpt lat="47.51364" lon="6.77267">
        <ele>439</ele>
        <time>2014-01-11T15:48:12.062Z</time>
      </trkpt>
      <trkpt lat="47.51402" lon="6.77239">
        <ele>437</ele>
        <time>2014-01-11T15:48:16.841Z</time>
      </trkpt>
      <trkpt lat="47.5144" lon="6.7722">
        <ele>434</ele>
        <time>2014-01-11T15:48:21.916Z</time>
      </trkpt>
      <trkpt lat="47.51471" lon="6.77206">
        <ele>433</ele>
        <time>2014-01-11T15:48:26.844Z</time>
      </trkpt>
      <trkpt lat="47.51485" lon="6.77217">
        <ele>433</ele>
        <time>2014-01-11T15:48:31.920Z</time>
      </trkpt>
      <trkpt lat="47.51486" lon="6.77251">
        <ele>433</ele>
        <time>2014-01-11T15:48:36.854Z</time>
      </trkpt>
      <trkpt lat="47.51498" lon="6.77271">
        <ele>433</ele>
        <time>2014-01-11T15:48:41.915Z</time>
      </trkpt>
      <trkpt lat="47.51519" lon="6.77258">
        <ele>434</ele>
        <time>2014-01-11T15:48:46.844Z</time>
      </trkpt>
      <trkpt lat="47.51538" lon="6.77244">
        <ele>435</ele>
        <time>2014-01-11T15:48:51.913Z</time>
      </trkpt>
      <trkpt lat="47.51555" lon="6.77236">
        <ele>435</ele>
        <time>2014-01-11T15:48:56.846Z</time>
      </trkpt>
      <trkpt lat="47.51567" lon="6.77234">
        <ele>436</ele>
        <time>2014-01-11T15:49:01.915Z</time>
      </trkpt>
      <trkpt lat="47.51574" lon="6.77229">
        <ele>436</ele>
        <time>2014-01-11T15:49:06.850Z</time>
      </trkpt>
      <trkpt lat="47.51584" lon="6.77214">
        <ele>436</ele>
        <time>2014-01-11T15:49:11.915Z</time>
      </trkpt>
      <trkpt lat="47.51597" lon="6.77203">
        <ele>436</ele>
        <time>2014-01-11T15:49:16.915Z</time>
      </trkpt>
      <trkpt lat="47.51611" lon="6.77195">
        <ele>437</ele>
        <time>2014-01-11T15:49:21.853Z</time>
      </trkpt>
      <trkpt lat="47.51624" lon="6.77187">
        <ele>437</ele>
        <time>2014-01-11T15:49:26.914Z</time>
      </trkpt>
      <trkpt lat="47.51637" lon="6.7718">
        <ele>437</ele>
        <time>2014-01-11T15:49:31.844Z</time>
      </trkpt>
      <trkpt lat="47.51649" lon="6.77174">
        <ele>438</ele>
        <time>2014-01-11T15:49:36.915Z</time>
      </trkpt>
      <trkpt lat="47.5166" lon="6.77169">
        <ele>439</ele>
        <time>2014-01-11T15:49:41.842Z</time>
      </trkpt>
      <trkpt lat="47.51673" lon="6.77163">
        <ele>439</ele>
        <time>2014-01-11T15:49:46.914Z</time>
      </trkpt>
      <trkpt lat="47.51686" lon="6.77159">
        <ele>439</ele>
        <time>2014-01-11T15:49:51.844Z</time>
      </trkpt>
      <trkpt lat="47.51699" lon="6.77158">
        <ele>440</ele>
        <time>2014-01-11T15:49:56.923Z</time>
      </trkpt>
      <trkpt lat="47.51715" lon="6.77157">
        <ele>439</ele>
        <time>2014-01-11T15:50:01.814Z</time>
      </trkpt>
      <trkpt lat="47.51737" lon="6.77156">
        <ele>438</ele>
        <time>2014-01-11T15:50:06.918Z</time>
      </trkpt>
      <trkpt lat="47.51761" lon="6.77159">
        <ele>437</ele>
        <time>2014-01-11T15:50:11.850Z</time>
      </trkpt>
      <trkpt lat="47.51785" lon="6.7717">
        <ele>437</ele>
        <time>2014-01-11T15:50:16.892Z</time>
      </trkpt>
      <trkpt lat="47.51805" lon="6.77186">
        <ele>437</ele>
        <time>2014-01-11T15:50:21.847Z</time>
      </trkpt>
      <trkpt lat="47.51822" lon="6.77203">
        <ele>438</ele>
        <time>2014-01-11T15:50:26.910Z</time>
      </trkpt>
      <trkpt lat="47.51834" lon="6.77216">
        <ele>438</ele>
        <time>2014-01-11T15:50:31.853Z</time>
      </trkpt>
      <trkpt lat="47.51846" lon="6.77229">
        <ele>440</ele>
        <time>2014-01-11T15:50:36.912Z</time>
      </trkpt>
      <trkpt lat="47.51858" lon="6.77241">
        <ele>440</ele>
        <time>2014-01-11T15:50:41.844Z</time>
      </trkpt>
      <trkpt lat="47.51872" lon="6.77254">
        <ele>441</ele>
        <time>2014-01-11T15:50:46.915Z</time>
      </trkpt>
      <trkpt lat="47.51887" lon="6.77263">
        <ele>441</ele>
        <time>2014-01-11T15:50:51.854Z</time>
      </trkpt>
      <trkpt lat="47.51891" lon="6.7728">
        <ele>441</ele>
        <time>2014-01-11T15:50:56.900Z</time>
      </trkpt>
      <trkpt lat="47.51884" lon="6.773">
        <ele>442</ele>
        <time>2014-01-11T15:51:01.831Z</time>
      </trkpt>
      <trkpt lat="47.51876" lon="6.7732">
        <ele>443</ele>
        <time>2014-01-11T15:51:06.912Z</time>
      </trkpt>
      <trkpt lat="47.51866" lon="6.77339">
        <ele>445</ele>
        <time>2014-01-11T15:51:11.850Z</time>
      </trkpt>
      <trkpt lat="47.51855" lon="6.77359">
        <ele>446</ele>
        <time>2014-01-11T15:51:16.916Z</time>
      </trkpt>
      <trkpt lat="47.51846" lon="6.77387">
        <ele>446</ele>
        <time>2014-01-11T15:51:22.012Z</time>
      </trkpt>
      <trkpt lat="47.5184" lon="6.77413">
        <ele>446</ele>
        <time>2014-01-11T15:51:26.856Z</time>
      </trkpt>
      <trkpt lat="47.51835" lon="6.77433">
        <ele>447</ele>
        <time>2014-01-11T15:51:31.917Z</time>
      </trkpt>
      <trkpt lat="47.51833" lon="6.77457">
        <ele>448</ele>
        <time>2014-01-11T15:51:36.857Z</time>
      </trkpt>
      <trkpt lat="47.51832" lon="6.77482">
        <ele>449</ele>
        <time>2014-01-11T15:51:41.900Z</time>
      </trkpt>
      <trkpt lat="47.51823" lon="6.77495">
        <ele>450</ele>
        <time>2014-01-11T15:51:46.849Z</time>
      </trkpt>
      <trkpt lat="47.51811" lon="6.7749">
        <ele>449</ele>
        <time>2014-01-11T15:51:51.915Z</time>
      </trkpt>
      <trkpt lat="47.51807" lon="6.77485">
        <ele>448</ele>
        <time>2014-01-11T15:52:06.828Z</time>
      </trkpt>
      <trkpt lat="47.51805" lon="6.77487">
        <ele>449</ele>
        <time>2014-01-11T15:52:11.891Z</time>
      </trkpt>
      <trkpt lat="47.51806" lon="6.77485">
        <ele>449</ele>
        <time>2014-01-11T15:52:16.842Z</time>
      </trkpt>
      <trkpt lat="47.51807" lon="6.77486">
        <ele>449</ele>
        <time>2014-01-11T15:52:21.883Z</time>
      </trkpt>
      <trkpt lat="47.51806" lon="6.77489">
        <ele>448</ele>
        <time>2014-01-11T15:52:26.916Z</time>
      </trkpt>
      <trkpt lat="47.5181" lon="6.77487">
        <ele>448</ele>
        <time>2014-01-11T15:52:31.849Z</time>
      </trkpt>
      <trkpt lat="47.51811" lon="6.77485">
        <ele>448</ele>
        <time>2014-01-11T15:52:36.914Z</time>
      </trkpt>
      <trkpt lat="47.51812" lon="6.77486">
        <ele>449</ele>
        <time>2014-01-11T15:52:41.840Z</time>
      </trkpt>
      <trkpt lat="47.5181" lon="6.77478">
        <ele>449</ele>
        <time>2014-01-11T15:52:46.915Z</time>
      </trkpt>
      <trkpt lat="47.51805" lon="6.77481">
        <ele>450</ele>
        <time>2014-01-11T15:52:51.841Z</time>
      </trkpt>
      <trkpt lat="47.51808" lon="6.77481">
        <ele>450</ele>
        <time>2014-01-11T15:52:56.886Z</time>
      </trkpt>
      <trkpt lat="47.51807" lon="6.77483">
        <ele>450</ele>
        <time>2014-01-11T15:53:01.824Z</time>
      </trkpt>
      <trkpt lat="47.51808" lon="6.7748">
        <ele>450</ele>
        <time>2014-01-11T15:53:06.912Z</time>
      </trkpt>
      <trkpt lat="47.51806" lon="6.77482">
        <ele>450</ele>
        <time>2014-01-11T15:53:11.846Z</time>
      </trkpt>
      <trkpt lat="47.51804" lon="6.77483">
        <ele>449</ele>
        <time>2014-01-11T15:53:16.906Z</time>
      </trkpt>
      <trkpt lat="47.51805" lon="6.77484">
        <ele>449</ele>
        <time>2014-01-11T15:53:21.854Z</time>
      </trkpt>
      <trkpt lat="47.51806" lon="6.77481">
        <ele>448</ele>
        <time>2014-01-11T15:53:26.913Z</time>
      </trkpt>
      <trkpt lat="47.5181" lon="6.7748">
        <ele>450</ele>
        <time>2014-01-11T15:53:31.840Z</time>
      </trkpt>
      <trkpt lat="47.51805" lon="6.77477">
        <ele>450</ele>
        <time>2014-01-11T15:53:36.909Z</time>
      </trkpt>
      <trkpt lat="47.51803" lon="6.77477">
        <ele>451</ele>
        <time>2014-01-11T15:53:41.849Z</time>
      </trkpt>
      <trkpt lat="47.51807" lon="6.77479">
        <ele>451</ele>
        <time>2014-01-11T15:53:51.843Z</time>
      </trkpt>
      <trkpt lat="47.51809" lon="6.77481">
        <ele>449</ele>
        <time>2014-01-11T15:53:56.893Z</time>
      </trkpt>
      <trkpt lat="47.51815" lon="6.77481">
        <ele>450</ele>
        <time>2014-01-11T15:54:16.894Z</time>
      </trkpt>
      <trkpt lat="47.51815" lon="6.77481">
        <ele>451</ele>
        <time>2014-01-11T15:54:21.843Z</time>
      </trkpt>
      <trkpt lat="47.51814" lon="6.77482">
        <ele>451</ele>
        <time>2014-01-11T15:54:26.918Z</time>
      </trkpt>
      <trkpt lat="47.51815" lon="6.77485">
        <ele>450</ele>
        <time>2014-01-11T15:54:31.844Z</time>
      </trkpt>
      <trkpt lat="47.51813" lon="6.77491">
        <ele>450</ele>
        <time>2014-01-11T15:54:36.883Z</time>
      </trkpt>
      <trkpt lat="47.51813" lon="6.77486">
        <ele>450</ele>
        <time>2014-01-11T15:54:41.843Z</time>
      </trkpt>
      <trkpt lat="47.51814" lon="6.77484">
        <ele>451</ele>
        <time>2014-01-11T15:54:46.919Z</time>
      </trkpt>
      <trkpt lat="47.51814" lon="6.77484">
        <ele>451</ele>
        <time>2014-01-11T15:54:51.843Z</time>
      </trkpt>
      <trkpt lat="47.51814" lon="6.77482">
        <ele>451</ele>
        <time>2014-01-11T15:54:56.914Z</time>
      </trkpt>
      <trkpt lat="47.51814" lon="6.77482">
        <ele>451</ele>
        <time>2014-01-11T15:55:01.841Z</time>
      </trkpt>
      <trkpt lat="47.51814" lon="6.77482">
        <ele>451</ele>
        <time>2014-01-11T15:55:06.920Z</time>
      </trkpt>
      <trkpt lat="47.51814" lon="6.77481">
        <ele>451</ele>
        <time>2014-01-11T15:55:11.915Z</time>
      </trkpt>
      <trkpt lat="47.51814" lon="6.77481">
        <ele>450</ele>
        <time>2014-01-11T15:55:16.850Z</time>
      </trkpt>
      <trkpt lat="47.51814" lon="6.77481">
        <ele>450</ele>
        <time>2014-01-11T15:55:21.915Z</time>
      </trkpt>
      <trkpt lat="47.51815" lon="6.77481">
        <ele>450</ele>
        <time>2014-01-11T15:55:26.850Z</time>
      </trkpt>
      <trkpt lat="47.51814" lon="6.77482">
        <ele>449</ele>
        <time>2014-01-11T15:55:31.905Z</time>
      </trkpt>
      <trkpt lat="47.51813" lon="6.77482">
        <ele>449</ele>
        <time>2014-01-11T15:55:36.856Z</time>
      </trkpt>
      <trkpt lat="47.51814" lon="6.77482">
        <ele>449</ele>
        <time>2014-01-11T15:55:41.905Z</time>
      </trkpt>
      <trkpt lat="47.51813" lon="6.77482">
        <ele>449</ele>
        <time>2014-01-11T15:55:46.840Z</time>
      </trkpt>
      <trkpt lat="47.51814" lon="6.77482">
        <ele>449</ele>
        <time>2014-01-11T15:55:51.914Z</time>
      </trkpt>
      <trkpt lat="47.51815" lon="6.77484">
        <ele>449</ele>
        <time>2014-01-11T15:55:56.846Z</time>
      </trkpt>
      <trkpt lat="47.51815" lon="6.77483">
        <ele>449</ele>
        <time>2014-01-11T15:56:03.252Z</time>
      </trkpt>
      <trkpt lat="47.51817" lon="6.77481">
        <ele>450</ele>
        <time>2014-01-11T15:56:06.850Z</time>
      </trkpt>
      <trkpt lat="47.51817" lon="6.77481">
        <ele>450</ele>
        <time>2014-01-11T15:56:11.887Z</time>
      </trkpt>
      <trkpt lat="47.51816" lon="6.77482">
        <ele>450</ele>
        <time>2014-01-11T15:56:16.913Z</time>
      </trkpt>
      <trkpt lat="47.51815" lon="6.77482">
        <ele>450</ele>
        <time>2014-01-11T15:56:21.846Z</time>
      </trkpt>
      <trkpt lat="47.51815" lon="6.77481">
        <ele>451</ele>
        <time>2014-01-11T15:56:26.916Z</time>
      </trkpt>
      <trkpt lat="47.51815" lon="6.77481">
        <ele>450</ele>
        <time>2014-01-11T15:56:31.846Z</time>
      </trkpt>
      <trkpt lat="47.51815" lon="6.77481">
        <ele>450</ele>
        <time>2014-01-11T15:56:36.921Z</time>
      </trkpt>
      <trkpt lat="47.51814" lon="6.77481">
        <ele>450</ele>
        <time>2014-01-11T15:56:41.839Z</time>
      </trkpt>
      <trkpt lat="47.51814" lon="6.77481">
        <ele>450</ele>
        <time>2014-01-11T15:56:46.913Z</time>
      </trkpt>
      <trkpt lat="47.51814" lon="6.7748">
        <ele>449</ele>
        <time>2014-01-11T15:56:51.841Z</time>
      </trkpt>
      <trkpt lat="47.51814" lon="6.7748">
        <ele>449</ele>
        <time>2014-01-11T15:56:56.899Z</time>
      </trkpt>
      <trkpt lat="47.51814" lon="6.7748">
        <ele>449</ele>
        <time>2014-01-11T15:57:01.850Z</time>
      </trkpt>
      <trkpt lat="47.51815" lon="6.7748">
        <ele>449</ele>
        <time>2014-01-11T15:57:06.919Z</time>
      </trkpt>
      <trkpt lat="47.51815" lon="6.7748">
        <ele>449</ele>
        <time>2014-01-11T15:57:11.846Z</time>
      </trkpt>
      <trkpt lat="47.51815" lon="6.77481">
        <ele>449</ele>
        <time>2014-01-11T15:57:16.886Z</time>
      </trkpt>
      <trkpt lat="47.51815" lon="6.77481">
        <ele>449</ele>
        <time>2014-01-11T15:57:21.848Z</time>
      </trkpt>
      <trkpt lat="47.51816" lon="6.77481">
        <ele>449</ele>
        <time>2014-01-11T15:57:26.915Z</time>
      </trkpt>
      <trkpt lat="47.51815" lon="6.77481">
        <ele>449</ele>
        <time>2014-01-11T15:57:31.854Z</time>
      </trkpt>
      <trkpt lat="47.51815" lon="6.77481">
        <ele>449</ele>
        <time>2014-01-11T15:57:36.917Z</time>
      </trkpt>
      <trkpt lat="47.51816" lon="6.77481">
        <ele>449</ele>
        <time>2014-01-11T15:57:41.844Z</time>
      </trkpt>
      <trkpt lat="47.51814" lon="6.77483">
        <ele>449</ele>
        <time>2014-01-11T15:57:46.904Z</time>
      </trkpt>
      <trkpt lat="47.51815" lon="6.77483">
        <ele>449</ele>
        <time>2014-01-11T15:57:51.841Z</time>
      </trkpt>
      <trkpt lat="47.51815" lon="6.77483">
        <ele>449</ele>
        <time>2014-01-11T15:57:56.916Z</time>
      </trkpt>
      <trkpt lat="47.51815" lon="6.77483">
        <ele>449</ele>
        <time>2014-01-11T15:58:01.851Z</time>
      </trkpt>
      <trkpt lat="47.51816" lon="6.77483">
        <ele>449</ele>
        <time>2014-01-11T15:58:06.917Z</time>
      </trkpt>
      <trkpt lat="47.51816" lon="6.77482">
        <ele>449</ele>
        <time>2014-01-11T15:58:11.841Z</time>
      </trkpt>
      <trkpt lat="47.51816" lon="6.77482">
        <ele>449</ele>
        <time>2014-01-11T15:58:16.896Z</time>
      </trkpt>
      <trkpt lat="47.51816" lon="6.77482">
        <ele>449</ele>
        <time>2014-01-11T15:58:21.831Z</time>
      </trkpt>
      <trkpt lat="47.51817" lon="6.77481">
        <ele>449</ele>
        <time>2014-01-11T15:58:26.893Z</time>
      </trkpt>
      <trkpt lat="47.51817" lon="6.77481">
        <ele>449</ele>
        <time>2014-01-11T15:58:31.843Z</time>
      </trkpt>
      <trkpt lat="47.51817" lon="6.77481">
        <ele>449</ele>
        <time>2014-01-11T15:58:36.921Z</time>
      </trkpt>
      <trkpt lat="47.51818" lon="6.7748">
        <ele>449</ele>
        <time>2014-01-11T15:58:41.839Z</time>
      </trkpt>
      <trkpt lat="47.51818" lon="6.7748">
        <ele>449</ele>
        <time>2014-01-11T15:58:46.923Z</time>
      </trkpt>
      <trkpt lat="47.51818" lon="6.7748">
        <ele>449</ele>
        <time>2014-01-11T15:58:51.842Z</time>
      </trkpt>
      <trkpt lat="47.51818" lon="6.7748">
        <ele>449</ele>
        <time>2014-01-11T15:58:56.915Z</time>
      </trkpt>
      <trkpt lat="47.51818" lon="6.7748">
        <ele>449</ele>
        <time>2014-01-11T15:59:01.843Z</time>
      </trkpt>
      <trkpt lat="47.51818" lon="6.7748">
        <ele>450</ele>
        <time>2014-01-11T15:59:06.884Z</time>
      </trkpt>
      <trkpt lat="47.51818" lon="6.7748">
        <ele>450</ele>
        <time>2014-01-11T15:59:11.849Z</time>
      </trkpt>
      <trkpt lat="47.51817" lon="6.7748">
        <ele>450</ele>
        <time>2014-01-11T15:59:16.915Z</time>
      </trkpt>
      <trkpt lat="47.51818" lon="6.77481">
        <ele>451</ele>
        <time>2014-01-11T15:59:21.848Z</time>
      </trkpt>
      <trkpt lat="47.51818" lon="6.77482">
        <ele>451</ele>
        <time>2014-01-11T15:59:27.031Z</time>
      </trkpt>
      <trkpt lat="47.51818" lon="6.77481">
        <ele>451</ele>
        <time>2014-01-11T15:59:31.849Z</time>
      </trkpt>
      <trkpt lat="47.51818" lon="6.7748">
        <ele>451</ele>
        <time>2014-01-11T15:59:36.903Z</time>
      </trkpt>
      <trkpt lat="47.51816" lon="6.77481">
        <ele>450</ele>
        <time>2014-01-11T15:59:41.843Z</time>
      </trkpt>
      <trkpt lat="47.51817" lon="6.77481">
        <ele>450</ele>
        <time>2014-01-11T15:59:46.874Z</time>
      </trkpt>
      <trkpt lat="47.51817" lon="6.77481">
        <ele>450</ele>
        <time>2014-01-11T15:59:51.841Z</time>
      </trkpt>
      <trkpt lat="47.51817" lon="6.77481">
        <ele>450</ele>
        <time>2014-01-11T15:59:56.841Z</time>
      </trkpt>
      <trkpt lat="47.51817" lon="6.77481">
        <ele>450</ele>
        <time>2014-01-11T16:00:01.906Z</time>
      </trkpt>
      <trkpt lat="47.51817" lon="6.77481">
        <ele>450</ele>
        <time>2014-01-11T16:00:06.854Z</time>
      </trkpt>
      <trkpt lat="47.51817" lon="6.77481">
        <ele>450</ele>
        <time>2014-01-11T16:00:11.914Z</time>
      </trkpt>
      <trkpt lat="47.51817" lon="6.77481">
        <ele>450</ele>
        <time>2014-01-11T16:00:16.848Z</time>
      </trkpt>
      <trkpt lat="47.51817" lon="6.77481">
        <ele>450</ele>
        <time>2014-01-11T16:00:21.916Z</time>
      </trkpt>
      <trkpt lat="47.51817" lon="6.77481">
        <ele>450</ele>
        <time>2014-01-11T16:00:27.115Z</time>
      </trkpt>
      <trkpt lat="47.51817" lon="6.77481">
        <ele>450</ele>
        <time>2014-01-11T16:00:31.914Z</time>
      </trkpt>
      <trkpt lat="47.51817" lon="6.77481">
        <ele>450</ele>
        <time>2014-01-11T16:00:36.844Z</time>
      </trkpt>
      <trkpt lat="47.51815" lon="6.77481">
        <ele>449</ele>
        <time>2014-01-11T16:00:41.893Z</time>
      </trkpt>
      <trkpt lat="47.51812" lon="6.77483">
        <ele>449</ele>
        <time>2014-01-11T16:00:46.842Z</time>
      </trkpt>
      <trkpt lat="47.51812" lon="6.77484">
        <ele>449</ele>
        <time>2014-01-11T16:00:51.914Z</time>
      </trkpt>
      <trkpt lat="47.51812" lon="6.77485">
        <ele>451</ele>
        <time>2014-01-11T16:01:11.842Z</time>
      </trkpt>
      <trkpt lat="47.51812" lon="6.77486">
        <ele>451</ele>
        <time>2014-01-11T16:01:16.926Z</time>
      </trkpt>
      <trkpt lat="47.51812" lon="6.77488">
        <ele>451</ele>
        <time>2014-01-11T16:01:21.836Z</time>
      </trkpt>
      <trkpt lat="47.51814" lon="6.77488">
        <ele>451</ele>
        <time>2014-01-11T16:01:26.913Z</time>
      </trkpt>
      <trkpt lat="47.51815" lon="6.77489">
        <ele>451</ele>
        <time>2014-01-11T16:01:31.839Z</time>
      </trkpt>
      <trkpt lat="47.51816" lon="6.7749">
        <ele>451</ele>
        <time>2014-01-11T16:01:36.913Z</time>
      </trkpt>
      <trkpt lat="47.51815" lon="6.77488">
        <ele>451</ele>
        <time>2014-01-11T16:01:41.844Z</time>
      </trkpt>
      <trkpt lat="47.51817" lon="6.77489">
        <ele>452</ele>
        <time>2014-01-11T16:01:47.091Z</time>
      </trkpt>
      <trkpt lat="47.51822" lon="6.77487">
        <ele>453</ele>
        <time>2014-01-11T16:01:51.850Z</time>
      </trkpt>
      <trkpt lat="47.5182" lon="6.77487">
        <ele>453</ele>
        <time>2014-01-11T16:01:56.913Z</time>
      </trkpt>
      <trkpt lat="47.51817" lon="6.77491">
        <ele>451</ele>
        <time>2014-01-11T16:02:03.106Z</time>
      </trkpt>
      <trkpt lat="47.51815" lon="6.77489">
        <ele>449</ele>
        <time>2014-01-11T16:02:06.914Z</time>
      </trkpt>
      <trkpt lat="47.51815" lon="6.77488">
        <ele>449</ele>
        <time>2014-01-11T16:02:11.827Z</time>
      </trkpt>
      <trkpt lat="47.51813" lon="6.77485">
        <ele>451</ele>
        <time>2014-01-11T16:02:16.896Z</time>
      </trkpt>
      <trkpt lat="47.51814" lon="6.77485">
        <ele>450</ele>
        <time>2014-01-11T16:02:21.840Z</time>
      </trkpt>
      <trkpt lat="47.51813" lon="6.77485">
        <ele>450</ele>
        <time>2014-01-11T16:02:26.914Z</time>
      </trkpt>
      <trkpt lat="47.51815" lon="6.77487">
        <ele>450</ele>
        <time>2014-01-11T16:02:31.835Z</time>
      </trkpt>
      <trkpt lat="47.51815" lon="6.77487">
        <ele>450</ele>
        <time>2014-01-11T16:02:36.839Z</time>
      </trkpt>
      <trkpt lat="47.51813" lon="6.77484">
        <ele>450</ele>
        <time>2014-01-11T16:02:41.917Z</time>
      </trkpt>
      <trkpt lat="47.5181" lon="6.77484">
        <ele>450</ele>
        <time>2014-01-11T16:02:46.856Z</time>
      </trkpt>
      <trkpt lat="47.51811" lon="6.77483">
        <ele>451</ele>
        <time>2014-01-11T16:02:51.904Z</time>
      </trkpt>
      <trkpt lat="47.51815" lon="6.7748">
        <ele>451</ele>
        <time>2014-01-11T16:02:56.808Z</time>
      </trkpt>
      <trkpt lat="47.51816" lon="6.77481">
        <ele>451</ele>
        <time>2014-01-11T16:03:01.968Z</time>
      </trkpt>
      <trkpt lat="47.51817" lon="6.77482">
        <ele>451</ele>
        <time>2014-01-11T16:03:06.856Z</time>
      </trkpt>
      <trkpt lat="47.51817" lon="6.7748">
        <ele>450</ele>
        <time>2014-01-11T16:03:11.814Z</time>
      </trkpt>
      <trkpt lat="47.51814" lon="6.77477">
        <ele>449</ele>
        <time>2014-01-11T16:03:16.880Z</time>
      </trkpt>
    </trkseg>
  </trk>
</gpx>